<?xml version="1.0" encoding="UTF-8" standalone="no" ?>
<gpx xmlns="http://www.topografix.com/GPX/1/1" xmlns:xsi="http://www.w3.org/2001/XMLSchema-instance" xsi:schemaLocation="http://www.topografix.com/GPX/1/1 http://www.topografix.com/GPX/1/1/gpx.xsd" version="1.1" creator="VisuGPX - https://www.visugpx.com">
  <metadata>
    <name>Caroux</name>
    <desc><![CDATA[Trace dans le Caroux à tester.

]]></desc>
  </metadata>
  <trk>
    <name><![CDATA[ACTIVE LOG]]></name>
    <trkseg>
      <trkpt lat="43.57797" lon="3.00699">
        <ele>199.6108</ele>
        <time>2013-06-02T07:49:49Z</time>
      </trkpt>
      <trkpt lat="43.57822" lon="3.00744">
        <ele>201.0529</ele>
        <time>2013-06-02T07:50:07Z</time>
      </trkpt>
      <trkpt lat="43.57864" lon="3.00794">
        <ele>202.0143</ele>
        <time>2013-06-02T07:50:27Z</time>
      </trkpt>
      <trkpt lat="43.57915" lon="3.0087">
        <ele>204.4175</ele>
        <time>2013-06-02T07:50:52Z</time>
      </trkpt>
      <trkpt lat="43.57955" lon="3.00947">
        <ele>207.7821</ele>
        <time>2013-06-02T07:51:16Z</time>
      </trkpt>
      <trkpt lat="43.57985" lon="3.01027">
        <ele>208.7434</ele>
        <time>2013-06-02T07:51:37Z</time>
      </trkpt>
      <trkpt lat="43.58024" lon="3.01091">
        <ele>210.1854</ele>
        <time>2013-06-02T07:51:58Z</time>
      </trkpt>
      <trkpt lat="43.58055" lon="3.01148">
        <ele>213.0693</ele>
        <time>2013-06-02T07:52:17Z</time>
      </trkpt>
      <trkpt lat="43.58083" lon="3.01207">
        <ele>214.9919</ele>
        <time>2013-06-02T07:52:36Z</time>
      </trkpt>
      <trkpt lat="43.58091" lon="3.01295">
        <ele>215.4727</ele>
        <time>2013-06-02T07:52:55Z</time>
      </trkpt>
      <trkpt lat="43.58049" lon="3.01363">
        <ele>214.9919</ele>
        <time>2013-06-02T07:53:11Z</time>
      </trkpt>
      <trkpt lat="43.58025" lon="3.01431">
        <ele>213.55</ele>
        <time>2013-06-02T07:53:26Z</time>
      </trkpt>
      <trkpt lat="43.58022" lon="3.01443">
        <ele>214.9919</ele>
        <time>2013-06-02T07:53:29Z</time>
      </trkpt>
      <trkpt lat="43.58003" lon="3.01489">
        <ele>214.9919</ele>
        <time>2013-06-02T07:53:41Z</time>
      </trkpt>
      <trkpt lat="43.57944" lon="3.01567">
        <ele>215.9532</ele>
        <time>2013-06-02T07:54:08Z</time>
      </trkpt>
      <trkpt lat="43.57911" lon="3.01615">
        <ele>217.876</ele>
        <time>2013-06-02T07:54:26Z</time>
      </trkpt>
      <trkpt lat="43.57907" lon="3.01625">
        <ele>219.7986</ele>
        <time>2013-06-02T07:54:29Z</time>
      </trkpt>
      <trkpt lat="43.57904" lon="3.0164">
        <ele>217.876</ele>
        <time>2013-06-02T07:54:33Z</time>
      </trkpt>
      <trkpt lat="43.57904" lon="3.01648">
        <ele>216.434</ele>
        <time>2013-06-02T07:54:35Z</time>
      </trkpt>
      <trkpt lat="43.579" lon="3.01699">
        <ele>215.9532</ele>
        <time>2013-06-02T07:54:43Z</time>
      </trkpt>
      <trkpt lat="43.57898" lon="3.01713">
        <ele>214.5112</ele>
        <time>2013-06-02T07:54:45Z</time>
      </trkpt>
      <trkpt lat="43.57887" lon="3.01873">
        <ele>214.0306</ele>
        <time>2013-06-02T07:55:01Z</time>
      </trkpt>
      <trkpt lat="43.57878" lon="3.02">
        <ele>209.7048</ele>
        <time>2013-06-02T07:55:12Z</time>
      </trkpt>
      <trkpt lat="43.57877" lon="3.02012">
        <ele>209.7048</ele>
        <time>2013-06-02T07:55:13Z</time>
      </trkpt>
      <trkpt lat="43.57876" lon="3.02024">
        <ele>206.3401</ele>
        <time>2013-06-02T07:55:14Z</time>
      </trkpt>
      <trkpt lat="43.57876" lon="3.02035">
        <ele>206.3401</ele>
        <time>2013-06-02T07:55:15Z</time>
      </trkpt>
      <trkpt lat="43.57869" lon="3.02106">
        <ele>208.7434</ele>
        <time>2013-06-02T07:55:22Z</time>
      </trkpt>
      <trkpt lat="43.57878" lon="3.02186">
        <ele>208.2628</ele>
        <time>2013-06-02T07:55:31Z</time>
      </trkpt>
      <trkpt lat="43.57927" lon="3.02269">
        <ele>209.2241</ele>
        <time>2013-06-02T07:55:45Z</time>
      </trkpt>
      <trkpt lat="43.57963" lon="3.02301">
        <ele>207.7821</ele>
        <time>2013-06-02T07:55:53Z</time>
      </trkpt>
      <trkpt lat="43.57986" lon="3.02333">
        <ele>206.8207</ele>
        <time>2013-06-02T07:55:59Z</time>
      </trkpt>
      <trkpt lat="43.57989" lon="3.02363">
        <ele>210.1854</ele>
        <time>2013-06-02T07:56:03Z</time>
      </trkpt>
      <trkpt lat="43.57989" lon="3.02371">
        <ele>210.1854</ele>
        <time>2013-06-02T07:56:04Z</time>
      </trkpt>
      <trkpt lat="43.57953" lon="3.02424">
        <ele>210.1854</ele>
        <time>2013-06-02T07:56:14Z</time>
      </trkpt>
      <trkpt lat="43.5792" lon="3.02439">
        <ele>210.666</ele>
        <time>2013-06-02T07:56:21Z</time>
      </trkpt>
      <trkpt lat="43.57899" lon="3.02458">
        <ele>211.1467</ele>
        <time>2013-06-02T07:56:26Z</time>
      </trkpt>
      <trkpt lat="43.57901" lon="3.0248">
        <ele>211.6274</ele>
        <time>2013-06-02T07:56:31Z</time>
      </trkpt>
      <trkpt lat="43.57909" lon="3.02483">
        <ele>213.55</ele>
        <time>2013-06-02T07:56:34Z</time>
      </trkpt>
      <trkpt lat="43.57942" lon="3.02504">
        <ele>216.434</ele>
        <time>2013-06-02T07:56:51Z</time>
      </trkpt>
      <trkpt lat="43.57957" lon="3.02511">
        <ele>221.2406</ele>
        <time>2013-06-02T07:56:58Z</time>
      </trkpt>
      <trkpt lat="43.57959" lon="3.02512">
        <ele>221.2406</ele>
        <time>2013-06-02T07:56:59Z</time>
      </trkpt>
      <trkpt lat="43.57961" lon="3.02513">
        <ele>217.876</ele>
        <time>2013-06-02T07:57:00Z</time>
      </trkpt>
      <trkpt lat="43.57963" lon="3.02515">
        <ele>217.876</ele>
        <time>2013-06-02T07:57:01Z</time>
      </trkpt>
      <trkpt lat="43.57968" lon="3.02519">
        <ele>221.2406</ele>
        <time>2013-06-02T07:57:04Z</time>
      </trkpt>
      <trkpt lat="43.5797" lon="3.0252">
        <ele>221.2406</ele>
        <time>2013-06-02T07:57:05Z</time>
      </trkpt>
      <trkpt lat="43.57974" lon="3.02521">
        <ele>219.7986</ele>
        <time>2013-06-02T07:57:07Z</time>
      </trkpt>
      <trkpt lat="43.57982" lon="3.02523">
        <ele>222.2018</ele>
        <time>2013-06-02T07:57:11Z</time>
      </trkpt>
      <trkpt lat="43.5801" lon="3.02529">
        <ele>226.0471</ele>
        <time>2013-06-02T07:57:25Z</time>
      </trkpt>
      <trkpt lat="43.58025" lon="3.02534">
        <ele>227.4891</ele>
        <time>2013-06-02T07:57:33Z</time>
      </trkpt>
      <trkpt lat="43.58027" lon="3.02534">
        <ele>227.0085</ele>
        <time>2013-06-02T07:57:34Z</time>
      </trkpt>
      <trkpt lat="43.58056" lon="3.02534">
        <ele>228.9312</ele>
        <time>2013-06-02T07:57:49Z</time>
      </trkpt>
      <trkpt lat="43.58062" lon="3.02537">
        <ele>231.3344</ele>
        <time>2013-06-02T07:57:52Z</time>
      </trkpt>
      <trkpt lat="43.58083" lon="3.02556">
        <ele>228.9312</ele>
        <time>2013-06-02T07:58:04Z</time>
      </trkpt>
      <trkpt lat="43.58091" lon="3.02561">
        <ele>230.373</ele>
        <time>2013-06-02T07:58:08Z</time>
      </trkpt>
      <trkpt lat="43.58096" lon="3.02565">
        <ele>233.2571</ele>
        <time>2013-06-02T07:58:11Z</time>
      </trkpt>
      <trkpt lat="43.581" lon="3.02567">
        <ele>235.6603</ele>
        <time>2013-06-02T07:58:13Z</time>
      </trkpt>
      <trkpt lat="43.58107" lon="3.0257">
        <ele>234.6991</ele>
        <time>2013-06-02T07:58:17Z</time>
      </trkpt>
      <trkpt lat="43.58115" lon="3.02576">
        <ele>234.6991</ele>
        <time>2013-06-02T07:58:21Z</time>
      </trkpt>
      <trkpt lat="43.58118" lon="3.0258">
        <ele>234.2184</ele>
        <time>2013-06-02T07:58:23Z</time>
      </trkpt>
      <trkpt lat="43.58127" lon="3.02626">
        <ele>233.2571</ele>
        <time>2013-06-02T07:58:36Z</time>
      </trkpt>
      <trkpt lat="43.58126" lon="3.02655">
        <ele>236.6217</ele>
        <time>2013-06-02T07:58:45Z</time>
      </trkpt>
      <trkpt lat="43.58127" lon="3.02667">
        <ele>239.5055</ele>
        <time>2013-06-02T07:58:49Z</time>
      </trkpt>
      <trkpt lat="43.58111" lon="3.02709">
        <ele>239.5055</ele>
        <time>2013-06-02T07:59:03Z</time>
      </trkpt>
      <trkpt lat="43.58089" lon="3.02745">
        <ele>238.5443</ele>
        <time>2013-06-02T07:59:16Z</time>
      </trkpt>
      <trkpt lat="43.58077" lon="3.02767">
        <ele>239.0249</ele>
        <time>2013-06-02T07:59:23Z</time>
      </trkpt>
      <trkpt lat="43.58075" lon="3.02765">
        <ele>239.5055</ele>
        <time>2013-06-02T07:59:26Z</time>
      </trkpt>
      <trkpt lat="43.58077" lon="3.02761">
        <ele>236.6217</ele>
        <time>2013-06-02T07:59:29Z</time>
      </trkpt>
      <trkpt lat="43.58079" lon="3.0276">
        <ele>238.5443</ele>
        <time>2013-06-02T07:59:30Z</time>
      </trkpt>
      <trkpt lat="43.58083" lon="3.02756">
        <ele>240.467</ele>
        <time>2013-06-02T07:59:33Z</time>
      </trkpt>
      <trkpt lat="43.58098" lon="3.02731">
        <ele>242.3896</ele>
        <time>2013-06-02T07:59:54Z</time>
      </trkpt>
      <trkpt lat="43.58101" lon="3.02726">
        <ele>243.8315</ele>
        <time>2013-06-02T07:59:58Z</time>
      </trkpt>
      <trkpt lat="43.58087" lon="3.02747">
        <ele>242.3896</ele>
        <time>2013-06-02T08:00:09Z</time>
      </trkpt>
      <trkpt lat="43.5807" lon="3.02802">
        <ele>244.7928</ele>
        <time>2013-06-02T08:00:26Z</time>
      </trkpt>
      <trkpt lat="43.58095" lon="3.02813">
        <ele>243.8315</ele>
        <time>2013-06-02T08:00:40Z</time>
      </trkpt>
      <trkpt lat="43.58131" lon="3.02821">
        <ele>246.2349</ele>
        <time>2013-06-02T08:00:57Z</time>
      </trkpt>
      <trkpt lat="43.58134" lon="3.02823">
        <ele>247.196</ele>
        <time>2013-06-02T08:00:59Z</time>
      </trkpt>
      <trkpt lat="43.58137" lon="3.02825">
        <ele>249.1188</ele>
        <time>2013-06-02T08:01:01Z</time>
      </trkpt>
      <trkpt lat="43.58153" lon="3.02855">
        <ele>251.5221</ele>
        <time>2013-06-02T08:01:20Z</time>
      </trkpt>
      <trkpt lat="43.58165" lon="3.02879">
        <ele>253.9254</ele>
        <time>2013-06-02T08:01:37Z</time>
      </trkpt>
      <trkpt lat="43.58171" lon="3.02888">
        <ele>256.3287</ele>
        <time>2013-06-02T08:01:44Z</time>
      </trkpt>
      <trkpt lat="43.58173" lon="3.0289">
        <ele>257.7708</ele>
        <time>2013-06-02T08:01:46Z</time>
      </trkpt>
      <trkpt lat="43.58175" lon="3.02892">
        <ele>259.2126</ele>
        <time>2013-06-02T08:01:48Z</time>
      </trkpt>
      <trkpt lat="43.58182" lon="3.02906">
        <ele>259.6934</ele>
        <time>2013-06-02T08:01:58Z</time>
      </trkpt>
      <trkpt lat="43.58184" lon="3.02909">
        <ele>260.174</ele>
        <time>2013-06-02T08:02:00Z</time>
      </trkpt>
      <trkpt lat="43.58191" lon="3.02925">
        <ele>263.5386</ele>
        <time>2013-06-02T08:02:10Z</time>
      </trkpt>
      <trkpt lat="43.58192" lon="3.02926">
        <ele>263.5386</ele>
        <time>2013-06-02T08:02:11Z</time>
      </trkpt>
      <trkpt lat="43.58194" lon="3.02929">
        <ele>264.4999</ele>
        <time>2013-06-02T08:02:13Z</time>
      </trkpt>
      <trkpt lat="43.58201" lon="3.02947">
        <ele>268.3451</ele>
        <time>2013-06-02T08:02:23Z</time>
      </trkpt>
      <trkpt lat="43.58208" lon="3.02958">
        <ele>270.2677</ele>
        <time>2013-06-02T08:02:30Z</time>
      </trkpt>
      <trkpt lat="43.58226" lon="3.02972">
        <ele>273.1519</ele>
        <time>2013-06-02T08:02:46Z</time>
      </trkpt>
      <trkpt lat="43.58227" lon="3.02973">
        <ele>273.1519</ele>
        <time>2013-06-02T08:02:47Z</time>
      </trkpt>
      <trkpt lat="43.58262" lon="3.02966">
        <ele>276.5164</ele>
        <time>2013-06-02T08:03:14Z</time>
      </trkpt>
      <trkpt lat="43.58281" lon="3.02959">
        <ele>278.9197</ele>
        <time>2013-06-02T08:03:25Z</time>
      </trkpt>
      <trkpt lat="43.58334" lon="3.02953">
        <ele>280.8424</ele>
        <time>2013-06-02T08:03:50Z</time>
      </trkpt>
      <trkpt lat="43.5837" lon="3.02932">
        <ele>284.2069</ele>
        <time>2013-06-02T08:04:10Z</time>
      </trkpt>
      <trkpt lat="43.58385" lon="3.02898">
        <ele>287.0908</ele>
        <time>2013-06-02T08:04:24Z</time>
      </trkpt>
      <trkpt lat="43.58393" lon="3.02908">
        <ele>288.533</ele>
        <time>2013-06-02T08:04:30Z</time>
      </trkpt>
      <trkpt lat="43.58393" lon="3.02953">
        <ele>290.9362</ele>
        <time>2013-06-02T08:04:48Z</time>
      </trkpt>
      <trkpt lat="43.58421" lon="3.03001">
        <ele>292.8588</ele>
        <time>2013-06-02T08:05:10Z</time>
      </trkpt>
      <trkpt lat="43.58424" lon="3.03005">
        <ele>294.7814</ele>
        <time>2013-06-02T08:05:12Z</time>
      </trkpt>
      <trkpt lat="43.58444" lon="3.03029">
        <ele>296.2235</ele>
        <time>2013-06-02T08:05:25Z</time>
      </trkpt>
      <trkpt lat="43.58454" lon="3.0304">
        <ele>297.6654</ele>
        <time>2013-06-02T08:05:31Z</time>
      </trkpt>
      <trkpt lat="43.58479" lon="3.03064">
        <ele>301.0299</ele>
        <time>2013-06-02T08:05:45Z</time>
      </trkpt>
      <trkpt lat="43.58509" lon="3.03085">
        <ele>305.356</ele>
        <time>2013-06-02T08:06:02Z</time>
      </trkpt>
      <trkpt lat="43.58511" lon="3.03086">
        <ele>305.356</ele>
        <time>2013-06-02T08:06:03Z</time>
      </trkpt>
      <trkpt lat="43.58546" lon="3.03105">
        <ele>307.2786</ele>
        <time>2013-06-02T08:06:24Z</time>
      </trkpt>
      <trkpt lat="43.58554" lon="3.03109">
        <ele>306.3173</ele>
        <time>2013-06-02T08:06:28Z</time>
      </trkpt>
      <trkpt lat="43.58572" lon="3.03122">
        <ele>309.6819</ele>
        <time>2013-06-02T08:06:38Z</time>
      </trkpt>
      <trkpt lat="43.58573" lon="3.03123">
        <ele>309.6819</ele>
        <time>2013-06-02T08:06:39Z</time>
      </trkpt>
      <trkpt lat="43.58581" lon="3.03128">
        <ele>310.1625</ele>
        <time>2013-06-02T08:06:44Z</time>
      </trkpt>
      <trkpt lat="43.58591" lon="3.03128">
        <ele>312.5658</ele>
        <time>2013-06-02T08:06:49Z</time>
      </trkpt>
      <trkpt lat="43.58619" lon="3.0311">
        <ele>315.9304</ele>
        <time>2013-06-02T08:07:05Z</time>
      </trkpt>
      <trkpt lat="43.58666" lon="3.03102">
        <ele>319.7756</ele>
        <time>2013-06-02T08:07:26Z</time>
      </trkpt>
      <trkpt lat="43.58699" lon="3.03121">
        <ele>322.6597</ele>
        <time>2013-06-02T08:07:41Z</time>
      </trkpt>
      <trkpt lat="43.58739" lon="3.03157">
        <ele>325.063</ele>
        <time>2013-06-02T08:08:03Z</time>
      </trkpt>
      <trkpt lat="43.58734" lon="3.03198">
        <ele>326.5049</ele>
        <time>2013-06-02T08:08:18Z</time>
      </trkpt>
      <trkpt lat="43.58728" lon="3.03223">
        <ele>327.9468</ele>
        <time>2013-06-02T08:08:26Z</time>
      </trkpt>
      <trkpt lat="43.58711" lon="3.03237">
        <ele>327.4662</ele>
        <time>2013-06-02T08:08:33Z</time>
      </trkpt>
      <trkpt lat="43.58651" lon="3.03246">
        <ele>327.9468</ele>
        <time>2013-06-02T08:08:50Z</time>
      </trkpt>
      <trkpt lat="43.58639" lon="3.03262">
        <ele>328.4276</ele>
        <time>2013-06-02T08:08:54Z</time>
      </trkpt>
      <trkpt lat="43.58634" lon="3.03273">
        <ele>327.9468</ele>
        <time>2013-06-02T08:08:56Z</time>
      </trkpt>
      <trkpt lat="43.58619" lon="3.03289">
        <ele>326.9856</ele>
        <time>2013-06-02T08:09:00Z</time>
      </trkpt>
      <trkpt lat="43.58611" lon="3.03296">
        <ele>326.5049</ele>
        <time>2013-06-02T08:09:02Z</time>
      </trkpt>
      <trkpt lat="43.5859" lon="3.03322">
        <ele>326.0242</ele>
        <time>2013-06-02T08:09:08Z</time>
      </trkpt>
      <trkpt lat="43.58579" lon="3.03371">
        <ele>326.9856</ele>
        <time>2013-06-02T08:09:16Z</time>
      </trkpt>
      <trkpt lat="43.58582" lon="3.0339">
        <ele>328.4276</ele>
        <time>2013-06-02T08:09:20Z</time>
      </trkpt>
      <trkpt lat="43.58595" lon="3.0345">
        <ele>328.9083</ele>
        <time>2013-06-02T08:09:34Z</time>
      </trkpt>
      <trkpt lat="43.58606" lon="3.03493">
        <ele>328.9083</ele>
        <time>2013-06-02T08:09:43Z</time>
      </trkpt>
      <trkpt lat="43.5861" lon="3.03511">
        <ele>327.4662</ele>
        <time>2013-06-02T08:09:46Z</time>
      </trkpt>
      <trkpt lat="43.58617" lon="3.03545">
        <ele>326.5049</ele>
        <time>2013-06-02T08:09:53Z</time>
      </trkpt>
      <trkpt lat="43.5862" lon="3.03552">
        <ele>327.4662</ele>
        <time>2013-06-02T08:10:03Z</time>
      </trkpt>
      <trkpt lat="43.58617" lon="3.03544">
        <ele>327.4662</ele>
        <time>2013-06-02T08:10:08Z</time>
      </trkpt>
      <trkpt lat="43.58613" lon="3.0353">
        <ele>328.4276</ele>
        <time>2013-06-02T08:10:31Z</time>
      </trkpt>
      <trkpt lat="43.58611" lon="3.0352">
        <ele>328.4276</ele>
        <time>2013-06-02T08:10:36Z</time>
      </trkpt>
      <trkpt lat="43.58604" lon="3.0349">
        <ele>329.3889</ele>
        <time>2013-06-02T08:10:50Z</time>
      </trkpt>
      <trkpt lat="43.58601" lon="3.03478">
        <ele>331.7921</ele>
        <time>2013-06-02T08:10:55Z</time>
      </trkpt>
      <trkpt lat="43.58598" lon="3.03464">
        <ele>330.8309</ele>
        <time>2013-06-02T08:11:01Z</time>
      </trkpt>
      <trkpt lat="43.58594" lon="3.03439">
        <ele>330.3502</ele>
        <time>2013-06-02T08:11:09Z</time>
      </trkpt>
      <trkpt lat="43.58592" lon="3.0341">
        <ele>332.7535</ele>
        <time>2013-06-02T08:11:18Z</time>
      </trkpt>
      <trkpt lat="43.586" lon="3.03361">
        <ele>333.7147</ele>
        <time>2013-06-02T08:11:33Z</time>
      </trkpt>
      <trkpt lat="43.58614" lon="3.03344">
        <ele>332.7535</ele>
        <time>2013-06-02T08:11:41Z</time>
      </trkpt>
      <trkpt lat="43.58615" lon="3.03343">
        <ele>336.1182</ele>
        <time>2013-06-02T08:11:42Z</time>
      </trkpt>
      <trkpt lat="43.58617" lon="3.03342">
        <ele>336.1182</ele>
        <time>2013-06-02T08:11:43Z</time>
      </trkpt>
      <trkpt lat="43.5862" lon="3.03349">
        <ele>338.0408</ele>
        <time>2013-06-02T08:11:47Z</time>
      </trkpt>
      <trkpt lat="43.58621" lon="3.03368">
        <ele>339.9634</ele>
        <time>2013-06-02T08:11:56Z</time>
      </trkpt>
      <trkpt lat="43.58625" lon="3.03402">
        <ele>343.3279</ele>
        <time>2013-06-02T08:12:12Z</time>
      </trkpt>
      <trkpt lat="43.5864" lon="3.03451">
        <ele>345.2506</ele>
        <time>2013-06-02T08:12:32Z</time>
      </trkpt>
      <trkpt lat="43.58649" lon="3.0347">
        <ele>347.1732</ele>
        <time>2013-06-02T08:12:40Z</time>
      </trkpt>
      <trkpt lat="43.58652" lon="3.03475">
        <ele>348.6152</ele>
        <time>2013-06-02T08:12:42Z</time>
      </trkpt>
      <trkpt lat="43.58669" lon="3.0351">
        <ele>351.9799</ele>
        <time>2013-06-02T08:12:58Z</time>
      </trkpt>
      <trkpt lat="43.5867" lon="3.03513">
        <ele>351.9799</ele>
        <time>2013-06-02T08:12:59Z</time>
      </trkpt>
      <trkpt lat="43.58691" lon="3.03544">
        <ele>355.3445</ele>
        <time>2013-06-02T08:13:15Z</time>
      </trkpt>
      <trkpt lat="43.58713" lon="3.03584">
        <ele>358.709</ele>
        <time>2013-06-02T08:13:36Z</time>
      </trkpt>
      <trkpt lat="43.58714" lon="3.03586">
        <ele>358.709</ele>
        <time>2013-06-02T08:13:37Z</time>
      </trkpt>
      <trkpt lat="43.58716" lon="3.03589">
        <ele>360.6317</ele>
        <time>2013-06-02T08:13:39Z</time>
      </trkpt>
      <trkpt lat="43.58722" lon="3.03595">
        <ele>363.035</ele>
        <time>2013-06-02T08:13:43Z</time>
      </trkpt>
      <trkpt lat="43.58725" lon="3.03601">
        <ele>361.1124</ele>
        <time>2013-06-02T08:13:46Z</time>
      </trkpt>
      <trkpt lat="43.58752" lon="3.03623">
        <ele>363.035</ele>
        <time>2013-06-02T08:14:07Z</time>
      </trkpt>
      <trkpt lat="43.58755" lon="3.03626">
        <ele>363.035</ele>
        <time>2013-06-02T08:14:10Z</time>
      </trkpt>
      <trkpt lat="43.58789" lon="3.03657">
        <ele>362.5543</ele>
        <time>2013-06-02T08:14:27Z</time>
      </trkpt>
      <trkpt lat="43.58797" lon="3.03671">
        <ele>362.5543</ele>
        <time>2013-06-02T08:14:33Z</time>
      </trkpt>
      <trkpt lat="43.58806" lon="3.03754">
        <ele>361.1124</ele>
        <time>2013-06-02T08:14:50Z</time>
      </trkpt>
      <trkpt lat="43.58808" lon="3.03787">
        <ele>360.6317</ele>
        <time>2013-06-02T08:14:55Z</time>
      </trkpt>
      <trkpt lat="43.58792" lon="3.03863">
        <ele>362.5543</ele>
        <time>2013-06-02T08:15:13Z</time>
      </trkpt>
      <trkpt lat="43.58812" lon="3.03902">
        <ele>364.4769</ele>
        <time>2013-06-02T08:15:24Z</time>
      </trkpt>
      <trkpt lat="43.5882" lon="3.03911">
        <ele>366.3995</ele>
        <time>2013-06-02T08:15:28Z</time>
      </trkpt>
      <trkpt lat="43.58838" lon="3.03916">
        <ele>367.361</ele>
        <time>2013-06-02T08:15:35Z</time>
      </trkpt>
      <trkpt lat="43.58864" lon="3.03913">
        <ele>369.2837</ele>
        <time>2013-06-02T08:15:47Z</time>
      </trkpt>
      <trkpt lat="43.58878" lon="3.03911">
        <ele>371.6869</ele>
        <time>2013-06-02T08:15:54Z</time>
      </trkpt>
      <trkpt lat="43.58904" lon="3.0391">
        <ele>373.1289</ele>
        <time>2013-06-02T08:16:06Z</time>
      </trkpt>
      <trkpt lat="43.58937" lon="3.03922">
        <ele>371.6869</ele>
        <time>2013-06-02T08:16:21Z</time>
      </trkpt>
      <trkpt lat="43.58943" lon="3.03918">
        <ele>373.1289</ele>
        <time>2013-06-02T08:16:24Z</time>
      </trkpt>
      <trkpt lat="43.58957" lon="3.03895">
        <ele>376.0128</ele>
        <time>2013-06-02T08:16:35Z</time>
      </trkpt>
      <trkpt lat="43.58958" lon="3.03893">
        <ele>376.4935</ele>
        <time>2013-06-02T08:16:36Z</time>
      </trkpt>
      <trkpt lat="43.58968" lon="3.0387">
        <ele>379.858</ele>
        <time>2013-06-02T08:16:48Z</time>
      </trkpt>
      <trkpt lat="43.58967" lon="3.03864">
        <ele>380.3387</ele>
        <time>2013-06-02T08:17:00Z</time>
      </trkpt>
      <trkpt lat="43.58961" lon="3.0387">
        <ele>384.1841</ele>
        <time>2013-06-02T08:17:13Z</time>
      </trkpt>
      <trkpt lat="43.58959" lon="3.03871">
        <ele>381.3</ele>
        <time>2013-06-02T08:17:26Z</time>
      </trkpt>
      <trkpt lat="43.58959" lon="3.03871">
        <ele>381.7806</ele>
        <time>2013-06-02T08:18:12Z</time>
      </trkpt>
      <trkpt lat="43.58937" lon="3.03884">
        <ele>384.6648</ele>
        <time>2013-06-02T08:18:23Z</time>
      </trkpt>
      <trkpt lat="43.5892" lon="3.03865">
        <ele>387.068</ele>
        <time>2013-06-02T08:18:33Z</time>
      </trkpt>
      <trkpt lat="43.5892" lon="3.03861">
        <ele>387.068</ele>
        <time>2013-06-02T08:18:35Z</time>
      </trkpt>
      <trkpt lat="43.58925" lon="3.0386">
        <ele>388.51</ele>
        <time>2013-06-02T08:18:40Z</time>
      </trkpt>
      <trkpt lat="43.58929" lon="3.03861">
        <ele>389.4712</ele>
        <time>2013-06-02T08:18:42Z</time>
      </trkpt>
      <trkpt lat="43.5896" lon="3.03848">
        <ele>390.9132</ele>
        <time>2013-06-02T08:19:01Z</time>
      </trkpt>
      <trkpt lat="43.58978" lon="3.03822">
        <ele>393.7972</ele>
        <time>2013-06-02T08:19:16Z</time>
      </trkpt>
      <trkpt lat="43.58994" lon="3.03802">
        <ele>396.6812</ele>
        <time>2013-06-02T08:19:28Z</time>
      </trkpt>
      <trkpt lat="43.59007" lon="3.03783">
        <ele>400.5265</ele>
        <time>2013-06-02T08:19:39Z</time>
      </trkpt>
      <trkpt lat="43.59009" lon="3.03782">
        <ele>400.5265</ele>
        <time>2013-06-02T08:19:40Z</time>
      </trkpt>
      <trkpt lat="43.59021" lon="3.0377">
        <ele>401.0071</ele>
        <time>2013-06-02T08:19:48Z</time>
      </trkpt>
      <trkpt lat="43.59049" lon="3.03783">
        <ele>404.8523</ele>
        <time>2013-06-02T08:20:04Z</time>
      </trkpt>
      <trkpt lat="43.59057" lon="3.03792">
        <ele>404.3717</ele>
        <time>2013-06-02T08:20:09Z</time>
      </trkpt>
      <trkpt lat="43.59065" lon="3.03801">
        <ele>407.7363</ele>
        <time>2013-06-02T08:20:15Z</time>
      </trkpt>
      <trkpt lat="43.59067" lon="3.03802">
        <ele>407.7363</ele>
        <time>2013-06-02T08:20:16Z</time>
      </trkpt>
      <trkpt lat="43.5909" lon="3.03822">
        <ele>410.6202</ele>
        <time>2013-06-02T08:20:30Z</time>
      </trkpt>
      <trkpt lat="43.591" lon="3.03829">
        <ele>412.5428</ele>
        <time>2013-06-02T08:20:37Z</time>
      </trkpt>
      <trkpt lat="43.59102" lon="3.03831">
        <ele>413.9849</ele>
        <time>2013-06-02T08:20:39Z</time>
      </trkpt>
      <trkpt lat="43.59112" lon="3.03834">
        <ele>415.4269</ele>
        <time>2013-06-02T08:20:45Z</time>
      </trkpt>
      <trkpt lat="43.59133" lon="3.03835">
        <ele>415.4269</ele>
        <time>2013-06-02T08:20:59Z</time>
      </trkpt>
      <trkpt lat="43.59152" lon="3.03828">
        <ele>415.9075</ele>
        <time>2013-06-02T08:21:11Z</time>
      </trkpt>
      <trkpt lat="43.59156" lon="3.03826">
        <ele>417.3496</ele>
        <time>2013-06-02T08:21:13Z</time>
      </trkpt>
      <trkpt lat="43.5917" lon="3.03817">
        <ele>418.3108</ele>
        <time>2013-06-02T08:21:21Z</time>
      </trkpt>
      <trkpt lat="43.59175" lon="3.03815">
        <ele>419.7528</ele>
        <time>2013-06-02T08:21:23Z</time>
      </trkpt>
      <trkpt lat="43.59188" lon="3.03811">
        <ele>422.6367</ele>
        <time>2013-06-02T08:21:30Z</time>
      </trkpt>
      <trkpt lat="43.59215" lon="3.038">
        <ele>422.156</ele>
        <time>2013-06-02T08:21:45Z</time>
      </trkpt>
      <trkpt lat="43.59212" lon="3.03793">
        <ele>425.0402</ele>
        <time>2013-06-02T08:21:51Z</time>
      </trkpt>
      <trkpt lat="43.59208" lon="3.03793">
        <ele>424.0787</ele>
        <time>2013-06-02T08:21:53Z</time>
      </trkpt>
      <trkpt lat="43.59202" lon="3.03793">
        <ele>426.0013</ele>
        <time>2013-06-02T08:21:57Z</time>
      </trkpt>
      <trkpt lat="43.5919" lon="3.0379">
        <ele>428.8854</ele>
        <time>2013-06-02T08:22:05Z</time>
      </trkpt>
      <trkpt lat="43.59189" lon="3.03789">
        <ele>428.8854</ele>
        <time>2013-06-02T08:22:06Z</time>
      </trkpt>
      <trkpt lat="43.59142" lon="3.03769">
        <ele>432.25</ele>
        <time>2013-06-02T08:22:30Z</time>
      </trkpt>
      <trkpt lat="43.59118" lon="3.03739">
        <ele>435.1339</ele>
        <time>2013-06-02T08:22:45Z</time>
      </trkpt>
      <trkpt lat="43.59101" lon="3.03701">
        <ele>437.5371</ele>
        <time>2013-06-02T08:23:03Z</time>
      </trkpt>
      <trkpt lat="43.59096" lon="3.03692">
        <ele>438.9791</ele>
        <time>2013-06-02T08:23:07Z</time>
      </trkpt>
      <trkpt lat="43.59095" lon="3.03688">
        <ele>440.4213</ele>
        <time>2013-06-02T08:23:09Z</time>
      </trkpt>
      <trkpt lat="43.59073" lon="3.0365">
        <ele>444.2665</ele>
        <time>2013-06-02T08:23:29Z</time>
      </trkpt>
      <trkpt lat="43.5906" lon="3.03627">
        <ele>446.1891</ele>
        <time>2013-06-02T08:23:40Z</time>
      </trkpt>
      <trkpt lat="43.59058" lon="3.03623">
        <ele>448.5924</ele>
        <time>2013-06-02T08:23:42Z</time>
      </trkpt>
      <trkpt lat="43.59054" lon="3.03611">
        <ele>451.957</ele>
        <time>2013-06-02T08:23:48Z</time>
      </trkpt>
      <trkpt lat="43.59054" lon="3.03608">
        <ele>451.957</ele>
        <time>2013-06-02T08:23:49Z</time>
      </trkpt>
      <trkpt lat="43.59047" lon="3.03583">
        <ele>452.9182</ele>
        <time>2013-06-02T08:24:02Z</time>
      </trkpt>
      <trkpt lat="43.59033" lon="3.0354">
        <ele>454.8408</ele>
        <time>2013-06-02T08:24:21Z</time>
      </trkpt>
      <trkpt lat="43.59026" lon="3.0349">
        <ele>457.725</ele>
        <time>2013-06-02T08:24:39Z</time>
      </trkpt>
      <trkpt lat="43.59028" lon="3.03459">
        <ele>461.0895</ele>
        <time>2013-06-02T08:24:51Z</time>
      </trkpt>
      <trkpt lat="43.5903" lon="3.03452">
        <ele>462.5314</ele>
        <time>2013-06-02T08:24:54Z</time>
      </trkpt>
      <trkpt lat="43.59037" lon="3.03424">
        <ele>465.8961</ele>
        <time>2013-06-02T08:25:06Z</time>
      </trkpt>
      <trkpt lat="43.59038" lon="3.03422">
        <ele>465.8961</ele>
        <time>2013-06-02T08:25:07Z</time>
      </trkpt>
      <trkpt lat="43.59048" lon="3.03397">
        <ele>468.78</ele>
        <time>2013-06-02T08:25:18Z</time>
      </trkpt>
      <trkpt lat="43.59055" lon="3.03372">
        <ele>469.7413</ele>
        <time>2013-06-02T08:25:30Z</time>
      </trkpt>
      <trkpt lat="43.59061" lon="3.03375">
        <ele>471.6639</ele>
        <time>2013-06-02T08:25:37Z</time>
      </trkpt>
      <trkpt lat="43.59061" lon="3.03379">
        <ele>473.1061</ele>
        <time>2013-06-02T08:25:39Z</time>
      </trkpt>
      <trkpt lat="43.59066" lon="3.03402">
        <ele>476.4706</ele>
        <time>2013-06-02T08:25:50Z</time>
      </trkpt>
      <trkpt lat="43.59066" lon="3.03404">
        <ele>476.4706</ele>
        <time>2013-06-02T08:25:51Z</time>
      </trkpt>
      <trkpt lat="43.59073" lon="3.03429">
        <ele>479.8351</ele>
        <time>2013-06-02T08:26:07Z</time>
      </trkpt>
      <trkpt lat="43.59078" lon="3.0344">
        <ele>480.3159</ele>
        <time>2013-06-02T08:26:14Z</time>
      </trkpt>
      <trkpt lat="43.59088" lon="3.03456">
        <ele>483.6804</ele>
        <time>2013-06-02T08:26:25Z</time>
      </trkpt>
      <trkpt lat="43.5909" lon="3.03458">
        <ele>485.1224</ele>
        <time>2013-06-02T08:26:27Z</time>
      </trkpt>
      <trkpt lat="43.59108" lon="3.03475">
        <ele>488.4872</ele>
        <time>2013-06-02T08:26:41Z</time>
      </trkpt>
      <trkpt lat="43.59127" lon="3.03488">
        <ele>491.8517</ele>
        <time>2013-06-02T08:26:58Z</time>
      </trkpt>
      <trkpt lat="43.59143" lon="3.035">
        <ele>495.2162</ele>
        <time>2013-06-02T08:27:12Z</time>
      </trkpt>
      <trkpt lat="43.59145" lon="3.03502">
        <ele>496.1777</ele>
        <time>2013-06-02T08:27:14Z</time>
      </trkpt>
      <trkpt lat="43.59172" lon="3.03513">
        <ele>498.1003</ele>
        <time>2013-06-02T08:27:33Z</time>
      </trkpt>
      <trkpt lat="43.59188" lon="3.03517">
        <ele>500.5035</ele>
        <time>2013-06-02T08:27:43Z</time>
      </trkpt>
      <trkpt lat="43.59192" lon="3.03519">
        <ele>501.4648</ele>
        <time>2013-06-02T08:27:45Z</time>
      </trkpt>
      <trkpt lat="43.59195" lon="3.0352">
        <ele>502.9067</ele>
        <time>2013-06-02T08:27:47Z</time>
      </trkpt>
      <trkpt lat="43.59205" lon="3.0352">
        <ele>502.9067</ele>
        <time>2013-06-02T08:27:53Z</time>
      </trkpt>
      <trkpt lat="43.59226" lon="3.03507">
        <ele>506.2715</ele>
        <time>2013-06-02T08:28:05Z</time>
      </trkpt>
      <trkpt lat="43.59229" lon="3.03505">
        <ele>505.7909</ele>
        <time>2013-06-02T08:28:07Z</time>
      </trkpt>
      <trkpt lat="43.5925" lon="3.03488">
        <ele>508.6747</ele>
        <time>2013-06-02T08:28:20Z</time>
      </trkpt>
      <trkpt lat="43.59265" lon="3.03478">
        <ele>511.078</ele>
        <time>2013-06-02T08:28:29Z</time>
      </trkpt>
      <trkpt lat="43.59286" lon="3.03467">
        <ele>514.9233</ele>
        <time>2013-06-02T08:28:41Z</time>
      </trkpt>
      <trkpt lat="43.59305" lon="3.0346">
        <ele>517.8073</ele>
        <time>2013-06-02T08:28:56Z</time>
      </trkpt>
      <trkpt lat="43.59307" lon="3.03458">
        <ele>517.3267</ele>
        <time>2013-06-02T08:28:58Z</time>
      </trkpt>
      <trkpt lat="43.59309" lon="3.03458">
        <ele>516.3652</ele>
        <time>2013-06-02T08:29:03Z</time>
      </trkpt>
      <trkpt lat="43.59313" lon="3.03455">
        <ele>516.3652</ele>
        <time>2013-06-02T08:29:14Z</time>
      </trkpt>
      <trkpt lat="43.59318" lon="3.03453">
        <ele>517.3267</ele>
        <time>2013-06-02T08:29:18Z</time>
      </trkpt>
      <trkpt lat="43.59327" lon="3.03451">
        <ele>520.2106</ele>
        <time>2013-06-02T08:29:24Z</time>
      </trkpt>
      <trkpt lat="43.59333" lon="3.0345">
        <ele>519.7299</ele>
        <time>2013-06-02T08:29:28Z</time>
      </trkpt>
      <trkpt lat="43.59336" lon="3.03448">
        <ele>523.0946</ele>
        <time>2013-06-02T08:29:31Z</time>
      </trkpt>
      <trkpt lat="43.59347" lon="3.0344">
        <ele>524.5365</ele>
        <time>2013-06-02T08:29:41Z</time>
      </trkpt>
      <trkpt lat="43.5935" lon="3.03438">
        <ele>525.0172</ele>
        <time>2013-06-02T08:29:43Z</time>
      </trkpt>
      <trkpt lat="43.59356" lon="3.03436">
        <ele>525.0172</ele>
        <time>2013-06-02T08:29:48Z</time>
      </trkpt>
      <trkpt lat="43.59374" lon="3.03419">
        <ele>526.9398</ele>
        <time>2013-06-02T08:29:59Z</time>
      </trkpt>
      <trkpt lat="43.59387" lon="3.03404">
        <ele>529.8237</ele>
        <time>2013-06-02T08:30:12Z</time>
      </trkpt>
      <trkpt lat="43.59411" lon="3.0338">
        <ele>532.7078</ele>
        <time>2013-06-02T08:30:31Z</time>
      </trkpt>
      <trkpt lat="43.59439" lon="3.03361">
        <ele>536.5531</ele>
        <time>2013-06-02T08:30:52Z</time>
      </trkpt>
      <trkpt lat="43.5946" lon="3.03355">
        <ele>540.3983</ele>
        <time>2013-06-02T08:31:06Z</time>
      </trkpt>
      <trkpt lat="43.59484" lon="3.03345">
        <ele>542.8015</ele>
        <time>2013-06-02T08:31:22Z</time>
      </trkpt>
      <trkpt lat="43.59486" lon="3.03345">
        <ele>543.2821</ele>
        <time>2013-06-02T08:31:23Z</time>
      </trkpt>
      <trkpt lat="43.5949" lon="3.03343">
        <ele>543.2821</ele>
        <time>2013-06-02T08:31:26Z</time>
      </trkpt>
      <trkpt lat="43.59519" lon="3.03331">
        <ele>546.1663</ele>
        <time>2013-06-02T08:31:46Z</time>
      </trkpt>
      <trkpt lat="43.59542" lon="3.03323">
        <ele>547.6082</ele>
        <time>2013-06-02T08:32:00Z</time>
      </trkpt>
      <trkpt lat="43.59545" lon="3.0332">
        <ele>550.0115</ele>
        <time>2013-06-02T08:32:02Z</time>
      </trkpt>
      <trkpt lat="43.59554" lon="3.0332">
        <ele>550.0115</ele>
        <time>2013-06-02T08:32:09Z</time>
      </trkpt>
      <trkpt lat="43.59571" lon="3.03312">
        <ele>553.8567</ele>
        <time>2013-06-02T08:32:20Z</time>
      </trkpt>
      <trkpt lat="43.5959" lon="3.03304">
        <ele>558.1829</ele>
        <time>2013-06-02T08:32:33Z</time>
      </trkpt>
      <trkpt lat="43.59591" lon="3.03303">
        <ele>558.1829</ele>
        <time>2013-06-02T08:32:34Z</time>
      </trkpt>
      <trkpt lat="43.59614" lon="3.03296">
        <ele>561.5474</ele>
        <time>2013-06-02T08:32:48Z</time>
      </trkpt>
      <trkpt lat="43.59621" lon="3.03295">
        <ele>562.0281</ele>
        <time>2013-06-02T08:32:52Z</time>
      </trkpt>
      <trkpt lat="43.59639" lon="3.03289">
        <ele>565.3926</ele>
        <time>2013-06-02T08:33:05Z</time>
      </trkpt>
      <trkpt lat="43.59659" lon="3.03287">
        <ele>568.2764</ele>
        <time>2013-06-02T08:33:18Z</time>
      </trkpt>
      <trkpt lat="43.59682" lon="3.03291">
        <ele>567.7957</ele>
        <time>2013-06-02T08:33:32Z</time>
      </trkpt>
      <trkpt lat="43.59697" lon="3.03295">
        <ele>571.1604</ele>
        <time>2013-06-02T08:33:40Z</time>
      </trkpt>
      <trkpt lat="43.59726" lon="3.03298">
        <ele>574.5251</ele>
        <time>2013-06-02T08:33:55Z</time>
      </trkpt>
      <trkpt lat="43.59749" lon="3.03303">
        <ele>574.5251</ele>
        <time>2013-06-02T08:34:05Z</time>
      </trkpt>
      <trkpt lat="43.5976" lon="3.03302">
        <ele>576.4478</ele>
        <time>2013-06-02T08:34:11Z</time>
      </trkpt>
      <trkpt lat="43.59772" lon="3.03305">
        <ele>579.8123</ele>
        <time>2013-06-02T08:34:18Z</time>
      </trkpt>
      <trkpt lat="43.59787" lon="3.03309">
        <ele>578.8511</ele>
        <time>2013-06-02T08:34:26Z</time>
      </trkpt>
      <trkpt lat="43.59806" lon="3.0331">
        <ele>583.6575</ele>
        <time>2013-06-02T08:34:37Z</time>
      </trkpt>
      <trkpt lat="43.59815" lon="3.03307">
        <ele>585.5801</ele>
        <time>2013-06-02T08:34:42Z</time>
      </trkpt>
      <trkpt lat="43.59824" lon="3.03307">
        <ele>587.5027</ele>
        <time>2013-06-02T08:34:49Z</time>
      </trkpt>
      <trkpt lat="43.59858" lon="3.03299">
        <ele>588.4644</ele>
        <time>2013-06-02T08:35:10Z</time>
      </trkpt>
      <trkpt lat="43.59862" lon="3.03298">
        <ele>591.3481</ele>
        <time>2013-06-02T08:35:12Z</time>
      </trkpt>
      <trkpt lat="43.59865" lon="3.03295">
        <ele>593.2708</ele>
        <time>2013-06-02T08:35:14Z</time>
      </trkpt>
      <trkpt lat="43.59868" lon="3.03293">
        <ele>592.3096</ele>
        <time>2013-06-02T08:35:16Z</time>
      </trkpt>
      <trkpt lat="43.59879" lon="3.03291">
        <ele>591.8289</ele>
        <time>2013-06-02T08:35:24Z</time>
      </trkpt>
      <trkpt lat="43.59882" lon="3.0329">
        <ele>592.3096</ele>
        <time>2013-06-02T08:35:26Z</time>
      </trkpt>
      <trkpt lat="43.59887" lon="3.0329">
        <ele>593.7515</ele>
        <time>2013-06-02T08:35:30Z</time>
      </trkpt>
      <trkpt lat="43.59905" lon="3.03284">
        <ele>594.2322</ele>
        <time>2013-06-02T08:35:42Z</time>
      </trkpt>
      <trkpt lat="43.59907" lon="3.03281">
        <ele>596.1548</ele>
        <time>2013-06-02T08:35:44Z</time>
      </trkpt>
      <trkpt lat="43.5991" lon="3.0328">
        <ele>597.116</ele>
        <time>2013-06-02T08:35:46Z</time>
      </trkpt>
      <trkpt lat="43.59925" lon="3.03272">
        <ele>600</ele>
        <time>2013-06-02T08:35:58Z</time>
      </trkpt>
      <trkpt lat="43.59939" lon="3.03261">
        <ele>602.4031</ele>
        <time>2013-06-02T08:36:08Z</time>
      </trkpt>
      <trkpt lat="43.59954" lon="3.03253">
        <ele>605.7681</ele>
        <time>2013-06-02T08:36:21Z</time>
      </trkpt>
      <trkpt lat="43.59976" lon="3.03246">
        <ele>606.7292</ele>
        <time>2013-06-02T08:36:35Z</time>
      </trkpt>
      <trkpt lat="43.59979" lon="3.03245">
        <ele>607.21</ele>
        <time>2013-06-02T08:36:37Z</time>
      </trkpt>
      <trkpt lat="43.59996" lon="3.03242">
        <ele>609.1326</ele>
        <time>2013-06-02T08:36:49Z</time>
      </trkpt>
      <trkpt lat="43.60011" lon="3.03237">
        <ele>612.4971</ele>
        <time>2013-06-02T08:37:01Z</time>
      </trkpt>
      <trkpt lat="43.60025" lon="3.03233">
        <ele>614.4197</ele>
        <time>2013-06-02T08:37:11Z</time>
      </trkpt>
      <trkpt lat="43.60032" lon="3.03229">
        <ele>614.4197</ele>
        <time>2013-06-02T08:37:15Z</time>
      </trkpt>
      <trkpt lat="43.60053" lon="3.03224">
        <ele>615.3811</ele>
        <time>2013-06-02T08:37:30Z</time>
      </trkpt>
      <trkpt lat="43.60058" lon="3.03223">
        <ele>617.3037</ele>
        <time>2013-06-02T08:37:34Z</time>
      </trkpt>
      <trkpt lat="43.60081" lon="3.03224">
        <ele>619.2263</ele>
        <time>2013-06-02T08:37:50Z</time>
      </trkpt>
      <trkpt lat="43.60101" lon="3.03216">
        <ele>622.1104</ele>
        <time>2013-06-02T08:38:04Z</time>
      </trkpt>
      <trkpt lat="43.60104" lon="3.03213">
        <ele>624.033</ele>
        <time>2013-06-02T08:38:07Z</time>
      </trkpt>
      <trkpt lat="43.60123" lon="3.03199">
        <ele>627.3977</ele>
        <time>2013-06-02T08:38:21Z</time>
      </trkpt>
      <trkpt lat="43.60138" lon="3.03192">
        <ele>630.2815</ele>
        <time>2013-06-02T08:38:32Z</time>
      </trkpt>
      <trkpt lat="43.60163" lon="3.03184">
        <ele>633.646</ele>
        <time>2013-06-02T08:38:53Z</time>
      </trkpt>
      <trkpt lat="43.60167" lon="3.03183">
        <ele>633.646</ele>
        <time>2013-06-02T08:38:56Z</time>
      </trkpt>
      <trkpt lat="43.60184" lon="3.03187">
        <ele>638.9336</ele>
        <time>2013-06-02T08:39:12Z</time>
      </trkpt>
      <trkpt lat="43.60185" lon="3.03187">
        <ele>638.9336</ele>
        <time>2013-06-02T08:39:13Z</time>
      </trkpt>
      <trkpt lat="43.60191" lon="3.03189">
        <ele>640.3755</ele>
        <time>2013-06-02T08:39:18Z</time>
      </trkpt>
      <trkpt lat="43.60209" lon="3.03194">
        <ele>642.7788</ele>
        <time>2013-06-02T08:39:30Z</time>
      </trkpt>
      <trkpt lat="43.60212" lon="3.03195">
        <ele>641.8174</ele>
        <time>2013-06-02T08:39:32Z</time>
      </trkpt>
      <trkpt lat="43.60226" lon="3.03194">
        <ele>640.856</ele>
        <time>2013-06-02T08:39:44Z</time>
      </trkpt>
      <trkpt lat="43.60231" lon="3.03195">
        <ele>645.1819</ele>
        <time>2013-06-02T08:39:48Z</time>
      </trkpt>
      <trkpt lat="43.60231" lon="3.03195">
        <ele>645.1819</ele>
        <time>2013-06-02T08:39:49Z</time>
      </trkpt>
      <trkpt lat="43.6025" lon="3.03201">
        <ele>644.7012</ele>
        <time>2013-06-02T08:40:03Z</time>
      </trkpt>
      <trkpt lat="43.60254" lon="3.03202">
        <ele>646.1433</ele>
        <time>2013-06-02T08:40:05Z</time>
      </trkpt>
      <trkpt lat="43.60256" lon="3.03203">
        <ele>642.2981</ele>
        <time>2013-06-02T08:40:07Z</time>
      </trkpt>
      <trkpt lat="43.60257" lon="3.03203">
        <ele>642.2981</ele>
        <time>2013-06-02T08:40:08Z</time>
      </trkpt>
      <trkpt lat="43.6026" lon="3.03204">
        <ele>639.4141</ele>
        <time>2013-06-02T08:40:10Z</time>
      </trkpt>
      <trkpt lat="43.60262" lon="3.03204">
        <ele>645.1819</ele>
        <time>2013-06-02T08:40:11Z</time>
      </trkpt>
      <trkpt lat="43.60263" lon="3.03205">
        <ele>645.1819</ele>
        <time>2013-06-02T08:40:12Z</time>
      </trkpt>
      <trkpt lat="43.60265" lon="3.03205">
        <ele>649.0271</ele>
        <time>2013-06-02T08:40:13Z</time>
      </trkpt>
      <trkpt lat="43.60266" lon="3.03205">
        <ele>649.0271</ele>
        <time>2013-06-02T08:40:14Z</time>
      </trkpt>
      <trkpt lat="43.60274" lon="3.03204">
        <ele>650.9497</ele>
        <time>2013-06-02T08:40:20Z</time>
      </trkpt>
      <trkpt lat="43.60276" lon="3.03204">
        <ele>652.3918</ele>
        <time>2013-06-02T08:40:22Z</time>
      </trkpt>
      <trkpt lat="43.60278" lon="3.03205">
        <ele>651.9111</ele>
        <time>2013-06-02T08:40:24Z</time>
      </trkpt>
      <trkpt lat="43.60283" lon="3.03206">
        <ele>650.9497</ele>
        <time>2013-06-02T08:40:27Z</time>
      </trkpt>
      <trkpt lat="43.60293" lon="3.03204">
        <ele>652.8726</ele>
        <time>2013-06-02T08:40:35Z</time>
      </trkpt>
      <trkpt lat="43.60299" lon="3.03203">
        <ele>653.834</ele>
        <time>2013-06-02T08:40:39Z</time>
      </trkpt>
      <trkpt lat="43.60307" lon="3.03207">
        <ele>653.834</ele>
        <time>2013-06-02T08:40:51Z</time>
      </trkpt>
      <trkpt lat="43.60307" lon="3.03207">
        <ele>653.834</ele>
        <time>2013-06-02T08:40:52Z</time>
      </trkpt>
      <trkpt lat="43.60306" lon="3.03207">
        <ele>655.2759</ele>
        <time>2013-06-02T08:41:21Z</time>
      </trkpt>
      <trkpt lat="43.60306" lon="3.03207">
        <ele>654.3147</ele>
        <time>2013-06-02T08:41:53Z</time>
      </trkpt>
      <trkpt lat="43.60306" lon="3.03207">
        <ele>650.9497</ele>
        <time>2013-06-02T08:42:07Z</time>
      </trkpt>
      <trkpt lat="43.60306" lon="3.03207">
        <ele>651.4304</ele>
        <time>2013-06-02T08:42:16Z</time>
      </trkpt>
      <trkpt lat="43.60306" lon="3.03207">
        <ele>655.2759</ele>
        <time>2013-06-02T08:42:17Z</time>
      </trkpt>
      <trkpt lat="43.60306" lon="3.03207">
        <ele>655.2759</ele>
        <time>2013-06-02T08:42:18Z</time>
      </trkpt>
      <trkpt lat="43.60306" lon="3.03207">
        <ele>650.4692</ele>
        <time>2013-06-02T08:42:22Z</time>
      </trkpt>
      <trkpt lat="43.60306" lon="3.03207">
        <ele>650.4692</ele>
        <time>2013-06-02T08:42:23Z</time>
      </trkpt>
      <trkpt lat="43.60306" lon="3.03207">
        <ele>653.3533</ele>
        <time>2013-06-02T08:42:25Z</time>
      </trkpt>
      <trkpt lat="43.60306" lon="3.03207">
        <ele>652.3918</ele>
        <time>2013-06-02T08:42:42Z</time>
      </trkpt>
      <trkpt lat="43.60306" lon="3.03207">
        <ele>654.3147</ele>
        <time>2013-06-02T08:42:56Z</time>
      </trkpt>
      <trkpt lat="43.60307" lon="3.03205">
        <ele>650.9497</ele>
        <time>2013-06-02T08:43:33Z</time>
      </trkpt>
      <trkpt lat="43.60312" lon="3.03206">
        <ele>656.2371</ele>
        <time>2013-06-02T08:43:40Z</time>
      </trkpt>
      <trkpt lat="43.60313" lon="3.03206">
        <ele>656.2371</ele>
        <time>2013-06-02T08:43:41Z</time>
      </trkpt>
      <trkpt lat="43.60316" lon="3.03207">
        <ele>654.3147</ele>
        <time>2013-06-02T08:43:49Z</time>
      </trkpt>
      <trkpt lat="43.60316" lon="3.03207">
        <ele>654.3147</ele>
        <time>2013-06-02T08:43:55Z</time>
      </trkpt>
      <trkpt lat="43.60307" lon="3.03202">
        <ele>653.3533</ele>
        <time>2013-06-02T08:44:07Z</time>
      </trkpt>
      <trkpt lat="43.60307" lon="3.03203">
        <ele>653.834</ele>
        <time>2013-06-02T08:44:14Z</time>
      </trkpt>
      <trkpt lat="43.60307" lon="3.03203">
        <ele>655.7566</ele>
        <time>2013-06-02T08:44:16Z</time>
      </trkpt>
      <trkpt lat="43.60307" lon="3.03203">
        <ele>652.3918</ele>
        <time>2013-06-02T08:44:30Z</time>
      </trkpt>
      <trkpt lat="43.60307" lon="3.03204">
        <ele>653.834</ele>
        <time>2013-06-02T08:44:35Z</time>
      </trkpt>
      <trkpt lat="43.60307" lon="3.03204">
        <ele>656.7178</ele>
        <time>2013-06-02T08:44:37Z</time>
      </trkpt>
      <trkpt lat="43.60307" lon="3.03204">
        <ele>659.1211</ele>
        <time>2013-06-02T08:44:40Z</time>
      </trkpt>
      <trkpt lat="43.60307" lon="3.03204">
        <ele>655.7566</ele>
        <time>2013-06-02T08:44:41Z</time>
      </trkpt>
      <trkpt lat="43.60307" lon="3.03203">
        <ele>655.7566</ele>
        <time>2013-06-02T08:44:42Z</time>
      </trkpt>
      <trkpt lat="43.60307" lon="3.03203">
        <ele>653.834</ele>
        <time>2013-06-02T08:44:44Z</time>
      </trkpt>
      <trkpt lat="43.60307" lon="3.03204">
        <ele>652.8726</ele>
        <time>2013-06-02T08:44:59Z</time>
      </trkpt>
      <trkpt lat="43.60308" lon="3.03204">
        <ele>655.2759</ele>
        <time>2013-06-02T08:45:11Z</time>
      </trkpt>
      <trkpt lat="43.60309" lon="3.03203">
        <ele>652.8726</ele>
        <time>2013-06-02T08:45:37Z</time>
      </trkpt>
      <trkpt lat="43.6031" lon="3.03203">
        <ele>651.9111</ele>
        <time>2013-06-02T08:45:40Z</time>
      </trkpt>
      <trkpt lat="43.60314" lon="3.03204">
        <ele>654.7952</ele>
        <time>2013-06-02T08:45:43Z</time>
      </trkpt>
      <trkpt lat="43.60318" lon="3.03206">
        <ele>656.7178</ele>
        <time>2013-06-02T08:45:45Z</time>
      </trkpt>
      <trkpt lat="43.60329" lon="3.0321">
        <ele>654.3147</ele>
        <time>2013-06-02T08:45:49Z</time>
      </trkpt>
      <trkpt lat="43.60344" lon="3.03221">
        <ele>650.9497</ele>
        <time>2013-06-02T08:45:53Z</time>
      </trkpt>
      <trkpt lat="43.6035" lon="3.03225">
        <ele>650.9497</ele>
        <time>2013-06-02T08:45:54Z</time>
      </trkpt>
      <trkpt lat="43.6036" lon="3.03233">
        <ele>649.5078</ele>
        <time>2013-06-02T08:45:56Z</time>
      </trkpt>
      <trkpt lat="43.60376" lon="3.03246">
        <ele>649.9885</ele>
        <time>2013-06-02T08:45:59Z</time>
      </trkpt>
      <trkpt lat="43.60395" lon="3.03265">
        <ele>651.9111</ele>
        <time>2013-06-02T08:46:03Z</time>
      </trkpt>
      <trkpt lat="43.60415" lon="3.03285">
        <ele>649.9885</ele>
        <time>2013-06-02T08:46:07Z</time>
      </trkpt>
      <trkpt lat="43.60446" lon="3.0331">
        <ele>646.624</ele>
        <time>2013-06-02T08:46:13Z</time>
      </trkpt>
      <trkpt lat="43.60452" lon="3.03314">
        <ele>646.624</ele>
        <time>2013-06-02T08:46:14Z</time>
      </trkpt>
      <trkpt lat="43.60459" lon="3.03318">
        <ele>645.1819</ele>
        <time>2013-06-02T08:46:15Z</time>
      </trkpt>
      <trkpt lat="43.60471" lon="3.03328">
        <ele>644.2207</ele>
        <time>2013-06-02T08:46:17Z</time>
      </trkpt>
      <trkpt lat="43.60487" lon="3.03344">
        <ele>643.74</ele>
        <time>2013-06-02T08:46:20Z</time>
      </trkpt>
      <trkpt lat="43.60503" lon="3.03355">
        <ele>642.7788</ele>
        <time>2013-06-02T08:46:23Z</time>
      </trkpt>
      <trkpt lat="43.60513" lon="3.03389">
        <ele>642.7788</ele>
        <time>2013-06-02T08:46:28Z</time>
      </trkpt>
      <trkpt lat="43.60518" lon="3.03412">
        <ele>640.856</ele>
        <time>2013-06-02T08:46:31Z</time>
      </trkpt>
      <trkpt lat="43.60517" lon="3.0342">
        <ele>638.4529</ele>
        <time>2013-06-02T08:46:32Z</time>
      </trkpt>
      <trkpt lat="43.60512" lon="3.03447">
        <ele>637.0107</ele>
        <time>2013-06-02T08:46:35Z</time>
      </trkpt>
      <trkpt lat="43.60512" lon="3.03468">
        <ele>636.0496</ele>
        <time>2013-06-02T08:46:37Z</time>
      </trkpt>
      <trkpt lat="43.60513" lon="3.03497">
        <ele>635.0881</ele>
        <time>2013-06-02T08:46:40Z</time>
      </trkpt>
      <trkpt lat="43.60509" lon="3.03612">
        <ele>634.1267</ele>
        <time>2013-06-02T08:46:51Z</time>
      </trkpt>
      <trkpt lat="43.60519" lon="3.03696">
        <ele>633.646</ele>
        <time>2013-06-02T08:47:01Z</time>
      </trkpt>
      <trkpt lat="43.60539" lon="3.03728">
        <ele>633.646</ele>
        <time>2013-06-02T08:47:06Z</time>
      </trkpt>
      <trkpt lat="43.60575" lon="3.03765">
        <ele>634.1267</ele>
        <time>2013-06-02T08:47:14Z</time>
      </trkpt>
      <trkpt lat="43.60602" lon="3.0385">
        <ele>634.6074</ele>
        <time>2013-06-02T08:47:28Z</time>
      </trkpt>
      <trkpt lat="43.60622" lon="3.03886">
        <ele>634.1267</ele>
        <time>2013-06-02T08:47:34Z</time>
      </trkpt>
      <trkpt lat="43.60649" lon="3.03905">
        <ele>634.6074</ele>
        <time>2013-06-02T08:47:41Z</time>
      </trkpt>
      <trkpt lat="43.60663" lon="3.03903">
        <ele>636.5303</ele>
        <time>2013-06-02T08:47:47Z</time>
      </trkpt>
      <trkpt lat="43.60679" lon="3.039">
        <ele>637.4915</ele>
        <time>2013-06-02T08:47:54Z</time>
      </trkpt>
      <trkpt lat="43.60684" lon="3.039">
        <ele>638.4529</ele>
        <time>2013-06-02T08:47:56Z</time>
      </trkpt>
      <trkpt lat="43.60688" lon="3.03898">
        <ele>640.3755</ele>
        <time>2013-06-02T08:47:58Z</time>
      </trkpt>
      <trkpt lat="43.60691" lon="3.03896">
        <ele>640.3755</ele>
        <time>2013-06-02T08:47:59Z</time>
      </trkpt>
      <trkpt lat="43.60705" lon="3.03894">
        <ele>640.856</ele>
        <time>2013-06-02T08:48:07Z</time>
      </trkpt>
      <trkpt lat="43.60712" lon="3.03889">
        <ele>640.3755</ele>
        <time>2013-06-02T08:48:10Z</time>
      </trkpt>
      <trkpt lat="43.60717" lon="3.03888">
        <ele>644.7012</ele>
        <time>2013-06-02T08:48:13Z</time>
      </trkpt>
      <trkpt lat="43.60728" lon="3.03882">
        <ele>645.6626</ele>
        <time>2013-06-02T08:48:20Z</time>
      </trkpt>
      <trkpt lat="43.6073" lon="3.03879">
        <ele>646.624</ele>
        <time>2013-06-02T08:48:22Z</time>
      </trkpt>
      <trkpt lat="43.60739" lon="3.03875">
        <ele>647.1045</ele>
        <time>2013-06-02T08:48:26Z</time>
      </trkpt>
      <trkpt lat="43.60777" lon="3.0387">
        <ele>649.5078</ele>
        <time>2013-06-02T08:48:46Z</time>
      </trkpt>
      <trkpt lat="43.6081" lon="3.03861">
        <ele>650.4692</ele>
        <time>2013-06-02T08:49:03Z</time>
      </trkpt>
      <trkpt lat="43.60825" lon="3.03866">
        <ele>653.3533</ele>
        <time>2013-06-02T08:49:13Z</time>
      </trkpt>
      <trkpt lat="43.60845" lon="3.03868">
        <ele>656.7178</ele>
        <time>2013-06-02T08:49:26Z</time>
      </trkpt>
      <trkpt lat="43.60857" lon="3.03874">
        <ele>659.6018</ele>
        <time>2013-06-02T08:49:36Z</time>
      </trkpt>
      <trkpt lat="43.60866" lon="3.03879">
        <ele>657.6792</ele>
        <time>2013-06-02T08:49:44Z</time>
      </trkpt>
      <trkpt lat="43.60872" lon="3.03879">
        <ele>661.0437</ele>
        <time>2013-06-02T08:49:47Z</time>
      </trkpt>
      <trkpt lat="43.60874" lon="3.03878">
        <ele>661.0437</ele>
        <time>2013-06-02T08:49:48Z</time>
      </trkpt>
      <trkpt lat="43.6088" lon="3.03868">
        <ele>664.8889</ele>
        <time>2013-06-02T08:49:54Z</time>
      </trkpt>
      <trkpt lat="43.6088" lon="3.03866">
        <ele>664.8889</ele>
        <time>2013-06-02T08:49:55Z</time>
      </trkpt>
      <trkpt lat="43.60872" lon="3.03855">
        <ele>667.2922</ele>
        <time>2013-06-02T08:50:03Z</time>
      </trkpt>
      <trkpt lat="43.60862" lon="3.03835">
        <ele>669.2151</ele>
        <time>2013-06-02T08:50:16Z</time>
      </trkpt>
      <trkpt lat="43.60844" lon="3.03807">
        <ele>671.6182</ele>
        <time>2013-06-02T08:50:37Z</time>
      </trkpt>
      <trkpt lat="43.60825" lon="3.03786">
        <ele>674.5022</ele>
        <time>2013-06-02T08:50:55Z</time>
      </trkpt>
      <trkpt lat="43.60812" lon="3.0377">
        <ele>678.8281</ele>
        <time>2013-06-02T08:51:07Z</time>
      </trkpt>
      <trkpt lat="43.60784" lon="3.03758">
        <ele>681.7119</ele>
        <time>2013-06-02T08:51:26Z</time>
      </trkpt>
      <trkpt lat="43.60755" lon="3.03752">
        <ele>683.6345</ele>
        <time>2013-06-02T08:51:43Z</time>
      </trkpt>
      <trkpt lat="43.60743" lon="3.03745">
        <ele>684.5962</ele>
        <time>2013-06-02T08:51:51Z</time>
      </trkpt>
      <trkpt lat="43.6075" lon="3.03731">
        <ele>686.0381</ele>
        <time>2013-06-02T08:51:59Z</time>
      </trkpt>
      <trkpt lat="43.60754" lon="3.0373">
        <ele>687.48</ele>
        <time>2013-06-02T08:52:01Z</time>
      </trkpt>
      <trkpt lat="43.60757" lon="3.0373">
        <ele>688.9221</ele>
        <time>2013-06-02T08:52:03Z</time>
      </trkpt>
      <trkpt lat="43.60769" lon="3.03725">
        <ele>689.8833</ele>
        <time>2013-06-02T08:52:10Z</time>
      </trkpt>
      <trkpt lat="43.60801" lon="3.0371">
        <ele>692.7673</ele>
        <time>2013-06-02T08:52:30Z</time>
      </trkpt>
      <trkpt lat="43.60803" lon="3.03709">
        <ele>692.7673</ele>
        <time>2013-06-02T08:52:31Z</time>
      </trkpt>
      <trkpt lat="43.60807" lon="3.03709">
        <ele>694.2092</ele>
        <time>2013-06-02T08:52:33Z</time>
      </trkpt>
      <trkpt lat="43.60835" lon="3.03707">
        <ele>696.6125</ele>
        <time>2013-06-02T08:52:51Z</time>
      </trkpt>
      <trkpt lat="43.60837" lon="3.03697">
        <ele>699.4963</ele>
        <time>2013-06-02T08:53:04Z</time>
      </trkpt>
      <trkpt lat="43.60827" lon="3.0369">
        <ele>698.5349</ele>
        <time>2013-06-02T08:53:14Z</time>
      </trkpt>
      <trkpt lat="43.60793" lon="3.0367">
        <ele>701.8999</ele>
        <time>2013-06-02T08:53:35Z</time>
      </trkpt>
      <trkpt lat="43.60771" lon="3.03655">
        <ele>704.7837</ele>
        <time>2013-06-02T08:53:48Z</time>
      </trkpt>
      <trkpt lat="43.60733" lon="3.0363">
        <ele>708.1484</ele>
        <time>2013-06-02T08:54:09Z</time>
      </trkpt>
      <trkpt lat="43.60707" lon="3.03611">
        <ele>711.5129</ele>
        <time>2013-06-02T08:54:21Z</time>
      </trkpt>
      <trkpt lat="43.60707" lon="3.03608">
        <ele>711.5129</ele>
        <time>2013-06-02T08:54:22Z</time>
      </trkpt>
      <trkpt lat="43.60707" lon="3.03605">
        <ele>711.9937</ele>
        <time>2013-06-02T08:54:23Z</time>
      </trkpt>
      <trkpt lat="43.60712" lon="3.03599">
        <ele>711.9937</ele>
        <time>2013-06-02T08:54:27Z</time>
      </trkpt>
      <trkpt lat="43.60734" lon="3.03604">
        <ele>711.5129</ele>
        <time>2013-06-02T08:54:40Z</time>
      </trkpt>
      <trkpt lat="43.60739" lon="3.03604">
        <ele>712.9548</ele>
        <time>2013-06-02T08:54:43Z</time>
      </trkpt>
      <trkpt lat="43.60741" lon="3.03604">
        <ele>713.916</ele>
        <time>2013-06-02T08:54:44Z</time>
      </trkpt>
      <trkpt lat="43.60773" lon="3.03596">
        <ele>716.3196</ele>
        <time>2013-06-02T08:55:00Z</time>
      </trkpt>
      <trkpt lat="43.60793" lon="3.03586">
        <ele>720.6455</ele>
        <time>2013-06-02T08:55:10Z</time>
      </trkpt>
      <trkpt lat="43.60795" lon="3.03585">
        <ele>720.6455</ele>
        <time>2013-06-02T08:55:11Z</time>
      </trkpt>
      <trkpt lat="43.60799" lon="3.03582">
        <ele>718.7229</ele>
        <time>2013-06-02T08:55:13Z</time>
      </trkpt>
      <trkpt lat="43.60804" lon="3.0358">
        <ele>716.8003</ele>
        <time>2013-06-02T08:55:15Z</time>
      </trkpt>
      <trkpt lat="43.60807" lon="3.03579">
        <ele>721.1262</ele>
        <time>2013-06-02T08:55:16Z</time>
      </trkpt>
      <trkpt lat="43.60809" lon="3.03578">
        <ele>721.1262</ele>
        <time>2013-06-02T08:55:17Z</time>
      </trkpt>
      <trkpt lat="43.60814" lon="3.03576">
        <ele>719.2036</ele>
        <time>2013-06-02T08:55:19Z</time>
      </trkpt>
      <trkpt lat="43.60827" lon="3.03572">
        <ele>720.1648</ele>
        <time>2013-06-02T08:55:24Z</time>
      </trkpt>
      <trkpt lat="43.60838" lon="3.03575">
        <ele>721.6067</ele>
        <time>2013-06-02T08:55:28Z</time>
      </trkpt>
      <trkpt lat="43.60847" lon="3.0358">
        <ele>720.6455</ele>
        <time>2013-06-02T08:55:34Z</time>
      </trkpt>
      <trkpt lat="43.60858" lon="3.03578">
        <ele>723.5295</ele>
        <time>2013-06-02T08:55:46Z</time>
      </trkpt>
      <trkpt lat="43.60858" lon="3.03576">
        <ele>723.5295</ele>
        <time>2013-06-02T08:55:47Z</time>
      </trkpt>
      <trkpt lat="43.6086" lon="3.03567">
        <ele>724.4907</ele>
        <time>2013-06-02T08:55:52Z</time>
      </trkpt>
      <trkpt lat="43.60855" lon="3.0356">
        <ele>725.9326</ele>
        <time>2013-06-02T08:55:57Z</time>
      </trkpt>
      <trkpt lat="43.60854" lon="3.03559">
        <ele>729.7778</ele>
        <time>2013-06-02T08:55:58Z</time>
      </trkpt>
      <trkpt lat="43.60853" lon="3.03559">
        <ele>729.7778</ele>
        <time>2013-06-02T08:55:59Z</time>
      </trkpt>
      <trkpt lat="43.6083" lon="3.03533">
        <ele>728.3359</ele>
        <time>2013-06-02T08:56:25Z</time>
      </trkpt>
      <trkpt lat="43.60819" lon="3.03526">
        <ele>731.22</ele>
        <time>2013-06-02T08:56:33Z</time>
      </trkpt>
      <trkpt lat="43.60817" lon="3.03524">
        <ele>733.1426</ele>
        <time>2013-06-02T08:56:35Z</time>
      </trkpt>
      <trkpt lat="43.60792" lon="3.03506">
        <ele>736.5073</ele>
        <time>2013-06-02T08:56:55Z</time>
      </trkpt>
      <trkpt lat="43.60791" lon="3.03504">
        <ele>736.5073</ele>
        <time>2013-06-02T08:56:56Z</time>
      </trkpt>
      <trkpt lat="43.60782" lon="3.03498">
        <ele>736.9878</ele>
        <time>2013-06-02T08:57:03Z</time>
      </trkpt>
      <trkpt lat="43.60756" lon="3.03453">
        <ele>739.3911</ele>
        <time>2013-06-02T08:57:27Z</time>
      </trkpt>
      <trkpt lat="43.60754" lon="3.03439">
        <ele>742.7559</ele>
        <time>2013-06-02T08:57:33Z</time>
      </trkpt>
      <trkpt lat="43.60753" lon="3.03437">
        <ele>742.7559</ele>
        <time>2013-06-02T08:57:34Z</time>
      </trkpt>
      <trkpt lat="43.60753" lon="3.03426">
        <ele>746.6011</ele>
        <time>2013-06-02T08:57:39Z</time>
      </trkpt>
      <trkpt lat="43.60753" lon="3.03424">
        <ele>746.6011</ele>
        <time>2013-06-02T08:57:40Z</time>
      </trkpt>
      <trkpt lat="43.60754" lon="3.03417">
        <ele>747.5623</ele>
        <time>2013-06-02T08:57:43Z</time>
      </trkpt>
      <trkpt lat="43.60756" lon="3.03403">
        <ele>748.0432</ele>
        <time>2013-06-02T08:57:49Z</time>
      </trkpt>
      <trkpt lat="43.60765" lon="3.03386">
        <ele>750.4465</ele>
        <time>2013-06-02T08:57:59Z</time>
      </trkpt>
      <trkpt lat="43.60767" lon="3.03385">
        <ele>749.0044</ele>
        <time>2013-06-02T08:58:00Z</time>
      </trkpt>
      <trkpt lat="43.60768" lon="3.03382">
        <ele>752.3689</ele>
        <time>2013-06-02T08:58:02Z</time>
      </trkpt>
      <trkpt lat="43.6077" lon="3.03379">
        <ele>754.2917</ele>
        <time>2013-06-02T08:58:04Z</time>
      </trkpt>
      <trkpt lat="43.60778" lon="3.03363">
        <ele>752.3689</ele>
        <time>2013-06-02T08:58:14Z</time>
      </trkpt>
      <trkpt lat="43.60779" lon="3.0336">
        <ele>754.2917</ele>
        <time>2013-06-02T08:58:16Z</time>
      </trkpt>
      <trkpt lat="43.6078" lon="3.03357">
        <ele>758.6174</ele>
        <time>2013-06-02T08:58:18Z</time>
      </trkpt>
      <trkpt lat="43.60781" lon="3.03356">
        <ele>754.2917</ele>
        <time>2013-06-02T08:58:19Z</time>
      </trkpt>
      <trkpt lat="43.60782" lon="3.03355">
        <ele>757.1755</ele>
        <time>2013-06-02T08:58:20Z</time>
      </trkpt>
      <trkpt lat="43.60792" lon="3.03331">
        <ele>760.54</ele>
        <time>2013-06-02T08:58:34Z</time>
      </trkpt>
      <trkpt lat="43.60793" lon="3.03329">
        <ele>760.54</ele>
        <time>2013-06-02T08:58:35Z</time>
      </trkpt>
      <trkpt lat="43.60805" lon="3.03305">
        <ele>759.0981</ele>
        <time>2013-06-02T08:58:48Z</time>
      </trkpt>
      <trkpt lat="43.60806" lon="3.03303">
        <ele>760.54</ele>
        <time>2013-06-02T08:58:50Z</time>
      </trkpt>
      <trkpt lat="43.60807" lon="3.03302">
        <ele>761.0208</ele>
        <time>2013-06-02T08:58:51Z</time>
      </trkpt>
      <trkpt lat="43.60809" lon="3.03299">
        <ele>762.9434</ele>
        <time>2013-06-02T08:58:54Z</time>
      </trkpt>
      <trkpt lat="43.60812" lon="3.03296">
        <ele>761.9822</ele>
        <time>2013-06-02T08:58:56Z</time>
      </trkpt>
      <trkpt lat="43.60816" lon="3.0329">
        <ele>764.8662</ele>
        <time>2013-06-02T08:59:00Z</time>
      </trkpt>
      <trkpt lat="43.60816" lon="3.03288">
        <ele>764.8662</ele>
        <time>2013-06-02T08:59:01Z</time>
      </trkpt>
      <trkpt lat="43.60818" lon="3.03285">
        <ele>767.75</ele>
        <time>2013-06-02T08:59:03Z</time>
      </trkpt>
      <trkpt lat="43.6082" lon="3.0328">
        <ele>763.9045</ele>
        <time>2013-06-02T08:59:06Z</time>
      </trkpt>
      <trkpt lat="43.60821" lon="3.03278">
        <ele>763.9045</ele>
        <time>2013-06-02T08:59:07Z</time>
      </trkpt>
      <trkpt lat="43.60824" lon="3.03268">
        <ele>765.8276</ele>
        <time>2013-06-02T08:59:13Z</time>
      </trkpt>
      <trkpt lat="43.60825" lon="3.03265">
        <ele>767.2695</ele>
        <time>2013-06-02T08:59:15Z</time>
      </trkpt>
      <trkpt lat="43.60821" lon="3.03238">
        <ele>770.1533</ele>
        <time>2013-06-02T08:59:30Z</time>
      </trkpt>
      <trkpt lat="43.60818" lon="3.03227">
        <ele>769.6729</ele>
        <time>2013-06-02T08:59:36Z</time>
      </trkpt>
      <trkpt lat="43.60815" lon="3.03221">
        <ele>771.5952</ele>
        <time>2013-06-02T08:59:40Z</time>
      </trkpt>
      <trkpt lat="43.60815" lon="3.03219">
        <ele>771.5952</ele>
        <time>2013-06-02T08:59:41Z</time>
      </trkpt>
      <trkpt lat="43.60815" lon="3.03217">
        <ele>776.4019</ele>
        <time>2013-06-02T08:59:42Z</time>
      </trkpt>
      <trkpt lat="43.60815" lon="3.03216">
        <ele>776.4019</ele>
        <time>2013-06-02T08:59:43Z</time>
      </trkpt>
      <trkpt lat="43.60813" lon="3.03208">
        <ele>773.5181</ele>
        <time>2013-06-02T08:59:47Z</time>
      </trkpt>
      <trkpt lat="43.60811" lon="3.03199">
        <ele>773.9985</ele>
        <time>2013-06-02T08:59:51Z</time>
      </trkpt>
      <trkpt lat="43.60804" lon="3.03178">
        <ele>773.0374</ele>
        <time>2013-06-02T09:00:02Z</time>
      </trkpt>
      <trkpt lat="43.60802" lon="3.03173">
        <ele>774.4792</ele>
        <time>2013-06-02T09:00:04Z</time>
      </trkpt>
      <trkpt lat="43.60789" lon="3.03146">
        <ele>777.8438</ele>
        <time>2013-06-02T09:00:17Z</time>
      </trkpt>
      <trkpt lat="43.60785" lon="3.03139">
        <ele>779.2856</ele>
        <time>2013-06-02T09:00:21Z</time>
      </trkpt>
      <trkpt lat="43.60777" lon="3.03124">
        <ele>781.2087</ele>
        <time>2013-06-02T09:00:29Z</time>
      </trkpt>
      <trkpt lat="43.60769" lon="3.031">
        <ele>782.6506</ele>
        <time>2013-06-02T09:00:40Z</time>
      </trkpt>
      <trkpt lat="43.60776" lon="3.031">
        <ele>781.2087</ele>
        <time>2013-06-02T09:00:46Z</time>
      </trkpt>
      <trkpt lat="43.60781" lon="3.03091">
        <ele>783.1311</ele>
        <time>2013-06-02T09:00:54Z</time>
      </trkpt>
      <trkpt lat="43.6078" lon="3.03092">
        <ele>785.054</ele>
        <time>2013-06-02T09:01:01Z</time>
      </trkpt>
      <trkpt lat="43.6078" lon="3.03092">
        <ele>785.5344</ele>
        <time>2013-06-02T09:01:07Z</time>
      </trkpt>
      <trkpt lat="43.6078" lon="3.03092">
        <ele>782.6506</ele>
        <time>2013-06-02T09:01:08Z</time>
      </trkpt>
      <trkpt lat="43.6078" lon="3.03092">
        <ele>782.6506</ele>
        <time>2013-06-02T09:01:09Z</time>
      </trkpt>
      <trkpt lat="43.6078" lon="3.03092">
        <ele>785.5344</ele>
        <time>2013-06-02T09:01:11Z</time>
      </trkpt>
      <trkpt lat="43.6078" lon="3.03092">
        <ele>784.5732</ele>
        <time>2013-06-02T09:01:17Z</time>
      </trkpt>
      <trkpt lat="43.6078" lon="3.03092">
        <ele>786.0151</ele>
        <time>2013-06-02T09:01:26Z</time>
      </trkpt>
      <trkpt lat="43.6078" lon="3.03092">
        <ele>782.6506</ele>
        <time>2013-06-02T09:01:27Z</time>
      </trkpt>
      <trkpt lat="43.6078" lon="3.03092">
        <ele>782.6506</ele>
        <time>2013-06-02T09:01:28Z</time>
      </trkpt>
      <trkpt lat="43.6078" lon="3.03092">
        <ele>780.728</ele>
        <time>2013-06-02T09:01:45Z</time>
      </trkpt>
      <trkpt lat="43.6078" lon="3.03092">
        <ele>780.728</ele>
        <time>2013-06-02T09:01:51Z</time>
      </trkpt>
      <trkpt lat="43.6078" lon="3.03092">
        <ele>781.6892</ele>
        <time>2013-06-02T09:02:00Z</time>
      </trkpt>
      <trkpt lat="43.6078" lon="3.03092">
        <ele>783.1311</ele>
        <time>2013-06-02T09:02:17Z</time>
      </trkpt>
      <trkpt lat="43.6078" lon="3.03092">
        <ele>785.054</ele>
        <time>2013-06-02T09:02:19Z</time>
      </trkpt>
      <trkpt lat="43.6078" lon="3.03092">
        <ele>781.6892</ele>
        <time>2013-06-02T09:02:20Z</time>
      </trkpt>
      <trkpt lat="43.6078" lon="3.03092">
        <ele>781.6892</ele>
        <time>2013-06-02T09:02:21Z</time>
      </trkpt>
      <trkpt lat="43.60779" lon="3.03089">
        <ele>782.6506</ele>
        <time>2013-06-02T09:02:29Z</time>
      </trkpt>
      <trkpt lat="43.60779" lon="3.03089">
        <ele>786.0151</ele>
        <time>2013-06-02T09:02:33Z</time>
      </trkpt>
      <trkpt lat="43.60779" lon="3.03089">
        <ele>786.0151</ele>
        <time>2013-06-02T09:02:34Z</time>
      </trkpt>
      <trkpt lat="43.60779" lon="3.03089">
        <ele>783.6118</ele>
        <time>2013-06-02T09:02:36Z</time>
      </trkpt>
      <trkpt lat="43.60779" lon="3.03089">
        <ele>784.0925</ele>
        <time>2013-06-02T09:02:40Z</time>
      </trkpt>
      <trkpt lat="43.60779" lon="3.03089">
        <ele>782.6506</ele>
        <time>2013-06-02T09:02:46Z</time>
      </trkpt>
      <trkpt lat="43.60779" lon="3.03089">
        <ele>783.1311</ele>
        <time>2013-06-02T09:03:05Z</time>
      </trkpt>
      <trkpt lat="43.60779" lon="3.03089">
        <ele>781.2087</ele>
        <time>2013-06-02T09:03:11Z</time>
      </trkpt>
      <trkpt lat="43.60779" lon="3.0309">
        <ele>779.7664</ele>
        <time>2013-06-02T09:03:28Z</time>
      </trkpt>
      <trkpt lat="43.60779" lon="3.0309">
        <ele>781.2087</ele>
        <time>2013-06-02T09:03:30Z</time>
      </trkpt>
      <trkpt lat="43.60779" lon="3.0309">
        <ele>778.3245</ele>
        <time>2013-06-02T09:04:03Z</time>
      </trkpt>
      <trkpt lat="43.60779" lon="3.0309">
        <ele>777.3633</ele>
        <time>2013-06-02T09:04:17Z</time>
      </trkpt>
      <trkpt lat="43.60779" lon="3.0309">
        <ele>779.7664</ele>
        <time>2013-06-02T09:04:19Z</time>
      </trkpt>
      <trkpt lat="43.60779" lon="3.0309">
        <ele>777.8438</ele>
        <time>2013-06-02T09:04:30Z</time>
      </trkpt>
      <trkpt lat="43.60779" lon="3.03089">
        <ele>780.2473</ele>
        <time>2013-06-02T09:04:34Z</time>
      </trkpt>
      <trkpt lat="43.60779" lon="3.03089">
        <ele>777.3633</ele>
        <time>2013-06-02T09:04:51Z</time>
      </trkpt>
      <trkpt lat="43.60779" lon="3.03089">
        <ele>780.2473</ele>
        <time>2013-06-02T09:04:59Z</time>
      </trkpt>
      <trkpt lat="43.60778" lon="3.03086">
        <ele>778.8052</ele>
        <time>2013-06-02T09:05:01Z</time>
      </trkpt>
      <trkpt lat="43.60778" lon="3.0308">
        <ele>780.2473</ele>
        <time>2013-06-02T09:05:05Z</time>
      </trkpt>
      <trkpt lat="43.60779" lon="3.03068">
        <ele>778.3245</ele>
        <time>2013-06-02T09:05:10Z</time>
      </trkpt>
      <trkpt lat="43.6078" lon="3.03066">
        <ele>774.4792</ele>
        <time>2013-06-02T09:05:11Z</time>
      </trkpt>
      <trkpt lat="43.60782" lon="3.03064">
        <ele>774.4792</ele>
        <time>2013-06-02T09:05:12Z</time>
      </trkpt>
      <trkpt lat="43.60795" lon="3.03053">
        <ele>774.96</ele>
        <time>2013-06-02T09:05:18Z</time>
      </trkpt>
      <trkpt lat="43.60799" lon="3.03053">
        <ele>769.6729</ele>
        <time>2013-06-02T09:05:20Z</time>
      </trkpt>
      <trkpt lat="43.608" lon="3.03054">
        <ele>773.5181</ele>
        <time>2013-06-02T09:05:21Z</time>
      </trkpt>
      <trkpt lat="43.60802" lon="3.03054">
        <ele>773.5181</ele>
        <time>2013-06-02T09:05:22Z</time>
      </trkpt>
      <trkpt lat="43.60803" lon="3.03054">
        <ele>777.3633</ele>
        <time>2013-06-02T09:05:23Z</time>
      </trkpt>
      <trkpt lat="43.60805" lon="3.03054">
        <ele>777.3633</ele>
        <time>2013-06-02T09:05:24Z</time>
      </trkpt>
      <trkpt lat="43.60811" lon="3.03052">
        <ele>775.9211</ele>
        <time>2013-06-02T09:05:26Z</time>
      </trkpt>
      <trkpt lat="43.60856" lon="3.03042">
        <ele>774.96</ele>
        <time>2013-06-02T09:05:36Z</time>
      </trkpt>
      <trkpt lat="43.60887" lon="3.03037">
        <ele>772.5566</ele>
        <time>2013-06-02T09:05:47Z</time>
      </trkpt>
      <trkpt lat="43.60892" lon="3.03036">
        <ele>771.1147</ele>
        <time>2013-06-02T09:05:49Z</time>
      </trkpt>
      <trkpt lat="43.60898" lon="3.03034">
        <ele>765.3469</ele>
        <time>2013-06-02T09:05:51Z</time>
      </trkpt>
      <trkpt lat="43.60901" lon="3.03033">
        <ele>765.3469</ele>
        <time>2013-06-02T09:05:52Z</time>
      </trkpt>
      <trkpt lat="43.60905" lon="3.03032">
        <ele>769.1921</ele>
        <time>2013-06-02T09:05:53Z</time>
      </trkpt>
      <trkpt lat="43.60915" lon="3.03027">
        <ele>773.9985</ele>
        <time>2013-06-02T09:05:57Z</time>
      </trkpt>
      <trkpt lat="43.60917" lon="3.03026">
        <ele>773.0374</ele>
        <time>2013-06-02T09:05:58Z</time>
      </trkpt>
      <trkpt lat="43.60923" lon="3.03031">
        <ele>773.0374</ele>
        <time>2013-06-02T09:06:01Z</time>
      </trkpt>
      <trkpt lat="43.60929" lon="3.03033">
        <ele>769.6729</ele>
        <time>2013-06-02T09:06:04Z</time>
      </trkpt>
      <trkpt lat="43.60933" lon="3.03038">
        <ele>768.7114</ele>
        <time>2013-06-02T09:06:06Z</time>
      </trkpt>
      <trkpt lat="43.60931" lon="3.03045">
        <ele>770.1533</ele>
        <time>2013-06-02T09:06:08Z</time>
      </trkpt>
      <trkpt lat="43.60933" lon="3.03054">
        <ele>767.75</ele>
        <time>2013-06-02T09:06:12Z</time>
      </trkpt>
      <trkpt lat="43.60936" lon="3.03055">
        <ele>767.75</ele>
        <time>2013-06-02T09:06:13Z</time>
      </trkpt>
      <trkpt lat="43.60943" lon="3.03052">
        <ele>765.3469</ele>
        <time>2013-06-02T09:06:15Z</time>
      </trkpt>
      <trkpt lat="43.60957" lon="3.03053">
        <ele>762.4626</ele>
        <time>2013-06-02T09:06:18Z</time>
      </trkpt>
      <trkpt lat="43.60968" lon="3.0305">
        <ele>761.5015</ele>
        <time>2013-06-02T09:06:20Z</time>
      </trkpt>
      <trkpt lat="43.60995" lon="3.0304">
        <ele>760.54</ele>
        <time>2013-06-02T09:06:27Z</time>
      </trkpt>
      <trkpt lat="43.61007" lon="3.03031">
        <ele>760.54</ele>
        <time>2013-06-02T09:06:30Z</time>
      </trkpt>
      <trkpt lat="43.61027" lon="3.03016">
        <ele>757.1755</ele>
        <time>2013-06-02T09:06:35Z</time>
      </trkpt>
      <trkpt lat="43.61035" lon="3.03015">
        <ele>757.1755</ele>
        <time>2013-06-02T09:06:36Z</time>
      </trkpt>
      <trkpt lat="43.61039" lon="3.03012">
        <ele>753.811</ele>
        <time>2013-06-02T09:06:37Z</time>
      </trkpt>
      <trkpt lat="43.61052" lon="3.03006">
        <ele>755.7336</ele>
        <time>2013-06-02T09:06:40Z</time>
      </trkpt>
      <trkpt lat="43.61057" lon="3.03006">
        <ele>754.2917</ele>
        <time>2013-06-02T09:06:42Z</time>
      </trkpt>
      <trkpt lat="43.61065" lon="3.03007">
        <ele>755.7336</ele>
        <time>2013-06-02T09:06:45Z</time>
      </trkpt>
      <trkpt lat="43.61071" lon="3.03003">
        <ele>755.2529</ele>
        <time>2013-06-02T09:06:48Z</time>
      </trkpt>
      <trkpt lat="43.61074" lon="3.02999">
        <ele>754.2917</ele>
        <time>2013-06-02T09:06:50Z</time>
      </trkpt>
      <trkpt lat="43.6108" lon="3.02997">
        <ele>752.3689</ele>
        <time>2013-06-02T09:06:54Z</time>
      </trkpt>
      <trkpt lat="43.61086" lon="3.02997">
        <ele>749.9658</ele>
        <time>2013-06-02T09:06:57Z</time>
      </trkpt>
      <trkpt lat="43.61089" lon="3.02998">
        <ele>749.9658</ele>
        <time>2013-06-02T09:06:58Z</time>
      </trkpt>
      <trkpt lat="43.61103" lon="3.03">
        <ele>749.0044</ele>
        <time>2013-06-02T09:07:02Z</time>
      </trkpt>
      <trkpt lat="43.61113" lon="3.03001">
        <ele>748.0432</ele>
        <time>2013-06-02T09:07:04Z</time>
      </trkpt>
      <trkpt lat="43.61116" lon="3.02998">
        <ele>746.1204</ele>
        <time>2013-06-02T09:07:07Z</time>
      </trkpt>
      <trkpt lat="43.61117" lon="3.02996">
        <ele>744.6782</ele>
        <time>2013-06-02T09:07:10Z</time>
      </trkpt>
      <trkpt lat="43.61117" lon="3.02997">
        <ele>743.2363</ele>
        <time>2013-06-02T09:07:20Z</time>
      </trkpt>
      <trkpt lat="43.61117" lon="3.02997">
        <ele>743.717</ele>
        <time>2013-06-02T09:07:40Z</time>
      </trkpt>
      <trkpt lat="43.61118" lon="3.02997">
        <ele>744.1978</ele>
        <time>2013-06-02T09:07:51Z</time>
      </trkpt>
      <trkpt lat="43.61146" lon="3.03034">
        <ele>745.1589</ele>
        <time>2013-06-02T09:08:07Z</time>
      </trkpt>
      <trkpt lat="43.61165" lon="3.03058">
        <ele>747.0815</ele>
        <time>2013-06-02T09:08:16Z</time>
      </trkpt>
      <trkpt lat="43.61173" lon="3.03068">
        <ele>749.4851</ele>
        <time>2013-06-02T09:08:20Z</time>
      </trkpt>
      <trkpt lat="43.61207" lon="3.0311">
        <ele>748.5237</ele>
        <time>2013-06-02T09:08:36Z</time>
      </trkpt>
      <trkpt lat="43.61211" lon="3.03108">
        <ele>747.0815</ele>
        <time>2013-06-02T09:08:39Z</time>
      </trkpt>
      <trkpt lat="43.61212" lon="3.03105">
        <ele>744.1978</ele>
        <time>2013-06-02T09:08:40Z</time>
      </trkpt>
      <trkpt lat="43.61216" lon="3.03092">
        <ele>742.7559</ele>
        <time>2013-06-02T09:08:43Z</time>
      </trkpt>
      <trkpt lat="43.61227" lon="3.03055">
        <ele>744.6782</ele>
        <time>2013-06-02T09:08:50Z</time>
      </trkpt>
      <trkpt lat="43.6123" lon="3.03038">
        <ele>741.7944</ele>
        <time>2013-06-02T09:08:58Z</time>
      </trkpt>
      <trkpt lat="43.61231" lon="3.03037">
        <ele>741.7944</ele>
        <time>2013-06-02T09:08:59Z</time>
      </trkpt>
      <trkpt lat="43.61232" lon="3.03029">
        <ele>738.4299</ele>
        <time>2013-06-02T09:09:03Z</time>
      </trkpt>
      <trkpt lat="43.61233" lon="3.03027">
        <ele>738.4299</ele>
        <time>2013-06-02T09:09:04Z</time>
      </trkpt>
      <trkpt lat="43.61249" lon="3.02985">
        <ele>736.0266</ele>
        <time>2013-06-02T09:09:18Z</time>
      </trkpt>
      <trkpt lat="43.61251" lon="3.02978">
        <ele>737.4685</ele>
        <time>2013-06-02T09:09:20Z</time>
      </trkpt>
      <trkpt lat="43.61254" lon="3.02969">
        <ele>736.0266</ele>
        <time>2013-06-02T09:09:22Z</time>
      </trkpt>
      <trkpt lat="43.61257" lon="3.02958">
        <ele>732.1814</ele>
        <time>2013-06-02T09:09:24Z</time>
      </trkpt>
      <trkpt lat="43.61259" lon="3.02952">
        <ele>732.1814</ele>
        <time>2013-06-02T09:09:25Z</time>
      </trkpt>
      <trkpt lat="43.61264" lon="3.02938">
        <ele>730.2585</ele>
        <time>2013-06-02T09:09:27Z</time>
      </trkpt>
      <trkpt lat="43.61268" lon="3.02921">
        <ele>728.3359</ele>
        <time>2013-06-02T09:09:29Z</time>
      </trkpt>
      <trkpt lat="43.61274" lon="3.02903">
        <ele>729.7778</ele>
        <time>2013-06-02T09:09:31Z</time>
      </trkpt>
      <trkpt lat="43.61278" lon="3.02894">
        <ele>727.8552</ele>
        <time>2013-06-02T09:09:32Z</time>
      </trkpt>
      <trkpt lat="43.61289" lon="3.02878">
        <ele>724.01</ele>
        <time>2013-06-02T09:09:34Z</time>
      </trkpt>
      <trkpt lat="43.61294" lon="3.0287">
        <ele>720.1648</ele>
        <time>2013-06-02T09:09:35Z</time>
      </trkpt>
      <trkpt lat="43.613" lon="3.02862">
        <ele>720.1648</ele>
        <time>2013-06-02T09:09:36Z</time>
      </trkpt>
      <trkpt lat="43.61311" lon="3.02845">
        <ele>723.0488</ele>
        <time>2013-06-02T09:09:38Z</time>
      </trkpt>
      <trkpt lat="43.61324" lon="3.02826">
        <ele>716.8003</ele>
        <time>2013-06-02T09:09:40Z</time>
      </trkpt>
      <trkpt lat="43.6133" lon="3.02816">
        <ele>716.8003</ele>
        <time>2013-06-02T09:09:41Z</time>
      </trkpt>
      <trkpt lat="43.61354" lon="3.02794">
        <ele>709.5903</ele>
        <time>2013-06-02T09:09:44Z</time>
      </trkpt>
      <trkpt lat="43.61362" lon="3.02789">
        <ele>709.5903</ele>
        <time>2013-06-02T09:09:45Z</time>
      </trkpt>
      <trkpt lat="43.6137" lon="3.02784">
        <ele>703.8225</ele>
        <time>2013-06-02T09:09:46Z</time>
      </trkpt>
      <trkpt lat="43.61378" lon="3.02779">
        <ele>706.2256</ele>
        <time>2013-06-02T09:09:47Z</time>
      </trkpt>
      <trkpt lat="43.61403" lon="3.0277">
        <ele>704.7837</ele>
        <time>2013-06-02T09:09:50Z</time>
      </trkpt>
      <trkpt lat="43.61446" lon="3.02753">
        <ele>703.8225</ele>
        <time>2013-06-02T09:09:56Z</time>
      </trkpt>
      <trkpt lat="43.61484" lon="3.0273">
        <ele>703.8225</ele>
        <time>2013-06-02T09:10:02Z</time>
      </trkpt>
      <trkpt lat="43.61498" lon="3.02719">
        <ele>699.4963</ele>
        <time>2013-06-02T09:10:04Z</time>
      </trkpt>
      <trkpt lat="43.61546" lon="3.02658">
        <ele>695.1704</ele>
        <time>2013-06-02T09:10:12Z</time>
      </trkpt>
      <trkpt lat="43.61553" lon="3.02651">
        <ele>695.1704</ele>
        <time>2013-06-02T09:10:13Z</time>
      </trkpt>
      <trkpt lat="43.61572" lon="3.02623">
        <ele>690.8445</ele>
        <time>2013-06-02T09:10:16Z</time>
      </trkpt>
      <trkpt lat="43.61578" lon="3.02613">
        <ele>686.5188</ele>
        <time>2013-06-02T09:10:17Z</time>
      </trkpt>
      <trkpt lat="43.61585" lon="3.02603">
        <ele>686.5188</ele>
        <time>2013-06-02T09:10:18Z</time>
      </trkpt>
      <trkpt lat="43.61598" lon="3.02583">
        <ele>685.0769</ele>
        <time>2013-06-02T09:10:20Z</time>
      </trkpt>
      <trkpt lat="43.61612" lon="3.02565">
        <ele>683.1538</ele>
        <time>2013-06-02T09:10:22Z</time>
      </trkpt>
      <trkpt lat="43.61624" lon="3.02548">
        <ele>687.48</ele>
        <time>2013-06-02T09:10:24Z</time>
      </trkpt>
      <trkpt lat="43.6163" lon="3.0254">
        <ele>687.48</ele>
        <time>2013-06-02T09:10:25Z</time>
      </trkpt>
      <trkpt lat="43.61648" lon="3.02496">
        <ele>687.48</ele>
        <time>2013-06-02T09:10:31Z</time>
      </trkpt>
      <trkpt lat="43.61656" lon="3.02479">
        <ele>689.8833</ele>
        <time>2013-06-02T09:10:34Z</time>
      </trkpt>
      <trkpt lat="43.61661" lon="3.02469">
        <ele>691.3252</ele>
        <time>2013-06-02T09:10:36Z</time>
      </trkpt>
      <trkpt lat="43.61672" lon="3.02446">
        <ele>693.2478</ele>
        <time>2013-06-02T09:10:41Z</time>
      </trkpt>
      <trkpt lat="43.61676" lon="3.02438">
        <ele>691.3252</ele>
        <time>2013-06-02T09:10:43Z</time>
      </trkpt>
      <trkpt lat="43.6168" lon="3.02431">
        <ele>695.6511</ele>
        <time>2013-06-02T09:10:45Z</time>
      </trkpt>
      <trkpt lat="43.61681" lon="3.02427">
        <ele>695.6511</ele>
        <time>2013-06-02T09:10:46Z</time>
      </trkpt>
      <trkpt lat="43.61699" lon="3.02385">
        <ele>695.6511</ele>
        <time>2013-06-02T09:10:57Z</time>
      </trkpt>
      <trkpt lat="43.61737" lon="3.02301">
        <ele>695.6511</ele>
        <time>2013-06-02T09:11:16Z</time>
      </trkpt>
      <trkpt lat="43.61744" lon="3.02287">
        <ele>695.1704</ele>
        <time>2013-06-02T09:11:19Z</time>
      </trkpt>
      <trkpt lat="43.61766" lon="3.0224">
        <ele>692.2866</ele>
        <time>2013-06-02T09:11:29Z</time>
      </trkpt>
      <trkpt lat="43.61768" lon="3.02236">
        <ele>692.2866</ele>
        <time>2013-06-02T09:11:30Z</time>
      </trkpt>
      <trkpt lat="43.61796" lon="3.02174">
        <ele>687.48</ele>
        <time>2013-06-02T09:11:40Z</time>
      </trkpt>
      <trkpt lat="43.61799" lon="3.02166">
        <ele>687.48</ele>
        <time>2013-06-02T09:11:41Z</time>
      </trkpt>
      <trkpt lat="43.61802" lon="3.02158">
        <ele>688.4414</ele>
        <time>2013-06-02T09:11:42Z</time>
      </trkpt>
      <trkpt lat="43.61817" lon="3.02126">
        <ele>686.5188</ele>
        <time>2013-06-02T09:11:46Z</time>
      </trkpt>
      <trkpt lat="43.61838" lon="3.02081">
        <ele>689.8833</ele>
        <time>2013-06-02T09:11:52Z</time>
      </trkpt>
      <trkpt lat="43.61841" lon="3.02074">
        <ele>689.8833</ele>
        <time>2013-06-02T09:11:53Z</time>
      </trkpt>
      <trkpt lat="43.61844" lon="3.02068">
        <ele>686.0381</ele>
        <time>2013-06-02T09:11:54Z</time>
      </trkpt>
      <trkpt lat="43.61846" lon="3.02062">
        <ele>686.0381</ele>
        <time>2013-06-02T09:11:55Z</time>
      </trkpt>
      <trkpt lat="43.6186" lon="3.02038">
        <ele>685.5574</ele>
        <time>2013-06-02T09:12:04Z</time>
      </trkpt>
      <trkpt lat="43.61866" lon="3.02027">
        <ele>683.6345</ele>
        <time>2013-06-02T09:12:07Z</time>
      </trkpt>
      <trkpt lat="43.61876" lon="3.02012">
        <ele>686.0381</ele>
        <time>2013-06-02T09:12:11Z</time>
      </trkpt>
      <trkpt lat="43.61884" lon="3.02005">
        <ele>687.48</ele>
        <time>2013-06-02T09:12:14Z</time>
      </trkpt>
      <trkpt lat="43.61886" lon="3.02003">
        <ele>689.8833</ele>
        <time>2013-06-02T09:12:15Z</time>
      </trkpt>
      <trkpt lat="43.6189" lon="3.01998">
        <ele>688.9221</ele>
        <time>2013-06-02T09:12:22Z</time>
      </trkpt>
      <trkpt lat="43.61916" lon="3.01979">
        <ele>690.364</ele>
        <time>2013-06-02T09:12:33Z</time>
      </trkpt>
      <trkpt lat="43.6193" lon="3.01975">
        <ele>687.9607</ele>
        <time>2013-06-02T09:12:37Z</time>
      </trkpt>
      <trkpt lat="43.61971" lon="3.01978">
        <ele>689.8833</ele>
        <time>2013-06-02T09:12:49Z</time>
      </trkpt>
      <trkpt lat="43.62011" lon="3.02001">
        <ele>693.7285</ele>
        <time>2013-06-02T09:13:03Z</time>
      </trkpt>
      <trkpt lat="43.62014" lon="3.02003">
        <ele>693.7285</ele>
        <time>2013-06-02T09:13:04Z</time>
      </trkpt>
      <trkpt lat="43.62052" lon="3.02016">
        <ele>695.1704</ele>
        <time>2013-06-02T09:13:18Z</time>
      </trkpt>
      <trkpt lat="43.62068" lon="3.02007">
        <ele>696.1318</ele>
        <time>2013-06-02T09:13:25Z</time>
      </trkpt>
      <trkpt lat="43.62078" lon="3.02005">
        <ele>697.093</ele>
        <time>2013-06-02T09:13:30Z</time>
      </trkpt>
      <trkpt lat="43.62088" lon="3.02003">
        <ele>699.4963</ele>
        <time>2013-06-02T09:13:43Z</time>
      </trkpt>
      <trkpt lat="43.62091" lon="3.02003">
        <ele>699.0156</ele>
        <time>2013-06-02T09:13:45Z</time>
      </trkpt>
      <trkpt lat="43.62103" lon="3.02018">
        <ele>700.9385</ele>
        <time>2013-06-02T09:13:53Z</time>
      </trkpt>
      <trkpt lat="43.62105" lon="3.02026">
        <ele>702.3804</ele>
        <time>2013-06-02T09:13:59Z</time>
      </trkpt>
      <trkpt lat="43.62112" lon="3.02042">
        <ele>703.3418</ele>
        <time>2013-06-02T09:14:06Z</time>
      </trkpt>
      <trkpt lat="43.62136" lon="3.02099">
        <ele>703.3418</ele>
        <time>2013-06-02T09:14:25Z</time>
      </trkpt>
      <trkpt lat="43.62158" lon="3.0215">
        <ele>699.9771</ele>
        <time>2013-06-02T09:14:35Z</time>
      </trkpt>
      <trkpt lat="43.62161" lon="3.02153">
        <ele>699.9771</ele>
        <time>2013-06-02T09:14:36Z</time>
      </trkpt>
      <trkpt lat="43.62192" lon="3.02185">
        <ele>698.5349</ele>
        <time>2013-06-02T09:14:45Z</time>
      </trkpt>
      <trkpt lat="43.62205" lon="3.02203">
        <ele>697.5737</ele>
        <time>2013-06-02T09:14:49Z</time>
      </trkpt>
      <trkpt lat="43.62211" lon="3.02212">
        <ele>696.1318</ele>
        <time>2013-06-02T09:14:51Z</time>
      </trkpt>
      <trkpt lat="43.62224" lon="3.0222">
        <ele>696.6125</ele>
        <time>2013-06-02T09:14:55Z</time>
      </trkpt>
      <trkpt lat="43.62234" lon="3.02222">
        <ele>695.6511</ele>
        <time>2013-06-02T09:14:57Z</time>
      </trkpt>
      <trkpt lat="43.62245" lon="3.02223">
        <ele>694.2092</ele>
        <time>2013-06-02T09:14:59Z</time>
      </trkpt>
      <trkpt lat="43.6225" lon="3.02222">
        <ele>694.2092</ele>
        <time>2013-06-02T09:15:00Z</time>
      </trkpt>
      <trkpt lat="43.62276" lon="3.02236">
        <ele>691.8059</ele>
        <time>2013-06-02T09:15:06Z</time>
      </trkpt>
      <trkpt lat="43.62303" lon="3.02261">
        <ele>688.4414</ele>
        <time>2013-06-02T09:15:16Z</time>
      </trkpt>
      <trkpt lat="43.62316" lon="3.02278">
        <ele>686.5188</ele>
        <time>2013-06-02T09:15:20Z</time>
      </trkpt>
      <trkpt lat="43.62328" lon="3.02296">
        <ele>686.9993</ele>
        <time>2013-06-02T09:15:24Z</time>
      </trkpt>
      <trkpt lat="43.62334" lon="3.02301">
        <ele>684.5962</ele>
        <time>2013-06-02T09:15:26Z</time>
      </trkpt>
      <trkpt lat="43.62343" lon="3.02307">
        <ele>682.6733</ele>
        <time>2013-06-02T09:15:29Z</time>
      </trkpt>
      <trkpt lat="43.6238" lon="3.02324">
        <ele>677.8667</ele>
        <time>2013-06-02T09:15:39Z</time>
      </trkpt>
      <trkpt lat="43.62384" lon="3.02325">
        <ele>677.8667</ele>
        <time>2013-06-02T09:15:40Z</time>
      </trkpt>
      <trkpt lat="43.62391" lon="3.02326">
        <ele>674.0215</ele>
        <time>2013-06-02T09:15:42Z</time>
      </trkpt>
      <trkpt lat="43.62396" lon="3.02332">
        <ele>673.0603</ele>
        <time>2013-06-02T09:15:45Z</time>
      </trkpt>
      <trkpt lat="43.62393" lon="3.02351">
        <ele>669.2151</ele>
        <time>2013-06-02T09:15:49Z</time>
      </trkpt>
      <trkpt lat="43.62389" lon="3.02366">
        <ele>667.7727</ele>
        <time>2013-06-02T09:15:51Z</time>
      </trkpt>
      <trkpt lat="43.62383" lon="3.02393">
        <ele>665.8503</ele>
        <time>2013-06-02T09:15:54Z</time>
      </trkpt>
      <trkpt lat="43.62375" lon="3.02419">
        <ele>663.447</ele>
        <time>2013-06-02T09:15:57Z</time>
      </trkpt>
      <trkpt lat="43.62365" lon="3.02447">
        <ele>666.8115</ele>
        <time>2013-06-02T09:16:03Z</time>
      </trkpt>
      <trkpt lat="43.62364" lon="3.02449">
        <ele>666.8115</ele>
        <time>2013-06-02T09:16:04Z</time>
      </trkpt>
      <trkpt lat="43.62355" lon="3.02467">
        <ele>670.1763</ele>
        <time>2013-06-02T09:16:12Z</time>
      </trkpt>
      <trkpt lat="43.62355" lon="3.02469">
        <ele>670.1763</ele>
        <time>2013-06-02T09:16:13Z</time>
      </trkpt>
      <trkpt lat="43.62358" lon="3.02501">
        <ele>671.1377</ele>
        <time>2013-06-02T09:16:28Z</time>
      </trkpt>
      <trkpt lat="43.62377" lon="3.02538">
        <ele>672.0989</ele>
        <time>2013-06-02T09:16:47Z</time>
      </trkpt>
      <trkpt lat="43.62393" lon="3.02566">
        <ele>670.1763</ele>
        <time>2013-06-02T09:16:56Z</time>
      </trkpt>
      <trkpt lat="43.624" lon="3.02568">
        <ele>666.8115</ele>
        <time>2013-06-02T09:16:58Z</time>
      </trkpt>
      <trkpt lat="43.62404" lon="3.02568">
        <ele>666.8115</ele>
        <time>2013-06-02T09:16:59Z</time>
      </trkpt>
      <trkpt lat="43.62414" lon="3.02569">
        <ele>667.7727</ele>
        <time>2013-06-02T09:17:02Z</time>
      </trkpt>
      <trkpt lat="43.62421" lon="3.02568">
        <ele>666.8115</ele>
        <time>2013-06-02T09:17:04Z</time>
      </trkpt>
      <trkpt lat="43.62428" lon="3.02571">
        <ele>664.8889</ele>
        <time>2013-06-02T09:17:06Z</time>
      </trkpt>
      <trkpt lat="43.62437" lon="3.02578">
        <ele>663.447</ele>
        <time>2013-06-02T09:17:08Z</time>
      </trkpt>
      <trkpt lat="43.62447" lon="3.02584">
        <ele>661.0437</ele>
        <time>2013-06-02T09:17:10Z</time>
      </trkpt>
      <trkpt lat="43.62465" lon="3.02597">
        <ele>657.1985</ele>
        <time>2013-06-02T09:17:16Z</time>
      </trkpt>
      <trkpt lat="43.62485" lon="3.0261">
        <ele>654.3147</ele>
        <time>2013-06-02T09:17:22Z</time>
      </trkpt>
      <trkpt lat="43.62499" lon="3.02622">
        <ele>649.9885</ele>
        <time>2013-06-02T09:17:26Z</time>
      </trkpt>
      <trkpt lat="43.62501" lon="3.02626">
        <ele>649.9885</ele>
        <time>2013-06-02T09:17:27Z</time>
      </trkpt>
      <trkpt lat="43.62513" lon="3.02637">
        <ele>647.5852</ele>
        <time>2013-06-02T09:17:31Z</time>
      </trkpt>
      <trkpt lat="43.62523" lon="3.02653">
        <ele>646.1433</ele>
        <time>2013-06-02T09:17:34Z</time>
      </trkpt>
      <trkpt lat="43.62527" lon="3.02677">
        <ele>643.74</ele>
        <time>2013-06-02T09:17:38Z</time>
      </trkpt>
      <trkpt lat="43.62527" lon="3.02684">
        <ele>641.8174</ele>
        <time>2013-06-02T09:17:39Z</time>
      </trkpt>
      <trkpt lat="43.62533" lon="3.02707">
        <ele>640.3755</ele>
        <time>2013-06-02T09:17:43Z</time>
      </trkpt>
      <trkpt lat="43.62544" lon="3.02726">
        <ele>638.9336</ele>
        <time>2013-06-02T09:17:47Z</time>
      </trkpt>
      <trkpt lat="43.62546" lon="3.02738">
        <ele>637.0107</ele>
        <time>2013-06-02T09:17:49Z</time>
      </trkpt>
      <trkpt lat="43.62546" lon="3.02753">
        <ele>635.0881</ele>
        <time>2013-06-02T09:17:51Z</time>
      </trkpt>
      <trkpt lat="43.62553" lon="3.02765">
        <ele>633.646</ele>
        <time>2013-06-02T09:17:54Z</time>
      </trkpt>
      <trkpt lat="43.62558" lon="3.02764">
        <ele>633.646</ele>
        <time>2013-06-02T09:17:57Z</time>
      </trkpt>
      <trkpt lat="43.6256" lon="3.02763">
        <ele>635.0881</ele>
        <time>2013-06-02T09:17:59Z</time>
      </trkpt>
      <trkpt lat="43.6256" lon="3.02762">
        <ele>632.6848</ele>
        <time>2013-06-02T09:18:01Z</time>
      </trkpt>
      <trkpt lat="43.62558" lon="3.02761">
        <ele>635.5686</ele>
        <time>2013-06-02T09:18:20Z</time>
      </trkpt>
      <trkpt lat="43.62558" lon="3.02761">
        <ele>633.1653</ele>
        <time>2013-06-02T09:18:27Z</time>
      </trkpt>
      <trkpt lat="43.62558" lon="3.02761">
        <ele>635.5686</ele>
        <time>2013-06-02T09:18:59Z</time>
      </trkpt>
      <trkpt lat="43.62558" lon="3.02761">
        <ele>634.1267</ele>
        <time>2013-06-02T09:19:01Z</time>
      </trkpt>
      <trkpt lat="43.62558" lon="3.02761">
        <ele>634.6074</ele>
        <time>2013-06-02T09:19:06Z</time>
      </trkpt>
      <trkpt lat="43.62558" lon="3.02761">
        <ele>636.5303</ele>
        <time>2013-06-02T09:19:08Z</time>
      </trkpt>
      <trkpt lat="43.62558" lon="3.02761">
        <ele>633.646</ele>
        <time>2013-06-02T09:19:16Z</time>
      </trkpt>
      <trkpt lat="43.62558" lon="3.02761">
        <ele>636.0496</ele>
        <time>2013-06-02T09:19:20Z</time>
      </trkpt>
      <trkpt lat="43.62559" lon="3.02761">
        <ele>634.1267</ele>
        <time>2013-06-02T09:20:05Z</time>
      </trkpt>
      <trkpt lat="43.62558" lon="3.02761">
        <ele>634.6074</ele>
        <time>2013-06-02T09:21:54Z</time>
      </trkpt>
      <trkpt lat="43.62558" lon="3.02761">
        <ele>632.6848</ele>
        <time>2013-06-02T09:22:13Z</time>
      </trkpt>
      <trkpt lat="43.62572" lon="3.02735">
        <ele>633.1653</ele>
        <time>2013-06-02T09:22:22Z</time>
      </trkpt>
      <trkpt lat="43.62576" lon="3.02726">
        <ele>631.2429</ele>
        <time>2013-06-02T09:22:24Z</time>
      </trkpt>
      <trkpt lat="43.6259" lon="3.027">
        <ele>629.3201</ele>
        <time>2013-06-02T09:22:30Z</time>
      </trkpt>
      <trkpt lat="43.626" lon="3.02684">
        <ele>627.8782</ele>
        <time>2013-06-02T09:22:34Z</time>
      </trkpt>
      <trkpt lat="43.62608" lon="3.02671">
        <ele>626.917</ele>
        <time>2013-06-02T09:22:37Z</time>
      </trkpt>
      <trkpt lat="43.62613" lon="3.02661">
        <ele>628.3589</ele>
        <time>2013-06-02T09:22:39Z</time>
      </trkpt>
      <trkpt lat="43.62617" lon="3.02651">
        <ele>624.5137</ele>
        <time>2013-06-02T09:22:41Z</time>
      </trkpt>
      <trkpt lat="43.62619" lon="3.02647">
        <ele>624.5137</ele>
        <time>2013-06-02T09:22:42Z</time>
      </trkpt>
      <trkpt lat="43.62624" lon="3.02636">
        <ele>625.9556</ele>
        <time>2013-06-02T09:22:44Z</time>
      </trkpt>
      <trkpt lat="43.62628" lon="3.02626">
        <ele>623.5525</ele>
        <time>2013-06-02T09:22:46Z</time>
      </trkpt>
      <trkpt lat="43.62635" lon="3.02615">
        <ele>627.3977</ele>
        <time>2013-06-02T09:22:48Z</time>
      </trkpt>
      <trkpt lat="43.6264" lon="3.02611">
        <ele>627.3977</ele>
        <time>2013-06-02T09:22:49Z</time>
      </trkpt>
      <trkpt lat="43.62645" lon="3.02609">
        <ele>631.7234</ele>
        <time>2013-06-02T09:22:50Z</time>
      </trkpt>
      <trkpt lat="43.62649" lon="3.02608">
        <ele>631.7234</ele>
        <time>2013-06-02T09:22:51Z</time>
      </trkpt>
      <trkpt lat="43.62676" lon="3.02605">
        <ele>629.3201</ele>
        <time>2013-06-02T09:22:58Z</time>
      </trkpt>
      <trkpt lat="43.62705" lon="3.02584">
        <ele>627.3977</ele>
        <time>2013-06-02T09:23:05Z</time>
      </trkpt>
      <trkpt lat="43.62737" lon="3.02549">
        <ele>625.4749</ele>
        <time>2013-06-02T09:23:12Z</time>
      </trkpt>
      <trkpt lat="43.62747" lon="3.02539">
        <ele>623.5525</ele>
        <time>2013-06-02T09:23:14Z</time>
      </trkpt>
      <trkpt lat="43.62809" lon="3.02438">
        <ele>620.1877</ele>
        <time>2013-06-02T09:23:32Z</time>
      </trkpt>
      <trkpt lat="43.62812" lon="3.02431">
        <ele>620.1877</ele>
        <time>2013-06-02T09:23:33Z</time>
      </trkpt>
      <trkpt lat="43.62818" lon="3.02418">
        <ele>619.2263</ele>
        <time>2013-06-02T09:23:35Z</time>
      </trkpt>
      <trkpt lat="43.62823" lon="3.02404">
        <ele>617.7842</ele>
        <time>2013-06-02T09:23:37Z</time>
      </trkpt>
      <trkpt lat="43.62828" lon="3.02389">
        <ele>615.3811</ele>
        <time>2013-06-02T09:23:39Z</time>
      </trkpt>
      <trkpt lat="43.62837" lon="3.02351">
        <ele>617.7842</ele>
        <time>2013-06-02T09:23:44Z</time>
      </trkpt>
      <trkpt lat="43.62839" lon="3.02329">
        <ele>615.3811</ele>
        <time>2013-06-02T09:23:47Z</time>
      </trkpt>
      <trkpt lat="43.62837" lon="3.02303">
        <ele>616.3423</ele>
        <time>2013-06-02T09:23:51Z</time>
      </trkpt>
      <trkpt lat="43.62835" lon="3.02281">
        <ele>618.2649</ele>
        <time>2013-06-02T09:23:56Z</time>
      </trkpt>
      <trkpt lat="43.6282" lon="3.0223">
        <ele>620.6685</ele>
        <time>2013-06-02T09:24:09Z</time>
      </trkpt>
      <trkpt lat="43.62795" lon="3.02206">
        <ele>622.5911</ele>
        <time>2013-06-02T09:24:21Z</time>
      </trkpt>
      <trkpt lat="43.62792" lon="3.02204">
        <ele>623.0718</ele>
        <time>2013-06-02T09:24:22Z</time>
      </trkpt>
      <trkpt lat="43.62784" lon="3.02188">
        <ele>624.5137</ele>
        <time>2013-06-02T09:24:27Z</time>
      </trkpt>
      <trkpt lat="43.62789" lon="3.02137">
        <ele>625.4749</ele>
        <time>2013-06-02T09:24:42Z</time>
      </trkpt>
      <trkpt lat="43.62791" lon="3.02131">
        <ele>626.917</ele>
        <time>2013-06-02T09:24:44Z</time>
      </trkpt>
      <trkpt lat="43.62819" lon="3.02068">
        <ele>628.3589</ele>
        <time>2013-06-02T09:25:06Z</time>
      </trkpt>
      <trkpt lat="43.62846" lon="3.02032">
        <ele>629.3201</ele>
        <time>2013-06-02T09:25:18Z</time>
      </trkpt>
      <trkpt lat="43.62853" lon="3.02011">
        <ele>631.2429</ele>
        <time>2013-06-02T09:25:27Z</time>
      </trkpt>
      <trkpt lat="43.62851" lon="3.02007">
        <ele>632.6848</ele>
        <time>2013-06-02T09:25:29Z</time>
      </trkpt>
      <trkpt lat="43.62839" lon="3.01982">
        <ele>633.1653</ele>
        <time>2013-06-02T09:25:40Z</time>
      </trkpt>
      <trkpt lat="43.62837" lon="3.01978">
        <ele>632.2041</ele>
        <time>2013-06-02T09:25:42Z</time>
      </trkpt>
      <trkpt lat="43.62829" lon="3.0197">
        <ele>634.6074</ele>
        <time>2013-06-02T09:25:48Z</time>
      </trkpt>
      <trkpt lat="43.62827" lon="3.01967">
        <ele>636.5303</ele>
        <time>2013-06-02T09:25:50Z</time>
      </trkpt>
      <trkpt lat="43.62813" lon="3.01952">
        <ele>640.856</ele>
        <time>2013-06-02T09:26:00Z</time>
      </trkpt>
      <trkpt lat="43.6281" lon="3.01946">
        <ele>641.3367</ele>
        <time>2013-06-02T09:26:03Z</time>
      </trkpt>
      <trkpt lat="43.62811" lon="3.01938">
        <ele>641.8174</ele>
        <time>2013-06-02T09:26:07Z</time>
      </trkpt>
      <trkpt lat="43.62819" lon="3.01931">
        <ele>643.2593</ele>
        <time>2013-06-02T09:26:13Z</time>
      </trkpt>
      <trkpt lat="43.62848" lon="3.01922">
        <ele>647.1045</ele>
        <time>2013-06-02T09:26:29Z</time>
      </trkpt>
      <trkpt lat="43.62851" lon="3.0192">
        <ele>647.1045</ele>
        <time>2013-06-02T09:26:31Z</time>
      </trkpt>
      <trkpt lat="43.62878" lon="3.01907">
        <ele>646.1433</ele>
        <time>2013-06-02T09:26:45Z</time>
      </trkpt>
      <trkpt lat="43.62887" lon="3.01903">
        <ele>648.0659</ele>
        <time>2013-06-02T09:26:49Z</time>
      </trkpt>
      <trkpt lat="43.6291" lon="3.01886">
        <ele>643.74</ele>
        <time>2013-06-02T09:26:59Z</time>
      </trkpt>
      <trkpt lat="43.62913" lon="3.01884">
        <ele>643.74</ele>
        <time>2013-06-02T09:27:00Z</time>
      </trkpt>
      <trkpt lat="43.62922" lon="3.01874">
        <ele>647.1045</ele>
        <time>2013-06-02T09:27:03Z</time>
      </trkpt>
      <trkpt lat="43.62924" lon="3.0187">
        <ele>647.1045</ele>
        <time>2013-06-02T09:27:04Z</time>
      </trkpt>
      <trkpt lat="43.62921" lon="3.01858">
        <ele>649.0271</ele>
        <time>2013-06-02T09:27:08Z</time>
      </trkpt>
      <trkpt lat="43.62919" lon="3.01859">
        <ele>651.4304</ele>
        <time>2013-06-02T09:27:09Z</time>
      </trkpt>
      <trkpt lat="43.62888" lon="3.01883">
        <ele>653.834</ele>
        <time>2013-06-02T09:27:25Z</time>
      </trkpt>
      <trkpt lat="43.62855" lon="3.019">
        <ele>656.2371</ele>
        <time>2013-06-02T09:27:41Z</time>
      </trkpt>
      <trkpt lat="43.62851" lon="3.01901">
        <ele>656.2371</ele>
        <time>2013-06-02T09:27:43Z</time>
      </trkpt>
      <trkpt lat="43.62845" lon="3.01901">
        <ele>657.6792</ele>
        <time>2013-06-02T09:27:46Z</time>
      </trkpt>
      <trkpt lat="43.62811" lon="3.01895">
        <ele>661.0437</ele>
        <time>2013-06-02T09:28:04Z</time>
      </trkpt>
      <trkpt lat="43.62791" lon="3.01883">
        <ele>661.5244</ele>
        <time>2013-06-02T09:28:17Z</time>
      </trkpt>
      <trkpt lat="43.62767" lon="3.01869">
        <ele>664.8889</ele>
        <time>2013-06-02T09:28:34Z</time>
      </trkpt>
      <trkpt lat="43.62766" lon="3.01868">
        <ele>664.8889</ele>
        <time>2013-06-02T09:28:35Z</time>
      </trkpt>
      <trkpt lat="43.62739" lon="3.01879">
        <ele>666.8115</ele>
        <time>2013-06-02T09:28:54Z</time>
      </trkpt>
      <trkpt lat="43.62745" lon="3.01898">
        <ele>666.8115</ele>
        <time>2013-06-02T09:29:01Z</time>
      </trkpt>
      <trkpt lat="43.62748" lon="3.01976">
        <ele>669.2151</ele>
        <time>2013-06-02T09:29:26Z</time>
      </trkpt>
      <trkpt lat="43.62742" lon="3.02001">
        <ele>671.6182</ele>
        <time>2013-06-02T09:29:34Z</time>
      </trkpt>
      <trkpt lat="43.62725" lon="3.02031">
        <ele>675.4634</ele>
        <time>2013-06-02T09:29:45Z</time>
      </trkpt>
      <trkpt lat="43.62712" lon="3.02052">
        <ele>677.3862</ele>
        <time>2013-06-02T09:29:53Z</time>
      </trkpt>
      <trkpt lat="43.62705" lon="3.02067">
        <ele>679.3086</ele>
        <time>2013-06-02T09:29:59Z</time>
      </trkpt>
      <trkpt lat="43.62702" lon="3.02073">
        <ele>680.27</ele>
        <time>2013-06-02T09:30:02Z</time>
      </trkpt>
      <trkpt lat="43.627" lon="3.02077">
        <ele>680.7507</ele>
        <time>2013-06-02T09:30:04Z</time>
      </trkpt>
      <trkpt lat="43.62696" lon="3.02087">
        <ele>681.7119</ele>
        <time>2013-06-02T09:30:09Z</time>
      </trkpt>
      <trkpt lat="43.62678" lon="3.02121">
        <ele>685.5574</ele>
        <time>2013-06-02T09:30:25Z</time>
      </trkpt>
      <trkpt lat="43.62677" lon="3.02126">
        <ele>686.5188</ele>
        <time>2013-06-02T09:30:27Z</time>
      </trkpt>
      <trkpt lat="43.62664" lon="3.02159">
        <ele>686.9993</ele>
        <time>2013-06-02T09:30:41Z</time>
      </trkpt>
      <trkpt lat="43.62648" lon="3.02212">
        <ele>690.8445</ele>
        <time>2013-06-02T09:31:03Z</time>
      </trkpt>
      <trkpt lat="43.62647" lon="3.02216">
        <ele>690.8445</ele>
        <time>2013-06-02T09:31:04Z</time>
      </trkpt>
      <trkpt lat="43.62644" lon="3.0224">
        <ele>690.8445</ele>
        <time>2013-06-02T09:31:11Z</time>
      </trkpt>
      <trkpt lat="43.62651" lon="3.02259">
        <ele>690.8445</ele>
        <time>2013-06-02T09:31:16Z</time>
      </trkpt>
      <trkpt lat="43.62656" lon="3.02269">
        <ele>692.2866</ele>
        <time>2013-06-02T09:31:19Z</time>
      </trkpt>
      <trkpt lat="43.6267" lon="3.02312">
        <ele>693.7285</ele>
        <time>2013-06-02T09:31:30Z</time>
      </trkpt>
      <trkpt lat="43.62662" lon="3.02317">
        <ele>696.1318</ele>
        <time>2013-06-02T09:31:34Z</time>
      </trkpt>
      <trkpt lat="43.62659" lon="3.02313">
        <ele>694.6897</ele>
        <time>2013-06-02T09:31:36Z</time>
      </trkpt>
      <trkpt lat="43.62658" lon="3.02311">
        <ele>692.7673</ele>
        <time>2013-06-02T09:31:37Z</time>
      </trkpt>
      <trkpt lat="43.62654" lon="3.02298">
        <ele>696.1318</ele>
        <time>2013-06-02T09:31:45Z</time>
      </trkpt>
      <trkpt lat="43.62654" lon="3.02296">
        <ele>696.1318</ele>
        <time>2013-06-02T09:31:46Z</time>
      </trkpt>
      <trkpt lat="43.62653" lon="3.02295">
        <ele>696.1318</ele>
        <time>2013-06-02T09:31:47Z</time>
      </trkpt>
      <trkpt lat="43.62653" lon="3.02292">
        <ele>694.6897</ele>
        <time>2013-06-02T09:31:49Z</time>
      </trkpt>
      <trkpt lat="43.62653" lon="3.02291">
        <ele>695.6511</ele>
        <time>2013-06-02T09:31:50Z</time>
      </trkpt>
      <trkpt lat="43.62646" lon="3.02278">
        <ele>698.5349</ele>
        <time>2013-06-02T09:31:58Z</time>
      </trkpt>
      <trkpt lat="43.62625" lon="3.02237">
        <ele>702.3804</ele>
        <time>2013-06-02T09:32:17Z</time>
      </trkpt>
      <trkpt lat="43.62632" lon="3.02171">
        <ele>702.8611</ele>
        <time>2013-06-02T09:32:43Z</time>
      </trkpt>
      <trkpt lat="43.62639" lon="3.02128">
        <ele>706.2256</ele>
        <time>2013-06-02T09:32:59Z</time>
      </trkpt>
      <trkpt lat="43.62643" lon="3.02102">
        <ele>709.1096</ele>
        <time>2013-06-02T09:33:10Z</time>
      </trkpt>
      <trkpt lat="43.6265" lon="3.02032">
        <ele>712.4741</ele>
        <time>2013-06-02T09:33:38Z</time>
      </trkpt>
      <trkpt lat="43.6265" lon="3.02018">
        <ele>713.916</ele>
        <time>2013-06-02T09:33:44Z</time>
      </trkpt>
      <trkpt lat="43.62647" lon="3.01983">
        <ele>716.3196</ele>
        <time>2013-06-02T09:33:59Z</time>
      </trkpt>
      <trkpt lat="43.62631" lon="3.01939">
        <ele>719.2036</ele>
        <time>2013-06-02T09:34:20Z</time>
      </trkpt>
      <trkpt lat="43.62618" lon="3.01922">
        <ele>718.7229</ele>
        <time>2013-06-02T09:34:31Z</time>
      </trkpt>
      <trkpt lat="43.62605" lon="3.0191">
        <ele>718.7229</ele>
        <time>2013-06-02T09:34:39Z</time>
      </trkpt>
      <trkpt lat="43.62598" lon="3.01905">
        <ele>720.1648</ele>
        <time>2013-06-02T09:34:44Z</time>
      </trkpt>
      <trkpt lat="43.62584" lon="3.01897">
        <ele>724.4907</ele>
        <time>2013-06-02T09:34:53Z</time>
      </trkpt>
      <trkpt lat="43.62582" lon="3.01896">
        <ele>724.4907</ele>
        <time>2013-06-02T09:34:54Z</time>
      </trkpt>
      <trkpt lat="43.62574" lon="3.01892">
        <ele>728.3359</ele>
        <time>2013-06-02T09:34:59Z</time>
      </trkpt>
      <trkpt lat="43.62573" lon="3.0189">
        <ele>728.3359</ele>
        <time>2013-06-02T09:35:00Z</time>
      </trkpt>
      <trkpt lat="43.6257" lon="3.01851">
        <ele>730.2585</ele>
        <time>2013-06-02T09:35:18Z</time>
      </trkpt>
      <trkpt lat="43.62578" lon="3.01805">
        <ele>734.104</ele>
        <time>2013-06-02T09:35:35Z</time>
      </trkpt>
      <trkpt lat="43.62579" lon="3.01803">
        <ele>734.104</ele>
        <time>2013-06-02T09:35:36Z</time>
      </trkpt>
      <trkpt lat="43.6258" lon="3.01797">
        <ele>735.5459</ele>
        <time>2013-06-02T09:35:38Z</time>
      </trkpt>
      <trkpt lat="43.62585" lon="3.0178">
        <ele>733.6233</ele>
        <time>2013-06-02T09:35:45Z</time>
      </trkpt>
      <trkpt lat="43.62587" lon="3.01776">
        <ele>736.0266</ele>
        <time>2013-06-02T09:35:47Z</time>
      </trkpt>
      <trkpt lat="43.62602" lon="3.01751">
        <ele>736.5073</ele>
        <time>2013-06-02T09:36:00Z</time>
      </trkpt>
      <trkpt lat="43.62608" lon="3.01744">
        <ele>736.0266</ele>
        <time>2013-06-02T09:36:04Z</time>
      </trkpt>
      <trkpt lat="43.62611" lon="3.01739">
        <ele>734.5847</ele>
        <time>2013-06-02T09:36:06Z</time>
      </trkpt>
      <trkpt lat="43.62613" lon="3.01734">
        <ele>737.4685</ele>
        <time>2013-06-02T09:36:08Z</time>
      </trkpt>
      <trkpt lat="43.62616" lon="3.01728">
        <ele>738.4299</ele>
        <time>2013-06-02T09:36:10Z</time>
      </trkpt>
      <trkpt lat="43.62619" lon="3.01723">
        <ele>740.833</ele>
        <time>2013-06-02T09:36:12Z</time>
      </trkpt>
      <trkpt lat="43.62623" lon="3.01674">
        <ele>741.3137</ele>
        <time>2013-06-02T09:36:31Z</time>
      </trkpt>
      <trkpt lat="43.62621" lon="3.01665">
        <ele>743.2363</ele>
        <time>2013-06-02T09:36:35Z</time>
      </trkpt>
      <trkpt lat="43.62617" lon="3.01642">
        <ele>744.1978</ele>
        <time>2013-06-02T09:36:46Z</time>
      </trkpt>
      <trkpt lat="43.6261" lon="3.01617">
        <ele>745.1589</ele>
        <time>2013-06-02T09:36:59Z</time>
      </trkpt>
      <trkpt lat="43.62604" lon="3.01601">
        <ele>744.6782</ele>
        <time>2013-06-02T09:37:09Z</time>
      </trkpt>
      <trkpt lat="43.62601" lon="3.01594">
        <ele>746.1204</ele>
        <time>2013-06-02T09:37:13Z</time>
      </trkpt>
      <trkpt lat="43.62598" lon="3.01586">
        <ele>749.0044</ele>
        <time>2013-06-02T09:37:17Z</time>
      </trkpt>
      <trkpt lat="43.62597" lon="3.01584">
        <ele>749.0044</ele>
        <time>2013-06-02T09:37:18Z</time>
      </trkpt>
      <trkpt lat="43.62583" lon="3.01557">
        <ele>752.3689</ele>
        <time>2013-06-02T09:37:35Z</time>
      </trkpt>
      <trkpt lat="43.62582" lon="3.01555">
        <ele>752.8496</ele>
        <time>2013-06-02T09:37:36Z</time>
      </trkpt>
      <trkpt lat="43.62567" lon="3.01527">
        <ele>755.7336</ele>
        <time>2013-06-02T09:37:54Z</time>
      </trkpt>
      <trkpt lat="43.62566" lon="3.01523">
        <ele>757.1755</ele>
        <time>2013-06-02T09:37:56Z</time>
      </trkpt>
      <trkpt lat="43.62562" lon="3.01518">
        <ele>756.2141</ele>
        <time>2013-06-02T09:38:00Z</time>
      </trkpt>
      <trkpt lat="43.62559" lon="3.01511">
        <ele>757.6563</ele>
        <time>2013-06-02T09:38:04Z</time>
      </trkpt>
      <trkpt lat="43.62552" lon="3.01494">
        <ele>760.54</ele>
        <time>2013-06-02T09:38:14Z</time>
      </trkpt>
      <trkpt lat="43.62543" lon="3.01474">
        <ele>763.9045</ele>
        <time>2013-06-02T09:38:26Z</time>
      </trkpt>
      <trkpt lat="43.62534" lon="3.01459">
        <ele>766.7888</ele>
        <time>2013-06-02T09:38:37Z</time>
      </trkpt>
      <trkpt lat="43.62533" lon="3.01457">
        <ele>766.7888</ele>
        <time>2013-06-02T09:38:38Z</time>
      </trkpt>
      <trkpt lat="43.62531" lon="3.01456">
        <ele>769.1921</ele>
        <time>2013-06-02T09:38:40Z</time>
      </trkpt>
      <trkpt lat="43.62528" lon="3.01452">
        <ele>769.1921</ele>
        <time>2013-06-02T09:38:43Z</time>
      </trkpt>
      <trkpt lat="43.62525" lon="3.01449">
        <ele>770.634</ele>
        <time>2013-06-02T09:38:46Z</time>
      </trkpt>
      <trkpt lat="43.62509" lon="3.0143">
        <ele>774.4792</ele>
        <time>2013-06-02T09:39:04Z</time>
      </trkpt>
      <trkpt lat="43.62508" lon="3.01429">
        <ele>774.4792</ele>
        <time>2013-06-02T09:39:05Z</time>
      </trkpt>
      <trkpt lat="43.625" lon="3.0142">
        <ele>776.4019</ele>
        <time>2013-06-02T09:39:14Z</time>
      </trkpt>
      <trkpt lat="43.62498" lon="3.01418">
        <ele>777.8438</ele>
        <time>2013-06-02T09:39:16Z</time>
      </trkpt>
      <trkpt lat="43.62497" lon="3.01416">
        <ele>779.2856</ele>
        <time>2013-06-02T09:39:18Z</time>
      </trkpt>
      <trkpt lat="43.62478" lon="3.01388">
        <ele>780.2473</ele>
        <time>2013-06-02T09:39:39Z</time>
      </trkpt>
      <trkpt lat="43.62476" lon="3.01382">
        <ele>781.6892</ele>
        <time>2013-06-02T09:39:43Z</time>
      </trkpt>
      <trkpt lat="43.62475" lon="3.01378">
        <ele>783.6118</ele>
        <time>2013-06-02T09:39:45Z</time>
      </trkpt>
      <trkpt lat="43.62474" lon="3.01359">
        <ele>786.4958</ele>
        <time>2013-06-02T09:39:56Z</time>
      </trkpt>
      <trkpt lat="43.62483" lon="3.01316">
        <ele>788.4185</ele>
        <time>2013-06-02T09:40:17Z</time>
      </trkpt>
      <trkpt lat="43.62485" lon="3.01309">
        <ele>787.9377</ele>
        <time>2013-06-02T09:40:21Z</time>
      </trkpt>
      <trkpt lat="43.62482" lon="3.01302">
        <ele>788.8992</ele>
        <time>2013-06-02T09:40:25Z</time>
      </trkpt>
      <trkpt lat="43.62479" lon="3.01302">
        <ele>790.8215</ele>
        <time>2013-06-02T09:40:27Z</time>
      </trkpt>
      <trkpt lat="43.62476" lon="3.01305">
        <ele>791.783</ele>
        <time>2013-06-02T09:40:29Z</time>
      </trkpt>
      <trkpt lat="43.62475" lon="3.01306">
        <ele>794.1863</ele>
        <time>2013-06-02T09:40:30Z</time>
      </trkpt>
      <trkpt lat="43.62472" lon="3.0131">
        <ele>794.6667</ele>
        <time>2013-06-02T09:40:32Z</time>
      </trkpt>
      <trkpt lat="43.62452" lon="3.01332">
        <ele>798.0317</ele>
        <time>2013-06-02T09:40:47Z</time>
      </trkpt>
      <trkpt lat="43.6244" lon="3.01343">
        <ele>800.9155</ele>
        <time>2013-06-02T09:40:55Z</time>
      </trkpt>
      <trkpt lat="43.62419" lon="3.01346">
        <ele>802.8381</ele>
        <time>2013-06-02T09:41:10Z</time>
      </trkpt>
      <trkpt lat="43.62414" lon="3.01335">
        <ele>801.3962</ele>
        <time>2013-06-02T09:41:20Z</time>
      </trkpt>
      <trkpt lat="43.62415" lon="3.01331">
        <ele>801.877</ele>
        <time>2013-06-02T09:41:26Z</time>
      </trkpt>
      <trkpt lat="43.62415" lon="3.01331">
        <ele>802.3574</ele>
        <time>2013-06-02T09:41:33Z</time>
      </trkpt>
      <trkpt lat="43.62422" lon="3.01329">
        <ele>801.877</ele>
        <time>2013-06-02T09:41:41Z</time>
      </trkpt>
      <trkpt lat="43.62423" lon="3.01321">
        <ele>803.3188</ele>
        <time>2013-06-02T09:41:56Z</time>
      </trkpt>
      <trkpt lat="43.62426" lon="3.01312">
        <ele>803.3188</ele>
        <time>2013-06-02T09:42:03Z</time>
      </trkpt>
      <trkpt lat="43.6243" lon="3.01308">
        <ele>804.7607</ele>
        <time>2013-06-02T09:42:08Z</time>
      </trkpt>
      <trkpt lat="43.62441" lon="3.01265">
        <ele>805.7222</ele>
        <time>2013-06-02T09:42:31Z</time>
      </trkpt>
      <trkpt lat="43.62442" lon="3.01263">
        <ele>805.7222</ele>
        <time>2013-06-02T09:42:32Z</time>
      </trkpt>
      <trkpt lat="43.62445" lon="3.01255">
        <ele>808.1255</ele>
        <time>2013-06-02T09:42:36Z</time>
      </trkpt>
      <trkpt lat="43.6245" lon="3.01239">
        <ele>808.1255</ele>
        <time>2013-06-02T09:42:44Z</time>
      </trkpt>
      <trkpt lat="43.62451" lon="3.01236">
        <ele>808.1255</ele>
        <time>2013-06-02T09:42:45Z</time>
      </trkpt>
      <trkpt lat="43.62463" lon="3.01218">
        <ele>807.1641</ele>
        <time>2013-06-02T09:42:55Z</time>
      </trkpt>
      <trkpt lat="43.62484" lon="3.01153">
        <ele>802.8381</ele>
        <time>2013-06-02T09:43:11Z</time>
      </trkpt>
      <trkpt lat="43.62486" lon="3.01148">
        <ele>802.8381</ele>
        <time>2013-06-02T09:43:12Z</time>
      </trkpt>
      <trkpt lat="43.62493" lon="3.01132">
        <ele>805.2415</ele>
        <time>2013-06-02T09:43:15Z</time>
      </trkpt>
      <trkpt lat="43.62496" lon="3.01123">
        <ele>806.6833</ele>
        <time>2013-06-02T09:43:17Z</time>
      </trkpt>
      <trkpt lat="43.62498" lon="3.01103">
        <ele>809.0867</ele>
        <time>2013-06-02T09:43:22Z</time>
      </trkpt>
      <trkpt lat="43.62499" lon="3.01063">
        <ele>812.4514</ele>
        <time>2013-06-02T09:43:32Z</time>
      </trkpt>
      <trkpt lat="43.62499" lon="3.0106">
        <ele>812.4514</ele>
        <time>2013-06-02T09:43:33Z</time>
      </trkpt>
      <trkpt lat="43.62502" lon="3.0104">
        <ele>814.8547</ele>
        <time>2013-06-02T09:43:40Z</time>
      </trkpt>
      <trkpt lat="43.62505" lon="3.01018">
        <ele>818.2192</ele>
        <time>2013-06-02T09:43:51Z</time>
      </trkpt>
      <trkpt lat="43.62505" lon="3.01015">
        <ele>818.2192</ele>
        <time>2013-06-02T09:43:52Z</time>
      </trkpt>
      <trkpt lat="43.6251" lon="3.00992">
        <ele>821.5837</ele>
        <time>2013-06-02T09:44:04Z</time>
      </trkpt>
      <trkpt lat="43.62521" lon="3.00968">
        <ele>821.5837</ele>
        <time>2013-06-02T09:44:19Z</time>
      </trkpt>
      <trkpt lat="43.62525" lon="3.00965">
        <ele>821.5837</ele>
        <time>2013-06-02T09:44:23Z</time>
      </trkpt>
      <trkpt lat="43.62529" lon="3.00957">
        <ele>824.4678</ele>
        <time>2013-06-02T09:44:28Z</time>
      </trkpt>
      <trkpt lat="43.6253" lon="3.00955">
        <ele>824.4678</ele>
        <time>2013-06-02T09:44:29Z</time>
      </trkpt>
      <trkpt lat="43.62535" lon="3.00949">
        <ele>824.9485</ele>
        <time>2013-06-02T09:44:34Z</time>
      </trkpt>
      <trkpt lat="43.62542" lon="3.00939">
        <ele>825.9097</ele>
        <time>2013-06-02T09:44:42Z</time>
      </trkpt>
      <trkpt lat="43.62543" lon="3.00935">
        <ele>825.429</ele>
        <time>2013-06-02T09:44:45Z</time>
      </trkpt>
      <trkpt lat="43.62551" lon="3.00924">
        <ele>827.8323</ele>
        <time>2013-06-02T09:44:55Z</time>
      </trkpt>
      <trkpt lat="43.62552" lon="3.00921">
        <ele>829.2744</ele>
        <time>2013-06-02T09:44:57Z</time>
      </trkpt>
      <trkpt lat="43.62563" lon="3.00902">
        <ele>826.3904</ele>
        <time>2013-06-02T09:45:10Z</time>
      </trkpt>
      <trkpt lat="43.62566" lon="3.00896">
        <ele>828.3132</ele>
        <time>2013-06-02T09:45:14Z</time>
      </trkpt>
      <trkpt lat="43.62568" lon="3.00892">
        <ele>830.2358</ele>
        <time>2013-06-02T09:45:17Z</time>
      </trkpt>
      <trkpt lat="43.62571" lon="3.00884">
        <ele>834.0811</ele>
        <time>2013-06-02T09:45:22Z</time>
      </trkpt>
      <trkpt lat="43.62571" lon="3.00882">
        <ele>834.0811</ele>
        <time>2013-06-02T09:45:23Z</time>
      </trkpt>
      <trkpt lat="43.62586" lon="3.00851">
        <ele>837.4456</ele>
        <time>2013-06-02T09:45:45Z</time>
      </trkpt>
      <trkpt lat="43.6259" lon="3.00843">
        <ele>840.8101</ele>
        <time>2013-06-02T09:45:51Z</time>
      </trkpt>
      <trkpt lat="43.6259" lon="3.00841">
        <ele>840.8101</ele>
        <time>2013-06-02T09:45:52Z</time>
      </trkpt>
      <trkpt lat="43.62598" lon="3.00827">
        <ele>840.8101</ele>
        <time>2013-06-02T09:46:03Z</time>
      </trkpt>
      <trkpt lat="43.62601" lon="3.00819">
        <ele>843.2134</ele>
        <time>2013-06-02T09:46:10Z</time>
      </trkpt>
      <trkpt lat="43.62599" lon="3.00816">
        <ele>844.6555</ele>
        <time>2013-06-02T09:46:13Z</time>
      </trkpt>
      <trkpt lat="43.62598" lon="3.00816">
        <ele>845.1362</ele>
        <time>2013-06-02T09:46:14Z</time>
      </trkpt>
      <trkpt lat="43.62596" lon="3.00814">
        <ele>847.0588</ele>
        <time>2013-06-02T09:46:16Z</time>
      </trkpt>
      <trkpt lat="43.62585" lon="3.00813">
        <ele>846.5784</ele>
        <time>2013-06-02T09:46:24Z</time>
      </trkpt>
      <trkpt lat="43.62555" lon="3.008">
        <ele>848.0203</ele>
        <time>2013-06-02T09:46:44Z</time>
      </trkpt>
      <trkpt lat="43.62538" lon="3.0077">
        <ele>851.3848</ele>
        <time>2013-06-02T09:47:01Z</time>
      </trkpt>
      <trkpt lat="43.62531" lon="3.00733">
        <ele>852.3459</ele>
        <time>2013-06-02T09:47:18Z</time>
      </trkpt>
      <trkpt lat="43.62534" lon="3.00707">
        <ele>855.23</ele>
        <time>2013-06-02T09:47:32Z</time>
      </trkpt>
      <trkpt lat="43.62534" lon="3.00703">
        <ele>856.1912</ele>
        <time>2013-06-02T09:47:34Z</time>
      </trkpt>
      <trkpt lat="43.62538" lon="3.00659">
        <ele>858.5945</ele>
        <time>2013-06-02T09:47:52Z</time>
      </trkpt>
      <trkpt lat="43.6254" lon="3.0065">
        <ele>856.6719</ele>
        <time>2013-06-02T09:47:55Z</time>
      </trkpt>
      <trkpt lat="43.62543" lon="3.00571">
        <ele>858.114</ele>
        <time>2013-06-02T09:48:16Z</time>
      </trkpt>
      <trkpt lat="43.62535" lon="3.00517">
        <ele>854.7493</ele>
        <time>2013-06-02T09:48:26Z</time>
      </trkpt>
      <trkpt lat="43.62524" lon="3.00479">
        <ele>856.6719</ele>
        <time>2013-06-02T09:48:34Z</time>
      </trkpt>
      <trkpt lat="43.62506" lon="3.00409">
        <ele>857.6333</ele>
        <time>2013-06-02T09:48:52Z</time>
      </trkpt>
      <trkpt lat="43.62503" lon="3.00404">
        <ele>856.1912</ele>
        <time>2013-06-02T09:48:54Z</time>
      </trkpt>
      <trkpt lat="43.625" lon="3.00397">
        <ele>856.6719</ele>
        <time>2013-06-02T09:48:56Z</time>
      </trkpt>
      <trkpt lat="43.62487" lon="3.00355">
        <ele>855.7107</ele>
        <time>2013-06-02T09:49:06Z</time>
      </trkpt>
      <trkpt lat="43.62485" lon="3.00346">
        <ele>854.2688</ele>
        <time>2013-06-02T09:49:08Z</time>
      </trkpt>
      <trkpt lat="43.62484" lon="3.00337">
        <ele>853.3074</ele>
        <time>2013-06-02T09:49:10Z</time>
      </trkpt>
      <trkpt lat="43.62482" lon="3.00322">
        <ele>854.7493</ele>
        <time>2013-06-02T09:49:13Z</time>
      </trkpt>
      <trkpt lat="43.62482" lon="3.00312">
        <ele>852.8267</ele>
        <time>2013-06-02T09:49:15Z</time>
      </trkpt>
      <trkpt lat="43.6248" lon="3.00287">
        <ele>855.23</ele>
        <time>2013-06-02T09:49:20Z</time>
      </trkpt>
      <trkpt lat="43.62494" lon="3.00255">
        <ele>856.6719</ele>
        <time>2013-06-02T09:49:29Z</time>
      </trkpt>
      <trkpt lat="43.62503" lon="3.00246">
        <ele>857.1526</ele>
        <time>2013-06-02T09:49:34Z</time>
      </trkpt>
      <trkpt lat="43.62505" lon="3.00245">
        <ele>855.7107</ele>
        <time>2013-06-02T09:49:35Z</time>
      </trkpt>
      <trkpt lat="43.62517" lon="3.00251">
        <ele>858.5945</ele>
        <time>2013-06-02T09:49:43Z</time>
      </trkpt>
      <trkpt lat="43.62514" lon="3.00258">
        <ele>860.0366</ele>
        <time>2013-06-02T09:49:46Z</time>
      </trkpt>
      <trkpt lat="43.62511" lon="3.00262">
        <ele>861.9595</ele>
        <time>2013-06-02T09:49:48Z</time>
      </trkpt>
      <trkpt lat="43.62509" lon="3.00266">
        <ele>863.8818</ele>
        <time>2013-06-02T09:49:50Z</time>
      </trkpt>
      <trkpt lat="43.62507" lon="3.00309">
        <ele>867.2466</ele>
        <time>2013-06-02T09:50:07Z</time>
      </trkpt>
      <trkpt lat="43.6251" lon="3.00317">
        <ele>870.1304</ele>
        <time>2013-06-02T09:50:10Z</time>
      </trkpt>
      <trkpt lat="43.62512" lon="3.00323">
        <ele>866.2852</ele>
        <time>2013-06-02T09:50:13Z</time>
      </trkpt>
      <trkpt lat="43.62514" lon="3.00326">
        <ele>866.2852</ele>
        <time>2013-06-02T09:50:14Z</time>
      </trkpt>
      <trkpt lat="43.62515" lon="3.00327">
        <ele>871.0918</ele>
        <time>2013-06-02T09:50:15Z</time>
      </trkpt>
      <trkpt lat="43.62516" lon="3.00329">
        <ele>871.0918</ele>
        <time>2013-06-02T09:50:16Z</time>
      </trkpt>
      <trkpt lat="43.62523" lon="3.00342">
        <ele>873.9756</ele>
        <time>2013-06-02T09:50:23Z</time>
      </trkpt>
      <trkpt lat="43.62548" lon="3.00381">
        <ele>875.4175</ele>
        <time>2013-06-02T09:50:46Z</time>
      </trkpt>
      <trkpt lat="43.62552" lon="3.00389">
        <ele>875.4175</ele>
        <time>2013-06-02T09:50:51Z</time>
      </trkpt>
      <trkpt lat="43.62557" lon="3.00396">
        <ele>876.3792</ele>
        <time>2013-06-02T09:50:56Z</time>
      </trkpt>
      <trkpt lat="43.6257" lon="3.00416">
        <ele>877.3406</ele>
        <time>2013-06-02T09:51:07Z</time>
      </trkpt>
      <trkpt lat="43.62573" lon="3.0042">
        <ele>878.7825</ele>
        <time>2013-06-02T09:51:09Z</time>
      </trkpt>
      <trkpt lat="43.62583" lon="3.00437">
        <ele>884.0696</ele>
        <time>2013-06-02T09:51:19Z</time>
      </trkpt>
      <trkpt lat="43.62584" lon="3.00438">
        <ele>884.0696</ele>
        <time>2013-06-02T09:51:20Z</time>
      </trkpt>
      <trkpt lat="43.62585" lon="3.00442">
        <ele>885.5115</ele>
        <time>2013-06-02T09:51:22Z</time>
      </trkpt>
      <trkpt lat="43.62607" lon="3.00482">
        <ele>884.5503</ele>
        <time>2013-06-02T09:51:47Z</time>
      </trkpt>
      <trkpt lat="43.62612" lon="3.00488">
        <ele>885.031</ele>
        <time>2013-06-02T09:51:52Z</time>
      </trkpt>
      <trkpt lat="43.62617" lon="3.00487">
        <ele>887.9148</ele>
        <time>2013-06-02T09:51:56Z</time>
      </trkpt>
      <trkpt lat="43.62618" lon="3.00484">
        <ele>889.3567</ele>
        <time>2013-06-02T09:51:58Z</time>
      </trkpt>
      <trkpt lat="43.62618" lon="3.00478">
        <ele>887.9148</ele>
        <time>2013-06-02T09:52:02Z</time>
      </trkpt>
      <trkpt lat="43.62617" lon="3.00445">
        <ele>891.76</ele>
        <time>2013-06-02T09:52:20Z</time>
      </trkpt>
      <trkpt lat="43.62617" lon="3.00412">
        <ele>892.7217</ele>
        <time>2013-06-02T09:52:38Z</time>
      </trkpt>
      <trkpt lat="43.62616" lon="3.0039">
        <ele>894.1636</ele>
        <time>2013-06-02T09:52:50Z</time>
      </trkpt>
      <trkpt lat="43.62618" lon="3.00373">
        <ele>895.6055</ele>
        <time>2013-06-02T09:52:57Z</time>
      </trkpt>
      <trkpt lat="43.62619" lon="3.00371">
        <ele>898.97</ele>
        <time>2013-06-02T09:52:58Z</time>
      </trkpt>
      <trkpt lat="43.62618" lon="3.00369">
        <ele>898.97</ele>
        <time>2013-06-02T09:52:59Z</time>
      </trkpt>
      <trkpt lat="43.62619" lon="3.00365">
        <ele>896.5669</ele>
        <time>2013-06-02T09:53:01Z</time>
      </trkpt>
      <trkpt lat="43.62621" lon="3.0036">
        <ele>894.1636</ele>
        <time>2013-06-02T09:53:03Z</time>
      </trkpt>
      <trkpt lat="43.62628" lon="3.00344">
        <ele>897.5281</ele>
        <time>2013-06-02T09:53:12Z</time>
      </trkpt>
      <trkpt lat="43.6263" lon="3.00341">
        <ele>898.4893</ele>
        <time>2013-06-02T09:53:14Z</time>
      </trkpt>
      <trkpt lat="43.62636" lon="3.00333">
        <ele>900.8926</ele>
        <time>2013-06-02T09:53:20Z</time>
      </trkpt>
      <trkpt lat="43.62648" lon="3.00324">
        <ele>902.8152</ele>
        <time>2013-06-02T09:53:30Z</time>
      </trkpt>
      <trkpt lat="43.62652" lon="3.00321">
        <ele>904.2573</ele>
        <time>2013-06-02T09:53:34Z</time>
      </trkpt>
      <trkpt lat="43.62689" lon="3.00309">
        <ele>907.6218</ele>
        <time>2013-06-02T09:54:03Z</time>
      </trkpt>
      <trkpt lat="43.6269" lon="3.00309">
        <ele>907.6218</ele>
        <time>2013-06-02T09:54:04Z</time>
      </trkpt>
      <trkpt lat="43.627" lon="3.00306">
        <ele>906.1797</ele>
        <time>2013-06-02T09:54:13Z</time>
      </trkpt>
      <trkpt lat="43.62703" lon="3.00305">
        <ele>908.1028</ele>
        <time>2013-06-02T09:54:15Z</time>
      </trkpt>
      <trkpt lat="43.62709" lon="3.00305">
        <ele>909.064</ele>
        <time>2013-06-02T09:54:21Z</time>
      </trkpt>
      <trkpt lat="43.62728" lon="3.00301">
        <ele>910.5059</ele>
        <time>2013-06-02T09:54:36Z</time>
      </trkpt>
      <trkpt lat="43.62731" lon="3.00301">
        <ele>909.064</ele>
        <time>2013-06-02T09:54:38Z</time>
      </trkpt>
      <trkpt lat="43.62739" lon="3.00301">
        <ele>910.5059</ele>
        <time>2013-06-02T09:54:44Z</time>
      </trkpt>
      <trkpt lat="43.62741" lon="3.00301">
        <ele>913.8704</ele>
        <time>2013-06-02T09:54:45Z</time>
      </trkpt>
      <trkpt lat="43.62742" lon="3.00301">
        <ele>913.8704</ele>
        <time>2013-06-02T09:54:46Z</time>
      </trkpt>
      <trkpt lat="43.62744" lon="3.003">
        <ele>915.3125</ele>
        <time>2013-06-02T09:54:48Z</time>
      </trkpt>
      <trkpt lat="43.62751" lon="3.00299">
        <ele>914.8318</ele>
        <time>2013-06-02T09:54:55Z</time>
      </trkpt>
      <trkpt lat="43.62769" lon="3.00289">
        <ele>917.7156</ele>
        <time>2013-06-02T09:55:13Z</time>
      </trkpt>
      <trkpt lat="43.62779" lon="3.00285">
        <ele>919.1577</ele>
        <time>2013-06-02T09:55:22Z</time>
      </trkpt>
      <trkpt lat="43.62787" lon="3.00282">
        <ele>922.0415</ele>
        <time>2013-06-02T09:55:29Z</time>
      </trkpt>
      <trkpt lat="43.62794" lon="3.00277">
        <ele>921.5608</ele>
        <time>2013-06-02T09:55:35Z</time>
      </trkpt>
      <trkpt lat="43.62799" lon="3.00275">
        <ele>920.5996</ele>
        <time>2013-06-02T09:55:39Z</time>
      </trkpt>
      <trkpt lat="43.62802" lon="3.00274">
        <ele>922.0415</ele>
        <time>2013-06-02T09:55:41Z</time>
      </trkpt>
      <trkpt lat="43.62807" lon="3.00272">
        <ele>921.5608</ele>
        <time>2013-06-02T09:55:45Z</time>
      </trkpt>
      <trkpt lat="43.62808" lon="3.00272">
        <ele>923.0029</ele>
        <time>2013-06-02T09:55:46Z</time>
      </trkpt>
      <trkpt lat="43.62812" lon="3.0027">
        <ele>923.9641</ele>
        <time>2013-06-02T09:55:49Z</time>
      </trkpt>
      <trkpt lat="43.62835" lon="3.0026">
        <ele>927.3291</ele>
        <time>2013-06-02T09:56:07Z</time>
      </trkpt>
      <trkpt lat="43.62838" lon="3.00259">
        <ele>928.2903</ele>
        <time>2013-06-02T09:56:09Z</time>
      </trkpt>
      <trkpt lat="43.62841" lon="3.00259">
        <ele>927.8096</ele>
        <time>2013-06-02T09:56:12Z</time>
      </trkpt>
      <trkpt lat="43.62846" lon="3.00258">
        <ele>926.8484</ele>
        <time>2013-06-02T09:56:17Z</time>
      </trkpt>
      <trkpt lat="43.62849" lon="3.00257">
        <ele>928.771</ele>
        <time>2013-06-02T09:56:19Z</time>
      </trkpt>
      <trkpt lat="43.62856" lon="3.00257">
        <ele>929.2515</ele>
        <time>2013-06-02T09:56:25Z</time>
      </trkpt>
      <trkpt lat="43.62878" lon="3.00257">
        <ele>932.6162</ele>
        <time>2013-06-02T09:56:43Z</time>
      </trkpt>
      <trkpt lat="43.62884" lon="3.00259">
        <ele>934.5388</ele>
        <time>2013-06-02T09:56:48Z</time>
      </trkpt>
      <trkpt lat="43.62916" lon="3.00272">
        <ele>935.9807</ele>
        <time>2013-06-02T09:57:12Z</time>
      </trkpt>
      <trkpt lat="43.62928" lon="3.00269">
        <ele>934.0581</ele>
        <time>2013-06-02T09:57:20Z</time>
      </trkpt>
      <trkpt lat="43.6293" lon="3.00263">
        <ele>938.384</ele>
        <time>2013-06-02T09:57:23Z</time>
      </trkpt>
      <trkpt lat="43.6293" lon="3.0026">
        <ele>938.384</ele>
        <time>2013-06-02T09:57:24Z</time>
      </trkpt>
      <trkpt lat="43.6293" lon="3.00254">
        <ele>940.3069</ele>
        <time>2013-06-02T09:57:26Z</time>
      </trkpt>
      <trkpt lat="43.62928" lon="3.00234">
        <ele>942.2295</ele>
        <time>2013-06-02T09:57:33Z</time>
      </trkpt>
      <trkpt lat="43.6293" lon="3.00229">
        <ele>943.6714</ele>
        <time>2013-06-02T09:57:35Z</time>
      </trkpt>
      <trkpt lat="43.62932" lon="3.00225">
        <ele>944.6326</ele>
        <time>2013-06-02T09:57:37Z</time>
      </trkpt>
      <trkpt lat="43.62933" lon="3.00221">
        <ele>943.1907</ele>
        <time>2013-06-02T09:57:39Z</time>
      </trkpt>
      <trkpt lat="43.62936" lon="3.00217">
        <ele>945.1133</ele>
        <time>2013-06-02T09:57:41Z</time>
      </trkpt>
      <trkpt lat="43.62949" lon="3.00203">
        <ele>941.2681</ele>
        <time>2013-06-02T09:57:51Z</time>
      </trkpt>
      <trkpt lat="43.6295" lon="3.00202">
        <ele>941.2681</ele>
        <time>2013-06-02T09:57:52Z</time>
      </trkpt>
      <trkpt lat="43.62955" lon="3.00199">
        <ele>942.7102</ele>
        <time>2013-06-02T09:57:56Z</time>
      </trkpt>
      <trkpt lat="43.62963" lon="3.00195">
        <ele>948.4778</ele>
        <time>2013-06-02T09:58:01Z</time>
      </trkpt>
      <trkpt lat="43.62965" lon="3.00194">
        <ele>948.4778</ele>
        <time>2013-06-02T09:58:02Z</time>
      </trkpt>
      <trkpt lat="43.62969" lon="3.00191">
        <ele>944.1521</ele>
        <time>2013-06-02T09:58:05Z</time>
      </trkpt>
      <trkpt lat="43.62971" lon="3.0019">
        <ele>950.4006</ele>
        <time>2013-06-02T09:58:06Z</time>
      </trkpt>
      <trkpt lat="43.62973" lon="3.0019">
        <ele>950.4006</ele>
        <time>2013-06-02T09:58:07Z</time>
      </trkpt>
      <trkpt lat="43.62976" lon="3.00188">
        <ele>953.2844</ele>
        <time>2013-06-02T09:58:09Z</time>
      </trkpt>
      <trkpt lat="43.62979" lon="3.00187">
        <ele>951.3618</ele>
        <time>2013-06-02T09:58:11Z</time>
      </trkpt>
      <trkpt lat="43.62981" lon="3.00186">
        <ele>947.9973</ele>
        <time>2013-06-02T09:58:12Z</time>
      </trkpt>
      <trkpt lat="43.62983" lon="3.00185">
        <ele>947.9973</ele>
        <time>2013-06-02T09:58:13Z</time>
      </trkpt>
      <trkpt lat="43.62985" lon="3.00184">
        <ele>950.4006</ele>
        <time>2013-06-02T09:58:15Z</time>
      </trkpt>
      <trkpt lat="43.62987" lon="3.00183">
        <ele>945.1133</ele>
        <time>2013-06-02T09:58:16Z</time>
      </trkpt>
      <trkpt lat="43.62988" lon="3.00182">
        <ele>945.1133</ele>
        <time>2013-06-02T09:58:17Z</time>
      </trkpt>
      <trkpt lat="43.62997" lon="3.00179">
        <ele>949.9199</ele>
        <time>2013-06-02T09:58:24Z</time>
      </trkpt>
      <trkpt lat="43.63" lon="3.00176">
        <ele>952.8037</ele>
        <time>2013-06-02T09:58:26Z</time>
      </trkpt>
      <trkpt lat="43.63008" lon="3.00171">
        <ele>954.2458</ele>
        <time>2013-06-02T09:58:32Z</time>
      </trkpt>
      <trkpt lat="43.63036" lon="3.00155">
        <ele>957.1299</ele>
        <time>2013-06-02T09:58:51Z</time>
      </trkpt>
      <trkpt lat="43.63059" lon="3.0015">
        <ele>955.6877</ele>
        <time>2013-06-02T09:59:06Z</time>
      </trkpt>
      <trkpt lat="43.63064" lon="3.00147">
        <ele>953.7651</ele>
        <time>2013-06-02T09:59:10Z</time>
      </trkpt>
      <trkpt lat="43.63068" lon="3.00145">
        <ele>955.6877</ele>
        <time>2013-06-02T09:59:12Z</time>
      </trkpt>
      <trkpt lat="43.6307" lon="3.00142">
        <ele>958.5718</ele>
        <time>2013-06-02T09:59:14Z</time>
      </trkpt>
      <trkpt lat="43.63071" lon="3.00141">
        <ele>962.417</ele>
        <time>2013-06-02T09:59:15Z</time>
      </trkpt>
      <trkpt lat="43.63072" lon="3.00139">
        <ele>962.417</ele>
        <time>2013-06-02T09:59:16Z</time>
      </trkpt>
      <trkpt lat="43.63074" lon="3.00137">
        <ele>963.8589</ele>
        <time>2013-06-02T09:59:18Z</time>
      </trkpt>
      <trkpt lat="43.63079" lon="3.00132">
        <ele>961.4558</ele>
        <time>2013-06-02T09:59:22Z</time>
      </trkpt>
      <trkpt lat="43.63081" lon="3.00129">
        <ele>959.5332</ele>
        <time>2013-06-02T09:59:24Z</time>
      </trkpt>
      <trkpt lat="43.63083" lon="3.00125">
        <ele>963.3784</ele>
        <time>2013-06-02T09:59:26Z</time>
      </trkpt>
      <trkpt lat="43.63085" lon="3.00123">
        <ele>963.3784</ele>
        <time>2013-06-02T09:59:27Z</time>
      </trkpt>
      <trkpt lat="43.63086" lon="3.00122">
        <ele>967.2236</ele>
        <time>2013-06-02T09:59:28Z</time>
      </trkpt>
      <trkpt lat="43.63087" lon="3.0012">
        <ele>967.2236</ele>
        <time>2013-06-02T09:59:29Z</time>
      </trkpt>
      <trkpt lat="43.6309" lon="3.00116">
        <ele>964.8203</ele>
        <time>2013-06-02T09:59:31Z</time>
      </trkpt>
      <trkpt lat="43.63093" lon="3.00113">
        <ele>962.8977</ele>
        <time>2013-06-02T09:59:33Z</time>
      </trkpt>
      <trkpt lat="43.63096" lon="3.0011">
        <ele>960.9751</ele>
        <time>2013-06-02T09:59:35Z</time>
      </trkpt>
      <trkpt lat="43.63102" lon="3.00105">
        <ele>963.8589</ele>
        <time>2013-06-02T09:59:39Z</time>
      </trkpt>
      <trkpt lat="43.63103" lon="3.00104">
        <ele>969.1462</ele>
        <time>2013-06-02T09:59:40Z</time>
      </trkpt>
      <trkpt lat="43.63104" lon="3.00103">
        <ele>969.1462</ele>
        <time>2013-06-02T09:59:41Z</time>
      </trkpt>
      <trkpt lat="43.63107" lon="3.001">
        <ele>967.2236</ele>
        <time>2013-06-02T09:59:43Z</time>
      </trkpt>
      <trkpt lat="43.63111" lon="3.00096">
        <ele>969.627</ele>
        <time>2013-06-02T09:59:46Z</time>
      </trkpt>
      <trkpt lat="43.63115" lon="3.00092">
        <ele>963.3784</ele>
        <time>2013-06-02T09:59:49Z</time>
      </trkpt>
      <trkpt lat="43.63116" lon="3.00091">
        <ele>963.3784</ele>
        <time>2013-06-02T09:59:50Z</time>
      </trkpt>
      <trkpt lat="43.63118" lon="3.00089">
        <ele>969.1462</ele>
        <time>2013-06-02T09:59:51Z</time>
      </trkpt>
      <trkpt lat="43.63119" lon="3.00088">
        <ele>969.1462</ele>
        <time>2013-06-02T09:59:52Z</time>
      </trkpt>
      <trkpt lat="43.63124" lon="3.00082">
        <ele>971.5493</ele>
        <time>2013-06-02T09:59:56Z</time>
      </trkpt>
      <trkpt lat="43.63126" lon="3.00078">
        <ele>972.511</ele>
        <time>2013-06-02T09:59:58Z</time>
      </trkpt>
      <trkpt lat="43.6313" lon="3.00071">
        <ele>974.9143</ele>
        <time>2013-06-02T10:00:02Z</time>
      </trkpt>
      <trkpt lat="43.63134" lon="3.00066">
        <ele>972.0303</ele>
        <time>2013-06-02T10:00:05Z</time>
      </trkpt>
      <trkpt lat="43.63141" lon="3.00056">
        <ele>973.4724</ele>
        <time>2013-06-02T10:00:11Z</time>
      </trkpt>
      <trkpt lat="43.63151" lon="3.00037">
        <ele>974.4336</ele>
        <time>2013-06-02T10:00:21Z</time>
      </trkpt>
      <trkpt lat="43.63154" lon="3.00031">
        <ele>972.9917</ele>
        <time>2013-06-02T10:00:24Z</time>
      </trkpt>
      <trkpt lat="43.63156" lon="3.00027">
        <ele>975.8755</ele>
        <time>2013-06-02T10:00:26Z</time>
      </trkpt>
      <trkpt lat="43.63167" lon="3.00006">
        <ele>979.24</ele>
        <time>2013-06-02T10:00:37Z</time>
      </trkpt>
      <trkpt lat="43.63168" lon="2.99996">
        <ele>981.6433</ele>
        <time>2013-06-02T10:00:42Z</time>
      </trkpt>
      <trkpt lat="43.63168" lon="2.99994">
        <ele>985.0081</ele>
        <time>2013-06-02T10:00:43Z</time>
      </trkpt>
      <trkpt lat="43.63169" lon="2.99992">
        <ele>983.0852</ele>
        <time>2013-06-02T10:00:44Z</time>
      </trkpt>
      <trkpt lat="43.63167" lon="2.99978">
        <ele>984.0466</ele>
        <time>2013-06-02T10:00:51Z</time>
      </trkpt>
      <trkpt lat="43.63151" lon="2.99933">
        <ele>985.4885</ele>
        <time>2013-06-02T10:01:13Z</time>
      </trkpt>
      <trkpt lat="43.63146" lon="2.99923">
        <ele>986.45</ele>
        <time>2013-06-02T10:01:18Z</time>
      </trkpt>
      <trkpt lat="43.63142" lon="2.99916">
        <ele>988.8535</ele>
        <time>2013-06-02T10:01:22Z</time>
      </trkpt>
      <trkpt lat="43.63128" lon="2.99897">
        <ele>992.218</ele>
        <time>2013-06-02T10:01:34Z</time>
      </trkpt>
      <trkpt lat="43.63123" lon="2.99893">
        <ele>990.7759</ele>
        <time>2013-06-02T10:01:37Z</time>
      </trkpt>
      <trkpt lat="43.63111" lon="2.99875">
        <ele>988.8535</ele>
        <time>2013-06-02T10:01:48Z</time>
      </trkpt>
      <trkpt lat="43.63105" lon="2.99865">
        <ele>990.7759</ele>
        <time>2013-06-02T10:01:54Z</time>
      </trkpt>
      <trkpt lat="43.631" lon="2.99856">
        <ele>992.6987</ele>
        <time>2013-06-02T10:01:58Z</time>
      </trkpt>
      <trkpt lat="43.63097" lon="2.99851">
        <ele>994.1406</ele>
        <time>2013-06-02T10:02:00Z</time>
      </trkpt>
      <trkpt lat="43.63076" lon="2.99834">
        <ele>993.6599</ele>
        <time>2013-06-02T10:02:13Z</time>
      </trkpt>
      <trkpt lat="43.63072" lon="2.99827">
        <ele>994.1406</ele>
        <time>2013-06-02T10:02:17Z</time>
      </trkpt>
      <trkpt lat="43.6307" lon="2.99824">
        <ele>997.0244</ele>
        <time>2013-06-02T10:02:19Z</time>
      </trkpt>
      <trkpt lat="43.63066" lon="2.99821">
        <ele>1000.87</ele>
        <time>2013-06-02T10:02:21Z</time>
      </trkpt>
      <trkpt lat="43.63065" lon="2.99819">
        <ele>1000.87</ele>
        <time>2013-06-02T10:02:22Z</time>
      </trkpt>
      <trkpt lat="43.63063" lon="2.99817">
        <ele>997.0244</ele>
        <time>2013-06-02T10:02:23Z</time>
      </trkpt>
      <trkpt lat="43.63062" lon="2.99815">
        <ele>997.0244</ele>
        <time>2013-06-02T10:02:24Z</time>
      </trkpt>
      <trkpt lat="43.63058" lon="2.99811">
        <ele>998.947</ele>
        <time>2013-06-02T10:02:26Z</time>
      </trkpt>
      <trkpt lat="43.63052" lon="2.99802">
        <ele>996.5439</ele>
        <time>2013-06-02T10:02:30Z</time>
      </trkpt>
      <trkpt lat="43.63048" lon="2.99794">
        <ele>996.5439</ele>
        <time>2013-06-02T10:02:33Z</time>
      </trkpt>
      <trkpt lat="43.63044" lon="2.99781">
        <ele>992.218</ele>
        <time>2013-06-02T10:02:37Z</time>
      </trkpt>
      <trkpt lat="43.63043" lon="2.99777">
        <ele>992.218</ele>
        <time>2013-06-02T10:02:38Z</time>
      </trkpt>
      <trkpt lat="43.63043" lon="2.99773">
        <ele>996.5439</ele>
        <time>2013-06-02T10:02:39Z</time>
      </trkpt>
      <trkpt lat="43.63042" lon="2.99764">
        <ele>997.9858</ele>
        <time>2013-06-02T10:02:41Z</time>
      </trkpt>
      <trkpt lat="43.63042" lon="2.9976">
        <ele>992.6987</ele>
        <time>2013-06-02T10:02:42Z</time>
      </trkpt>
      <trkpt lat="43.63041" lon="2.99755">
        <ele>992.6987</ele>
        <time>2013-06-02T10:02:43Z</time>
      </trkpt>
      <trkpt lat="43.63041" lon="2.9975">
        <ele>996.5439</ele>
        <time>2013-06-02T10:02:44Z</time>
      </trkpt>
      <trkpt lat="43.63041" lon="2.99746">
        <ele>996.5439</ele>
        <time>2013-06-02T10:02:45Z</time>
      </trkpt>
      <trkpt lat="43.63041" lon="2.99741">
        <ele>993.6599</ele>
        <time>2013-06-02T10:02:46Z</time>
      </trkpt>
      <trkpt lat="43.63041" lon="2.99737">
        <ele>993.6599</ele>
        <time>2013-06-02T10:02:47Z</time>
      </trkpt>
      <trkpt lat="43.6304" lon="2.99687">
        <ele>991.7373</ele>
        <time>2013-06-02T10:02:57Z</time>
      </trkpt>
      <trkpt lat="43.6304" lon="2.99666">
        <ele>987.8918</ele>
        <time>2013-06-02T10:03:01Z</time>
      </trkpt>
      <trkpt lat="43.63039" lon="2.99661">
        <ele>987.8918</ele>
        <time>2013-06-02T10:03:02Z</time>
      </trkpt>
      <trkpt lat="43.63038" lon="2.99652">
        <ele>989.334</ele>
        <time>2013-06-02T10:03:04Z</time>
      </trkpt>
      <trkpt lat="43.63038" lon="2.99647">
        <ele>993.1792</ele>
        <time>2013-06-02T10:03:05Z</time>
      </trkpt>
      <trkpt lat="43.63033" lon="2.9959">
        <ele>993.6599</ele>
        <time>2013-06-02T10:03:14Z</time>
      </trkpt>
      <trkpt lat="43.63032" lon="2.99564">
        <ele>991.2566</ele>
        <time>2013-06-02T10:03:18Z</time>
      </trkpt>
      <trkpt lat="43.63032" lon="2.99552">
        <ele>992.6987</ele>
        <time>2013-06-02T10:03:20Z</time>
      </trkpt>
      <trkpt lat="43.63036" lon="2.99518">
        <ele>992.218</ele>
        <time>2013-06-02T10:03:25Z</time>
      </trkpt>
      <trkpt lat="43.63037" lon="2.99493">
        <ele>990.7759</ele>
        <time>2013-06-02T10:03:28Z</time>
      </trkpt>
      <trkpt lat="43.63037" lon="2.99485">
        <ele>990.2954</ele>
        <time>2013-06-02T10:03:29Z</time>
      </trkpt>
      <trkpt lat="43.63035" lon="2.99436">
        <ele>987.4111</ele>
        <time>2013-06-02T10:03:34Z</time>
      </trkpt>
      <trkpt lat="43.63033" lon="2.99426">
        <ele>987.4111</ele>
        <time>2013-06-02T10:03:35Z</time>
      </trkpt>
      <trkpt lat="43.63024" lon="2.99397">
        <ele>984.0466</ele>
        <time>2013-06-02T10:03:38Z</time>
      </trkpt>
      <trkpt lat="43.63006" lon="2.99363">
        <ele>983.5659</ele>
        <time>2013-06-02T10:03:42Z</time>
      </trkpt>
      <trkpt lat="43.62994" lon="2.9935">
        <ele>980.6821</ele>
        <time>2013-06-02T10:03:44Z</time>
      </trkpt>
      <trkpt lat="43.6296" lon="2.99334">
        <ele>981.6433</ele>
        <time>2013-06-02T10:03:49Z</time>
      </trkpt>
      <trkpt lat="43.62946" lon="2.99333">
        <ele>980.2014</ele>
        <time>2013-06-02T10:03:51Z</time>
      </trkpt>
      <trkpt lat="43.62895" lon="2.99333">
        <ele>978.7595</ele>
        <time>2013-06-02T10:03:58Z</time>
      </trkpt>
      <trkpt lat="43.62869" lon="2.99338">
        <ele>981.6433</ele>
        <time>2013-06-02T10:04:02Z</time>
      </trkpt>
      <trkpt lat="43.6284" lon="2.99345">
        <ele>983.5659</ele>
        <time>2013-06-02T10:04:07Z</time>
      </trkpt>
      <trkpt lat="43.62835" lon="2.99346">
        <ele>984.5273</ele>
        <time>2013-06-02T10:04:08Z</time>
      </trkpt>
      <trkpt lat="43.628" lon="2.99335">
        <ele>984.0466</ele>
        <time>2013-06-02T10:04:14Z</time>
      </trkpt>
      <trkpt lat="43.62795" lon="2.99329">
        <ele>981.6433</ele>
        <time>2013-06-02T10:04:15Z</time>
      </trkpt>
      <trkpt lat="43.62777" lon="2.99303">
        <ele>980.2014</ele>
        <time>2013-06-02T10:04:19Z</time>
      </trkpt>
      <trkpt lat="43.6277" lon="2.9929">
        <ele>978.7595</ele>
        <time>2013-06-02T10:04:21Z</time>
      </trkpt>
      <trkpt lat="43.62763" lon="2.99279">
        <ele>979.7207</ele>
        <time>2013-06-02T10:04:23Z</time>
      </trkpt>
      <trkpt lat="43.62755" lon="2.99264">
        <ele>981.6433</ele>
        <time>2013-06-02T10:04:26Z</time>
      </trkpt>
      <trkpt lat="43.6274" lon="2.99236">
        <ele>985.0081</ele>
        <time>2013-06-02T10:04:33Z</time>
      </trkpt>
      <trkpt lat="43.62721" lon="2.99204">
        <ele>986.45</ele>
        <time>2013-06-02T10:04:42Z</time>
      </trkpt>
      <trkpt lat="43.62713" lon="2.99185">
        <ele>986.9304</ele>
        <time>2013-06-02T10:04:46Z</time>
      </trkpt>
      <trkpt lat="43.62704" lon="2.99158">
        <ele>986.9304</ele>
        <time>2013-06-02T10:04:51Z</time>
      </trkpt>
      <trkpt lat="43.627" lon="2.99148">
        <ele>988.3728</ele>
        <time>2013-06-02T10:04:53Z</time>
      </trkpt>
      <trkpt lat="43.62698" lon="2.99143">
        <ele>983.5659</ele>
        <time>2013-06-02T10:04:54Z</time>
      </trkpt>
      <trkpt lat="43.62696" lon="2.99139">
        <ele>985.0081</ele>
        <time>2013-06-02T10:04:55Z</time>
      </trkpt>
      <trkpt lat="43.62691" lon="2.99126">
        <ele>987.4111</ele>
        <time>2013-06-02T10:04:58Z</time>
      </trkpt>
      <trkpt lat="43.62653" lon="2.99066">
        <ele>986.45</ele>
        <time>2013-06-02T10:05:17Z</time>
      </trkpt>
      <trkpt lat="43.62649" lon="2.99061">
        <ele>988.8535</ele>
        <time>2013-06-02T10:05:19Z</time>
      </trkpt>
      <trkpt lat="43.62641" lon="2.9905">
        <ele>985.9692</ele>
        <time>2013-06-02T10:05:23Z</time>
      </trkpt>
      <trkpt lat="43.62635" lon="2.99042">
        <ele>987.4111</ele>
        <time>2013-06-02T10:05:26Z</time>
      </trkpt>
      <trkpt lat="43.62632" lon="2.99038">
        <ele>989.334</ele>
        <time>2013-06-02T10:05:28Z</time>
      </trkpt>
      <trkpt lat="43.62629" lon="2.99034">
        <ele>991.7373</ele>
        <time>2013-06-02T10:05:30Z</time>
      </trkpt>
      <trkpt lat="43.62624" lon="2.99028">
        <ele>993.6599</ele>
        <time>2013-06-02T10:05:33Z</time>
      </trkpt>
      <trkpt lat="43.62615" lon="2.99015">
        <ele>989.8147</ele>
        <time>2013-06-02T10:05:39Z</time>
      </trkpt>
      <trkpt lat="43.62614" lon="2.99012">
        <ele>989.8147</ele>
        <time>2013-06-02T10:05:40Z</time>
      </trkpt>
      <trkpt lat="43.62611" lon="2.99008">
        <ele>991.2566</ele>
        <time>2013-06-02T10:05:42Z</time>
      </trkpt>
      <trkpt lat="43.62608" lon="2.99003">
        <ele>993.1792</ele>
        <time>2013-06-02T10:05:44Z</time>
      </trkpt>
      <trkpt lat="43.62605" lon="2.98999">
        <ele>994.6211</ele>
        <time>2013-06-02T10:05:46Z</time>
      </trkpt>
      <trkpt lat="43.62591" lon="2.98978">
        <ele>997.9858</ele>
        <time>2013-06-02T10:05:55Z</time>
      </trkpt>
      <trkpt lat="43.62589" lon="2.98976">
        <ele>997.9858</ele>
        <time>2013-06-02T10:05:56Z</time>
      </trkpt>
      <trkpt lat="43.62578" lon="2.98961">
        <ele>1000.389</ele>
        <time>2013-06-02T10:06:02Z</time>
      </trkpt>
      <trkpt lat="43.62572" lon="2.98954">
        <ele>998.4663</ele>
        <time>2013-06-02T10:06:05Z</time>
      </trkpt>
      <trkpt lat="43.62565" lon="2.98944">
        <ele>999.9084</ele>
        <time>2013-06-02T10:06:09Z</time>
      </trkpt>
      <trkpt lat="43.6255" lon="2.98927">
        <ele>1001.35</ele>
        <time>2013-06-02T10:06:17Z</time>
      </trkpt>
      <trkpt lat="43.62535" lon="2.98911">
        <ele>1005.196</ele>
        <time>2013-06-02T10:06:25Z</time>
      </trkpt>
      <trkpt lat="43.62533" lon="2.98909">
        <ele>1005.196</ele>
        <time>2013-06-02T10:06:26Z</time>
      </trkpt>
      <trkpt lat="43.62508" lon="2.98892">
        <ele>1006.157</ele>
        <time>2013-06-02T10:06:38Z</time>
      </trkpt>
      <trkpt lat="43.62503" lon="2.98891">
        <ele>1004.715</ele>
        <time>2013-06-02T10:06:40Z</time>
      </trkpt>
      <trkpt lat="43.62498" lon="2.9889">
        <ele>1010.964</ele>
        <time>2013-06-02T10:06:42Z</time>
      </trkpt>
      <trkpt lat="43.62496" lon="2.98889">
        <ele>1010.964</ele>
        <time>2013-06-02T10:06:43Z</time>
      </trkpt>
      <trkpt lat="43.62491" lon="2.98887">
        <ele>1008.08</ele>
        <time>2013-06-02T10:06:45Z</time>
      </trkpt>
      <trkpt lat="43.62459" lon="2.98885">
        <ele>1009.041</ele>
        <time>2013-06-02T10:06:57Z</time>
      </trkpt>
      <trkpt lat="43.62454" lon="2.98886">
        <ele>1010.483</ele>
        <time>2013-06-02T10:06:59Z</time>
      </trkpt>
      <trkpt lat="43.62413" lon="2.98907">
        <ele>1010.483</ele>
        <time>2013-06-02T10:07:18Z</time>
      </trkpt>
      <trkpt lat="43.62409" lon="2.9891">
        <ele>1012.886</ele>
        <time>2013-06-02T10:07:21Z</time>
      </trkpt>
      <trkpt lat="43.62405" lon="2.98901">
        <ele>1011.444</ele>
        <time>2013-06-02T10:07:28Z</time>
      </trkpt>
      <trkpt lat="43.62413" lon="2.98891">
        <ele>1007.118</ele>
        <time>2013-06-02T10:07:34Z</time>
      </trkpt>
      <trkpt lat="43.62414" lon="2.9889">
        <ele>1007.118</ele>
        <time>2013-06-02T10:07:35Z</time>
      </trkpt>
      <trkpt lat="43.62415" lon="2.98888">
        <ele>1010.964</ele>
        <time>2013-06-02T10:07:36Z</time>
      </trkpt>
      <trkpt lat="43.62416" lon="2.98887">
        <ele>1010.964</ele>
        <time>2013-06-02T10:07:37Z</time>
      </trkpt>
      <trkpt lat="43.6242" lon="2.9888">
        <ele>1014.809</ele>
        <time>2013-06-02T10:07:41Z</time>
      </trkpt>
      <trkpt lat="43.62422" lon="2.98879">
        <ele>1014.809</ele>
        <time>2013-06-02T10:07:42Z</time>
      </trkpt>
      <trkpt lat="43.62424" lon="2.98876">
        <ele>1016.251</ele>
        <time>2013-06-02T10:07:44Z</time>
      </trkpt>
      <trkpt lat="43.62425" lon="2.98872">
        <ele>1018.654</ele>
        <time>2013-06-02T10:07:46Z</time>
      </trkpt>
      <trkpt lat="43.62431" lon="2.98867">
        <ele>1021.538</ele>
        <time>2013-06-02T10:07:50Z</time>
      </trkpt>
      <trkpt lat="43.62438" lon="2.9886">
        <ele>1022.98</ele>
        <time>2013-06-02T10:07:54Z</time>
      </trkpt>
      <trkpt lat="43.62445" lon="2.98853">
        <ele>1023.461</ele>
        <time>2013-06-02T10:07:58Z</time>
      </trkpt>
      <trkpt lat="43.62454" lon="2.98846">
        <ele>1026.345</ele>
        <time>2013-06-02T10:08:03Z</time>
      </trkpt>
      <trkpt lat="43.62459" lon="2.98845">
        <ele>1026.345</ele>
        <time>2013-06-02T10:08:06Z</time>
      </trkpt>
      <trkpt lat="43.62462" lon="2.98843">
        <ele>1026.345</ele>
        <time>2013-06-02T10:08:10Z</time>
      </trkpt>
      <trkpt lat="43.62467" lon="2.98841">
        <ele>1025.864</ele>
        <time>2013-06-02T10:08:15Z</time>
      </trkpt>
      <trkpt lat="43.62469" lon="2.9884">
        <ele>1024.422</ele>
        <time>2013-06-02T10:08:17Z</time>
      </trkpt>
      <trkpt lat="43.62472" lon="2.98837">
        <ele>1026.345</ele>
        <time>2013-06-02T10:08:21Z</time>
      </trkpt>
      <trkpt lat="43.62482" lon="2.98833">
        <ele>1029.709</ele>
        <time>2013-06-02T10:08:29Z</time>
      </trkpt>
      <trkpt lat="43.62484" lon="2.98833">
        <ele>1029.709</ele>
        <time>2013-06-02T10:08:30Z</time>
      </trkpt>
      <trkpt lat="43.62487" lon="2.98831">
        <ele>1028.267</ele>
        <time>2013-06-02T10:08:32Z</time>
      </trkpt>
      <trkpt lat="43.6249" lon="2.98831">
        <ele>1030.19</ele>
        <time>2013-06-02T10:08:34Z</time>
      </trkpt>
      <trkpt lat="43.62492" lon="2.98832">
        <ele>1031.632</ele>
        <time>2013-06-02T10:08:36Z</time>
      </trkpt>
      <trkpt lat="43.62493" lon="2.98832">
        <ele>1034.997</ele>
        <time>2013-06-02T10:08:37Z</time>
      </trkpt>
      <trkpt lat="43.62495" lon="2.98833">
        <ele>1034.997</ele>
        <time>2013-06-02T10:08:38Z</time>
      </trkpt>
      <trkpt lat="43.62499" lon="2.9883">
        <ele>1032.113</ele>
        <time>2013-06-02T10:08:41Z</time>
      </trkpt>
      <trkpt lat="43.62503" lon="2.98826">
        <ele>1034.516</ele>
        <time>2013-06-02T10:08:45Z</time>
      </trkpt>
      <trkpt lat="43.62504" lon="2.98825">
        <ele>1031.151</ele>
        <time>2013-06-02T10:08:46Z</time>
      </trkpt>
      <trkpt lat="43.62504" lon="2.98824">
        <ele>1031.151</ele>
        <time>2013-06-02T10:08:47Z</time>
      </trkpt>
      <trkpt lat="43.62509" lon="2.9882">
        <ele>1034.035</ele>
        <time>2013-06-02T10:08:51Z</time>
      </trkpt>
      <trkpt lat="43.62515" lon="2.98819">
        <ele>1035.477</ele>
        <time>2013-06-02T10:08:55Z</time>
      </trkpt>
      <trkpt lat="43.62524" lon="2.98814">
        <ele>1035.958</ele>
        <time>2013-06-02T10:09:01Z</time>
      </trkpt>
      <trkpt lat="43.62528" lon="2.98812">
        <ele>1037.881</ele>
        <time>2013-06-02T10:09:04Z</time>
      </trkpt>
      <trkpt lat="43.62533" lon="2.98812">
        <ele>1039.803</ele>
        <time>2013-06-02T10:09:08Z</time>
      </trkpt>
      <trkpt lat="43.62534" lon="2.98812">
        <ele>1036.919</ele>
        <time>2013-06-02T10:09:09Z</time>
      </trkpt>
      <trkpt lat="43.62535" lon="2.98811">
        <ele>1036.919</ele>
        <time>2013-06-02T10:09:10Z</time>
      </trkpt>
      <trkpt lat="43.62537" lon="2.98806">
        <ele>1040.764</ele>
        <time>2013-06-02T10:09:13Z</time>
      </trkpt>
      <trkpt lat="43.62538" lon="2.98805">
        <ele>1040.764</ele>
        <time>2013-06-02T10:09:14Z</time>
      </trkpt>
      <trkpt lat="43.62543" lon="2.98799">
        <ele>1041.726</ele>
        <time>2013-06-02T10:09:20Z</time>
      </trkpt>
      <trkpt lat="43.62547" lon="2.98797">
        <ele>1044.129</ele>
        <time>2013-06-02T10:09:23Z</time>
      </trkpt>
      <trkpt lat="43.62553" lon="2.98794">
        <ele>1038.361</ele>
        <time>2013-06-02T10:09:28Z</time>
      </trkpt>
      <trkpt lat="43.62555" lon="2.98794">
        <ele>1038.361</ele>
        <time>2013-06-02T10:09:29Z</time>
      </trkpt>
      <trkpt lat="43.62556" lon="2.98793">
        <ele>1046.052</ele>
        <time>2013-06-02T10:09:30Z</time>
      </trkpt>
      <trkpt lat="43.62557" lon="2.98793">
        <ele>1046.052</ele>
        <time>2013-06-02T10:09:31Z</time>
      </trkpt>
      <trkpt lat="43.62559" lon="2.98789">
        <ele>1041.245</ele>
        <time>2013-06-02T10:09:34Z</time>
      </trkpt>
      <trkpt lat="43.62559" lon="2.98787">
        <ele>1041.245</ele>
        <time>2013-06-02T10:09:35Z</time>
      </trkpt>
      <trkpt lat="43.6256" lon="2.98786">
        <ele>1041.726</ele>
        <time>2013-06-02T10:09:36Z</time>
      </trkpt>
      <trkpt lat="43.62563" lon="2.98783">
        <ele>1050.858</ele>
        <time>2013-06-02T10:09:39Z</time>
      </trkpt>
      <trkpt lat="43.62564" lon="2.98783">
        <ele>1050.858</ele>
        <time>2013-06-02T10:09:40Z</time>
      </trkpt>
      <trkpt lat="43.62567" lon="2.98784">
        <ele>1053.262</ele>
        <time>2013-06-02T10:09:42Z</time>
      </trkpt>
      <trkpt lat="43.62568" lon="2.98785">
        <ele>1047.974</ele>
        <time>2013-06-02T10:09:43Z</time>
      </trkpt>
      <trkpt lat="43.6257" lon="2.98785">
        <ele>1047.974</ele>
        <time>2013-06-02T10:09:44Z</time>
      </trkpt>
      <trkpt lat="43.62572" lon="2.98785">
        <ele>1050.858</ele>
        <time>2013-06-02T10:09:46Z</time>
      </trkpt>
      <trkpt lat="43.62574" lon="2.98784">
        <ele>1047.013</ele>
        <time>2013-06-02T10:09:47Z</time>
      </trkpt>
      <trkpt lat="43.62575" lon="2.98784">
        <ele>1047.013</ele>
        <time>2013-06-02T10:09:48Z</time>
      </trkpt>
      <trkpt lat="43.62578" lon="2.98785">
        <ele>1048.936</ele>
        <time>2013-06-02T10:09:50Z</time>
      </trkpt>
      <trkpt lat="43.62579" lon="2.98785">
        <ele>1048.936</ele>
        <time>2013-06-02T10:09:51Z</time>
      </trkpt>
      <trkpt lat="43.62582" lon="2.98787">
        <ele>1056.146</ele>
        <time>2013-06-02T10:09:53Z</time>
      </trkpt>
      <trkpt lat="43.62585" lon="2.98787">
        <ele>1051.82</ele>
        <time>2013-06-02T10:09:55Z</time>
      </trkpt>
      <trkpt lat="43.62586" lon="2.98787">
        <ele>1051.82</ele>
        <time>2013-06-02T10:09:56Z</time>
      </trkpt>
      <trkpt lat="43.62588" lon="2.98787">
        <ele>1054.704</ele>
        <time>2013-06-02T10:09:57Z</time>
      </trkpt>
      <trkpt lat="43.62592" lon="2.98787">
        <ele>1045.571</ele>
        <time>2013-06-02T10:10:00Z</time>
      </trkpt>
      <trkpt lat="43.62593" lon="2.98786">
        <ele>1045.571</ele>
        <time>2013-06-02T10:10:01Z</time>
      </trkpt>
      <trkpt lat="43.62594" lon="2.98784">
        <ele>1043.648</ele>
        <time>2013-06-02T10:10:02Z</time>
      </trkpt>
      <trkpt lat="43.62596" lon="2.98784">
        <ele>1047.494</ele>
        <time>2013-06-02T10:10:04Z</time>
      </trkpt>
      <trkpt lat="43.62598" lon="2.98784">
        <ele>1047.494</ele>
        <time>2013-06-02T10:10:05Z</time>
      </trkpt>
      <trkpt lat="43.62601" lon="2.98784">
        <ele>1049.416</ele>
        <time>2013-06-02T10:10:07Z</time>
      </trkpt>
      <trkpt lat="43.62615" lon="2.98787">
        <ele>1049.416</ele>
        <time>2013-06-02T10:10:15Z</time>
      </trkpt>
      <trkpt lat="43.62624" lon="2.98788">
        <ele>1051.339</ele>
        <time>2013-06-02T10:10:20Z</time>
      </trkpt>
      <trkpt lat="43.62641" lon="2.98793">
        <ele>1052.781</ele>
        <time>2013-06-02T10:10:30Z</time>
      </trkpt>
      <trkpt lat="43.62653" lon="2.98799">
        <ele>1055.665</ele>
        <time>2013-06-02T10:10:36Z</time>
      </trkpt>
      <trkpt lat="43.6266" lon="2.98804">
        <ele>1059.03</ele>
        <time>2013-06-02T10:10:40Z</time>
      </trkpt>
      <trkpt lat="43.62662" lon="2.98805">
        <ele>1059.03</ele>
        <time>2013-06-02T10:10:41Z</time>
      </trkpt>
      <trkpt lat="43.6267" lon="2.9881">
        <ele>1059.991</ele>
        <time>2013-06-02T10:10:45Z</time>
      </trkpt>
      <trkpt lat="43.62685" lon="2.98819">
        <ele>1060.952</ele>
        <time>2013-06-02T10:10:53Z</time>
      </trkpt>
      <trkpt lat="43.62701" lon="2.9883">
        <ele>1062.875</ele>
        <time>2013-06-02T10:11:02Z</time>
      </trkpt>
      <trkpt lat="43.62714" lon="2.98839">
        <ele>1065.278</ele>
        <time>2013-06-02T10:11:10Z</time>
      </trkpt>
      <trkpt lat="43.62727" lon="2.98846">
        <ele>1067.201</ele>
        <time>2013-06-02T10:11:18Z</time>
      </trkpt>
      <trkpt lat="43.62734" lon="2.9885">
        <ele>1068.643</ele>
        <time>2013-06-02T10:11:22Z</time>
      </trkpt>
      <trkpt lat="43.62752" lon="2.98857">
        <ele>1072.007</ele>
        <time>2013-06-02T10:11:32Z</time>
      </trkpt>
      <trkpt lat="43.62757" lon="2.9886">
        <ele>1069.124</ele>
        <time>2013-06-02T10:11:35Z</time>
      </trkpt>
      <trkpt lat="43.62763" lon="2.98863">
        <ele>1071.527</ele>
        <time>2013-06-02T10:11:38Z</time>
      </trkpt>
      <trkpt lat="43.62772" lon="2.98871">
        <ele>1078.256</ele>
        <time>2013-06-02T10:11:43Z</time>
      </trkpt>
      <trkpt lat="43.62773" lon="2.98873">
        <ele>1078.256</ele>
        <time>2013-06-02T10:11:44Z</time>
      </trkpt>
      <trkpt lat="43.62777" lon="2.9888">
        <ele>1084.505</ele>
        <time>2013-06-02T10:11:47Z</time>
      </trkpt>
      <trkpt lat="43.62779" lon="2.98882">
        <ele>1081.62</ele>
        <time>2013-06-02T10:11:50Z</time>
      </trkpt>
      <trkpt lat="43.62779" lon="2.98882">
        <ele>1084.505</ele>
        <time>2013-06-02T10:11:51Z</time>
      </trkpt>
      <trkpt lat="43.62779" lon="2.98881">
        <ele>1084.505</ele>
        <time>2013-06-02T10:11:52Z</time>
      </trkpt>
      <trkpt lat="43.62779" lon="2.98881">
        <ele>1077.775</ele>
        <time>2013-06-02T10:11:53Z</time>
      </trkpt>
      <trkpt lat="43.62779" lon="2.98881">
        <ele>1077.775</ele>
        <time>2013-06-02T10:11:54Z</time>
      </trkpt>
      <trkpt lat="43.62779" lon="2.98881">
        <ele>1083.062</ele>
        <time>2013-06-02T10:11:55Z</time>
      </trkpt>
      <trkpt lat="43.62779" lon="2.98881">
        <ele>1083.062</ele>
        <time>2013-06-02T10:11:56Z</time>
      </trkpt>
      <trkpt lat="43.62779" lon="2.98881">
        <ele>1080.178</ele>
        <time>2013-06-02T10:11:57Z</time>
      </trkpt>
      <trkpt lat="43.62779" lon="2.98881">
        <ele>1080.178</ele>
        <time>2013-06-02T10:11:58Z</time>
      </trkpt>
      <trkpt lat="43.62779" lon="2.98881">
        <ele>1075.853</ele>
        <time>2013-06-02T10:12:00Z</time>
      </trkpt>
      <trkpt lat="43.62779" lon="2.98881">
        <ele>1075.853</ele>
        <time>2013-06-02T10:12:01Z</time>
      </trkpt>
      <trkpt lat="43.62779" lon="2.98881">
        <ele>1072.969</ele>
        <time>2013-06-02T10:12:04Z</time>
      </trkpt>
      <trkpt lat="43.62779" lon="2.98881">
        <ele>1072.969</ele>
        <time>2013-06-02T10:12:05Z</time>
      </trkpt>
      <trkpt lat="43.62779" lon="2.98881">
        <ele>1077.295</ele>
        <time>2013-06-02T10:12:10Z</time>
      </trkpt>
      <trkpt lat="43.62779" lon="2.98881">
        <ele>1077.295</ele>
        <time>2013-06-02T10:12:11Z</time>
      </trkpt>
      <trkpt lat="43.62779" lon="2.98881">
        <ele>1073.93</ele>
        <time>2013-06-02T10:12:14Z</time>
      </trkpt>
      <trkpt lat="43.62779" lon="2.98881">
        <ele>1073.93</ele>
        <time>2013-06-02T10:12:15Z</time>
      </trkpt>
      <trkpt lat="43.62779" lon="2.98881">
        <ele>1077.295</ele>
        <time>2013-06-02T10:12:21Z</time>
      </trkpt>
      <trkpt lat="43.62779" lon="2.98881">
        <ele>1077.295</ele>
        <time>2013-06-02T10:12:22Z</time>
      </trkpt>
      <trkpt lat="43.62779" lon="2.98881">
        <ele>1078.737</ele>
        <time>2013-06-02T10:12:24Z</time>
      </trkpt>
      <trkpt lat="43.62779" lon="2.98881">
        <ele>1080.659</ele>
        <time>2013-06-02T10:12:26Z</time>
      </trkpt>
      <trkpt lat="43.62779" lon="2.98881">
        <ele>1086.908</ele>
        <time>2013-06-02T10:12:27Z</time>
      </trkpt>
      <trkpt lat="43.62779" lon="2.98881">
        <ele>1086.908</ele>
        <time>2013-06-02T10:12:28Z</time>
      </trkpt>
      <trkpt lat="43.62779" lon="2.98881">
        <ele>1090.753</ele>
        <time>2013-06-02T10:12:29Z</time>
      </trkpt>
      <trkpt lat="43.62779" lon="2.98881">
        <ele>1090.753</ele>
        <time>2013-06-02T10:12:30Z</time>
      </trkpt>
      <trkpt lat="43.62779" lon="2.98881">
        <ele>1080.659</ele>
        <time>2013-06-02T10:12:31Z</time>
      </trkpt>
      <trkpt lat="43.62779" lon="2.98881">
        <ele>1080.659</ele>
        <time>2013-06-02T10:12:32Z</time>
      </trkpt>
      <trkpt lat="43.62779" lon="2.98881">
        <ele>1076.814</ele>
        <time>2013-06-02T10:12:33Z</time>
      </trkpt>
      <trkpt lat="43.62779" lon="2.98881">
        <ele>1076.814</ele>
        <time>2013-06-02T10:12:34Z</time>
      </trkpt>
      <trkpt lat="43.62779" lon="2.98881">
        <ele>1081.62</ele>
        <time>2013-06-02T10:12:36Z</time>
      </trkpt>
      <trkpt lat="43.62779" lon="2.98881">
        <ele>1081.62</ele>
        <time>2013-06-02T10:12:37Z</time>
      </trkpt>
      <trkpt lat="43.62779" lon="2.98881">
        <ele>1079.698</ele>
        <time>2013-06-02T10:12:39Z</time>
      </trkpt>
      <trkpt lat="43.62779" lon="2.98881">
        <ele>1081.62</ele>
        <time>2013-06-02T10:12:41Z</time>
      </trkpt>
      <trkpt lat="43.62779" lon="2.98881">
        <ele>1084.505</ele>
        <time>2013-06-02T10:12:43Z</time>
      </trkpt>
      <trkpt lat="43.62779" lon="2.98881">
        <ele>1082.582</ele>
        <time>2013-06-02T10:12:45Z</time>
      </trkpt>
      <trkpt lat="43.62779" lon="2.98881">
        <ele>1078.737</ele>
        <time>2013-06-02T10:12:46Z</time>
      </trkpt>
      <trkpt lat="43.62779" lon="2.98881">
        <ele>1078.737</ele>
        <time>2013-06-02T10:12:47Z</time>
      </trkpt>
      <trkpt lat="43.62779" lon="2.98881">
        <ele>1087.869</ele>
        <time>2013-06-02T10:12:48Z</time>
      </trkpt>
      <trkpt lat="43.62779" lon="2.98881">
        <ele>1087.869</ele>
        <time>2013-06-02T10:12:49Z</time>
      </trkpt>
      <trkpt lat="43.62779" lon="2.98881">
        <ele>1081.14</ele>
        <time>2013-06-02T10:12:52Z</time>
      </trkpt>
      <trkpt lat="43.62779" lon="2.98881">
        <ele>1081.14</ele>
        <time>2013-06-02T10:12:53Z</time>
      </trkpt>
      <trkpt lat="43.62779" lon="2.98881">
        <ele>1088.831</ele>
        <time>2013-06-02T10:12:57Z</time>
      </trkpt>
      <trkpt lat="43.62779" lon="2.98881">
        <ele>1088.831</ele>
        <time>2013-06-02T10:12:58Z</time>
      </trkpt>
      <trkpt lat="43.62779" lon="2.98881">
        <ele>1084.985</ele>
        <time>2013-06-02T10:12:59Z</time>
      </trkpt>
      <trkpt lat="43.62779" lon="2.98881">
        <ele>1084.985</ele>
        <time>2013-06-02T10:13:00Z</time>
      </trkpt>
      <trkpt lat="43.62779" lon="2.98881">
        <ele>1083.543</ele>
        <time>2013-06-02T10:13:02Z</time>
      </trkpt>
      <trkpt lat="43.62779" lon="2.98881">
        <ele>1085.466</ele>
        <time>2013-06-02T10:13:04Z</time>
      </trkpt>
      <trkpt lat="43.62779" lon="2.98881">
        <ele>1084.024</ele>
        <time>2013-06-02T10:13:06Z</time>
      </trkpt>
      <trkpt lat="43.62779" lon="2.98881">
        <ele>1089.792</ele>
        <time>2013-06-02T10:13:07Z</time>
      </trkpt>
      <trkpt lat="43.62779" lon="2.98881">
        <ele>1089.792</ele>
        <time>2013-06-02T10:13:08Z</time>
      </trkpt>
      <trkpt lat="43.62779" lon="2.98881">
        <ele>1083.543</ele>
        <time>2013-06-02T10:13:09Z</time>
      </trkpt>
      <trkpt lat="43.62779" lon="2.98881">
        <ele>1083.543</ele>
        <time>2013-06-02T10:13:10Z</time>
      </trkpt>
      <trkpt lat="43.62779" lon="2.98881">
        <ele>1081.62</ele>
        <time>2013-06-02T10:13:15Z</time>
      </trkpt>
      <trkpt lat="43.62779" lon="2.98881">
        <ele>1084.024</ele>
        <time>2013-06-02T10:13:19Z</time>
      </trkpt>
      <trkpt lat="43.62779" lon="2.98881">
        <ele>1086.908</ele>
        <time>2013-06-02T10:13:21Z</time>
      </trkpt>
      <trkpt lat="43.62779" lon="2.98881">
        <ele>1081.62</ele>
        <time>2013-06-02T10:13:22Z</time>
      </trkpt>
      <trkpt lat="43.62779" lon="2.98881">
        <ele>1081.62</ele>
        <time>2013-06-02T10:13:23Z</time>
      </trkpt>
      <trkpt lat="43.62779" lon="2.98881">
        <ele>1085.947</ele>
        <time>2013-06-02T10:13:26Z</time>
      </trkpt>
      <trkpt lat="43.62779" lon="2.98881">
        <ele>1085.947</ele>
        <time>2013-06-02T10:13:27Z</time>
      </trkpt>
      <trkpt lat="43.62779" lon="2.98881">
        <ele>1082.582</ele>
        <time>2013-06-02T10:13:28Z</time>
      </trkpt>
      <trkpt lat="43.62779" lon="2.98881">
        <ele>1082.582</ele>
        <time>2013-06-02T10:13:29Z</time>
      </trkpt>
      <trkpt lat="43.62779" lon="2.98881">
        <ele>1080.178</ele>
        <time>2013-06-02T10:13:38Z</time>
      </trkpt>
      <trkpt lat="43.62779" lon="2.98881">
        <ele>1082.101</ele>
        <time>2013-06-02T10:13:46Z</time>
      </trkpt>
      <trkpt lat="43.62779" lon="2.98881">
        <ele>1078.737</ele>
        <time>2013-06-02T10:13:49Z</time>
      </trkpt>
      <trkpt lat="43.62779" lon="2.98881">
        <ele>1078.737</ele>
        <time>2013-06-02T10:13:50Z</time>
      </trkpt>
      <trkpt lat="43.62779" lon="2.98881">
        <ele>1082.582</ele>
        <time>2013-06-02T10:13:51Z</time>
      </trkpt>
      <trkpt lat="43.62779" lon="2.98881">
        <ele>1082.582</ele>
        <time>2013-06-02T10:13:52Z</time>
      </trkpt>
      <trkpt lat="43.62779" lon="2.98881">
        <ele>1078.737</ele>
        <time>2013-06-02T10:13:53Z</time>
      </trkpt>
      <trkpt lat="43.62779" lon="2.98881">
        <ele>1079.217</ele>
        <time>2013-06-02T10:13:54Z</time>
      </trkpt>
      <trkpt lat="43.62779" lon="2.98881">
        <ele>1076.814</ele>
        <time>2013-06-02T10:13:57Z</time>
      </trkpt>
      <trkpt lat="43.62779" lon="2.98881">
        <ele>1080.178</ele>
        <time>2013-06-02T10:13:58Z</time>
      </trkpt>
      <trkpt lat="43.62779" lon="2.98881">
        <ele>1080.178</ele>
        <time>2013-06-02T10:13:59Z</time>
      </trkpt>
      <trkpt lat="43.62779" lon="2.98881">
        <ele>1078.256</ele>
        <time>2013-06-02T10:14:01Z</time>
      </trkpt>
      <trkpt lat="43.62779" lon="2.98881">
        <ele>1080.178</ele>
        <time>2013-06-02T10:14:05Z</time>
      </trkpt>
      <trkpt lat="43.62779" lon="2.98881">
        <ele>1083.543</ele>
        <time>2013-06-02T10:14:06Z</time>
      </trkpt>
      <trkpt lat="43.62779" lon="2.98881">
        <ele>1083.543</ele>
        <time>2013-06-02T10:14:07Z</time>
      </trkpt>
      <trkpt lat="43.62779" lon="2.98881">
        <ele>1080.659</ele>
        <time>2013-06-02T10:14:20Z</time>
      </trkpt>
      <trkpt lat="43.62779" lon="2.98881">
        <ele>1077.295</ele>
        <time>2013-06-02T10:14:21Z</time>
      </trkpt>
      <trkpt lat="43.62779" lon="2.98881">
        <ele>1077.295</ele>
        <time>2013-06-02T10:14:22Z</time>
      </trkpt>
      <trkpt lat="43.62779" lon="2.98881">
        <ele>1078.737</ele>
        <time>2013-06-02T10:14:26Z</time>
      </trkpt>
      <trkpt lat="43.62779" lon="2.98881">
        <ele>1075.853</ele>
        <time>2013-06-02T10:14:28Z</time>
      </trkpt>
      <trkpt lat="43.62779" lon="2.98881">
        <ele>1076.814</ele>
        <time>2013-06-02T10:14:30Z</time>
      </trkpt>
      <trkpt lat="43.62779" lon="2.98881">
        <ele>1081.62</ele>
        <time>2013-06-02T10:14:32Z</time>
      </trkpt>
      <trkpt lat="43.62779" lon="2.98881">
        <ele>1081.62</ele>
        <time>2013-06-02T10:14:33Z</time>
      </trkpt>
      <trkpt lat="43.62779" lon="2.98881">
        <ele>1078.256</ele>
        <time>2013-06-02T10:14:36Z</time>
      </trkpt>
      <trkpt lat="43.62779" lon="2.98881">
        <ele>1078.256</ele>
        <time>2013-06-02T10:14:37Z</time>
      </trkpt>
      <trkpt lat="43.62779" lon="2.98881">
        <ele>1076.333</ele>
        <time>2013-06-02T10:14:39Z</time>
      </trkpt>
      <trkpt lat="43.62779" lon="2.98881">
        <ele>1073.93</ele>
        <time>2013-06-02T10:14:49Z</time>
      </trkpt>
      <trkpt lat="43.62779" lon="2.98881">
        <ele>1072.488</ele>
        <time>2013-06-02T10:14:52Z</time>
      </trkpt>
      <trkpt lat="43.62779" lon="2.98881">
        <ele>1075.372</ele>
        <time>2013-06-02T10:15:04Z</time>
      </trkpt>
      <trkpt lat="43.62779" lon="2.98881">
        <ele>1074.411</ele>
        <time>2013-06-02T10:15:10Z</time>
      </trkpt>
      <trkpt lat="43.62779" lon="2.98881">
        <ele>1076.814</ele>
        <time>2013-06-02T10:15:17Z</time>
      </trkpt>
      <trkpt lat="43.62779" lon="2.98881">
        <ele>1074.891</ele>
        <time>2013-06-02T10:15:21Z</time>
      </trkpt>
      <trkpt lat="43.62779" lon="2.98881">
        <ele>1072.488</ele>
        <time>2013-06-02T10:15:23Z</time>
      </trkpt>
      <trkpt lat="43.62779" lon="2.98881">
        <ele>1077.295</ele>
        <time>2013-06-02T10:15:33Z</time>
      </trkpt>
      <trkpt lat="43.62779" lon="2.98881">
        <ele>1077.295</ele>
        <time>2013-06-02T10:15:34Z</time>
      </trkpt>
      <trkpt lat="43.62779" lon="2.98881">
        <ele>1080.659</ele>
        <time>2013-06-02T10:15:36Z</time>
      </trkpt>
      <trkpt lat="43.62779" lon="2.98881">
        <ele>1084.505</ele>
        <time>2013-06-02T10:15:41Z</time>
      </trkpt>
      <trkpt lat="43.62779" lon="2.98881">
        <ele>1084.505</ele>
        <time>2013-06-02T10:15:42Z</time>
      </trkpt>
      <trkpt lat="43.62779" lon="2.98881">
        <ele>1081.14</ele>
        <time>2013-06-02T10:15:43Z</time>
      </trkpt>
      <trkpt lat="43.62779" lon="2.98881">
        <ele>1080.659</ele>
        <time>2013-06-02T10:15:44Z</time>
      </trkpt>
      <trkpt lat="43.62779" lon="2.98881">
        <ele>1078.256</ele>
        <time>2013-06-02T10:15:48Z</time>
      </trkpt>
      <trkpt lat="43.62779" lon="2.98881">
        <ele>1081.14</ele>
        <time>2013-06-02T10:15:50Z</time>
      </trkpt>
      <trkpt lat="43.62779" lon="2.98881">
        <ele>1078.737</ele>
        <time>2013-06-02T10:15:55Z</time>
      </trkpt>
      <trkpt lat="43.62779" lon="2.98881">
        <ele>1076.333</ele>
        <time>2013-06-02T10:15:57Z</time>
      </trkpt>
      <trkpt lat="43.62779" lon="2.98881">
        <ele>1080.659</ele>
        <time>2013-06-02T10:15:58Z</time>
      </trkpt>
      <trkpt lat="43.62779" lon="2.98881">
        <ele>1080.659</ele>
        <time>2013-06-02T10:15:59Z</time>
      </trkpt>
      <trkpt lat="43.62779" lon="2.98881">
        <ele>1076.333</ele>
        <time>2013-06-02T10:16:00Z</time>
      </trkpt>
      <trkpt lat="43.62779" lon="2.98881">
        <ele>1076.333</ele>
        <time>2013-06-02T10:16:01Z</time>
      </trkpt>
      <trkpt lat="43.62779" lon="2.98881">
        <ele>1077.775</ele>
        <time>2013-06-02T10:16:07Z</time>
      </trkpt>
      <trkpt lat="43.62779" lon="2.98881">
        <ele>1083.062</ele>
        <time>2013-06-02T10:16:09Z</time>
      </trkpt>
      <trkpt lat="43.62779" lon="2.98881">
        <ele>1083.062</ele>
        <time>2013-06-02T10:16:10Z</time>
      </trkpt>
      <trkpt lat="43.62779" lon="2.98881">
        <ele>1078.256</ele>
        <time>2013-06-02T10:16:13Z</time>
      </trkpt>
      <trkpt lat="43.62779" lon="2.98881">
        <ele>1078.256</ele>
        <time>2013-06-02T10:16:14Z</time>
      </trkpt>
      <trkpt lat="43.62779" lon="2.98881">
        <ele>1076.814</ele>
        <time>2013-06-02T10:16:16Z</time>
      </trkpt>
      <trkpt lat="43.62779" lon="2.98881">
        <ele>1080.659</ele>
        <time>2013-06-02T10:16:17Z</time>
      </trkpt>
      <trkpt lat="43.62779" lon="2.98881">
        <ele>1080.659</ele>
        <time>2013-06-02T10:16:18Z</time>
      </trkpt>
      <trkpt lat="43.62779" lon="2.98881">
        <ele>1079.217</ele>
        <time>2013-06-02T10:16:22Z</time>
      </trkpt>
      <trkpt lat="43.62779" lon="2.98881">
        <ele>1075.853</ele>
        <time>2013-06-02T10:16:25Z</time>
      </trkpt>
      <trkpt lat="43.62779" lon="2.98881">
        <ele>1075.853</ele>
        <time>2013-06-02T10:16:26Z</time>
      </trkpt>
      <trkpt lat="43.62779" lon="2.98881">
        <ele>1080.659</ele>
        <time>2013-06-02T10:16:27Z</time>
      </trkpt>
      <trkpt lat="43.6278" lon="2.98881">
        <ele>1075.372</ele>
        <time>2013-06-02T10:16:28Z</time>
      </trkpt>
      <trkpt lat="43.6278" lon="2.98881">
        <ele>1073.449</ele>
        <time>2013-06-02T10:16:31Z</time>
      </trkpt>
      <trkpt lat="43.6278" lon="2.98881">
        <ele>1071.527</ele>
        <time>2013-06-02T10:16:33Z</time>
      </trkpt>
      <trkpt lat="43.6278" lon="2.98881">
        <ele>1073.449</ele>
        <time>2013-06-02T10:16:39Z</time>
      </trkpt>
      <trkpt lat="43.6278" lon="2.98881">
        <ele>1070.565</ele>
        <time>2013-06-02T10:16:40Z</time>
      </trkpt>
      <trkpt lat="43.6278" lon="2.98881">
        <ele>1070.565</ele>
        <time>2013-06-02T10:16:41Z</time>
      </trkpt>
      <trkpt lat="43.6278" lon="2.98881">
        <ele>1077.775</ele>
        <time>2013-06-02T10:16:42Z</time>
      </trkpt>
      <trkpt lat="43.6278" lon="2.98881">
        <ele>1077.775</ele>
        <time>2013-06-02T10:16:43Z</time>
      </trkpt>
      <trkpt lat="43.6278" lon="2.98881">
        <ele>1073.449</ele>
        <time>2013-06-02T10:16:46Z</time>
      </trkpt>
      <trkpt lat="43.6278" lon="2.98881">
        <ele>1075.372</ele>
        <time>2013-06-02T10:16:47Z</time>
      </trkpt>
      <trkpt lat="43.6278" lon="2.98881">
        <ele>1072.007</ele>
        <time>2013-06-02T10:16:49Z</time>
      </trkpt>
      <trkpt lat="43.6278" lon="2.98881">
        <ele>1072.007</ele>
        <time>2013-06-02T10:16:50Z</time>
      </trkpt>
      <trkpt lat="43.6278" lon="2.98881">
        <ele>1074.411</ele>
        <time>2013-06-02T10:16:52Z</time>
      </trkpt>
      <trkpt lat="43.6278" lon="2.98881">
        <ele>1076.333</ele>
        <time>2013-06-02T10:16:54Z</time>
      </trkpt>
      <trkpt lat="43.6278" lon="2.98881">
        <ele>1074.891</ele>
        <time>2013-06-02T10:16:58Z</time>
      </trkpt>
      <trkpt lat="43.6278" lon="2.98881">
        <ele>1078.737</ele>
        <time>2013-06-02T10:16:59Z</time>
      </trkpt>
      <trkpt lat="43.6278" lon="2.98881">
        <ele>1078.737</ele>
        <time>2013-06-02T10:17:00Z</time>
      </trkpt>
      <trkpt lat="43.6278" lon="2.98881">
        <ele>1076.333</ele>
        <time>2013-06-02T10:17:02Z</time>
      </trkpt>
      <trkpt lat="43.6278" lon="2.98881">
        <ele>1072.969</ele>
        <time>2013-06-02T10:17:06Z</time>
      </trkpt>
      <trkpt lat="43.6278" lon="2.98881">
        <ele>1072.969</ele>
        <time>2013-06-02T10:17:07Z</time>
      </trkpt>
      <trkpt lat="43.6278" lon="2.98881">
        <ele>1073.93</ele>
        <time>2013-06-02T10:17:17Z</time>
      </trkpt>
      <trkpt lat="43.6278" lon="2.98881">
        <ele>1071.527</ele>
        <time>2013-06-02T10:17:19Z</time>
      </trkpt>
      <trkpt lat="43.6278" lon="2.98881">
        <ele>1073.449</ele>
        <time>2013-06-02T10:17:21Z</time>
      </trkpt>
      <trkpt lat="43.6278" lon="2.98881">
        <ele>1077.775</ele>
        <time>2013-06-02T10:17:22Z</time>
      </trkpt>
      <trkpt lat="43.6278" lon="2.98881">
        <ele>1077.775</ele>
        <time>2013-06-02T10:17:23Z</time>
      </trkpt>
      <trkpt lat="43.6278" lon="2.98881">
        <ele>1074.891</ele>
        <time>2013-06-02T10:17:26Z</time>
      </trkpt>
      <trkpt lat="43.6278" lon="2.98881">
        <ele>1078.737</ele>
        <time>2013-06-02T10:17:27Z</time>
      </trkpt>
      <trkpt lat="43.6278" lon="2.98881">
        <ele>1078.737</ele>
        <time>2013-06-02T10:17:28Z</time>
      </trkpt>
      <trkpt lat="43.6278" lon="2.98881">
        <ele>1073.93</ele>
        <time>2013-06-02T10:17:29Z</time>
      </trkpt>
      <trkpt lat="43.6278" lon="2.98881">
        <ele>1073.93</ele>
        <time>2013-06-02T10:17:30Z</time>
      </trkpt>
      <trkpt lat="43.6278" lon="2.98881">
        <ele>1076.333</ele>
        <time>2013-06-02T10:17:32Z</time>
      </trkpt>
      <trkpt lat="43.6278" lon="2.98881">
        <ele>1072.007</ele>
        <time>2013-06-02T10:17:33Z</time>
      </trkpt>
      <trkpt lat="43.6278" lon="2.98881">
        <ele>1072.007</ele>
        <time>2013-06-02T10:17:34Z</time>
      </trkpt>
      <trkpt lat="43.6278" lon="2.98881">
        <ele>1074.891</ele>
        <time>2013-06-02T10:17:36Z</time>
      </trkpt>
      <trkpt lat="43.6278" lon="2.98881">
        <ele>1073.449</ele>
        <time>2013-06-02T10:17:38Z</time>
      </trkpt>
      <trkpt lat="43.6278" lon="2.98881">
        <ele>1076.333</ele>
        <time>2013-06-02T10:17:47Z</time>
      </trkpt>
      <trkpt lat="43.6278" lon="2.98881">
        <ele>1078.256</ele>
        <time>2013-06-02T10:17:49Z</time>
      </trkpt>
      <trkpt lat="43.6278" lon="2.98881">
        <ele>1081.62</ele>
        <time>2013-06-02T10:17:50Z</time>
      </trkpt>
      <trkpt lat="43.6278" lon="2.98881">
        <ele>1081.62</ele>
        <time>2013-06-02T10:17:51Z</time>
      </trkpt>
      <trkpt lat="43.6278" lon="2.98881">
        <ele>1077.775</ele>
        <time>2013-06-02T10:17:52Z</time>
      </trkpt>
      <trkpt lat="43.6278" lon="2.98881">
        <ele>1077.775</ele>
        <time>2013-06-02T10:17:53Z</time>
      </trkpt>
      <trkpt lat="43.6278" lon="2.98881">
        <ele>1081.62</ele>
        <time>2013-06-02T10:17:54Z</time>
      </trkpt>
      <trkpt lat="43.6278" lon="2.98881">
        <ele>1081.62</ele>
        <time>2013-06-02T10:17:55Z</time>
      </trkpt>
      <trkpt lat="43.6278" lon="2.98881">
        <ele>1075.372</ele>
        <time>2013-06-02T10:17:56Z</time>
      </trkpt>
      <trkpt lat="43.6278" lon="2.98881">
        <ele>1075.372</ele>
        <time>2013-06-02T10:17:57Z</time>
      </trkpt>
      <trkpt lat="43.6278" lon="2.98881">
        <ele>1073.93</ele>
        <time>2013-06-02T10:17:59Z</time>
      </trkpt>
      <trkpt lat="43.6278" lon="2.98881">
        <ele>1077.775</ele>
        <time>2013-06-02T10:18:05Z</time>
      </trkpt>
      <trkpt lat="43.6278" lon="2.98881">
        <ele>1077.775</ele>
        <time>2013-06-02T10:18:06Z</time>
      </trkpt>
      <trkpt lat="43.6278" lon="2.98881">
        <ele>1076.333</ele>
        <time>2013-06-02T10:18:08Z</time>
      </trkpt>
      <trkpt lat="43.6278" lon="2.98881">
        <ele>1080.178</ele>
        <time>2013-06-02T10:18:11Z</time>
      </trkpt>
      <trkpt lat="43.6278" lon="2.98881">
        <ele>1079.698</ele>
        <time>2013-06-02T10:18:12Z</time>
      </trkpt>
      <trkpt lat="43.6278" lon="2.98881">
        <ele>1076.814</ele>
        <time>2013-06-02T10:18:13Z</time>
      </trkpt>
      <trkpt lat="43.6278" lon="2.98881">
        <ele>1076.814</ele>
        <time>2013-06-02T10:18:14Z</time>
      </trkpt>
      <trkpt lat="43.6278" lon="2.98881">
        <ele>1074.891</ele>
        <time>2013-06-02T10:18:16Z</time>
      </trkpt>
      <trkpt lat="43.6278" lon="2.98881">
        <ele>1075.372</ele>
        <time>2013-06-02T10:18:20Z</time>
      </trkpt>
      <trkpt lat="43.6278" lon="2.98881">
        <ele>1079.217</ele>
        <time>2013-06-02T10:18:24Z</time>
      </trkpt>
      <trkpt lat="43.6278" lon="2.98881">
        <ele>1079.217</ele>
        <time>2013-06-02T10:18:25Z</time>
      </trkpt>
      <trkpt lat="43.6278" lon="2.98881">
        <ele>1073.449</ele>
        <time>2013-06-02T10:18:26Z</time>
      </trkpt>
      <trkpt lat="43.6278" lon="2.98881">
        <ele>1073.449</ele>
        <time>2013-06-02T10:18:27Z</time>
      </trkpt>
      <trkpt lat="43.6278" lon="2.98881">
        <ele>1072.007</ele>
        <time>2013-06-02T10:18:33Z</time>
      </trkpt>
      <trkpt lat="43.6278" lon="2.98881">
        <ele>1074.411</ele>
        <time>2013-06-02T10:18:35Z</time>
      </trkpt>
      <trkpt lat="43.6278" lon="2.98881">
        <ele>1075.853</ele>
        <time>2013-06-02T10:18:37Z</time>
      </trkpt>
      <trkpt lat="43.6278" lon="2.98881">
        <ele>1077.775</ele>
        <time>2013-06-02T10:18:40Z</time>
      </trkpt>
      <trkpt lat="43.6278" lon="2.98881">
        <ele>1074.891</ele>
        <time>2013-06-02T10:18:43Z</time>
      </trkpt>
      <trkpt lat="43.6278" lon="2.98881">
        <ele>1074.891</ele>
        <time>2013-06-02T10:18:44Z</time>
      </trkpt>
      <trkpt lat="43.6278" lon="2.98881">
        <ele>1072.969</ele>
        <time>2013-06-02T10:18:50Z</time>
      </trkpt>
      <trkpt lat="43.6278" lon="2.98881">
        <ele>1071.046</ele>
        <time>2013-06-02T10:18:54Z</time>
      </trkpt>
      <trkpt lat="43.6278" lon="2.98881">
        <ele>1073.93</ele>
        <time>2013-06-02T10:19:05Z</time>
      </trkpt>
      <trkpt lat="43.6278" lon="2.98881">
        <ele>1068.162</ele>
        <time>2013-06-02T10:19:06Z</time>
      </trkpt>
      <trkpt lat="43.6278" lon="2.98881">
        <ele>1068.162</ele>
        <time>2013-06-02T10:19:07Z</time>
      </trkpt>
      <trkpt lat="43.6278" lon="2.98881">
        <ele>1073.93</ele>
        <time>2013-06-02T10:19:08Z</time>
      </trkpt>
      <trkpt lat="43.6278" lon="2.98881">
        <ele>1073.93</ele>
        <time>2013-06-02T10:19:09Z</time>
      </trkpt>
      <trkpt lat="43.6278" lon="2.98881">
        <ele>1074.891</ele>
        <time>2013-06-02T10:19:11Z</time>
      </trkpt>
      <trkpt lat="43.6278" lon="2.98881">
        <ele>1076.333</ele>
        <time>2013-06-02T10:19:17Z</time>
      </trkpt>
      <trkpt lat="43.6278" lon="2.98881">
        <ele>1074.411</ele>
        <time>2013-06-02T10:19:20Z</time>
      </trkpt>
      <trkpt lat="43.6278" lon="2.98881">
        <ele>1071.527</ele>
        <time>2013-06-02T10:19:22Z</time>
      </trkpt>
      <trkpt lat="43.6278" lon="2.98881">
        <ele>1077.295</ele>
        <time>2013-06-02T10:19:23Z</time>
      </trkpt>
      <trkpt lat="43.6278" lon="2.98881">
        <ele>1077.295</ele>
        <time>2013-06-02T10:19:24Z</time>
      </trkpt>
      <trkpt lat="43.6278" lon="2.98881">
        <ele>1071.046</ele>
        <time>2013-06-02T10:19:25Z</time>
      </trkpt>
      <trkpt lat="43.6278" lon="2.98881">
        <ele>1071.046</ele>
        <time>2013-06-02T10:19:26Z</time>
      </trkpt>
      <trkpt lat="43.6278" lon="2.98881">
        <ele>1072.488</ele>
        <time>2013-06-02T10:19:28Z</time>
      </trkpt>
      <trkpt lat="43.6278" lon="2.98881">
        <ele>1072.969</ele>
        <time>2013-06-02T10:19:32Z</time>
      </trkpt>
      <trkpt lat="43.6278" lon="2.98881">
        <ele>1078.256</ele>
        <time>2013-06-02T10:19:35Z</time>
      </trkpt>
      <trkpt lat="43.6278" lon="2.98881">
        <ele>1078.256</ele>
        <time>2013-06-02T10:19:36Z</time>
      </trkpt>
      <trkpt lat="43.6278" lon="2.98881">
        <ele>1076.814</ele>
        <time>2013-06-02T10:19:39Z</time>
      </trkpt>
      <trkpt lat="43.6278" lon="2.98881">
        <ele>1071.527</ele>
        <time>2013-06-02T10:19:40Z</time>
      </trkpt>
      <trkpt lat="43.6278" lon="2.98881">
        <ele>1071.527</ele>
        <time>2013-06-02T10:19:41Z</time>
      </trkpt>
      <trkpt lat="43.6278" lon="2.98881">
        <ele>1074.411</ele>
        <time>2013-06-02T10:19:43Z</time>
      </trkpt>
      <trkpt lat="43.6278" lon="2.98881">
        <ele>1077.295</ele>
        <time>2013-06-02T10:19:45Z</time>
      </trkpt>
      <trkpt lat="43.6278" lon="2.98881">
        <ele>1073.93</ele>
        <time>2013-06-02T10:19:46Z</time>
      </trkpt>
      <trkpt lat="43.6278" lon="2.98881">
        <ele>1073.93</ele>
        <time>2013-06-02T10:19:47Z</time>
      </trkpt>
      <trkpt lat="43.6278" lon="2.98881">
        <ele>1080.178</ele>
        <time>2013-06-02T10:19:48Z</time>
      </trkpt>
      <trkpt lat="43.6278" lon="2.98881">
        <ele>1080.178</ele>
        <time>2013-06-02T10:19:49Z</time>
      </trkpt>
      <trkpt lat="43.6278" lon="2.98881">
        <ele>1078.737</ele>
        <time>2013-06-02T10:19:51Z</time>
      </trkpt>
      <trkpt lat="43.6278" lon="2.98881">
        <ele>1072.969</ele>
        <time>2013-06-02T10:19:52Z</time>
      </trkpt>
      <trkpt lat="43.6278" lon="2.98881">
        <ele>1072.969</ele>
        <time>2013-06-02T10:19:53Z</time>
      </trkpt>
      <trkpt lat="43.6278" lon="2.98881">
        <ele>1070.085</ele>
        <time>2013-06-02T10:19:56Z</time>
      </trkpt>
      <trkpt lat="43.6278" lon="2.98881">
        <ele>1074.411</ele>
        <time>2013-06-02T10:20:03Z</time>
      </trkpt>
      <trkpt lat="43.6278" lon="2.98881">
        <ele>1074.411</ele>
        <time>2013-06-02T10:20:04Z</time>
      </trkpt>
      <trkpt lat="43.6278" lon="2.98881">
        <ele>1071.527</ele>
        <time>2013-06-02T10:20:08Z</time>
      </trkpt>
      <trkpt lat="43.6278" lon="2.98881">
        <ele>1075.853</ele>
        <time>2013-06-02T10:20:09Z</time>
      </trkpt>
      <trkpt lat="43.6278" lon="2.98881">
        <ele>1075.853</ele>
        <time>2013-06-02T10:20:10Z</time>
      </trkpt>
      <trkpt lat="43.6278" lon="2.98881">
        <ele>1074.891</ele>
        <time>2013-06-02T10:20:15Z</time>
      </trkpt>
      <trkpt lat="43.6278" lon="2.98881">
        <ele>1077.775</ele>
        <time>2013-06-02T10:20:16Z</time>
      </trkpt>
      <trkpt lat="43.6278" lon="2.98881">
        <ele>1077.775</ele>
        <time>2013-06-02T10:20:17Z</time>
      </trkpt>
      <trkpt lat="43.6278" lon="2.98881">
        <ele>1073.93</ele>
        <time>2013-06-02T10:20:18Z</time>
      </trkpt>
      <trkpt lat="43.6278" lon="2.98881">
        <ele>1073.93</ele>
        <time>2013-06-02T10:20:19Z</time>
      </trkpt>
      <trkpt lat="43.6278" lon="2.98881">
        <ele>1076.814</ele>
        <time>2013-06-02T10:20:20Z</time>
      </trkpt>
      <trkpt lat="43.6278" lon="2.98881">
        <ele>1076.814</ele>
        <time>2013-06-02T10:20:21Z</time>
      </trkpt>
      <trkpt lat="43.6278" lon="2.98881">
        <ele>1073.449</ele>
        <time>2013-06-02T10:20:24Z</time>
      </trkpt>
      <trkpt lat="43.6278" lon="2.98881">
        <ele>1073.449</ele>
        <time>2013-06-02T10:20:25Z</time>
      </trkpt>
      <trkpt lat="43.6278" lon="2.98881">
        <ele>1077.295</ele>
        <time>2013-06-02T10:20:26Z</time>
      </trkpt>
      <trkpt lat="43.6278" lon="2.98881">
        <ele>1077.295</ele>
        <time>2013-06-02T10:20:27Z</time>
      </trkpt>
      <trkpt lat="43.6278" lon="2.98882">
        <ele>1071.527</ele>
        <time>2013-06-02T10:20:28Z</time>
      </trkpt>
      <trkpt lat="43.6278" lon="2.98882">
        <ele>1071.527</ele>
        <time>2013-06-02T10:20:29Z</time>
      </trkpt>
      <trkpt lat="43.6278" lon="2.98883">
        <ele>1073.449</ele>
        <time>2013-06-02T10:20:31Z</time>
      </trkpt>
      <trkpt lat="43.6278" lon="2.98883">
        <ele>1070.085</ele>
        <time>2013-06-02T10:20:32Z</time>
      </trkpt>
      <trkpt lat="43.62781" lon="2.98884">
        <ele>1071.046</ele>
        <time>2013-06-02T10:20:33Z</time>
      </trkpt>
      <trkpt lat="43.62783" lon="2.98886">
        <ele>1069.124</ele>
        <time>2013-06-02T10:20:36Z</time>
      </trkpt>
      <trkpt lat="43.62784" lon="2.98886">
        <ele>1061.914</ele>
        <time>2013-06-02T10:20:37Z</time>
      </trkpt>
      <trkpt lat="43.62784" lon="2.98886">
        <ele>1061.914</ele>
        <time>2013-06-02T10:20:38Z</time>
      </trkpt>
      <trkpt lat="43.62786" lon="2.98885">
        <ele>1059.51</ele>
        <time>2013-06-02T10:20:40Z</time>
      </trkpt>
      <trkpt lat="43.62786" lon="2.98881">
        <ele>1063.836</ele>
        <time>2013-06-02T10:20:43Z</time>
      </trkpt>
      <trkpt lat="43.62787" lon="2.98877">
        <ele>1062.394</ele>
        <time>2013-06-02T10:20:46Z</time>
      </trkpt>
      <trkpt lat="43.62787" lon="2.98875">
        <ele>1059.03</ele>
        <time>2013-06-02T10:20:47Z</time>
      </trkpt>
      <trkpt lat="43.62787" lon="2.98874">
        <ele>1059.03</ele>
        <time>2013-06-02T10:20:48Z</time>
      </trkpt>
      <trkpt lat="43.62787" lon="2.98873">
        <ele>1054.704</ele>
        <time>2013-06-02T10:20:49Z</time>
      </trkpt>
      <trkpt lat="43.62788" lon="2.98872">
        <ele>1054.704</ele>
        <time>2013-06-02T10:20:50Z</time>
      </trkpt>
      <trkpt lat="43.62789" lon="2.9887">
        <ele>1058.068</ele>
        <time>2013-06-02T10:20:52Z</time>
      </trkpt>
      <trkpt lat="43.6279" lon="2.98868">
        <ele>1058.068</ele>
        <time>2013-06-02T10:20:53Z</time>
      </trkpt>
      <trkpt lat="43.62792" lon="2.98868">
        <ele>1060.952</ele>
        <time>2013-06-02T10:20:56Z</time>
      </trkpt>
      <trkpt lat="43.62792" lon="2.98868">
        <ele>1060.952</ele>
        <time>2013-06-02T10:20:57Z</time>
      </trkpt>
      <trkpt lat="43.62792" lon="2.98868">
        <ele>1064.797</ele>
        <time>2013-06-02T10:20:58Z</time>
      </trkpt>
      <trkpt lat="43.62792" lon="2.98868">
        <ele>1064.797</ele>
        <time>2013-06-02T10:20:59Z</time>
      </trkpt>
      <trkpt lat="43.62793" lon="2.98867">
        <ele>1059.991</ele>
        <time>2013-06-02T10:21:00Z</time>
      </trkpt>
      <trkpt lat="43.62794" lon="2.98867">
        <ele>1059.991</ele>
        <time>2013-06-02T10:21:01Z</time>
      </trkpt>
      <trkpt lat="43.62796" lon="2.98867">
        <ele>1061.433</ele>
        <time>2013-06-02T10:21:03Z</time>
      </trkpt>
      <trkpt lat="43.62801" lon="2.98868">
        <ele>1064.797</ele>
        <time>2013-06-02T10:21:06Z</time>
      </trkpt>
      <trkpt lat="43.62803" lon="2.98868">
        <ele>1064.797</ele>
        <time>2013-06-02T10:21:07Z</time>
      </trkpt>
      <trkpt lat="43.62804" lon="2.98868">
        <ele>1058.549</ele>
        <time>2013-06-02T10:21:08Z</time>
      </trkpt>
      <trkpt lat="43.62806" lon="2.98868">
        <ele>1058.549</ele>
        <time>2013-06-02T10:21:09Z</time>
      </trkpt>
      <trkpt lat="43.62807" lon="2.98868">
        <ele>1061.914</ele>
        <time>2013-06-02T10:21:10Z</time>
      </trkpt>
      <trkpt lat="43.62811" lon="2.98868">
        <ele>1063.836</ele>
        <time>2013-06-02T10:21:12Z</time>
      </trkpt>
      <trkpt lat="43.62818" lon="2.98869">
        <ele>1058.549</ele>
        <time>2013-06-02T10:21:15Z</time>
      </trkpt>
      <trkpt lat="43.6282" lon="2.98869">
        <ele>1058.549</ele>
        <time>2013-06-02T10:21:16Z</time>
      </trkpt>
      <trkpt lat="43.62822" lon="2.98869">
        <ele>1062.394</ele>
        <time>2013-06-02T10:21:17Z</time>
      </trkpt>
      <trkpt lat="43.62825" lon="2.98869">
        <ele>1062.394</ele>
        <time>2013-06-02T10:21:18Z</time>
      </trkpt>
      <trkpt lat="43.6283" lon="2.9887">
        <ele>1060.952</ele>
        <time>2013-06-02T10:21:20Z</time>
      </trkpt>
      <trkpt lat="43.62836" lon="2.98869">
        <ele>1062.394</ele>
        <time>2013-06-02T10:21:22Z</time>
      </trkpt>
      <trkpt lat="43.62839" lon="2.98869">
        <ele>1052.3</ele>
        <time>2013-06-02T10:21:23Z</time>
      </trkpt>
      <trkpt lat="43.62843" lon="2.98869">
        <ele>1052.3</ele>
        <time>2013-06-02T10:21:24Z</time>
      </trkpt>
      <trkpt lat="43.62846" lon="2.98869">
        <ele>1058.068</ele>
        <time>2013-06-02T10:21:25Z</time>
      </trkpt>
      <trkpt lat="43.6285" lon="2.98868">
        <ele>1058.068</ele>
        <time>2013-06-02T10:21:26Z</time>
      </trkpt>
      <trkpt lat="43.62853" lon="2.98863">
        <ele>1056.146</ele>
        <time>2013-06-02T10:21:28Z</time>
      </trkpt>
      <trkpt lat="43.62857" lon="2.98843">
        <ele>1055.184</ele>
        <time>2013-06-02T10:21:33Z</time>
      </trkpt>
      <trkpt lat="43.62858" lon="2.98838">
        <ele>1051.82</ele>
        <time>2013-06-02T10:21:34Z</time>
      </trkpt>
      <trkpt lat="43.62859" lon="2.98834">
        <ele>1051.82</ele>
        <time>2013-06-02T10:21:35Z</time>
      </trkpt>
      <trkpt lat="43.62859" lon="2.9883">
        <ele>1060.952</ele>
        <time>2013-06-02T10:21:36Z</time>
      </trkpt>
      <trkpt lat="43.6286" lon="2.98827">
        <ele>1060.952</ele>
        <time>2013-06-02T10:21:37Z</time>
      </trkpt>
      <trkpt lat="43.62861" lon="2.98824">
        <ele>1050.858</ele>
        <time>2013-06-02T10:21:38Z</time>
      </trkpt>
      <trkpt lat="43.62862" lon="2.9882">
        <ele>1050.858</ele>
        <time>2013-06-02T10:21:39Z</time>
      </trkpt>
      <trkpt lat="43.62864" lon="2.98811">
        <ele>1049.416</ele>
        <time>2013-06-02T10:21:41Z</time>
      </trkpt>
      <trkpt lat="43.62865" lon="2.98808">
        <ele>1042.207</ele>
        <time>2013-06-02T10:21:42Z</time>
      </trkpt>
      <trkpt lat="43.62868" lon="2.98804">
        <ele>1042.207</ele>
        <time>2013-06-02T10:21:43Z</time>
      </trkpt>
      <trkpt lat="43.6287" lon="2.98801">
        <ele>1045.571</ele>
        <time>2013-06-02T10:21:44Z</time>
      </trkpt>
      <trkpt lat="43.62871" lon="2.98798">
        <ele>1045.571</ele>
        <time>2013-06-02T10:21:45Z</time>
      </trkpt>
      <trkpt lat="43.62873" lon="2.98796">
        <ele>1037.881</ele>
        <time>2013-06-02T10:21:46Z</time>
      </trkpt>
      <trkpt lat="43.62875" lon="2.98793">
        <ele>1037.881</ele>
        <time>2013-06-02T10:21:47Z</time>
      </trkpt>
      <trkpt lat="43.62877" lon="2.98791">
        <ele>1042.207</ele>
        <time>2013-06-02T10:21:48Z</time>
      </trkpt>
      <trkpt lat="43.62881" lon="2.98788">
        <ele>1045.09</ele>
        <time>2013-06-02T10:21:50Z</time>
      </trkpt>
      <trkpt lat="43.62884" lon="2.98787">
        <ele>1038.361</ele>
        <time>2013-06-02T10:21:52Z</time>
      </trkpt>
      <trkpt lat="43.62886" lon="2.98787">
        <ele>1040.764</ele>
        <time>2013-06-02T10:21:53Z</time>
      </trkpt>
      <trkpt lat="43.6289" lon="2.98779">
        <ele>1038.842</ele>
        <time>2013-06-02T10:21:58Z</time>
      </trkpt>
      <trkpt lat="43.62891" lon="2.98774">
        <ele>1038.361</ele>
        <time>2013-06-02T10:22:00Z</time>
      </trkpt>
      <trkpt lat="43.62893" lon="2.9877">
        <ele>1039.323</ele>
        <time>2013-06-02T10:22:02Z</time>
      </trkpt>
      <trkpt lat="43.62893" lon="2.98766">
        <ele>1037.881</ele>
        <time>2013-06-02T10:22:04Z</time>
      </trkpt>
      <trkpt lat="43.62895" lon="2.98761">
        <ele>1035.477</ele>
        <time>2013-06-02T10:22:06Z</time>
      </trkpt>
      <trkpt lat="43.62896" lon="2.98758">
        <ele>1030.671</ele>
        <time>2013-06-02T10:22:07Z</time>
      </trkpt>
      <trkpt lat="43.62897" lon="2.98756">
        <ele>1032.113</ele>
        <time>2013-06-02T10:22:08Z</time>
      </trkpt>
      <trkpt lat="43.62899" lon="2.98747">
        <ele>1030.671</ele>
        <time>2013-06-02T10:22:11Z</time>
      </trkpt>
      <trkpt lat="43.62901" lon="2.98743">
        <ele>1028.748</ele>
        <time>2013-06-02T10:22:13Z</time>
      </trkpt>
      <trkpt lat="43.62901" lon="2.98742">
        <ele>1026.825</ele>
        <time>2013-06-02T10:22:14Z</time>
      </trkpt>
      <trkpt lat="43.62903" lon="2.98741">
        <ele>1026.345</ele>
        <time>2013-06-02T10:22:16Z</time>
      </trkpt>
      <trkpt lat="43.62905" lon="2.98736">
        <ele>1024.903</ele>
        <time>2013-06-02T10:22:19Z</time>
      </trkpt>
      <trkpt lat="43.62905" lon="2.98734">
        <ele>1024.903</ele>
        <time>2013-06-02T10:22:20Z</time>
      </trkpt>
      <trkpt lat="43.62906" lon="2.98725">
        <ele>1022.98</ele>
        <time>2013-06-02T10:22:23Z</time>
      </trkpt>
      <trkpt lat="43.62909" lon="2.98715">
        <ele>1017.212</ele>
        <time>2013-06-02T10:22:26Z</time>
      </trkpt>
      <trkpt lat="43.6291" lon="2.9871">
        <ele>1014.809</ele>
        <time>2013-06-02T10:22:28Z</time>
      </trkpt>
      <trkpt lat="43.6291" lon="2.98702">
        <ele>1013.367</ele>
        <time>2013-06-02T10:22:32Z</time>
      </trkpt>
      <trkpt lat="43.6291" lon="2.98698">
        <ele>1011.925</ele>
        <time>2013-06-02T10:22:34Z</time>
      </trkpt>
      <trkpt lat="43.6291" lon="2.98695">
        <ele>1008.56</ele>
        <time>2013-06-02T10:22:35Z</time>
      </trkpt>
      <trkpt lat="43.62914" lon="2.98687">
        <ele>1007.599</ele>
        <time>2013-06-02T10:22:40Z</time>
      </trkpt>
      <trkpt lat="43.62915" lon="2.98679">
        <ele>1006.157</ele>
        <time>2013-06-02T10:22:43Z</time>
      </trkpt>
      <trkpt lat="43.62914" lon="2.98668">
        <ele>1003.273</ele>
        <time>2013-06-02T10:22:46Z</time>
      </trkpt>
      <trkpt lat="43.62914" lon="2.98665">
        <ele>1001.35</ele>
        <time>2013-06-02T10:22:49Z</time>
      </trkpt>
      <trkpt lat="43.62913" lon="2.98663">
        <ele>997.9858</ele>
        <time>2013-06-02T10:22:56Z</time>
      </trkpt>
      <trkpt lat="43.62913" lon="2.98663">
        <ele>1000.87</ele>
        <time>2013-06-02T10:23:00Z</time>
      </trkpt>
      <trkpt lat="43.62913" lon="2.98663">
        <ele>1000.87</ele>
        <time>2013-06-02T10:23:01Z</time>
      </trkpt>
      <trkpt lat="43.62913" lon="2.98663">
        <ele>997.9858</ele>
        <time>2013-06-02T10:23:15Z</time>
      </trkpt>
      <trkpt lat="43.62913" lon="2.98663">
        <ele>998.4663</ele>
        <time>2013-06-02T10:23:33Z</time>
      </trkpt>
      <trkpt lat="43.62913" lon="2.98663">
        <ele>999.4277</ele>
        <time>2013-06-02T10:23:39Z</time>
      </trkpt>
      <trkpt lat="43.62914" lon="2.98662">
        <ele>997.5051</ele>
        <time>2013-06-02T10:23:43Z</time>
      </trkpt>
      <trkpt lat="43.62913" lon="2.98661">
        <ele>1000.389</ele>
        <time>2013-06-02T10:23:53Z</time>
      </trkpt>
      <trkpt lat="43.62913" lon="2.98661">
        <ele>998.4663</ele>
        <time>2013-06-02T10:23:58Z</time>
      </trkpt>
      <trkpt lat="43.62913" lon="2.98661">
        <ele>999.4277</ele>
        <time>2013-06-02T10:24:00Z</time>
      </trkpt>
      <trkpt lat="43.62913" lon="2.98661">
        <ele>1001.831</ele>
        <time>2013-06-02T10:24:02Z</time>
      </trkpt>
      <trkpt lat="43.62913" lon="2.98661">
        <ele>999.4277</ele>
        <time>2013-06-02T10:24:05Z</time>
      </trkpt>
      <trkpt lat="43.62913" lon="2.98661">
        <ele>1000.389</ele>
        <time>2013-06-02T10:24:10Z</time>
      </trkpt>
      <trkpt lat="43.62915" lon="2.98656">
        <ele>998.947</ele>
        <time>2013-06-02T10:24:13Z</time>
      </trkpt>
      <trkpt lat="43.62918" lon="2.98652">
        <ele>997.9858</ele>
        <time>2013-06-02T10:24:15Z</time>
      </trkpt>
      <trkpt lat="43.62919" lon="2.98648">
        <ele>996.5439</ele>
        <time>2013-06-02T10:24:17Z</time>
      </trkpt>
      <trkpt lat="43.62922" lon="2.98637">
        <ele>993.6599</ele>
        <time>2013-06-02T10:24:21Z</time>
      </trkpt>
      <trkpt lat="43.62923" lon="2.98632">
        <ele>989.334</ele>
        <time>2013-06-02T10:24:23Z</time>
      </trkpt>
      <trkpt lat="43.62923" lon="2.98629">
        <ele>989.334</ele>
        <time>2013-06-02T10:24:24Z</time>
      </trkpt>
      <trkpt lat="43.62925" lon="2.98622">
        <ele>986.9304</ele>
        <time>2013-06-02T10:24:27Z</time>
      </trkpt>
      <trkpt lat="43.62928" lon="2.98609">
        <ele>984.0466</ele>
        <time>2013-06-02T10:24:30Z</time>
      </trkpt>
      <trkpt lat="43.62932" lon="2.986">
        <ele>979.7207</ele>
        <time>2013-06-02T10:24:33Z</time>
      </trkpt>
      <trkpt lat="43.62932" lon="2.98599">
        <ele>979.7207</ele>
        <time>2013-06-02T10:24:34Z</time>
      </trkpt>
      <trkpt lat="43.62933" lon="2.98598">
        <ele>981.6433</ele>
        <time>2013-06-02T10:24:36Z</time>
      </trkpt>
      <trkpt lat="43.62933" lon="2.98598">
        <ele>983.5659</ele>
        <time>2013-06-02T10:24:38Z</time>
      </trkpt>
      <trkpt lat="43.62933" lon="2.98598">
        <ele>981.6433</ele>
        <time>2013-06-02T10:24:40Z</time>
      </trkpt>
      <trkpt lat="43.62933" lon="2.98598">
        <ele>983.0852</ele>
        <time>2013-06-02T10:24:43Z</time>
      </trkpt>
      <trkpt lat="43.62933" lon="2.98598">
        <ele>983.0852</ele>
        <time>2013-06-02T10:25:16Z</time>
      </trkpt>
      <trkpt lat="43.62933" lon="2.98598">
        <ele>982.6047</ele>
        <time>2013-06-02T10:25:21Z</time>
      </trkpt>
      <trkpt lat="43.62938" lon="2.98585">
        <ele>980.2014</ele>
        <time>2013-06-02T10:25:39Z</time>
      </trkpt>
      <trkpt lat="43.62951" lon="2.98564">
        <ele>976.8369</ele>
        <time>2013-06-02T10:25:43Z</time>
      </trkpt>
      <trkpt lat="43.6296" lon="2.98547">
        <ele>975.3948</ele>
        <time>2013-06-02T10:25:46Z</time>
      </trkpt>
      <trkpt lat="43.62968" lon="2.98534">
        <ele>973.4724</ele>
        <time>2013-06-02T10:25:49Z</time>
      </trkpt>
      <trkpt lat="43.62979" lon="2.98515">
        <ele>976.8369</ele>
        <time>2013-06-02T10:25:55Z</time>
      </trkpt>
      <trkpt lat="43.62979" lon="2.98513">
        <ele>976.8369</ele>
        <time>2013-06-02T10:25:56Z</time>
      </trkpt>
      <trkpt lat="43.62983" lon="2.98503">
        <ele>975.3948</ele>
        <time>2013-06-02T10:26:00Z</time>
      </trkpt>
      <trkpt lat="43.62986" lon="2.98491">
        <ele>973.4724</ele>
        <time>2013-06-02T10:26:03Z</time>
      </trkpt>
      <trkpt lat="43.62989" lon="2.98482">
        <ele>974.9143</ele>
        <time>2013-06-02T10:26:05Z</time>
      </trkpt>
      <trkpt lat="43.6299" lon="2.98475">
        <ele>972.511</ele>
        <time>2013-06-02T10:26:07Z</time>
      </trkpt>
      <trkpt lat="43.62994" lon="2.98458">
        <ele>969.1462</ele>
        <time>2013-06-02T10:26:11Z</time>
      </trkpt>
      <trkpt lat="43.62995" lon="2.98453">
        <ele>969.1462</ele>
        <time>2013-06-02T10:26:12Z</time>
      </trkpt>
      <trkpt lat="43.62997" lon="2.98443">
        <ele>966.7429</ele>
        <time>2013-06-02T10:26:14Z</time>
      </trkpt>
      <trkpt lat="43.62998" lon="2.98433">
        <ele>965.301</ele>
        <time>2013-06-02T10:26:16Z</time>
      </trkpt>
      <trkpt lat="43.62999" lon="2.98424">
        <ele>961.4558</ele>
        <time>2013-06-02T10:26:18Z</time>
      </trkpt>
      <trkpt lat="43.63" lon="2.9842">
        <ele>961.4558</ele>
        <time>2013-06-02T10:26:19Z</time>
      </trkpt>
      <trkpt lat="43.63004" lon="2.98398">
        <ele>956.1685</ele>
        <time>2013-06-02T10:26:24Z</time>
      </trkpt>
      <trkpt lat="43.63005" lon="2.9839">
        <ele>954.7263</ele>
        <time>2013-06-02T10:26:26Z</time>
      </trkpt>
      <trkpt lat="43.63007" lon="2.98381">
        <ele>953.2844</ele>
        <time>2013-06-02T10:26:28Z</time>
      </trkpt>
      <trkpt lat="43.6301" lon="2.98361">
        <ele>947.9973</ele>
        <time>2013-06-02T10:26:31Z</time>
      </trkpt>
      <trkpt lat="43.63013" lon="2.9835">
        <ele>946.0747</ele>
        <time>2013-06-02T10:26:33Z</time>
      </trkpt>
      <trkpt lat="43.63015" lon="2.98342">
        <ele>944.6326</ele>
        <time>2013-06-02T10:26:35Z</time>
      </trkpt>
      <trkpt lat="43.63017" lon="2.98333">
        <ele>942.2295</ele>
        <time>2013-06-02T10:26:37Z</time>
      </trkpt>
      <trkpt lat="43.63022" lon="2.98322">
        <ele>933.5774</ele>
        <time>2013-06-02T10:26:39Z</time>
      </trkpt>
      <trkpt lat="43.63024" lon="2.98313">
        <ele>933.5774</ele>
        <time>2013-06-02T10:26:40Z</time>
      </trkpt>
      <trkpt lat="43.63026" lon="2.98302">
        <ele>930.2129</ele>
        <time>2013-06-02T10:26:41Z</time>
      </trkpt>
      <trkpt lat="43.63029" lon="2.98292">
        <ele>930.2129</ele>
        <time>2013-06-02T10:26:42Z</time>
      </trkpt>
      <trkpt lat="43.63033" lon="2.98267">
        <ele>927.8096</ele>
        <time>2013-06-02T10:26:44Z</time>
      </trkpt>
      <trkpt lat="43.63034" lon="2.98256">
        <ele>924.9258</ele>
        <time>2013-06-02T10:26:45Z</time>
      </trkpt>
      <trkpt lat="43.63037" lon="2.98235">
        <ele>922.5222</ele>
        <time>2013-06-02T10:26:47Z</time>
      </trkpt>
      <trkpt lat="43.63039" lon="2.98224">
        <ele>925.887</ele>
        <time>2013-06-02T10:26:48Z</time>
      </trkpt>
      <trkpt lat="43.63041" lon="2.98214">
        <ele>925.887</ele>
        <time>2013-06-02T10:26:49Z</time>
      </trkpt>
      <trkpt lat="43.63045" lon="2.98184">
        <ele>924.9258</ele>
        <time>2013-06-02T10:26:53Z</time>
      </trkpt>
      <trkpt lat="43.63047" lon="2.98175">
        <ele>926.8484</ele>
        <time>2013-06-02T10:26:56Z</time>
      </trkpt>
      <trkpt lat="43.63042" lon="2.98109">
        <ele>923.9641</ele>
        <time>2013-06-02T10:27:10Z</time>
      </trkpt>
      <trkpt lat="43.63041" lon="2.98103">
        <ele>922.0415</ele>
        <time>2013-06-02T10:27:11Z</time>
      </trkpt>
      <trkpt lat="43.63037" lon="2.98087">
        <ele>921.0803</ele>
        <time>2013-06-02T10:27:14Z</time>
      </trkpt>
      <trkpt lat="43.63032" lon="2.98073">
        <ele>918.677</ele>
        <time>2013-06-02T10:27:17Z</time>
      </trkpt>
      <trkpt lat="43.63027" lon="2.98063">
        <ele>917.2351</ele>
        <time>2013-06-02T10:27:19Z</time>
      </trkpt>
      <trkpt lat="43.63009" lon="2.98044">
        <ele>915.3125</ele>
        <time>2013-06-02T10:27:24Z</time>
      </trkpt>
      <trkpt lat="43.62988" lon="2.98022">
        <ele>912.9092</ele>
        <time>2013-06-02T10:27:28Z</time>
      </trkpt>
      <trkpt lat="43.62982" lon="2.98016">
        <ele>911.948</ele>
        <time>2013-06-02T10:27:29Z</time>
      </trkpt>
      <trkpt lat="43.62956" lon="2.97969">
        <ele>911.4673</ele>
        <time>2013-06-02T10:27:35Z</time>
      </trkpt>
      <trkpt lat="43.62952" lon="2.97961">
        <ele>909.064</ele>
        <time>2013-06-02T10:27:36Z</time>
      </trkpt>
      <trkpt lat="43.62947" lon="2.97935">
        <ele>905.2185</ele>
        <time>2013-06-02T10:27:39Z</time>
      </trkpt>
      <trkpt lat="43.62948" lon="2.97928">
        <ele>905.2185</ele>
        <time>2013-06-02T10:27:40Z</time>
      </trkpt>
      <trkpt lat="43.62952" lon="2.97914">
        <ele>908.1028</ele>
        <time>2013-06-02T10:27:42Z</time>
      </trkpt>
      <trkpt lat="43.62967" lon="2.97894">
        <ele>910.5059</ele>
        <time>2013-06-02T10:27:46Z</time>
      </trkpt>
      <trkpt lat="43.62975" lon="2.97886">
        <ele>911.4673</ele>
        <time>2013-06-02T10:27:49Z</time>
      </trkpt>
      <trkpt lat="43.62985" lon="2.97878">
        <ele>912.4285</ele>
        <time>2013-06-02T10:27:54Z</time>
      </trkpt>
      <trkpt lat="43.63025" lon="2.97848">
        <ele>914.8318</ele>
        <time>2013-06-02T10:28:14Z</time>
      </trkpt>
      <trkpt lat="43.63029" lon="2.97846">
        <ele>917.2351</ele>
        <time>2013-06-02T10:28:16Z</time>
      </trkpt>
      <trkpt lat="43.63034" lon="2.97843">
        <ele>915.3125</ele>
        <time>2013-06-02T10:28:18Z</time>
      </trkpt>
      <trkpt lat="43.63041" lon="2.97837">
        <ele>914.3511</ele>
        <time>2013-06-02T10:28:21Z</time>
      </trkpt>
      <trkpt lat="43.63045" lon="2.97834">
        <ele>911.948</ele>
        <time>2013-06-02T10:28:23Z</time>
      </trkpt>
      <trkpt lat="43.63054" lon="2.97829">
        <ele>914.8318</ele>
        <time>2013-06-02T10:28:27Z</time>
      </trkpt>
      <trkpt lat="43.63071" lon="2.9782">
        <ele>913.3899</ele>
        <time>2013-06-02T10:28:35Z</time>
      </trkpt>
      <trkpt lat="43.63077" lon="2.97817">
        <ele>916.2737</ele>
        <time>2013-06-02T10:28:38Z</time>
      </trkpt>
      <trkpt lat="43.63091" lon="2.9781">
        <ele>914.8318</ele>
        <time>2013-06-02T10:28:44Z</time>
      </trkpt>
      <trkpt lat="43.63094" lon="2.97808">
        <ele>912.4285</ele>
        <time>2013-06-02T10:28:46Z</time>
      </trkpt>
      <trkpt lat="43.63103" lon="2.97802">
        <ele>914.8318</ele>
        <time>2013-06-02T10:28:50Z</time>
      </trkpt>
      <trkpt lat="43.63112" lon="2.97797">
        <ele>916.7544</ele>
        <time>2013-06-02T10:28:54Z</time>
      </trkpt>
      <trkpt lat="43.63118" lon="2.97794">
        <ele>918.677</ele>
        <time>2013-06-02T10:28:57Z</time>
      </trkpt>
      <trkpt lat="43.6316" lon="2.97772">
        <ele>922.0415</ele>
        <time>2013-06-02T10:29:14Z</time>
      </trkpt>
      <trkpt lat="43.63162" lon="2.97771">
        <ele>922.0415</ele>
        <time>2013-06-02T10:29:15Z</time>
      </trkpt>
      <trkpt lat="43.63174" lon="2.97765">
        <ele>923.9641</ele>
        <time>2013-06-02T10:29:20Z</time>
      </trkpt>
      <trkpt lat="43.63179" lon="2.97763">
        <ele>921.5608</ele>
        <time>2013-06-02T10:29:22Z</time>
      </trkpt>
      <trkpt lat="43.63199" lon="2.97754">
        <ele>924.4451</ele>
        <time>2013-06-02T10:29:30Z</time>
      </trkpt>
      <trkpt lat="43.63205" lon="2.97752">
        <ele>922.5222</ele>
        <time>2013-06-02T10:29:32Z</time>
      </trkpt>
      <trkpt lat="43.63246" lon="2.9771">
        <ele>925.4063</ele>
        <time>2013-06-02T10:29:49Z</time>
      </trkpt>
      <trkpt lat="43.63259" lon="2.9769">
        <ele>928.2903</ele>
        <time>2013-06-02T10:29:56Z</time>
      </trkpt>
      <trkpt lat="43.6327" lon="2.97675">
        <ele>929.2515</ele>
        <time>2013-06-02T10:30:03Z</time>
      </trkpt>
      <trkpt lat="43.63287" lon="2.97667">
        <ele>931.6548</ele>
        <time>2013-06-02T10:30:12Z</time>
      </trkpt>
      <trkpt lat="43.63289" lon="2.97667">
        <ele>931.6548</ele>
        <time>2013-06-02T10:30:13Z</time>
      </trkpt>
      <trkpt lat="43.63304" lon="2.97673">
        <ele>930.6936</ele>
        <time>2013-06-02T10:30:21Z</time>
      </trkpt>
      <trkpt lat="43.63308" lon="2.97674">
        <ele>930.6936</ele>
        <time>2013-06-02T10:30:23Z</time>
      </trkpt>
      <trkpt lat="43.63322" lon="2.97683">
        <ele>932.1355</ele>
        <time>2013-06-02T10:30:29Z</time>
      </trkpt>
      <trkpt lat="43.63327" lon="2.97683">
        <ele>934.0581</ele>
        <time>2013-06-02T10:30:31Z</time>
      </trkpt>
      <trkpt lat="43.63371" lon="2.97666">
        <ele>935.9807</ele>
        <time>2013-06-02T10:30:49Z</time>
      </trkpt>
      <trkpt lat="43.63377" lon="2.9766">
        <ele>934.5388</ele>
        <time>2013-06-02T10:30:52Z</time>
      </trkpt>
      <trkpt lat="43.63384" lon="2.97652">
        <ele>935.9807</ele>
        <time>2013-06-02T10:30:55Z</time>
      </trkpt>
      <trkpt lat="43.63408" lon="2.97627">
        <ele>937.9033</ele>
        <time>2013-06-02T10:31:05Z</time>
      </trkpt>
      <trkpt lat="43.63436" lon="2.97611">
        <ele>938.384</ele>
        <time>2013-06-02T10:31:15Z</time>
      </trkpt>
      <trkpt lat="43.63448" lon="2.97616">
        <ele>938.384</ele>
        <time>2013-06-02T10:31:19Z</time>
      </trkpt>
      <trkpt lat="43.63475" lon="2.97641">
        <ele>941.7488</ele>
        <time>2013-06-02T10:31:29Z</time>
      </trkpt>
      <trkpt lat="43.63493" lon="2.97659">
        <ele>939.3452</ele>
        <time>2013-06-02T10:31:37Z</time>
      </trkpt>
      <trkpt lat="43.63498" lon="2.97664">
        <ele>940.7874</ele>
        <time>2013-06-02T10:31:39Z</time>
      </trkpt>
      <trkpt lat="43.63512" lon="2.97674">
        <ele>940.7874</ele>
        <time>2013-06-02T10:31:45Z</time>
      </trkpt>
      <trkpt lat="43.63518" lon="2.97676">
        <ele>944.1521</ele>
        <time>2013-06-02T10:31:48Z</time>
      </trkpt>
      <trkpt lat="43.63521" lon="2.97676">
        <ele>944.1521</ele>
        <time>2013-06-02T10:31:49Z</time>
      </trkpt>
      <trkpt lat="43.6353" lon="2.97673">
        <ele>942.2295</ele>
        <time>2013-06-02T10:31:52Z</time>
      </trkpt>
      <trkpt lat="43.63535" lon="2.9767">
        <ele>944.1521</ele>
        <time>2013-06-02T10:31:54Z</time>
      </trkpt>
      <trkpt lat="43.63546" lon="2.97661">
        <ele>947.0359</ele>
        <time>2013-06-02T10:31:58Z</time>
      </trkpt>
      <trkpt lat="43.63575" lon="2.97643">
        <ele>948.4778</ele>
        <time>2013-06-02T10:32:08Z</time>
      </trkpt>
      <trkpt lat="43.6359" lon="2.97641">
        <ele>950.4006</ele>
        <time>2013-06-02T10:32:13Z</time>
      </trkpt>
      <trkpt lat="43.63596" lon="2.9764">
        <ele>947.9973</ele>
        <time>2013-06-02T10:32:15Z</time>
      </trkpt>
      <trkpt lat="43.6362" lon="2.97638">
        <ele>949.4392</ele>
        <time>2013-06-02T10:32:23Z</time>
      </trkpt>
      <trkpt lat="43.63635" lon="2.97637">
        <ele>948.9585</ele>
        <time>2013-06-02T10:32:29Z</time>
      </trkpt>
      <trkpt lat="43.63652" lon="2.97623">
        <ele>953.2844</ele>
        <time>2013-06-02T10:32:37Z</time>
      </trkpt>
      <trkpt lat="43.63653" lon="2.97621">
        <ele>953.2844</ele>
        <time>2013-06-02T10:32:38Z</time>
      </trkpt>
      <trkpt lat="43.63658" lon="2.97609">
        <ele>953.2844</ele>
        <time>2013-06-02T10:32:42Z</time>
      </trkpt>
      <trkpt lat="43.63659" lon="2.97603">
        <ele>955.207</ele>
        <time>2013-06-02T10:32:44Z</time>
      </trkpt>
      <trkpt lat="43.63661" lon="2.97597">
        <ele>953.7651</ele>
        <time>2013-06-02T10:32:46Z</time>
      </trkpt>
      <trkpt lat="43.63663" lon="2.97583">
        <ele>945.1133</ele>
        <time>2013-06-02T10:32:50Z</time>
      </trkpt>
      <trkpt lat="43.63663" lon="2.9758">
        <ele>945.1133</ele>
        <time>2013-06-02T10:32:51Z</time>
      </trkpt>
      <trkpt lat="43.63664" lon="2.97573">
        <ele>947.5166</ele>
        <time>2013-06-02T10:32:53Z</time>
      </trkpt>
      <trkpt lat="43.63666" lon="2.97567">
        <ele>948.9585</ele>
        <time>2013-06-02T10:32:55Z</time>
      </trkpt>
      <trkpt lat="43.63669" lon="2.97518">
        <ele>943.6714</ele>
        <time>2013-06-02T10:33:09Z</time>
      </trkpt>
      <trkpt lat="43.63668" lon="2.97512">
        <ele>945.594</ele>
        <time>2013-06-02T10:33:12Z</time>
      </trkpt>
      <trkpt lat="43.63667" lon="2.97501">
        <ele>943.6714</ele>
        <time>2013-06-02T10:33:16Z</time>
      </trkpt>
      <trkpt lat="43.63668" lon="2.97494">
        <ele>946.5554</ele>
        <time>2013-06-02T10:33:19Z</time>
      </trkpt>
      <trkpt lat="43.6367" lon="2.97489">
        <ele>946.5554</ele>
        <time>2013-06-02T10:33:20Z</time>
      </trkpt>
      <trkpt lat="43.63671" lon="2.97451">
        <ele>946.0747</ele>
        <time>2013-06-02T10:33:30Z</time>
      </trkpt>
      <trkpt lat="43.63672" lon="2.97438">
        <ele>944.1521</ele>
        <time>2013-06-02T10:33:34Z</time>
      </trkpt>
      <trkpt lat="43.63671" lon="2.97424">
        <ele>945.594</ele>
        <time>2013-06-02T10:33:39Z</time>
      </trkpt>
      <trkpt lat="43.63661" lon="2.97389">
        <ele>950.4006</ele>
        <time>2013-06-02T10:33:48Z</time>
      </trkpt>
      <trkpt lat="43.63658" lon="2.97382">
        <ele>951.8425</ele>
        <time>2013-06-02T10:33:50Z</time>
      </trkpt>
      <trkpt lat="43.63657" lon="2.97375">
        <ele>953.7651</ele>
        <time>2013-06-02T10:33:52Z</time>
      </trkpt>
      <trkpt lat="43.6366" lon="2.97362">
        <ele>955.6877</ele>
        <time>2013-06-02T10:33:55Z</time>
      </trkpt>
      <trkpt lat="43.63696" lon="2.97323">
        <ele>954.7263</ele>
        <time>2013-06-02T10:34:11Z</time>
      </trkpt>
      <trkpt lat="43.63725" lon="2.97285">
        <ele>953.7651</ele>
        <time>2013-06-02T10:34:25Z</time>
      </trkpt>
      <trkpt lat="43.6373" lon="2.97278">
        <ele>955.6877</ele>
        <time>2013-06-02T10:34:27Z</time>
      </trkpt>
      <trkpt lat="43.63746" lon="2.97259">
        <ele>955.6877</ele>
        <time>2013-06-02T10:34:34Z</time>
      </trkpt>
      <trkpt lat="43.63754" lon="2.97249">
        <ele>956.6492</ele>
        <time>2013-06-02T10:34:38Z</time>
      </trkpt>
      <trkpt lat="43.63762" lon="2.97234">
        <ele>959.0525</ele>
        <time>2013-06-02T10:34:42Z</time>
      </trkpt>
      <trkpt lat="43.63783" lon="2.97201">
        <ele>961.4558</ele>
        <time>2013-06-02T10:34:53Z</time>
      </trkpt>
      <trkpt lat="43.63796" lon="2.97185">
        <ele>959.5332</ele>
        <time>2013-06-02T10:34:59Z</time>
      </trkpt>
      <trkpt lat="43.63802" lon="2.97178">
        <ele>966.7429</ele>
        <time>2013-06-02T10:35:02Z</time>
      </trkpt>
      <trkpt lat="43.63804" lon="2.97175">
        <ele>966.7429</ele>
        <time>2013-06-02T10:35:03Z</time>
      </trkpt>
      <trkpt lat="43.63811" lon="2.9717">
        <ele>962.417</ele>
        <time>2013-06-02T10:35:06Z</time>
      </trkpt>
      <trkpt lat="43.63813" lon="2.97168">
        <ele>962.417</ele>
        <time>2013-06-02T10:35:07Z</time>
      </trkpt>
      <trkpt lat="43.63825" lon="2.97161">
        <ele>964.8203</ele>
        <time>2013-06-02T10:35:12Z</time>
      </trkpt>
      <trkpt lat="43.63831" lon="2.97158">
        <ele>966.7429</ele>
        <time>2013-06-02T10:35:14Z</time>
      </trkpt>
      <trkpt lat="43.63835" lon="2.97155">
        <ele>965.301</ele>
        <time>2013-06-02T10:35:16Z</time>
      </trkpt>
      <trkpt lat="43.63839" lon="2.97151">
        <ele>962.8977</ele>
        <time>2013-06-02T10:35:18Z</time>
      </trkpt>
      <trkpt lat="43.63841" lon="2.97149">
        <ele>967.2236</ele>
        <time>2013-06-02T10:35:19Z</time>
      </trkpt>
      <trkpt lat="43.63843" lon="2.97147">
        <ele>967.2236</ele>
        <time>2013-06-02T10:35:20Z</time>
      </trkpt>
      <trkpt lat="43.63845" lon="2.97142">
        <ele>964.8203</ele>
        <time>2013-06-02T10:35:22Z</time>
      </trkpt>
      <trkpt lat="43.63853" lon="2.97128">
        <ele>970.1074</ele>
        <time>2013-06-02T10:35:28Z</time>
      </trkpt>
      <trkpt lat="43.63855" lon="2.97125">
        <ele>970.1074</ele>
        <time>2013-06-02T10:35:29Z</time>
      </trkpt>
      <trkpt lat="43.63866" lon="2.97101">
        <ele>969.1462</ele>
        <time>2013-06-02T10:35:37Z</time>
      </trkpt>
      <trkpt lat="43.6387" lon="2.97094">
        <ele>970.5881</ele>
        <time>2013-06-02T10:35:39Z</time>
      </trkpt>
      <trkpt lat="43.63875" lon="2.97083">
        <ele>973.9529</ele>
        <time>2013-06-02T10:35:42Z</time>
      </trkpt>
      <trkpt lat="43.63877" lon="2.9708">
        <ele>973.9529</ele>
        <time>2013-06-02T10:35:43Z</time>
      </trkpt>
      <trkpt lat="43.63883" lon="2.97071">
        <ele>971.5493</ele>
        <time>2013-06-02T10:35:46Z</time>
      </trkpt>
      <trkpt lat="43.63884" lon="2.97068">
        <ele>975.3948</ele>
        <time>2013-06-02T10:35:47Z</time>
      </trkpt>
      <trkpt lat="43.63887" lon="2.97065">
        <ele>975.3948</ele>
        <time>2013-06-02T10:35:48Z</time>
      </trkpt>
      <trkpt lat="43.63894" lon="2.97055">
        <ele>973.9529</ele>
        <time>2013-06-02T10:35:52Z</time>
      </trkpt>
      <trkpt lat="43.639" lon="2.97044">
        <ele>976.8369</ele>
        <time>2013-06-02T10:35:56Z</time>
      </trkpt>
      <trkpt lat="43.63904" lon="2.97039">
        <ele>974.4336</ele>
        <time>2013-06-02T10:35:58Z</time>
      </trkpt>
      <trkpt lat="43.63909" lon="2.97032">
        <ele>979.24</ele>
        <time>2013-06-02T10:36:01Z</time>
      </trkpt>
      <trkpt lat="43.63911" lon="2.9703">
        <ele>979.24</ele>
        <time>2013-06-02T10:36:02Z</time>
      </trkpt>
      <trkpt lat="43.63915" lon="2.97025">
        <ele>975.8755</ele>
        <time>2013-06-02T10:36:04Z</time>
      </trkpt>
      <trkpt lat="43.63919" lon="2.9702">
        <ele>980.2014</ele>
        <time>2013-06-02T10:36:06Z</time>
      </trkpt>
      <trkpt lat="43.63921" lon="2.97018">
        <ele>980.2014</ele>
        <time>2013-06-02T10:36:07Z</time>
      </trkpt>
      <trkpt lat="43.63951" lon="2.96987">
        <ele>982.6047</ele>
        <time>2013-06-02T10:36:23Z</time>
      </trkpt>
      <trkpt lat="43.63972" lon="2.9697">
        <ele>985.0081</ele>
        <time>2013-06-02T10:36:36Z</time>
      </trkpt>
      <trkpt lat="43.63977" lon="2.96965">
        <ele>987.4111</ele>
        <time>2013-06-02T10:36:40Z</time>
      </trkpt>
      <trkpt lat="43.6398" lon="2.96964">
        <ele>989.334</ele>
        <time>2013-06-02T10:36:44Z</time>
      </trkpt>
      <trkpt lat="43.6398" lon="2.96965">
        <ele>988.3728</ele>
        <time>2013-06-02T10:36:51Z</time>
      </trkpt>
      <trkpt lat="43.6398" lon="2.96965">
        <ele>986.9304</ele>
        <time>2013-06-02T10:36:53Z</time>
      </trkpt>
      <trkpt lat="43.63979" lon="2.96965">
        <ele>987.4111</ele>
        <time>2013-06-02T10:37:47Z</time>
      </trkpt>
      <trkpt lat="43.63979" lon="2.96965">
        <ele>988.3728</ele>
        <time>2013-06-02T10:37:52Z</time>
      </trkpt>
      <trkpt lat="43.63979" lon="2.96965">
        <ele>990.2954</ele>
        <time>2013-06-02T10:37:54Z</time>
      </trkpt>
      <trkpt lat="43.63979" lon="2.96965">
        <ele>987.8918</ele>
        <time>2013-06-02T10:37:56Z</time>
      </trkpt>
      <trkpt lat="43.63979" lon="2.96965">
        <ele>989.8147</ele>
        <time>2013-06-02T10:37:58Z</time>
      </trkpt>
      <trkpt lat="43.63979" lon="2.96965">
        <ele>987.8918</ele>
        <time>2013-06-02T10:38:01Z</time>
      </trkpt>
      <trkpt lat="43.63979" lon="2.96965">
        <ele>990.2954</ele>
        <time>2013-06-02T10:38:07Z</time>
      </trkpt>
      <trkpt lat="43.63979" lon="2.96965">
        <ele>989.334</ele>
        <time>2013-06-02T10:38:11Z</time>
      </trkpt>
      <trkpt lat="43.63979" lon="2.96965">
        <ele>990.7759</ele>
        <time>2013-06-02T10:38:15Z</time>
      </trkpt>
      <trkpt lat="43.63979" lon="2.96964">
        <ele>987.4111</ele>
        <time>2013-06-02T10:38:27Z</time>
      </trkpt>
      <trkpt lat="43.63979" lon="2.96964">
        <ele>987.4111</ele>
        <time>2013-06-02T10:38:28Z</time>
      </trkpt>
      <trkpt lat="43.63979" lon="2.96964">
        <ele>988.8535</ele>
        <time>2013-06-02T10:38:30Z</time>
      </trkpt>
      <trkpt lat="43.63979" lon="2.96964">
        <ele>986.45</ele>
        <time>2013-06-02T10:38:43Z</time>
      </trkpt>
      <trkpt lat="43.63979" lon="2.96964">
        <ele>989.334</ele>
        <time>2013-06-02T10:38:45Z</time>
      </trkpt>
      <trkpt lat="43.63979" lon="2.96964">
        <ele>986.45</ele>
        <time>2013-06-02T10:38:47Z</time>
      </trkpt>
      <trkpt lat="43.63979" lon="2.96964">
        <ele>985.4885</ele>
        <time>2013-06-02T10:39:17Z</time>
      </trkpt>
      <trkpt lat="43.63979" lon="2.96964">
        <ele>989.334</ele>
        <time>2013-06-02T10:39:20Z</time>
      </trkpt>
      <trkpt lat="43.63979" lon="2.96964">
        <ele>989.334</ele>
        <time>2013-06-02T10:39:21Z</time>
      </trkpt>
      <trkpt lat="43.63979" lon="2.96964">
        <ele>986.9304</ele>
        <time>2013-06-02T10:39:23Z</time>
      </trkpt>
      <trkpt lat="43.63979" lon="2.96964">
        <ele>987.8918</ele>
        <time>2013-06-02T10:39:44Z</time>
      </trkpt>
      <trkpt lat="43.63979" lon="2.96964">
        <ele>986.45</ele>
        <time>2013-06-02T10:40:18Z</time>
      </trkpt>
      <trkpt lat="43.63979" lon="2.96964">
        <ele>986.9304</ele>
        <time>2013-06-02T10:40:24Z</time>
      </trkpt>
      <trkpt lat="43.63979" lon="2.96964">
        <ele>991.7373</ele>
        <time>2013-06-02T10:40:31Z</time>
      </trkpt>
      <trkpt lat="43.63979" lon="2.96964">
        <ele>990.7759</ele>
        <time>2013-06-02T10:40:32Z</time>
      </trkpt>
      <trkpt lat="43.63979" lon="2.96964">
        <ele>987.8918</ele>
        <time>2013-06-02T10:40:37Z</time>
      </trkpt>
      <trkpt lat="43.63979" lon="2.96964">
        <ele>990.2954</ele>
        <time>2013-06-02T10:40:39Z</time>
      </trkpt>
      <trkpt lat="43.63979" lon="2.96964">
        <ele>993.1792</ele>
        <time>2013-06-02T10:40:41Z</time>
      </trkpt>
      <trkpt lat="43.63979" lon="2.96964">
        <ele>989.8147</ele>
        <time>2013-06-02T10:40:44Z</time>
      </trkpt>
      <trkpt lat="43.63979" lon="2.96964">
        <ele>989.8147</ele>
        <time>2013-06-02T10:40:45Z</time>
      </trkpt>
      <trkpt lat="43.63979" lon="2.96964">
        <ele>988.3728</ele>
        <time>2013-06-02T10:40:47Z</time>
      </trkpt>
      <trkpt lat="43.63979" lon="2.96964">
        <ele>987.8918</ele>
        <time>2013-06-02T10:40:56Z</time>
      </trkpt>
      <trkpt lat="43.63979" lon="2.96964">
        <ele>988.8535</ele>
        <time>2013-06-02T10:41:06Z</time>
      </trkpt>
      <trkpt lat="43.63979" lon="2.96964">
        <ele>990.2954</ele>
        <time>2013-06-02T10:41:11Z</time>
      </trkpt>
      <trkpt lat="43.63979" lon="2.96964">
        <ele>988.3728</ele>
        <time>2013-06-02T10:41:13Z</time>
      </trkpt>
      <trkpt lat="43.63979" lon="2.96964">
        <ele>989.8147</ele>
        <time>2013-06-02T10:41:19Z</time>
      </trkpt>
      <trkpt lat="43.63979" lon="2.96964">
        <ele>987.8918</ele>
        <time>2013-06-02T10:41:21Z</time>
      </trkpt>
      <trkpt lat="43.63979" lon="2.96964">
        <ele>987.8918</ele>
        <time>2013-06-02T10:41:27Z</time>
      </trkpt>
      <trkpt lat="43.63979" lon="2.96964">
        <ele>991.2566</ele>
        <time>2013-06-02T10:41:33Z</time>
      </trkpt>
      <trkpt lat="43.63979" lon="2.96964">
        <ele>991.2566</ele>
        <time>2013-06-02T10:41:34Z</time>
      </trkpt>
      <trkpt lat="43.63979" lon="2.96964">
        <ele>987.8918</ele>
        <time>2013-06-02T10:41:35Z</time>
      </trkpt>
      <trkpt lat="43.63979" lon="2.96964">
        <ele>987.8918</ele>
        <time>2013-06-02T10:41:36Z</time>
      </trkpt>
      <trkpt lat="43.63979" lon="2.96964">
        <ele>988.3728</ele>
        <time>2013-06-02T10:41:49Z</time>
      </trkpt>
      <trkpt lat="43.63979" lon="2.96964">
        <ele>991.7373</ele>
        <time>2013-06-02T10:41:52Z</time>
      </trkpt>
      <trkpt lat="43.63979" lon="2.96964">
        <ele>991.7373</ele>
        <time>2013-06-02T10:41:53Z</time>
      </trkpt>
      <trkpt lat="43.63979" lon="2.96964">
        <ele>989.334</ele>
        <time>2013-06-02T10:41:57Z</time>
      </trkpt>
      <trkpt lat="43.6398" lon="2.96964">
        <ele>990.2954</ele>
        <time>2013-06-02T10:42:01Z</time>
      </trkpt>
      <trkpt lat="43.63984" lon="2.96967">
        <ele>989.8147</ele>
        <time>2013-06-02T10:42:11Z</time>
      </trkpt>
      <trkpt lat="43.63986" lon="2.96971">
        <ele>991.2566</ele>
        <time>2013-06-02T10:42:14Z</time>
      </trkpt>
      <trkpt lat="43.63987" lon="2.96973">
        <ele>989.8147</ele>
        <time>2013-06-02T10:42:15Z</time>
      </trkpt>
      <trkpt lat="43.63987" lon="2.9698">
        <ele>987.4111</ele>
        <time>2013-06-02T10:42:18Z</time>
      </trkpt>
      <trkpt lat="43.63988" lon="2.96984">
        <ele>985.9692</ele>
        <time>2013-06-02T10:42:20Z</time>
      </trkpt>
      <trkpt lat="43.63989" lon="2.96986">
        <ele>985.4885</ele>
        <time>2013-06-02T10:42:21Z</time>
      </trkpt>
      <trkpt lat="43.63991" lon="2.96995">
        <ele>983.0852</ele>
        <time>2013-06-02T10:42:24Z</time>
      </trkpt>
      <trkpt lat="43.63991" lon="2.96999">
        <ele>980.2014</ele>
        <time>2013-06-02T10:42:27Z</time>
      </trkpt>
      <trkpt lat="43.63989" lon="2.97">
        <ele>977.7981</ele>
        <time>2013-06-02T10:42:30Z</time>
      </trkpt>
      <trkpt lat="43.63972" lon="2.97006">
        <ele>975.3948</ele>
        <time>2013-06-02T10:42:41Z</time>
      </trkpt>
      <trkpt lat="43.63961" lon="2.97022">
        <ele>972.9917</ele>
        <time>2013-06-02T10:42:54Z</time>
      </trkpt>
      <trkpt lat="43.63959" lon="2.97025">
        <ele>972.511</ele>
        <time>2013-06-02T10:42:55Z</time>
      </trkpt>
      <trkpt lat="43.63958" lon="2.97029">
        <ele>971.0688</ele>
        <time>2013-06-02T10:42:58Z</time>
      </trkpt>
      <trkpt lat="43.63956" lon="2.9703">
        <ele>971.0688</ele>
        <time>2013-06-02T10:43:07Z</time>
      </trkpt>
      <trkpt lat="43.63955" lon="2.97035">
        <ele>969.627</ele>
        <time>2013-06-02T10:43:11Z</time>
      </trkpt>
      <trkpt lat="43.63949" lon="2.97046">
        <ele>968.1848</ele>
        <time>2013-06-02T10:43:16Z</time>
      </trkpt>
      <trkpt lat="43.63938" lon="2.97069">
        <ele>965.301</ele>
        <time>2013-06-02T10:43:25Z</time>
      </trkpt>
      <trkpt lat="43.63929" lon="2.97082">
        <ele>964.3396</ele>
        <time>2013-06-02T10:43:30Z</time>
      </trkpt>
      <trkpt lat="43.6392" lon="2.97094">
        <ele>962.417</ele>
        <time>2013-06-02T10:43:49Z</time>
      </trkpt>
      <trkpt lat="43.6392" lon="2.97095">
        <ele>963.8589</ele>
        <time>2013-06-02T10:43:53Z</time>
      </trkpt>
      <trkpt lat="43.6392" lon="2.97097">
        <ele>960.9751</ele>
        <time>2013-06-02T10:43:57Z</time>
      </trkpt>
      <trkpt lat="43.6392" lon="2.97097">
        <ele>960.9751</ele>
        <time>2013-06-02T10:43:58Z</time>
      </trkpt>
      <trkpt lat="43.6392" lon="2.97097">
        <ele>959.5332</ele>
        <time>2013-06-02T10:43:59Z</time>
      </trkpt>
      <trkpt lat="43.63924" lon="2.97098">
        <ele>959.0525</ele>
        <time>2013-06-02T10:44:03Z</time>
      </trkpt>
      <trkpt lat="43.63925" lon="2.97099">
        <ele>957.1299</ele>
        <time>2013-06-02T10:44:05Z</time>
      </trkpt>
      <trkpt lat="43.63929" lon="2.97107">
        <ele>956.1685</ele>
        <time>2013-06-02T10:44:14Z</time>
      </trkpt>
      <trkpt lat="43.63931" lon="2.97111">
        <ele>954.7263</ele>
        <time>2013-06-02T10:44:26Z</time>
      </trkpt>
      <trkpt lat="43.6393" lon="2.97119">
        <ele>953.7651</ele>
        <time>2013-06-02T10:44:42Z</time>
      </trkpt>
      <trkpt lat="43.63929" lon="2.97127">
        <ele>951.3618</ele>
        <time>2013-06-02T10:44:45Z</time>
      </trkpt>
      <trkpt lat="43.63929" lon="2.97135">
        <ele>947.0359</ele>
        <time>2013-06-02T10:44:48Z</time>
      </trkpt>
      <trkpt lat="43.6393" lon="2.97138">
        <ele>947.0359</ele>
        <time>2013-06-02T10:44:49Z</time>
      </trkpt>
      <trkpt lat="43.63931" lon="2.97142">
        <ele>945.1133</ele>
        <time>2013-06-02T10:44:51Z</time>
      </trkpt>
      <trkpt lat="43.63932" lon="2.97144">
        <ele>943.1907</ele>
        <time>2013-06-02T10:44:53Z</time>
      </trkpt>
      <trkpt lat="43.63932" lon="2.97148">
        <ele>941.2681</ele>
        <time>2013-06-02T10:44:58Z</time>
      </trkpt>
      <trkpt lat="43.63938" lon="2.97152">
        <ele>939.8259</ele>
        <time>2013-06-02T10:45:02Z</time>
      </trkpt>
      <trkpt lat="43.63938" lon="2.97155">
        <ele>937.9033</ele>
        <time>2013-06-02T10:45:04Z</time>
      </trkpt>
      <trkpt lat="43.63936" lon="2.97159">
        <ele>935.0195</ele>
        <time>2013-06-02T10:45:06Z</time>
      </trkpt>
      <trkpt lat="43.63935" lon="2.9716">
        <ele>935.0195</ele>
        <time>2013-06-02T10:45:07Z</time>
      </trkpt>
      <trkpt lat="43.63936" lon="2.97167">
        <ele>934.0581</ele>
        <time>2013-06-02T10:45:16Z</time>
      </trkpt>
      <trkpt lat="43.63937" lon="2.97169">
        <ele>933.5774</ele>
        <time>2013-06-02T10:45:18Z</time>
      </trkpt>
      <trkpt lat="43.63941" lon="2.97168">
        <ele>932.1355</ele>
        <time>2013-06-02T10:45:21Z</time>
      </trkpt>
      <trkpt lat="43.63951" lon="2.97171">
        <ele>928.771</ele>
        <time>2013-06-02T10:45:27Z</time>
      </trkpt>
      <trkpt lat="43.63952" lon="2.97179">
        <ele>926.8484</ele>
        <time>2013-06-02T10:45:30Z</time>
      </trkpt>
      <trkpt lat="43.6395" lon="2.97184">
        <ele>923.4836</ele>
        <time>2013-06-02T10:45:32Z</time>
      </trkpt>
      <trkpt lat="43.63951" lon="2.97191">
        <ele>921.0803</ele>
        <time>2013-06-02T10:45:34Z</time>
      </trkpt>
      <trkpt lat="43.63953" lon="2.97197">
        <ele>918.677</ele>
        <time>2013-06-02T10:45:36Z</time>
      </trkpt>
      <trkpt lat="43.63954" lon="2.97199">
        <ele>915.3125</ele>
        <time>2013-06-02T10:45:37Z</time>
      </trkpt>
      <trkpt lat="43.63953" lon="2.97205">
        <ele>915.3125</ele>
        <time>2013-06-02T10:45:38Z</time>
      </trkpt>
      <trkpt lat="43.63956" lon="2.97212">
        <ele>913.8704</ele>
        <time>2013-06-02T10:45:40Z</time>
      </trkpt>
      <trkpt lat="43.6396" lon="2.9722">
        <ele>910.9866</ele>
        <time>2013-06-02T10:45:43Z</time>
      </trkpt>
      <trkpt lat="43.63962" lon="2.97223">
        <ele>909.064</ele>
        <time>2013-06-02T10:45:45Z</time>
      </trkpt>
      <trkpt lat="43.63969" lon="2.97236">
        <ele>907.6218</ele>
        <time>2013-06-02T10:46:07Z</time>
      </trkpt>
      <trkpt lat="43.63968" lon="2.97245">
        <ele>905.6992</ele>
        <time>2013-06-02T10:46:13Z</time>
      </trkpt>
      <trkpt lat="43.63968" lon="2.97255">
        <ele>903.7766</ele>
        <time>2013-06-02T10:46:16Z</time>
      </trkpt>
      <trkpt lat="43.63967" lon="2.97272">
        <ele>900.4121</ele>
        <time>2013-06-02T10:46:22Z</time>
      </trkpt>
      <trkpt lat="43.63968" lon="2.97273">
        <ele>900.4121</ele>
        <time>2013-06-02T10:46:23Z</time>
      </trkpt>
      <trkpt lat="43.63968" lon="2.97278">
        <ele>897.5281</ele>
        <time>2013-06-02T10:46:29Z</time>
      </trkpt>
      <trkpt lat="43.63967" lon="2.97283">
        <ele>896.0862</ele>
        <time>2013-06-02T10:46:31Z</time>
      </trkpt>
      <trkpt lat="43.63967" lon="2.97285">
        <ele>894.644</ele>
        <time>2013-06-02T10:46:33Z</time>
      </trkpt>
      <trkpt lat="43.63965" lon="2.97299">
        <ele>892.7217</ele>
        <time>2013-06-02T10:46:50Z</time>
      </trkpt>
      <trkpt lat="43.63966" lon="2.97305">
        <ele>891.76</ele>
        <time>2013-06-02T10:47:05Z</time>
      </trkpt>
      <trkpt lat="43.63963" lon="2.97313">
        <ele>894.1636</ele>
        <time>2013-06-02T10:47:31Z</time>
      </trkpt>
      <trkpt lat="43.63963" lon="2.97325">
        <ele>892.7217</ele>
        <time>2013-06-02T10:47:51Z</time>
      </trkpt>
      <trkpt lat="43.63961" lon="2.97326">
        <ele>892.241</ele>
        <time>2013-06-02T10:49:00Z</time>
      </trkpt>
      <trkpt lat="43.6396" lon="2.97334">
        <ele>890.3181</ele>
        <time>2013-06-02T10:49:04Z</time>
      </trkpt>
      <trkpt lat="43.63961" lon="2.97356">
        <ele>887.9148</ele>
        <time>2013-06-02T10:49:09Z</time>
      </trkpt>
      <trkpt lat="43.63965" lon="2.97374">
        <ele>885.031</ele>
        <time>2013-06-02T10:49:14Z</time>
      </trkpt>
      <trkpt lat="43.63964" lon="2.97379">
        <ele>882.147</ele>
        <time>2013-06-02T10:49:21Z</time>
      </trkpt>
      <trkpt lat="43.63953" lon="2.97366">
        <ele>877.3406</ele>
        <time>2013-06-02T10:49:29Z</time>
      </trkpt>
      <trkpt lat="43.63952" lon="2.97367">
        <ele>877.3406</ele>
        <time>2013-06-02T10:49:30Z</time>
      </trkpt>
      <trkpt lat="43.6395" lon="2.9737">
        <ele>877.821</ele>
        <time>2013-06-02T10:49:32Z</time>
      </trkpt>
      <trkpt lat="43.63946" lon="2.97376">
        <ele>876.3792</ele>
        <time>2013-06-02T10:49:35Z</time>
      </trkpt>
      <trkpt lat="43.63945" lon="2.97378">
        <ele>874.937</ele>
        <time>2013-06-02T10:49:36Z</time>
      </trkpt>
      <trkpt lat="43.63944" lon="2.97385">
        <ele>874.4563</ele>
        <time>2013-06-02T10:49:40Z</time>
      </trkpt>
      <trkpt lat="43.6394" lon="2.97393">
        <ele>872.5337</ele>
        <time>2013-06-02T10:49:43Z</time>
      </trkpt>
      <trkpt lat="43.63939" lon="2.97404">
        <ele>870.1304</ele>
        <time>2013-06-02T10:49:47Z</time>
      </trkpt>
      <trkpt lat="43.63944" lon="2.97411">
        <ele>868.2078</ele>
        <time>2013-06-02T10:50:07Z</time>
      </trkpt>
      <trkpt lat="43.63945" lon="2.97411">
        <ele>867.7271</ele>
        <time>2013-06-02T10:50:10Z</time>
      </trkpt>
      <trkpt lat="43.63939" lon="2.97408">
        <ele>865.8047</ele>
        <time>2013-06-02T10:50:18Z</time>
      </trkpt>
      <trkpt lat="43.63933" lon="2.97407">
        <ele>864.8433</ele>
        <time>2013-06-02T10:50:25Z</time>
      </trkpt>
      <trkpt lat="43.6393" lon="2.97416">
        <ele>860.998</ele>
        <time>2013-06-02T10:50:31Z</time>
      </trkpt>
      <trkpt lat="43.63929" lon="2.97418">
        <ele>860.998</ele>
        <time>2013-06-02T10:50:32Z</time>
      </trkpt>
      <trkpt lat="43.63926" lon="2.97421">
        <ele>860.5173</ele>
        <time>2013-06-02T10:50:34Z</time>
      </trkpt>
      <trkpt lat="43.63925" lon="2.97431">
        <ele>857.6333</ele>
        <time>2013-06-02T10:50:40Z</time>
      </trkpt>
      <trkpt lat="43.63926" lon="2.97434">
        <ele>857.1526</ele>
        <time>2013-06-02T10:50:46Z</time>
      </trkpt>
      <trkpt lat="43.63926" lon="2.9744">
        <ele>856.6719</ele>
        <time>2013-06-02T10:50:49Z</time>
      </trkpt>
      <trkpt lat="43.63926" lon="2.97463">
        <ele>853.3074</ele>
        <time>2013-06-02T10:50:57Z</time>
      </trkpt>
      <trkpt lat="43.63928" lon="2.97472">
        <ele>851.3848</ele>
        <time>2013-06-02T10:51:00Z</time>
      </trkpt>
      <trkpt lat="43.63928" lon="2.97477">
        <ele>850.4236</ele>
        <time>2013-06-02T10:51:03Z</time>
      </trkpt>
      <trkpt lat="43.63926" lon="2.97492">
        <ele>848.5007</ele>
        <time>2013-06-02T10:51:08Z</time>
      </trkpt>
      <trkpt lat="43.63926" lon="2.97498">
        <ele>847.5396</ele>
        <time>2013-06-02T10:51:10Z</time>
      </trkpt>
      <trkpt lat="43.6393" lon="2.97507">
        <ele>846.5784</ele>
        <time>2013-06-02T10:51:12Z</time>
      </trkpt>
      <trkpt lat="43.6393" lon="2.97511">
        <ele>844.6555</ele>
        <time>2013-06-02T10:51:14Z</time>
      </trkpt>
      <trkpt lat="43.6393" lon="2.97517">
        <ele>842.7329</ele>
        <time>2013-06-02T10:51:16Z</time>
      </trkpt>
      <trkpt lat="43.63931" lon="2.9752">
        <ele>841.2908</ele>
        <time>2013-06-02T10:51:17Z</time>
      </trkpt>
      <trkpt lat="43.6393" lon="2.97536">
        <ele>838.407</ele>
        <time>2013-06-02T10:51:22Z</time>
      </trkpt>
      <trkpt lat="43.63928" lon="2.9755">
        <ele>836.0037</ele>
        <time>2013-06-02T10:51:26Z</time>
      </trkpt>
      <trkpt lat="43.6393" lon="2.97565">
        <ele>834.5618</ele>
        <time>2013-06-02T10:51:29Z</time>
      </trkpt>
      <trkpt lat="43.63931" lon="2.97576">
        <ele>832.6392</ele>
        <time>2013-06-02T10:51:31Z</time>
      </trkpt>
      <trkpt lat="43.63933" lon="2.97581">
        <ele>830.2358</ele>
        <time>2013-06-02T10:51:33Z</time>
      </trkpt>
      <trkpt lat="43.6393" lon="2.9759">
        <ele>827.8323</ele>
        <time>2013-06-02T10:51:37Z</time>
      </trkpt>
      <trkpt lat="43.63934" lon="2.97602">
        <ele>825.9097</ele>
        <time>2013-06-02T10:51:41Z</time>
      </trkpt>
      <trkpt lat="43.63933" lon="2.9761">
        <ele>823.9871</ele>
        <time>2013-06-02T10:51:43Z</time>
      </trkpt>
      <trkpt lat="43.63933" lon="2.97619">
        <ele>821.5837</ele>
        <time>2013-06-02T10:51:45Z</time>
      </trkpt>
      <trkpt lat="43.63932" lon="2.97627">
        <ele>817.2581</ele>
        <time>2013-06-02T10:51:47Z</time>
      </trkpt>
      <trkpt lat="43.63936" lon="2.97636">
        <ele>817.2581</ele>
        <time>2013-06-02T10:51:48Z</time>
      </trkpt>
      <trkpt lat="43.63936" lon="2.97647">
        <ele>814.8547</ele>
        <time>2013-06-02T10:51:50Z</time>
      </trkpt>
      <trkpt lat="43.63937" lon="2.97666">
        <ele>813.4128</ele>
        <time>2013-06-02T10:51:54Z</time>
      </trkpt>
      <trkpt lat="43.63936" lon="2.97672">
        <ele>811.9707</ele>
        <time>2013-06-02T10:51:56Z</time>
      </trkpt>
      <trkpt lat="43.6393" lon="2.97687">
        <ele>810.5286</ele>
        <time>2013-06-02T10:52:00Z</time>
      </trkpt>
      <trkpt lat="43.63928" lon="2.97703">
        <ele>805.7222</ele>
        <time>2013-06-02T10:52:06Z</time>
      </trkpt>
      <trkpt lat="43.63927" lon="2.97706">
        <ele>805.7222</ele>
        <time>2013-06-02T10:52:07Z</time>
      </trkpt>
      <trkpt lat="43.63924" lon="2.97715">
        <ele>804.2803</ele>
        <time>2013-06-02T10:52:09Z</time>
      </trkpt>
      <trkpt lat="43.63921" lon="2.97725">
        <ele>800.9155</ele>
        <time>2013-06-02T10:52:12Z</time>
      </trkpt>
      <trkpt lat="43.63921" lon="2.97727">
        <ele>800.9155</ele>
        <time>2013-06-02T10:52:13Z</time>
      </trkpt>
      <trkpt lat="43.63921" lon="2.97736">
        <ele>798.5122</ele>
        <time>2013-06-02T10:52:15Z</time>
      </trkpt>
      <trkpt lat="43.63919" lon="2.97741">
        <ele>796.5898</ele>
        <time>2013-06-02T10:52:17Z</time>
      </trkpt>
      <trkpt lat="43.63917" lon="2.97749">
        <ele>795.1475</ele>
        <time>2013-06-02T10:52:19Z</time>
      </trkpt>
      <trkpt lat="43.63909" lon="2.97766">
        <ele>789.3796</ele>
        <time>2013-06-02T10:52:25Z</time>
      </trkpt>
      <trkpt lat="43.63907" lon="2.97769">
        <ele>789.3796</ele>
        <time>2013-06-02T10:52:26Z</time>
      </trkpt>
      <trkpt lat="43.63905" lon="2.9779">
        <ele>786.4958</ele>
        <time>2013-06-02T10:52:30Z</time>
      </trkpt>
      <trkpt lat="43.63907" lon="2.97796">
        <ele>785.054</ele>
        <time>2013-06-02T10:52:32Z</time>
      </trkpt>
      <trkpt lat="43.63903" lon="2.97807">
        <ele>782.6506</ele>
        <time>2013-06-02T10:52:36Z</time>
      </trkpt>
      <trkpt lat="43.63911" lon="2.97827">
        <ele>778.8052</ele>
        <time>2013-06-02T10:52:48Z</time>
      </trkpt>
      <trkpt lat="43.63911" lon="2.97829">
        <ele>778.8052</ele>
        <time>2013-06-02T10:52:49Z</time>
      </trkpt>
      <trkpt lat="43.63914" lon="2.97832">
        <ele>777.8438</ele>
        <time>2013-06-02T10:53:10Z</time>
      </trkpt>
      <trkpt lat="43.63909" lon="2.97848">
        <ele>775.4404</ele>
        <time>2013-06-02T10:53:30Z</time>
      </trkpt>
      <trkpt lat="43.63902" lon="2.97868">
        <ele>775.4404</ele>
        <time>2013-06-02T10:53:53Z</time>
      </trkpt>
      <trkpt lat="43.63899" lon="2.97876">
        <ele>772.0759</ele>
        <time>2013-06-02T10:54:25Z</time>
      </trkpt>
      <trkpt lat="43.63899" lon="2.97876">
        <ele>775.4404</ele>
        <time>2013-06-02T10:55:51Z</time>
      </trkpt>
      <trkpt lat="43.63894" lon="2.97885">
        <ele>773.9985</ele>
        <time>2013-06-02T10:58:44Z</time>
      </trkpt>
      <trkpt lat="43.63894" lon="2.97888">
        <ele>774.4792</ele>
        <time>2013-06-02T10:58:46Z</time>
      </trkpt>
      <trkpt lat="43.63896" lon="2.97896">
        <ele>773.5181</ele>
        <time>2013-06-02T10:58:50Z</time>
      </trkpt>
      <trkpt lat="43.63898" lon="2.97908">
        <ele>772.0759</ele>
        <time>2013-06-02T10:58:54Z</time>
      </trkpt>
      <trkpt lat="43.63896" lon="2.97912">
        <ele>770.1533</ele>
        <time>2013-06-02T10:58:55Z</time>
      </trkpt>
      <trkpt lat="43.63892" lon="2.97925">
        <ele>768.7114</ele>
        <time>2013-06-02T10:58:58Z</time>
      </trkpt>
      <trkpt lat="43.63888" lon="2.97943">
        <ele>766.7888</ele>
        <time>2013-06-02T10:59:02Z</time>
      </trkpt>
      <trkpt lat="43.63889" lon="2.9795">
        <ele>764.8662</ele>
        <time>2013-06-02T10:59:04Z</time>
      </trkpt>
      <trkpt lat="43.63889" lon="2.97973">
        <ele>761.0208</ele>
        <time>2013-06-02T10:59:10Z</time>
      </trkpt>
      <trkpt lat="43.63884" lon="2.97996">
        <ele>758.137</ele>
        <time>2013-06-02T10:59:15Z</time>
      </trkpt>
      <trkpt lat="43.63892" lon="2.98029">
        <ele>757.1755</ele>
        <time>2013-06-02T10:59:22Z</time>
      </trkpt>
      <trkpt lat="43.63894" lon="2.98045">
        <ele>753.811</ele>
        <time>2013-06-02T10:59:38Z</time>
      </trkpt>
      <trkpt lat="43.63893" lon="2.98051">
        <ele>753.3303</ele>
        <time>2013-06-02T10:59:43Z</time>
      </trkpt>
      <trkpt lat="43.63892" lon="2.98055">
        <ele>752.3689</ele>
        <time>2013-06-02T10:59:45Z</time>
      </trkpt>
      <trkpt lat="43.63889" lon="2.9807">
        <ele>750.4465</ele>
        <time>2013-06-02T10:59:50Z</time>
      </trkpt>
      <trkpt lat="43.63887" lon="2.98074">
        <ele>750.927</ele>
        <time>2013-06-02T11:00:17Z</time>
      </trkpt>
      <trkpt lat="43.63886" lon="2.98093">
        <ele>749.9658</ele>
        <time>2013-06-02T11:00:46Z</time>
      </trkpt>
      <trkpt lat="43.63885" lon="2.981">
        <ele>749.0044</ele>
        <time>2013-06-02T11:00:48Z</time>
      </trkpt>
      <trkpt lat="43.63889" lon="2.9811">
        <ele>747.0815</ele>
        <time>2013-06-02T11:00:50Z</time>
      </trkpt>
      <trkpt lat="43.63889" lon="2.98123">
        <ele>746.1204</ele>
        <time>2013-06-02T11:00:53Z</time>
      </trkpt>
      <trkpt lat="43.63888" lon="2.98135">
        <ele>745.6396</ele>
        <time>2013-06-02T11:00:57Z</time>
      </trkpt>
      <trkpt lat="43.63889" lon="2.98147">
        <ele>742.7559</ele>
        <time>2013-06-02T11:01:00Z</time>
      </trkpt>
      <trkpt lat="43.63889" lon="2.98152">
        <ele>742.7559</ele>
        <time>2013-06-02T11:01:01Z</time>
      </trkpt>
      <trkpt lat="43.63892" lon="2.98166">
        <ele>740.833</ele>
        <time>2013-06-02T11:01:03Z</time>
      </trkpt>
      <trkpt lat="43.63884" lon="2.98184">
        <ele>738.9106</ele>
        <time>2013-06-02T11:01:07Z</time>
      </trkpt>
      <trkpt lat="43.6387" lon="2.98229">
        <ele>734.5847</ele>
        <time>2013-06-02T11:01:16Z</time>
      </trkpt>
      <trkpt lat="43.63857" lon="2.98251">
        <ele>733.1426</ele>
        <time>2013-06-02T11:01:20Z</time>
      </trkpt>
      <trkpt lat="43.6385" lon="2.98282">
        <ele>732.1814</ele>
        <time>2013-06-02T11:01:30Z</time>
      </trkpt>
      <trkpt lat="43.63848" lon="2.98285">
        <ele>732.1814</ele>
        <time>2013-06-02T11:01:32Z</time>
      </trkpt>
      <trkpt lat="43.63851" lon="2.98299">
        <ele>730.7393</ele>
        <time>2013-06-02T11:01:36Z</time>
      </trkpt>
      <trkpt lat="43.63851" lon="2.98326">
        <ele>727.8552</ele>
        <time>2013-06-02T11:01:45Z</time>
      </trkpt>
      <trkpt lat="43.6386" lon="2.98388">
        <ele>724.4907</ele>
        <time>2013-06-02T11:01:55Z</time>
      </trkpt>
      <trkpt lat="43.63871" lon="2.98406">
        <ele>723.0488</ele>
        <time>2013-06-02T11:01:59Z</time>
      </trkpt>
      <trkpt lat="43.63866" lon="2.98437">
        <ele>720.1648</ele>
        <time>2013-06-02T11:02:05Z</time>
      </trkpt>
      <trkpt lat="43.63864" lon="2.98456">
        <ele>715.3582</ele>
        <time>2013-06-02T11:02:08Z</time>
      </trkpt>
      <trkpt lat="43.63861" lon="2.98467">
        <ele>712.4741</ele>
        <time>2013-06-02T11:02:12Z</time>
      </trkpt>
      <trkpt lat="43.63859" lon="2.98471">
        <ele>711.0322</ele>
        <time>2013-06-02T11:02:32Z</time>
      </trkpt>
      <trkpt lat="43.63857" lon="2.98483">
        <ele>709.1096</ele>
        <time>2013-06-02T11:02:36Z</time>
      </trkpt>
      <trkpt lat="43.63854" lon="2.98488">
        <ele>707.187</ele>
        <time>2013-06-02T11:02:38Z</time>
      </trkpt>
      <trkpt lat="43.63853" lon="2.98494">
        <ele>706.2256</ele>
        <time>2013-06-02T11:02:42Z</time>
      </trkpt>
      <trkpt lat="43.63848" lon="2.98499">
        <ele>704.7837</ele>
        <time>2013-06-02T11:02:46Z</time>
      </trkpt>
      <trkpt lat="43.63838" lon="2.98501">
        <ele>704.3032</ele>
        <time>2013-06-02T11:02:55Z</time>
      </trkpt>
      <trkpt lat="43.63838" lon="2.98504">
        <ele>703.8225</ele>
        <time>2013-06-02T11:02:58Z</time>
      </trkpt>
      <trkpt lat="43.63843" lon="2.98519">
        <ele>700.9385</ele>
        <time>2013-06-02T11:03:07Z</time>
      </trkpt>
      <trkpt lat="43.63847" lon="2.98521">
        <ele>700.9385</ele>
        <time>2013-06-02T11:03:25Z</time>
      </trkpt>
      <trkpt lat="43.63847" lon="2.98518">
        <ele>698.0544</ele>
        <time>2013-06-02T11:11:33Z</time>
      </trkpt>
      <trkpt lat="43.63845" lon="2.98519">
        <ele>700.9385</ele>
        <time>2013-06-02T11:17:25Z</time>
      </trkpt>
      <trkpt lat="43.63844" lon="2.9852">
        <ele>698.0544</ele>
        <time>2013-06-02T11:28:32Z</time>
      </trkpt>
      <trkpt lat="43.63845" lon="2.9852">
        <ele>700.9385</ele>
        <time>2013-06-02T11:31:40Z</time>
      </trkpt>
      <trkpt lat="43.63846" lon="2.98521">
        <ele>700.458</ele>
        <time>2013-06-02T11:37:35Z</time>
      </trkpt>
      <trkpt lat="43.63845" lon="2.98517">
        <ele>699.0156</ele>
        <time>2013-06-02T11:38:11Z</time>
      </trkpt>
      <trkpt lat="43.63843" lon="2.98516">
        <ele>700.9385</ele>
        <time>2013-06-02T11:40:08Z</time>
      </trkpt>
      <trkpt lat="43.63838" lon="2.9852">
        <ele>700.458</ele>
        <time>2013-06-02T11:40:34Z</time>
      </trkpt>
      <trkpt lat="43.6383" lon="2.98519">
        <ele>699.9771</ele>
        <time>2013-06-02T11:40:38Z</time>
      </trkpt>
      <trkpt lat="43.63831" lon="2.98532">
        <ele>698.5349</ele>
        <time>2013-06-02T11:40:43Z</time>
      </trkpt>
      <trkpt lat="43.63833" lon="2.98541">
        <ele>697.5737</ele>
        <time>2013-06-02T11:40:46Z</time>
      </trkpt>
      <trkpt lat="43.63842" lon="2.98554">
        <ele>695.6511</ele>
        <time>2013-06-02T11:40:59Z</time>
      </trkpt>
      <trkpt lat="43.63848" lon="2.98558">
        <ele>695.6511</ele>
        <time>2013-06-02T11:41:20Z</time>
      </trkpt>
      <trkpt lat="43.63858" lon="2.98565">
        <ele>694.6897</ele>
        <time>2013-06-02T11:41:30Z</time>
      </trkpt>
      <trkpt lat="43.63862" lon="2.98566">
        <ele>694.6897</ele>
        <time>2013-06-02T11:41:33Z</time>
      </trkpt>
      <trkpt lat="43.63881" lon="2.98583">
        <ele>693.2478</ele>
        <time>2013-06-02T11:41:42Z</time>
      </trkpt>
      <trkpt lat="43.63885" lon="2.9859">
        <ele>691.8059</ele>
        <time>2013-06-02T11:41:44Z</time>
      </trkpt>
      <trkpt lat="43.63888" lon="2.98593">
        <ele>691.3252</ele>
        <time>2013-06-02T11:41:45Z</time>
      </trkpt>
      <trkpt lat="43.63916" lon="2.98634">
        <ele>687.9607</ele>
        <time>2013-06-02T11:41:54Z</time>
      </trkpt>
      <trkpt lat="43.63949" lon="2.98658">
        <ele>687.48</ele>
        <time>2013-06-02T11:42:04Z</time>
      </trkpt>
      <trkpt lat="43.6396" lon="2.98656">
        <ele>687.9607</ele>
        <time>2013-06-02T11:42:08Z</time>
      </trkpt>
      <trkpt lat="43.63938" lon="2.98648">
        <ele>686.0381</ele>
      </trkpt>
      <trkpt lat="43.64004" lon="2.98666">
        <ele>689.8833</ele>
      </trkpt>
      <trkpt lat="43.64172" lon="2.98824">
        <ele>687.9607</ele>
      </trkpt>
      <trkpt lat="43.64183" lon="2.98821">
        <ele>690.8445</ele>
      </trkpt>
      <trkpt lat="43.64218" lon="2.98886">
        <ele>686.0381</ele>
      </trkpt>
      <trkpt lat="43.64274" lon="2.9888">
        <ele>695.1704</ele>
      </trkpt>
      <trkpt lat="43.64421" lon="2.98964">
        <ele>687.9607</ele>
      </trkpt>
      <trkpt lat="43.64493" lon="2.98945">
        <ele>691.8059</ele>
      </trkpt>
      <trkpt lat="43.64501" lon="2.99011">
        <ele>678.8281</ele>
      </trkpt>
      <trkpt lat="43.64557" lon="2.99049">
        <ele>687.9607</ele>
      </trkpt>
      <trkpt lat="43.64602" lon="2.99065">
        <ele>696.1318</ele>
      </trkpt>
      <trkpt lat="43.64795" lon="2.99183">
        <ele>698.0544</ele>
      </trkpt>
      <trkpt lat="43.64863" lon="2.99175">
        <ele>706.2256</ele>
      </trkpt>
      <trkpt lat="43.64873" lon="2.99199">
        <ele>703.8225</ele>
      </trkpt>
      <trkpt lat="43.64859" lon="2.99204">
        <ele>697.093</ele>
      </trkpt>
      <trkpt lat="43.64899" lon="2.99398">
        <ele>721.1262</ele>
      </trkpt>
      <trkpt lat="43.64955" lon="2.99428">
        <ele>735.0654</ele>
      </trkpt>
      <trkpt lat="43.65008" lon="2.9956">
        <ele>740.833</ele>
      </trkpt>
      <trkpt lat="43.65005" lon="2.99617">
        <ele>742.2751</ele>
        <time>2013-06-02T11:59:07Z</time>
      </trkpt>
      <trkpt lat="43.65027" lon="2.99632">
        <ele>739.3911</ele>
        <time>2013-06-02T11:59:25Z</time>
      </trkpt>
      <trkpt lat="43.65031" lon="2.99634">
        <ele>739.3911</ele>
        <time>2013-06-02T11:59:26Z</time>
      </trkpt>
      <trkpt lat="43.65037" lon="2.99638">
        <ele>737.4685</ele>
        <time>2013-06-02T11:59:28Z</time>
      </trkpt>
      <trkpt lat="43.65043" lon="2.99643">
        <ele>738.9106</ele>
        <time>2013-06-02T11:59:30Z</time>
      </trkpt>
      <trkpt lat="43.65052" lon="2.99649">
        <ele>736.9878</ele>
        <time>2013-06-02T11:59:33Z</time>
      </trkpt>
      <trkpt lat="43.65052" lon="2.99654">
        <ele>736.9878</ele>
        <time>2013-06-02T11:59:36Z</time>
      </trkpt>
      <trkpt lat="43.65049" lon="2.99653">
        <ele>736.0266</ele>
        <time>2013-06-02T11:59:40Z</time>
      </trkpt>
      <trkpt lat="43.65047" lon="2.99653">
        <ele>735.5459</ele>
        <time>2013-06-02T11:59:41Z</time>
      </trkpt>
      <trkpt lat="43.65037" lon="2.99652">
        <ele>734.104</ele>
        <time>2013-06-02T11:59:44Z</time>
      </trkpt>
      <trkpt lat="43.65024" lon="2.99654">
        <ele>730.7393</ele>
        <time>2013-06-02T11:59:47Z</time>
      </trkpt>
      <trkpt lat="43.6502" lon="2.99656">
        <ele>730.2585</ele>
        <time>2013-06-02T11:59:48Z</time>
      </trkpt>
      <trkpt lat="43.65017" lon="2.99661">
        <ele>728.8167</ele>
        <time>2013-06-02T11:59:52Z</time>
      </trkpt>
      <trkpt lat="43.65024" lon="2.99663">
        <ele>727.8552</ele>
        <time>2013-06-02T11:59:54Z</time>
      </trkpt>
      <trkpt lat="43.65042" lon="2.99675">
        <ele>724.4907</ele>
        <time>2013-06-02T11:59:58Z</time>
      </trkpt>
      <trkpt lat="43.6506" lon="2.9969">
        <ele>720.6455</ele>
        <time>2013-06-02T12:00:02Z</time>
      </trkpt>
      <trkpt lat="43.65069" lon="2.99705">
        <ele>719.2036</ele>
        <time>2013-06-02T12:00:05Z</time>
      </trkpt>
      <trkpt lat="43.65072" lon="2.99711">
        <ele>719.2036</ele>
        <time>2013-06-02T12:00:06Z</time>
      </trkpt>
      <trkpt lat="43.65077" lon="2.99725">
        <ele>718.7229</ele>
        <time>2013-06-02T12:00:08Z</time>
      </trkpt>
      <trkpt lat="43.6508" lon="2.99741">
        <ele>717.7615</ele>
        <time>2013-06-02T12:00:10Z</time>
      </trkpt>
      <trkpt lat="43.65083" lon="2.99755">
        <ele>715.8389</ele>
        <time>2013-06-02T12:00:12Z</time>
      </trkpt>
      <trkpt lat="43.65084" lon="2.99762">
        <ele>715.3582</ele>
        <time>2013-06-02T12:00:13Z</time>
      </trkpt>
      <trkpt lat="43.65103" lon="2.99821">
        <ele>715.8389</ele>
        <time>2013-06-02T12:00:21Z</time>
      </trkpt>
      <trkpt lat="43.65119" lon="2.99838">
        <ele>711.9937</ele>
        <time>2013-06-02T12:00:25Z</time>
      </trkpt>
      <trkpt lat="43.65125" lon="2.9984">
        <ele>711.9937</ele>
        <time>2013-06-02T12:00:26Z</time>
      </trkpt>
      <trkpt lat="43.6514" lon="2.99856">
        <ele>708.6289</ele>
        <time>2013-06-02T12:00:29Z</time>
      </trkpt>
      <trkpt lat="43.6515" lon="2.99867">
        <ele>705.7451</ele>
        <time>2013-06-02T12:00:31Z</time>
      </trkpt>
      <trkpt lat="43.6516" lon="2.99879">
        <ele>702.3804</ele>
        <time>2013-06-02T12:00:33Z</time>
      </trkpt>
      <trkpt lat="43.65168" lon="2.99892">
        <ele>699.4963</ele>
        <time>2013-06-02T12:00:35Z</time>
      </trkpt>
      <trkpt lat="43.65172" lon="2.99898">
        <ele>702.8611</ele>
        <time>2013-06-02T12:00:36Z</time>
      </trkpt>
      <trkpt lat="43.65176" lon="2.99906">
        <ele>700.9385</ele>
        <time>2013-06-02T12:00:37Z</time>
      </trkpt>
      <trkpt lat="43.65179" lon="2.99913">
        <ele>700.9385</ele>
        <time>2013-06-02T12:00:38Z</time>
      </trkpt>
      <trkpt lat="43.65189" lon="2.99931">
        <ele>702.8611</ele>
        <time>2013-06-02T12:00:41Z</time>
      </trkpt>
      <trkpt lat="43.65193" lon="2.99941">
        <ele>699.0156</ele>
        <time>2013-06-02T12:00:43Z</time>
      </trkpt>
      <trkpt lat="43.65198" lon="2.99951">
        <ele>695.6511</ele>
        <time>2013-06-02T12:00:45Z</time>
      </trkpt>
      <trkpt lat="43.65201" lon="2.99957">
        <ele>694.6897</ele>
        <time>2013-06-02T12:00:46Z</time>
      </trkpt>
      <trkpt lat="43.65207" lon="2.99973">
        <ele>697.093</ele>
        <time>2013-06-02T12:00:49Z</time>
      </trkpt>
      <trkpt lat="43.65214" lon="2.99991">
        <ele>696.1318</ele>
        <time>2013-06-02T12:00:52Z</time>
      </trkpt>
      <trkpt lat="43.65218" lon="3.00009">
        <ele>695.1704</ele>
        <time>2013-06-02T12:00:55Z</time>
      </trkpt>
      <trkpt lat="43.65226" lon="3.00045">
        <ele>690.8445</ele>
        <time>2013-06-02T12:01:00Z</time>
      </trkpt>
      <trkpt lat="43.65227" lon="3.00052">
        <ele>690.8445</ele>
        <time>2013-06-02T12:01:01Z</time>
      </trkpt>
      <trkpt lat="43.6523" lon="3.00066">
        <ele>689.4026</ele>
        <time>2013-06-02T12:01:03Z</time>
      </trkpt>
      <trkpt lat="43.65232" lon="3.0008">
        <ele>687.9607</ele>
        <time>2013-06-02T12:01:05Z</time>
      </trkpt>
      <trkpt lat="43.65238" lon="3.001">
        <ele>685.5574</ele>
        <time>2013-06-02T12:01:08Z</time>
      </trkpt>
      <trkpt lat="43.6524" lon="3.00107">
        <ele>685.5574</ele>
        <time>2013-06-02T12:01:09Z</time>
      </trkpt>
      <trkpt lat="43.65243" lon="3.00122">
        <ele>685.0769</ele>
        <time>2013-06-02T12:01:11Z</time>
      </trkpt>
      <trkpt lat="43.65251" lon="3.00142">
        <ele>687.9607</ele>
        <time>2013-06-02T12:01:15Z</time>
      </trkpt>
      <trkpt lat="43.65252" lon="3.00144">
        <ele>689.8833</ele>
        <time>2013-06-02T12:01:30Z</time>
      </trkpt>
      <trkpt lat="43.65252" lon="3.00144">
        <ele>691.3252</ele>
        <time>2013-06-02T12:01:33Z</time>
      </trkpt>
      <trkpt lat="43.65252" lon="3.00144">
        <ele>697.093</ele>
        <time>2013-06-02T12:01:46Z</time>
      </trkpt>
      <trkpt lat="43.65252" lon="3.00144">
        <ele>697.093</ele>
        <time>2013-06-02T12:01:47Z</time>
      </trkpt>
      <trkpt lat="43.65252" lon="3.00144">
        <ele>699.0156</ele>
        <time>2013-06-02T12:01:54Z</time>
      </trkpt>
      <trkpt lat="43.65252" lon="3.00144">
        <ele>697.5737</ele>
        <time>2013-06-02T12:01:56Z</time>
      </trkpt>
      <trkpt lat="43.65252" lon="3.00144">
        <ele>692.7673</ele>
        <time>2013-06-02T12:01:58Z</time>
      </trkpt>
      <trkpt lat="43.65252" lon="3.00144">
        <ele>692.7673</ele>
        <time>2013-06-02T12:01:59Z</time>
      </trkpt>
      <trkpt lat="43.65252" lon="3.00144">
        <ele>688.9221</ele>
        <time>2013-06-02T12:02:00Z</time>
      </trkpt>
      <trkpt lat="43.65252" lon="3.00144">
        <ele>688.9221</ele>
        <time>2013-06-02T12:02:01Z</time>
      </trkpt>
      <trkpt lat="43.65252" lon="3.00144">
        <ele>689.8833</ele>
        <time>2013-06-02T12:02:06Z</time>
      </trkpt>
      <trkpt lat="43.65252" lon="3.00144">
        <ele>691.8059</ele>
        <time>2013-06-02T12:02:08Z</time>
      </trkpt>
      <trkpt lat="43.65252" lon="3.00144">
        <ele>694.6897</ele>
        <time>2013-06-02T12:02:13Z</time>
      </trkpt>
      <trkpt lat="43.65252" lon="3.00144">
        <ele>696.1318</ele>
        <time>2013-06-02T12:02:15Z</time>
      </trkpt>
      <trkpt lat="43.65252" lon="3.00142">
        <ele>694.6897</ele>
        <time>2013-06-02T12:02:19Z</time>
      </trkpt>
      <trkpt lat="43.65252" lon="3.00142">
        <ele>696.1318</ele>
        <time>2013-06-02T12:02:24Z</time>
      </trkpt>
      <trkpt lat="43.65252" lon="3.00142">
        <ele>697.5737</ele>
        <time>2013-06-02T12:02:28Z</time>
      </trkpt>
      <trkpt lat="43.65252" lon="3.00142">
        <ele>695.1704</ele>
        <time>2013-06-02T12:02:32Z</time>
      </trkpt>
      <trkpt lat="43.65252" lon="3.00142">
        <ele>690.8445</ele>
        <time>2013-06-02T12:02:36Z</time>
      </trkpt>
      <trkpt lat="43.65252" lon="3.00142">
        <ele>690.8445</ele>
        <time>2013-06-02T12:02:37Z</time>
      </trkpt>
      <trkpt lat="43.65252" lon="3.00142">
        <ele>689.4026</ele>
        <time>2013-06-02T12:02:39Z</time>
      </trkpt>
      <trkpt lat="43.65252" lon="3.00142">
        <ele>691.8059</ele>
        <time>2013-06-02T12:02:43Z</time>
      </trkpt>
      <trkpt lat="43.65252" lon="3.00142">
        <ele>693.2478</ele>
        <time>2013-06-02T12:02:45Z</time>
      </trkpt>
      <trkpt lat="43.65252" lon="3.00142">
        <ele>697.093</ele>
        <time>2013-06-02T12:02:50Z</time>
      </trkpt>
      <trkpt lat="43.65252" lon="3.00142">
        <ele>697.093</ele>
        <time>2013-06-02T12:02:51Z</time>
      </trkpt>
      <trkpt lat="43.65252" lon="3.00142">
        <ele>695.6511</ele>
        <time>2013-06-02T12:02:53Z</time>
      </trkpt>
      <trkpt lat="43.65252" lon="3.00142">
        <ele>697.093</ele>
        <time>2013-06-02T12:02:58Z</time>
      </trkpt>
      <trkpt lat="43.65252" lon="3.00142">
        <ele>698.5349</ele>
        <time>2013-06-02T12:03:00Z</time>
      </trkpt>
      <trkpt lat="43.65252" lon="3.00142">
        <ele>696.1318</ele>
        <time>2013-06-02T12:03:04Z</time>
      </trkpt>
      <trkpt lat="43.65252" lon="3.00142">
        <ele>699.0156</ele>
        <time>2013-06-02T12:03:10Z</time>
      </trkpt>
      <trkpt lat="43.65252" lon="3.00142">
        <ele>696.6125</ele>
        <time>2013-06-02T12:03:12Z</time>
      </trkpt>
      <trkpt lat="43.65252" lon="3.00142">
        <ele>698.5349</ele>
        <time>2013-06-02T12:03:19Z</time>
      </trkpt>
      <trkpt lat="43.65252" lon="3.00142">
        <ele>696.1318</ele>
        <time>2013-06-02T12:03:27Z</time>
      </trkpt>
      <trkpt lat="43.65252" lon="3.00142">
        <ele>695.1704</ele>
        <time>2013-06-02T12:03:29Z</time>
      </trkpt>
      <trkpt lat="43.65251" lon="3.00142">
        <ele>692.7673</ele>
        <time>2013-06-02T12:03:38Z</time>
      </trkpt>
      <trkpt lat="43.65251" lon="3.00142">
        <ele>693.2478</ele>
        <time>2013-06-02T12:03:53Z</time>
      </trkpt>
      <trkpt lat="43.65251" lon="3.00142">
        <ele>692.2866</ele>
        <time>2013-06-02T12:04:37Z</time>
      </trkpt>
      <trkpt lat="43.65251" lon="3.00142">
        <ele>694.2092</ele>
        <time>2013-06-02T12:05:02Z</time>
      </trkpt>
      <trkpt lat="43.65251" lon="3.00142">
        <ele>691.8059</ele>
        <time>2013-06-02T12:05:11Z</time>
      </trkpt>
      <trkpt lat="43.65251" lon="3.00142">
        <ele>690.364</ele>
        <time>2013-06-02T12:05:15Z</time>
      </trkpt>
      <trkpt lat="43.65251" lon="3.00142">
        <ele>690.8445</ele>
        <time>2013-06-02T12:05:23Z</time>
      </trkpt>
      <trkpt lat="43.65251" lon="3.00142">
        <ele>692.2866</ele>
        <time>2013-06-02T12:05:27Z</time>
      </trkpt>
      <trkpt lat="43.65251" lon="3.00142">
        <ele>696.6125</ele>
        <time>2013-06-02T12:05:31Z</time>
      </trkpt>
      <trkpt lat="43.65251" lon="3.00142">
        <ele>696.6125</ele>
        <time>2013-06-02T12:05:32Z</time>
      </trkpt>
      <trkpt lat="43.65251" lon="3.00142">
        <ele>696.6125</ele>
        <time>2013-06-02T12:05:40Z</time>
      </trkpt>
      <trkpt lat="43.65251" lon="3.00142">
        <ele>696.1318</ele>
        <time>2013-06-02T12:05:51Z</time>
      </trkpt>
      <trkpt lat="43.65251" lon="3.00142">
        <ele>694.2092</ele>
        <time>2013-06-02T12:06:08Z</time>
      </trkpt>
      <trkpt lat="43.65251" lon="3.00142">
        <ele>691.8059</ele>
        <time>2013-06-02T12:06:14Z</time>
      </trkpt>
      <trkpt lat="43.65251" lon="3.00142">
        <ele>690.364</ele>
        <time>2013-06-02T12:06:16Z</time>
      </trkpt>
      <trkpt lat="43.65251" lon="3.00142">
        <ele>688.4414</ele>
        <time>2013-06-02T12:06:18Z</time>
      </trkpt>
      <trkpt lat="43.65251" lon="3.00142">
        <ele>690.364</ele>
        <time>2013-06-02T12:06:26Z</time>
      </trkpt>
      <trkpt lat="43.65251" lon="3.00142">
        <ele>690.8445</ele>
        <time>2013-06-02T12:07:07Z</time>
      </trkpt>
      <trkpt lat="43.65251" lon="3.00142">
        <ele>688.9221</ele>
        <time>2013-06-02T12:07:11Z</time>
      </trkpt>
      <trkpt lat="43.65251" lon="3.00142">
        <ele>686.5188</ele>
        <time>2013-06-02T12:07:19Z</time>
      </trkpt>
      <trkpt lat="43.65251" lon="3.00142">
        <ele>689.4026</ele>
        <time>2013-06-02T12:08:59Z</time>
      </trkpt>
      <trkpt lat="43.65251" lon="3.00142">
        <ele>691.3252</ele>
        <time>2013-06-02T12:09:01Z</time>
      </trkpt>
      <trkpt lat="43.65251" lon="3.00142">
        <ele>689.4026</ele>
        <time>2013-06-02T12:09:03Z</time>
      </trkpt>
      <trkpt lat="43.65251" lon="3.00142">
        <ele>691.8059</ele>
        <time>2013-06-02T12:09:05Z</time>
      </trkpt>
      <trkpt lat="43.65251" lon="3.00142">
        <ele>694.6897</ele>
        <time>2013-06-02T12:09:30Z</time>
      </trkpt>
      <trkpt lat="43.65251" lon="3.00142">
        <ele>695.1704</ele>
        <time>2013-06-02T12:09:34Z</time>
      </trkpt>
      <trkpt lat="43.65251" lon="3.00142">
        <ele>691.8059</ele>
        <time>2013-06-02T12:09:52Z</time>
      </trkpt>
      <trkpt lat="43.65251" lon="3.00142">
        <ele>694.6897</ele>
        <time>2013-06-02T12:10:14Z</time>
      </trkpt>
      <trkpt lat="43.65251" lon="3.00142">
        <ele>695.1704</ele>
        <time>2013-06-02T12:10:19Z</time>
      </trkpt>
      <trkpt lat="43.65251" lon="3.00142">
        <ele>692.2866</ele>
        <time>2013-06-02T12:10:23Z</time>
      </trkpt>
      <trkpt lat="43.65251" lon="3.00142">
        <ele>695.1704</ele>
        <time>2013-06-02T12:10:27Z</time>
      </trkpt>
      <trkpt lat="43.65251" lon="3.00142">
        <ele>696.6125</ele>
        <time>2013-06-02T12:10:35Z</time>
      </trkpt>
      <trkpt lat="43.65251" lon="3.00142">
        <ele>699.4963</ele>
        <time>2013-06-02T12:10:38Z</time>
      </trkpt>
      <trkpt lat="43.65251" lon="3.00142">
        <ele>696.6125</ele>
        <time>2013-06-02T12:10:44Z</time>
      </trkpt>
      <trkpt lat="43.65251" lon="3.00142">
        <ele>695.1704</ele>
        <time>2013-06-02T12:10:46Z</time>
      </trkpt>
      <trkpt lat="43.65251" lon="3.00142">
        <ele>693.7285</ele>
        <time>2013-06-02T12:10:48Z</time>
      </trkpt>
      <trkpt lat="43.65251" lon="3.00142">
        <ele>693.2478</ele>
        <time>2013-06-02T12:10:59Z</time>
      </trkpt>
      <trkpt lat="43.65251" lon="3.00142">
        <ele>689.8833</ele>
        <time>2013-06-02T12:11:02Z</time>
      </trkpt>
      <trkpt lat="43.65251" lon="3.00142">
        <ele>689.8833</ele>
        <time>2013-06-02T12:11:03Z</time>
      </trkpt>
      <trkpt lat="43.65251" lon="3.00142">
        <ele>692.7673</ele>
        <time>2013-06-02T12:11:05Z</time>
      </trkpt>
      <trkpt lat="43.65251" lon="3.00142">
        <ele>694.6897</ele>
        <time>2013-06-02T12:11:07Z</time>
      </trkpt>
      <trkpt lat="43.65251" lon="3.00142">
        <ele>695.1704</ele>
        <time>2013-06-02T12:11:13Z</time>
      </trkpt>
      <trkpt lat="43.65251" lon="3.00142">
        <ele>696.6125</ele>
        <time>2013-06-02T12:11:18Z</time>
      </trkpt>
      <trkpt lat="43.65251" lon="3.00142">
        <ele>695.1704</ele>
        <time>2013-06-02T12:11:20Z</time>
      </trkpt>
      <trkpt lat="43.65251" lon="3.00142">
        <ele>693.7285</ele>
        <time>2013-06-02T12:11:37Z</time>
      </trkpt>
      <trkpt lat="43.65251" lon="3.00142">
        <ele>691.8059</ele>
        <time>2013-06-02T12:11:45Z</time>
      </trkpt>
      <trkpt lat="43.65251" lon="3.00143">
        <ele>691.3252</ele>
        <time>2013-06-02T12:12:17Z</time>
      </trkpt>
      <trkpt lat="43.65251" lon="3.00144">
        <ele>690.364</ele>
        <time>2013-06-02T12:12:25Z</time>
      </trkpt>
      <trkpt lat="43.65254" lon="3.0015">
        <ele>689.8833</ele>
        <time>2013-06-02T12:12:41Z</time>
      </trkpt>
      <trkpt lat="43.65258" lon="3.00149">
        <ele>688.4414</ele>
        <time>2013-06-02T12:12:44Z</time>
      </trkpt>
      <trkpt lat="43.6526" lon="3.00149">
        <ele>686.9993</ele>
        <time>2013-06-02T12:12:45Z</time>
      </trkpt>
      <trkpt lat="43.65272" lon="3.00158">
        <ele>686.0381</ele>
        <time>2013-06-02T12:12:52Z</time>
      </trkpt>
      <trkpt lat="43.65278" lon="3.00171">
        <ele>682.6733</ele>
        <time>2013-06-02T12:12:58Z</time>
      </trkpt>
      <trkpt lat="43.65279" lon="3.00176">
        <ele>680.7507</ele>
        <time>2013-06-02T12:13:01Z</time>
      </trkpt>
      <trkpt lat="43.65283" lon="3.00213">
        <ele>682.1926</ele>
        <time>2013-06-02T12:13:14Z</time>
      </trkpt>
      <trkpt lat="43.65283" lon="3.00219">
        <ele>682.1926</ele>
        <time>2013-06-02T12:13:15Z</time>
      </trkpt>
      <trkpt lat="43.65294" lon="3.00256">
        <ele>683.6345</ele>
        <time>2013-06-02T12:13:21Z</time>
      </trkpt>
      <trkpt lat="43.65299" lon="3.00266">
        <ele>680.7507</ele>
        <time>2013-06-02T12:13:23Z</time>
      </trkpt>
      <trkpt lat="43.65301" lon="3.00271">
        <ele>677.8667</ele>
        <time>2013-06-02T12:13:24Z</time>
      </trkpt>
      <trkpt lat="43.65303" lon="3.00275">
        <ele>677.8667</ele>
        <time>2013-06-02T12:13:25Z</time>
      </trkpt>
      <trkpt lat="43.65308" lon="3.00285">
        <ele>675.9441</ele>
        <time>2013-06-02T12:13:27Z</time>
      </trkpt>
      <trkpt lat="43.6531" lon="3.00291">
        <ele>677.3862</ele>
        <time>2013-06-02T12:13:28Z</time>
      </trkpt>
      <trkpt lat="43.65315" lon="3.00301">
        <ele>678.8281</ele>
        <time>2013-06-02T12:13:30Z</time>
      </trkpt>
      <trkpt lat="43.65326" lon="3.00322">
        <ele>677.3862</ele>
        <time>2013-06-02T12:13:34Z</time>
      </trkpt>
      <trkpt lat="43.65328" lon="3.00326">
        <ele>674.0215</ele>
        <time>2013-06-02T12:13:35Z</time>
      </trkpt>
      <trkpt lat="43.65344" lon="3.00357">
        <ele>674.9829</ele>
        <time>2013-06-02T12:13:41Z</time>
      </trkpt>
      <trkpt lat="43.65358" lon="3.00385">
        <ele>675.9441</ele>
        <time>2013-06-02T12:13:46Z</time>
      </trkpt>
      <trkpt lat="43.6537" lon="3.00413">
        <ele>674.9829</ele>
        <time>2013-06-02T12:13:50Z</time>
      </trkpt>
      <trkpt lat="43.65377" lon="3.00433">
        <ele>674.0215</ele>
        <time>2013-06-02T12:13:53Z</time>
      </trkpt>
      <trkpt lat="43.6539" lon="3.00459">
        <ele>671.1377</ele>
        <time>2013-06-02T12:13:57Z</time>
      </trkpt>
      <trkpt lat="43.65413" lon="3.00502">
        <ele>671.1377</ele>
        <time>2013-06-02T12:14:04Z</time>
      </trkpt>
      <trkpt lat="43.65422" lon="3.00515">
        <ele>670.1763</ele>
        <time>2013-06-02T12:14:07Z</time>
      </trkpt>
      <trkpt lat="43.65435" lon="3.00542">
        <ele>674.0215</ele>
        <time>2013-06-02T12:14:13Z</time>
      </trkpt>
      <trkpt lat="43.65468" lon="3.00579">
        <ele>672.5796</ele>
        <time>2013-06-02T12:14:22Z</time>
      </trkpt>
      <trkpt lat="43.65488" lon="3.00592">
        <ele>669.2151</ele>
        <time>2013-06-02T12:14:27Z</time>
      </trkpt>
      <trkpt lat="43.65492" lon="3.00595">
        <ele>669.2151</ele>
        <time>2013-06-02T12:14:28Z</time>
      </trkpt>
      <trkpt lat="43.65514" lon="3.00609">
        <ele>667.2922</ele>
        <time>2013-06-02T12:14:32Z</time>
      </trkpt>
      <trkpt lat="43.6552" lon="3.00613">
        <ele>667.2922</ele>
        <time>2013-06-02T12:14:33Z</time>
      </trkpt>
      <trkpt lat="43.65539" lon="3.00625">
        <ele>667.2922</ele>
        <time>2013-06-02T12:14:37Z</time>
      </trkpt>
      <trkpt lat="43.65556" lon="3.00649">
        <ele>665.3696</ele>
        <time>2013-06-02T12:14:42Z</time>
      </trkpt>
      <trkpt lat="43.65567" lon="3.00665">
        <ele>665.3696</ele>
        <time>2013-06-02T12:14:45Z</time>
      </trkpt>
      <trkpt lat="43.6558" lon="3.00678">
        <ele>664.4082</ele>
        <time>2013-06-02T12:14:48Z</time>
      </trkpt>
      <trkpt lat="43.65594" lon="3.00704">
        <ele>662.9663</ele>
        <time>2013-06-02T12:14:53Z</time>
      </trkpt>
      <trkpt lat="43.65597" lon="3.00714">
        <ele>664.4082</ele>
        <time>2013-06-02T12:14:55Z</time>
      </trkpt>
      <trkpt lat="43.65598" lon="3.00725">
        <ele>664.8889</ele>
        <time>2013-06-02T12:14:57Z</time>
      </trkpt>
      <trkpt lat="43.65607" lon="3.00735">
        <ele>663.447</ele>
        <time>2013-06-02T12:15:00Z</time>
      </trkpt>
      <trkpt lat="43.65612" lon="3.00741">
        <ele>664.8889</ele>
        <time>2013-06-02T12:15:02Z</time>
      </trkpt>
      <trkpt lat="43.65622" lon="3.00757">
        <ele>664.8889</ele>
        <time>2013-06-02T12:15:06Z</time>
      </trkpt>
      <trkpt lat="43.65652" lon="3.00791">
        <ele>664.8889</ele>
        <time>2013-06-02T12:15:15Z</time>
      </trkpt>
      <trkpt lat="43.65656" lon="3.00794">
        <ele>664.8889</ele>
        <time>2013-06-02T12:15:16Z</time>
      </trkpt>
      <trkpt lat="43.65674" lon="3.00805">
        <ele>665.3696</ele>
        <time>2013-06-02T12:15:21Z</time>
      </trkpt>
      <trkpt lat="43.65722" lon="3.00852">
        <ele>667.7727</ele>
        <time>2013-06-02T12:15:36Z</time>
      </trkpt>
      <trkpt lat="43.65739" lon="3.0089">
        <ele>667.7727</ele>
        <time>2013-06-02T12:15:45Z</time>
      </trkpt>
      <trkpt lat="43.65766" lon="3.00916">
        <ele>666.3308</ele>
        <time>2013-06-02T12:15:52Z</time>
      </trkpt>
      <trkpt lat="43.65774" lon="3.00923">
        <ele>666.3308</ele>
        <time>2013-06-02T12:15:54Z</time>
      </trkpt>
      <trkpt lat="43.65787" lon="3.00931">
        <ele>665.3696</ele>
        <time>2013-06-02T12:15:57Z</time>
      </trkpt>
      <trkpt lat="43.6581" lon="3.0095">
        <ele>665.8503</ele>
        <time>2013-06-02T12:16:03Z</time>
      </trkpt>
      <trkpt lat="43.65833" lon="3.00966">
        <ele>668.7344</ele>
        <time>2013-06-02T12:16:09Z</time>
      </trkpt>
      <trkpt lat="43.65858" lon="3.00979">
        <ele>668.2537</ele>
        <time>2013-06-02T12:16:15Z</time>
      </trkpt>
      <trkpt lat="43.65871" lon="3.00982">
        <ele>668.7344</ele>
        <time>2013-06-02T12:16:18Z</time>
      </trkpt>
      <trkpt lat="43.65912" lon="3.00995">
        <ele>667.7727</ele>
        <time>2013-06-02T12:16:27Z</time>
      </trkpt>
      <trkpt lat="43.65951" lon="3.01004">
        <ele>668.2537</ele>
        <time>2013-06-02T12:16:35Z</time>
      </trkpt>
      <trkpt lat="43.65966" lon="3.0101">
        <ele>667.2922</ele>
        <time>2013-06-02T12:16:38Z</time>
      </trkpt>
      <trkpt lat="43.65974" lon="3.01016">
        <ele>667.2922</ele>
        <time>2013-06-02T12:16:40Z</time>
      </trkpt>
      <trkpt lat="43.66004" lon="3.01052">
        <ele>664.4082</ele>
        <time>2013-06-02T12:16:49Z</time>
      </trkpt>
      <trkpt lat="43.66007" lon="3.01057">
        <ele>664.4082</ele>
        <time>2013-06-02T12:16:50Z</time>
      </trkpt>
      <trkpt lat="43.66017" lon="3.01071">
        <ele>666.3308</ele>
        <time>2013-06-02T12:16:53Z</time>
      </trkpt>
      <trkpt lat="43.6603" lon="3.01092">
        <ele>665.3696</ele>
        <time>2013-06-02T12:16:57Z</time>
      </trkpt>
      <trkpt lat="43.66032" lon="3.01117">
        <ele>662.0051</ele>
        <time>2013-06-02T12:17:01Z</time>
      </trkpt>
      <trkpt lat="43.6603" lon="3.01129">
        <ele>661.0437</ele>
        <time>2013-06-02T12:17:03Z</time>
      </trkpt>
      <trkpt lat="43.66027" lon="3.01142">
        <ele>658.6404</ele>
        <time>2013-06-02T12:17:05Z</time>
      </trkpt>
      <trkpt lat="43.66026" lon="3.01149">
        <ele>656.2371</ele>
        <time>2013-06-02T12:17:06Z</time>
      </trkpt>
      <trkpt lat="43.66019" lon="3.01168">
        <ele>652.3918</ele>
        <time>2013-06-02T12:17:09Z</time>
      </trkpt>
      <trkpt lat="43.66017" lon="3.01174">
        <ele>652.3918</ele>
        <time>2013-06-02T12:17:10Z</time>
      </trkpt>
      <trkpt lat="43.66014" lon="3.01179">
        <ele>651.4304</ele>
        <time>2013-06-02T12:17:11Z</time>
      </trkpt>
      <trkpt lat="43.66003" lon="3.01191">
        <ele>649.9885</ele>
        <time>2013-06-02T12:17:14Z</time>
      </trkpt>
      <trkpt lat="43.65997" lon="3.01197">
        <ele>647.1045</ele>
        <time>2013-06-02T12:17:16Z</time>
      </trkpt>
      <trkpt lat="43.65989" lon="3.012">
        <ele>646.624</ele>
        <time>2013-06-02T12:17:18Z</time>
      </trkpt>
      <trkpt lat="43.65973" lon="3.01202">
        <ele>646.1433</ele>
        <time>2013-06-02T12:17:21Z</time>
      </trkpt>
      <trkpt lat="43.6596" lon="3.01212">
        <ele>642.2981</ele>
        <time>2013-06-02T12:17:24Z</time>
      </trkpt>
      <trkpt lat="43.65955" lon="3.01219">
        <ele>638.4529</ele>
        <time>2013-06-02T12:17:25Z</time>
      </trkpt>
      <trkpt lat="43.65944" lon="3.01237">
        <ele>637.4915</ele>
        <time>2013-06-02T12:17:28Z</time>
      </trkpt>
      <trkpt lat="43.6594" lon="3.01254">
        <ele>633.1653</ele>
        <time>2013-06-02T12:17:31Z</time>
      </trkpt>
      <trkpt lat="43.65938" lon="3.01259">
        <ele>631.7234</ele>
        <time>2013-06-02T12:17:32Z</time>
      </trkpt>
      <trkpt lat="43.6593" lon="3.01272">
        <ele>630.2815</ele>
        <time>2013-06-02T12:17:34Z</time>
      </trkpt>
      <trkpt lat="43.65927" lon="3.01299">
        <ele>624.9944</ele>
        <time>2013-06-02T12:17:37Z</time>
      </trkpt>
      <trkpt lat="43.65923" lon="3.01321">
        <ele>622.1104</ele>
        <time>2013-06-02T12:17:39Z</time>
      </trkpt>
      <trkpt lat="43.65922" lon="3.01331">
        <ele>622.1104</ele>
        <time>2013-06-02T12:17:40Z</time>
      </trkpt>
      <trkpt lat="43.65921" lon="3.01342">
        <ele>621.6296</ele>
        <time>2013-06-02T12:17:41Z</time>
      </trkpt>
      <trkpt lat="43.65921" lon="3.01368">
        <ele>618.7456</ele>
        <time>2013-06-02T12:17:44Z</time>
      </trkpt>
      <trkpt lat="43.65914" lon="3.01412">
        <ele>615.8618</ele>
        <time>2013-06-02T12:17:47Z</time>
      </trkpt>
      <trkpt lat="43.65911" lon="3.01435">
        <ele>613.4585</ele>
        <time>2013-06-02T12:17:49Z</time>
      </trkpt>
      <trkpt lat="43.65907" lon="3.01449">
        <ele>610.0938</ele>
        <time>2013-06-02T12:17:50Z</time>
      </trkpt>
      <trkpt lat="43.65909" lon="3.01474">
        <ele>606.2485</ele>
        <time>2013-06-02T12:17:53Z</time>
      </trkpt>
      <trkpt lat="43.65909" lon="3.01482">
        <ele>606.7292</ele>
        <time>2013-06-02T12:17:54Z</time>
      </trkpt>
      <trkpt lat="43.65909" lon="3.01489">
        <ele>606.2485</ele>
        <time>2013-06-02T12:17:55Z</time>
      </trkpt>
      <trkpt lat="43.65909" lon="3.01502">
        <ele>605.2874</ele>
        <time>2013-06-02T12:17:57Z</time>
      </trkpt>
      <trkpt lat="43.65908" lon="3.0152">
        <ele>605.2874</ele>
        <time>2013-06-02T12:18:00Z</time>
      </trkpt>
      <trkpt lat="43.65901" lon="3.01531">
        <ele>607.6907</ele>
        <time>2013-06-02T12:18:08Z</time>
      </trkpt>
      <trkpt lat="43.65895" lon="3.0154">
        <ele>607.21</ele>
        <time>2013-06-02T12:18:19Z</time>
      </trkpt>
      <trkpt lat="43.65895" lon="3.0154">
        <ele>608.6519</ele>
        <time>2013-06-02T12:18:33Z</time>
      </trkpt>
      <trkpt lat="43.65895" lon="3.0154">
        <ele>606.7292</ele>
        <time>2013-06-02T12:18:35Z</time>
      </trkpt>
      <trkpt lat="43.65874" lon="3.0156">
        <ele>608.6519</ele>
        <time>2013-06-02T12:20:50Z</time>
      </trkpt>
      <trkpt lat="43.6587" lon="3.01562">
        <ele>610.5745</ele>
        <time>2013-06-02T12:20:52Z</time>
      </trkpt>
      <trkpt lat="43.65841" lon="3.01563">
        <ele>612.9778</ele>
        <time>2013-06-02T12:21:05Z</time>
      </trkpt>
      <trkpt lat="43.65804" lon="3.01541">
        <ele>615.3811</ele>
        <time>2013-06-02T12:21:26Z</time>
      </trkpt>
      <trkpt lat="43.65787" lon="3.0153">
        <ele>616.3423</ele>
        <time>2013-06-02T12:21:36Z</time>
      </trkpt>
      <trkpt lat="43.65777" lon="3.01514">
        <ele>618.7456</ele>
        <time>2013-06-02T12:21:45Z</time>
      </trkpt>
      <trkpt lat="43.65774" lon="3.0151">
        <ele>619.707</ele>
        <time>2013-06-02T12:21:48Z</time>
      </trkpt>
      <trkpt lat="43.65766" lon="3.01497">
        <ele>621.6296</ele>
        <time>2013-06-02T12:21:56Z</time>
      </trkpt>
      <trkpt lat="43.6574" lon="3.01525">
        <ele>623.5525</ele>
        <time>2013-06-02T12:22:14Z</time>
      </trkpt>
      <trkpt lat="43.65722" lon="3.01542">
        <ele>626.917</ele>
        <time>2013-06-02T12:22:24Z</time>
      </trkpt>
      <trkpt lat="43.65721" lon="3.01543">
        <ele>626.917</ele>
        <time>2013-06-02T12:22:25Z</time>
      </trkpt>
      <trkpt lat="43.65666" lon="3.01576">
        <ele>630.2815</ele>
        <time>2013-06-02T12:22:53Z</time>
      </trkpt>
      <trkpt lat="43.65626" lon="3.0159">
        <ele>634.1267</ele>
        <time>2013-06-02T12:23:12Z</time>
      </trkpt>
      <trkpt lat="43.65587" lon="3.01596">
        <ele>637.0107</ele>
        <time>2013-06-02T12:23:31Z</time>
      </trkpt>
      <trkpt lat="43.65579" lon="3.01605">
        <ele>637.9722</ele>
        <time>2013-06-02T12:23:37Z</time>
      </trkpt>
      <trkpt lat="43.65578" lon="3.01615">
        <ele>639.8948</ele>
        <time>2013-06-02T12:23:40Z</time>
      </trkpt>
      <trkpt lat="43.65575" lon="3.01625">
        <ele>637.9722</ele>
        <time>2013-06-02T12:23:43Z</time>
      </trkpt>
      <trkpt lat="43.65569" lon="3.01635">
        <ele>635.5686</ele>
        <time>2013-06-02T12:23:47Z</time>
      </trkpt>
      <trkpt lat="43.65552" lon="3.0168">
        <ele>639.4141</ele>
        <time>2013-06-02T12:23:58Z</time>
      </trkpt>
      <trkpt lat="43.65545" lon="3.01699">
        <ele>637.9722</ele>
        <time>2013-06-02T12:24:02Z</time>
      </trkpt>
      <trkpt lat="43.65513" lon="3.01813">
        <ele>639.8948</ele>
        <time>2013-06-02T12:24:23Z</time>
      </trkpt>
      <trkpt lat="43.6548" lon="3.01887">
        <ele>637.4915</ele>
        <time>2013-06-02T12:24:35Z</time>
      </trkpt>
      <trkpt lat="43.65462" lon="3.01913">
        <ele>635.5686</ele>
        <time>2013-06-02T12:24:39Z</time>
      </trkpt>
      <trkpt lat="43.65448" lon="3.0193">
        <ele>635.0881</ele>
        <time>2013-06-02T12:24:42Z</time>
      </trkpt>
      <trkpt lat="43.65422" lon="3.0195">
        <ele>632.2041</ele>
        <time>2013-06-02T12:24:47Z</time>
      </trkpt>
      <trkpt lat="43.65416" lon="3.01955">
        <ele>633.1653</ele>
        <time>2013-06-02T12:24:48Z</time>
      </trkpt>
      <trkpt lat="43.65396" lon="3.01986">
        <ele>632.2041</ele>
        <time>2013-06-02T12:24:52Z</time>
      </trkpt>
      <trkpt lat="43.65379" lon="3.02005">
        <ele>630.2815</ele>
        <time>2013-06-02T12:24:55Z</time>
      </trkpt>
      <trkpt lat="43.65343" lon="3.02043">
        <ele>626.917</ele>
        <time>2013-06-02T12:25:02Z</time>
      </trkpt>
      <trkpt lat="43.65317" lon="3.02045">
        <ele>625.9556</ele>
        <time>2013-06-02T12:25:06Z</time>
      </trkpt>
      <trkpt lat="43.6529" lon="3.02065">
        <ele>624.5137</ele>
        <time>2013-06-02T12:25:11Z</time>
      </trkpt>
      <trkpt lat="43.65272" lon="3.02079">
        <ele>623.0718</ele>
        <time>2013-06-02T12:25:14Z</time>
      </trkpt>
      <trkpt lat="43.65259" lon="3.02086">
        <ele>620.6685</ele>
        <time>2013-06-02T12:25:16Z</time>
      </trkpt>
      <trkpt lat="43.6524" lon="3.02099">
        <ele>619.707</ele>
        <time>2013-06-02T12:25:19Z</time>
      </trkpt>
      <trkpt lat="43.65207" lon="3.02124">
        <ele>617.3037</ele>
        <time>2013-06-02T12:25:24Z</time>
      </trkpt>
      <trkpt lat="43.65194" lon="3.02135">
        <ele>617.3037</ele>
        <time>2013-06-02T12:25:26Z</time>
      </trkpt>
      <trkpt lat="43.65182" lon="3.02147">
        <ele>616.3423</ele>
        <time>2013-06-02T12:25:28Z</time>
      </trkpt>
      <trkpt lat="43.65163" lon="3.0215">
        <ele>613.939</ele>
        <time>2013-06-02T12:25:31Z</time>
      </trkpt>
      <trkpt lat="43.65149" lon="3.02151">
        <ele>614.4197</ele>
        <time>2013-06-02T12:25:34Z</time>
      </trkpt>
      <trkpt lat="43.65116" lon="3.02148">
        <ele>614.9004</ele>
        <time>2013-06-02T12:25:45Z</time>
      </trkpt>
      <trkpt lat="43.6511" lon="3.02147">
        <ele>615.8618</ele>
        <time>2013-06-02T12:25:50Z</time>
      </trkpt>
      <trkpt lat="43.65108" lon="3.02148">
        <ele>616.3423</ele>
        <time>2013-06-02T12:25:52Z</time>
      </trkpt>
      <trkpt lat="43.65089" lon="3.02143">
        <ele>616.823</ele>
        <time>2013-06-02T12:26:05Z</time>
      </trkpt>
      <trkpt lat="43.65083" lon="3.02138">
        <ele>617.7842</ele>
        <time>2013-06-02T12:26:10Z</time>
      </trkpt>
      <trkpt lat="43.65071" lon="3.02143">
        <ele>614.4197</ele>
        <time>2013-06-02T12:26:14Z</time>
      </trkpt>
      <trkpt lat="43.65068" lon="3.02146">
        <ele>614.4197</ele>
        <time>2013-06-02T12:26:15Z</time>
      </trkpt>
      <trkpt lat="43.65061" lon="3.0215">
        <ele>612.4971</ele>
        <time>2013-06-02T12:26:17Z</time>
      </trkpt>
      <trkpt lat="43.65056" lon="3.02155">
        <ele>611.0552</ele>
        <time>2013-06-02T12:26:19Z</time>
      </trkpt>
      <trkpt lat="43.6505" lon="3.02163">
        <ele>608.1714</ele>
        <time>2013-06-02T12:26:22Z</time>
      </trkpt>
      <trkpt lat="43.65047" lon="3.02168">
        <ele>606.7292</ele>
        <time>2013-06-02T12:26:24Z</time>
      </trkpt>
      <trkpt lat="43.65041" lon="3.02178">
        <ele>603.8452</ele>
        <time>2013-06-02T12:26:28Z</time>
      </trkpt>
      <trkpt lat="43.6504" lon="3.0218">
        <ele>603.8452</ele>
        <time>2013-06-02T12:26:29Z</time>
      </trkpt>
      <trkpt lat="43.65033" lon="3.02188">
        <ele>601.4419</ele>
        <time>2013-06-02T12:26:33Z</time>
      </trkpt>
      <trkpt lat="43.65028" lon="3.02193">
        <ele>598.5579</ele>
        <time>2013-06-02T12:26:36Z</time>
      </trkpt>
      <trkpt lat="43.65025" lon="3.022">
        <ele>597.5967</ele>
        <time>2013-06-02T12:26:39Z</time>
      </trkpt>
      <trkpt lat="43.65017" lon="3.02204">
        <ele>594.7126</ele>
        <time>2013-06-02T12:26:44Z</time>
      </trkpt>
      <trkpt lat="43.65014" lon="3.0221">
        <ele>594.2322</ele>
        <time>2013-06-02T12:26:47Z</time>
      </trkpt>
      <trkpt lat="43.65005" lon="3.0222">
        <ele>589.9063</ele>
        <time>2013-06-02T12:26:51Z</time>
      </trkpt>
      <trkpt lat="43.65001" lon="3.02223">
        <ele>589.9063</ele>
        <time>2013-06-02T12:26:52Z</time>
      </trkpt>
      <trkpt lat="43.64998" lon="3.02226">
        <ele>587.022</ele>
        <time>2013-06-02T12:26:53Z</time>
      </trkpt>
      <trkpt lat="43.64986" lon="3.02234">
        <ele>585.5801</ele>
        <time>2013-06-02T12:26:56Z</time>
      </trkpt>
      <trkpt lat="43.64975" lon="3.02245">
        <ele>581.2544</ele>
        <time>2013-06-02T12:26:59Z</time>
      </trkpt>
      <trkpt lat="43.6497" lon="3.02253">
        <ele>580.293</ele>
        <time>2013-06-02T12:27:01Z</time>
      </trkpt>
      <trkpt lat="43.64966" lon="3.02271">
        <ele>576.9285</ele>
        <time>2013-06-02T12:27:05Z</time>
      </trkpt>
      <trkpt lat="43.64966" lon="3.02274">
        <ele>576.4478</ele>
        <time>2013-06-02T12:27:21Z</time>
      </trkpt>
      <trkpt lat="43.64966" lon="3.02274">
        <ele>576.4478</ele>
        <time>2013-06-02T12:29:00Z</time>
      </trkpt>
      <trkpt lat="43.64965" lon="3.02274">
        <ele>576.4478</ele>
        <time>2013-06-02T12:29:43Z</time>
      </trkpt>
      <trkpt lat="43.64965" lon="3.02274">
        <ele>578.3704</ele>
        <time>2013-06-02T12:30:42Z</time>
      </trkpt>
      <trkpt lat="43.64952" lon="3.02286">
        <ele>575.967</ele>
        <time>2013-06-02T12:30:48Z</time>
      </trkpt>
      <trkpt lat="43.64942" lon="3.02294">
        <ele>573.564</ele>
        <time>2013-06-02T12:30:50Z</time>
      </trkpt>
      <trkpt lat="43.6493" lon="3.02305">
        <ele>570.6797</ele>
        <time>2013-06-02T12:30:52Z</time>
      </trkpt>
      <trkpt lat="43.64919" lon="3.02314">
        <ele>567.3152</ele>
        <time>2013-06-02T12:30:54Z</time>
      </trkpt>
      <trkpt lat="43.64913" lon="3.02318">
        <ele>567.3152</ele>
        <time>2013-06-02T12:30:55Z</time>
      </trkpt>
      <trkpt lat="43.64905" lon="3.02326">
        <ele>564.4312</ele>
        <time>2013-06-02T12:30:57Z</time>
      </trkpt>
      <trkpt lat="43.64898" lon="3.02337">
        <ele>562.9893</ele>
        <time>2013-06-02T12:30:59Z</time>
      </trkpt>
      <trkpt lat="43.64889" lon="3.02346">
        <ele>561.0667</ele>
        <time>2013-06-02T12:31:01Z</time>
      </trkpt>
      <trkpt lat="43.64878" lon="3.02362">
        <ele>558.6633</ele>
        <time>2013-06-02T12:31:04Z</time>
      </trkpt>
      <trkpt lat="43.64871" lon="3.02375">
        <ele>557.2214</ele>
        <time>2013-06-02T12:31:06Z</time>
      </trkpt>
      <trkpt lat="43.64863" lon="3.02387">
        <ele>555.7793</ele>
        <time>2013-06-02T12:31:08Z</time>
      </trkpt>
      <trkpt lat="43.64856" lon="3.02399">
        <ele>552.4146</ele>
        <time>2013-06-02T12:31:10Z</time>
      </trkpt>
      <trkpt lat="43.64852" lon="3.02404">
        <ele>552.4146</ele>
        <time>2013-06-02T12:31:11Z</time>
      </trkpt>
      <trkpt lat="43.64847" lon="3.02409">
        <ele>549.05</ele>
        <time>2013-06-02T12:31:12Z</time>
      </trkpt>
      <trkpt lat="43.64843" lon="3.02414">
        <ele>549.05</ele>
        <time>2013-06-02T12:31:13Z</time>
      </trkpt>
      <trkpt lat="43.64837" lon="3.02422">
        <ele>547.1274</ele>
        <time>2013-06-02T12:31:15Z</time>
      </trkpt>
      <trkpt lat="43.6483" lon="3.02432">
        <ele>543.7628</ele>
        <time>2013-06-02T12:31:17Z</time>
      </trkpt>
      <trkpt lat="43.64826" lon="3.02437">
        <ele>543.7628</ele>
        <time>2013-06-02T12:31:18Z</time>
      </trkpt>
      <trkpt lat="43.64821" lon="3.02442">
        <ele>541.8402</ele>
        <time>2013-06-02T12:31:19Z</time>
      </trkpt>
      <trkpt lat="43.64811" lon="3.02454">
        <ele>539.4369</ele>
        <time>2013-06-02T12:31:22Z</time>
      </trkpt>
      <trkpt lat="43.64806" lon="3.02461">
        <ele>535.5916</ele>
        <time>2013-06-02T12:31:24Z</time>
      </trkpt>
      <trkpt lat="43.64804" lon="3.02466">
        <ele>535.5916</ele>
        <time>2013-06-02T12:31:25Z</time>
      </trkpt>
      <trkpt lat="43.64797" lon="3.02482">
        <ele>532.2271</ele>
        <time>2013-06-02T12:31:28Z</time>
      </trkpt>
      <trkpt lat="43.64794" lon="3.02486">
        <ele>532.7078</ele>
        <time>2013-06-02T12:31:29Z</time>
      </trkpt>
      <trkpt lat="43.64786" lon="3.02497">
        <ele>529.8237</ele>
        <time>2013-06-02T12:31:32Z</time>
      </trkpt>
      <trkpt lat="43.64781" lon="3.02504">
        <ele>528.3818</ele>
        <time>2013-06-02T12:31:34Z</time>
      </trkpt>
      <trkpt lat="43.6478" lon="3.02512">
        <ele>526.4591</ele>
        <time>2013-06-02T12:31:36Z</time>
      </trkpt>
      <trkpt lat="43.64768" lon="3.02528">
        <ele>522.6139</ele>
        <time>2013-06-02T12:31:39Z</time>
      </trkpt>
      <trkpt lat="43.64762" lon="3.02541">
        <ele>520.2106</ele>
        <time>2013-06-02T12:31:41Z</time>
      </trkpt>
      <trkpt lat="43.64759" lon="3.02547">
        <ele>517.3267</ele>
        <time>2013-06-02T12:31:42Z</time>
      </trkpt>
      <trkpt lat="43.64758" lon="3.0257">
        <ele>515.4041</ele>
        <time>2013-06-02T12:31:46Z</time>
      </trkpt>
      <trkpt lat="43.64757" lon="3.02582">
        <ele>513.4814</ele>
        <time>2013-06-02T12:31:48Z</time>
      </trkpt>
      <trkpt lat="43.64756" lon="3.0259">
        <ele>512.0394</ele>
        <time>2013-06-02T12:31:50Z</time>
      </trkpt>
      <trkpt lat="43.64754" lon="3.02595">
        <ele>510.5973</ele>
        <time>2013-06-02T12:31:52Z</time>
      </trkpt>
      <trkpt lat="43.64747" lon="3.02608">
        <ele>507.2328</ele>
        <time>2013-06-02T12:31:58Z</time>
      </trkpt>
      <trkpt lat="43.64746" lon="3.0261">
        <ele>507.2328</ele>
        <time>2013-06-02T12:31:59Z</time>
      </trkpt>
      <trkpt lat="43.64742" lon="3.02615">
        <ele>505.3102</ele>
        <time>2013-06-02T12:32:02Z</time>
      </trkpt>
      <trkpt lat="43.6474" lon="3.02619">
        <ele>503.3875</ele>
        <time>2013-06-02T12:32:04Z</time>
      </trkpt>
      <trkpt lat="43.64737" lon="3.02629">
        <ele>500.5035</ele>
        <time>2013-06-02T12:32:09Z</time>
      </trkpt>
      <trkpt lat="43.64734" lon="3.02641">
        <ele>498.1003</ele>
        <time>2013-06-02T12:32:11Z</time>
      </trkpt>
      <trkpt lat="43.64732" lon="3.02655">
        <ele>496.1777</ele>
        <time>2013-06-02T12:32:13Z</time>
      </trkpt>
      <trkpt lat="43.6473" lon="3.02671">
        <ele>494.255</ele>
        <time>2013-06-02T12:32:16Z</time>
      </trkpt>
      <trkpt lat="43.64729" lon="3.02683">
        <ele>492.3324</ele>
        <time>2013-06-02T12:32:18Z</time>
      </trkpt>
      <trkpt lat="43.64726" lon="3.027">
        <ele>490.4098</ele>
        <time>2013-06-02T12:32:23Z</time>
      </trkpt>
      <trkpt lat="43.64725" lon="3.02704">
        <ele>488.9678</ele>
        <time>2013-06-02T12:32:24Z</time>
      </trkpt>
      <trkpt lat="43.64722" lon="3.02716">
        <ele>486.0837</ele>
        <time>2013-06-02T12:32:28Z</time>
      </trkpt>
      <trkpt lat="43.64721" lon="3.02719">
        <ele>486.0837</ele>
        <time>2013-06-02T12:32:29Z</time>
      </trkpt>
      <trkpt lat="43.64713" lon="3.0273">
        <ele>484.1611</ele>
        <time>2013-06-02T12:32:32Z</time>
      </trkpt>
      <trkpt lat="43.64706" lon="3.02745">
        <ele>481.2772</ele>
        <time>2013-06-02T12:32:34Z</time>
      </trkpt>
      <trkpt lat="43.64702" lon="3.02759">
        <ele>478.8739</ele>
        <time>2013-06-02T12:32:36Z</time>
      </trkpt>
      <trkpt lat="43.64698" lon="3.02773">
        <ele>475.0287</ele>
        <time>2013-06-02T12:32:38Z</time>
      </trkpt>
      <trkpt lat="43.64697" lon="3.02781">
        <ele>475.0287</ele>
        <time>2013-06-02T12:32:39Z</time>
      </trkpt>
      <trkpt lat="43.64696" lon="3.0279">
        <ele>471.1833</ele>
        <time>2013-06-02T12:32:40Z</time>
      </trkpt>
      <trkpt lat="43.64694" lon="3.02796">
        <ele>471.1833</ele>
        <time>2013-06-02T12:32:41Z</time>
      </trkpt>
      <trkpt lat="43.64692" lon="3.02808">
        <ele>469.2607</ele>
        <time>2013-06-02T12:32:43Z</time>
      </trkpt>
      <trkpt lat="43.64689" lon="3.02823">
        <ele>465.4155</ele>
        <time>2013-06-02T12:32:45Z</time>
      </trkpt>
      <trkpt lat="43.64689" lon="3.02845">
        <ele>463.0121</ele>
        <time>2013-06-02T12:32:48Z</time>
      </trkpt>
      <trkpt lat="43.64688" lon="3.02859">
        <ele>461.0895</ele>
        <time>2013-06-02T12:32:50Z</time>
      </trkpt>
      <trkpt lat="43.64685" lon="3.02877">
        <ele>456.283</ele>
        <time>2013-06-02T12:32:53Z</time>
      </trkpt>
      <trkpt lat="43.64682" lon="3.02886">
        <ele>454.3602</ele>
        <time>2013-06-02T12:32:55Z</time>
      </trkpt>
      <trkpt lat="43.64682" lon="3.02894">
        <ele>452.9182</ele>
        <time>2013-06-02T12:32:57Z</time>
      </trkpt>
      <trkpt lat="43.64682" lon="3.02896">
        <ele>451.4763</ele>
        <time>2013-06-02T12:32:58Z</time>
      </trkpt>
      <trkpt lat="43.64683" lon="3.02906">
        <ele>449.073</ele>
        <time>2013-06-02T12:33:00Z</time>
      </trkpt>
      <trkpt lat="43.64684" lon="3.0291">
        <ele>446.6697</ele>
        <time>2013-06-02T12:33:01Z</time>
      </trkpt>
      <trkpt lat="43.64685" lon="3.02929">
        <ele>444.7471</ele>
        <time>2013-06-02T12:33:04Z</time>
      </trkpt>
      <trkpt lat="43.64685" lon="3.02932">
        <ele>443.3051</ele>
        <time>2013-06-02T12:33:05Z</time>
      </trkpt>
      <trkpt lat="43.64687" lon="3.02948">
        <ele>442.3439</ele>
        <time>2013-06-02T12:33:07Z</time>
      </trkpt>
      <trkpt lat="43.64688" lon="3.02954">
        <ele>440.4213</ele>
        <time>2013-06-02T12:33:09Z</time>
      </trkpt>
      <trkpt lat="43.64689" lon="3.02962">
        <ele>438.4985</ele>
        <time>2013-06-02T12:33:10Z</time>
      </trkpt>
      <trkpt lat="43.64692" lon="3.02979">
        <ele>437.0565</ele>
        <time>2013-06-02T12:33:13Z</time>
      </trkpt>
      <trkpt lat="43.64696" lon="3.02987">
        <ele>433.2113</ele>
        <time>2013-06-02T12:33:17Z</time>
      </trkpt>
      <trkpt lat="43.64697" lon="3.02996">
        <ele>433.2113</ele>
        <time>2013-06-02T12:33:18Z</time>
      </trkpt>
      <trkpt lat="43.647" lon="3.03009">
        <ele>431.2886</ele>
        <time>2013-06-02T12:33:20Z</time>
      </trkpt>
      <trkpt lat="43.64705" lon="3.03019">
        <ele>428.8854</ele>
        <time>2013-06-02T12:33:23Z</time>
      </trkpt>
      <trkpt lat="43.64707" lon="3.0302">
        <ele>427.924</ele>
        <time>2013-06-02T12:33:25Z</time>
      </trkpt>
      <trkpt lat="43.6471" lon="3.03033">
        <ele>424.0787</ele>
        <time>2013-06-02T12:33:29Z</time>
      </trkpt>
      <trkpt lat="43.6471" lon="3.03034">
        <ele>424.0787</ele>
        <time>2013-06-02T12:33:30Z</time>
      </trkpt>
      <trkpt lat="43.64712" lon="3.03032">
        <ele>424.5594</ele>
        <time>2013-06-02T12:33:46Z</time>
      </trkpt>
      <trkpt lat="43.64721" lon="3.03044">
        <ele>421.1948</ele>
        <time>2013-06-02T12:34:00Z</time>
      </trkpt>
      <trkpt lat="43.64722" lon="3.03045">
        <ele>421.1948</ele>
        <time>2013-06-02T12:34:01Z</time>
      </trkpt>
      <trkpt lat="43.64726" lon="3.03046">
        <ele>419.7528</ele>
        <time>2013-06-02T12:34:03Z</time>
      </trkpt>
      <trkpt lat="43.6473" lon="3.0305">
        <ele>417.8302</ele>
        <time>2013-06-02T12:34:07Z</time>
      </trkpt>
      <trkpt lat="43.6473" lon="3.03049">
        <ele>418.3108</ele>
        <time>2013-06-02T12:34:15Z</time>
      </trkpt>
      <trkpt lat="43.64735" lon="3.03057">
        <ele>417.8302</ele>
        <time>2013-06-02T12:34:32Z</time>
      </trkpt>
      <trkpt lat="43.64741" lon="3.03072">
        <ele>415.9075</ele>
        <time>2013-06-02T12:34:43Z</time>
      </trkpt>
      <trkpt lat="43.64744" lon="3.03079">
        <ele>414.4655</ele>
        <time>2013-06-02T12:34:45Z</time>
      </trkpt>
      <trkpt lat="43.64748" lon="3.03085">
        <ele>412.5428</ele>
        <time>2013-06-02T12:34:47Z</time>
      </trkpt>
      <trkpt lat="43.64749" lon="3.03087">
        <ele>412.0623</ele>
        <time>2013-06-02T12:34:48Z</time>
      </trkpt>
      <trkpt lat="43.64753" lon="3.031">
        <ele>408.6976</ele>
        <time>2013-06-02T12:34:52Z</time>
      </trkpt>
      <trkpt lat="43.64754" lon="3.03103">
        <ele>408.6976</ele>
        <time>2013-06-02T12:34:53Z</time>
      </trkpt>
      <trkpt lat="43.64756" lon="3.03112">
        <ele>407.2556</ele>
        <time>2013-06-02T12:34:55Z</time>
      </trkpt>
      <trkpt lat="43.64757" lon="3.03119">
        <ele>405.333</ele>
        <time>2013-06-02T12:34:57Z</time>
      </trkpt>
      <trkpt lat="43.64761" lon="3.03127">
        <ele>405.333</ele>
        <time>2013-06-02T12:35:09Z</time>
      </trkpt>
      <trkpt lat="43.64761" lon="3.03129">
        <ele>405.333</ele>
        <time>2013-06-02T12:35:10Z</time>
      </trkpt>
      <trkpt lat="43.64761" lon="3.03132">
        <ele>403.8911</ele>
        <time>2013-06-02T12:35:14Z</time>
      </trkpt>
      <trkpt lat="43.64759" lon="3.03133">
        <ele>403.4104</ele>
        <time>2013-06-02T12:35:19Z</time>
      </trkpt>
      <trkpt lat="43.64758" lon="3.03137">
        <ele>401.9685</ele>
        <time>2013-06-02T12:35:21Z</time>
      </trkpt>
      <trkpt lat="43.64758" lon="3.03143">
        <ele>399.5651</ele>
        <time>2013-06-02T12:35:23Z</time>
      </trkpt>
      <trkpt lat="43.64759" lon="3.03161">
        <ele>399.5651</ele>
        <time>2013-06-02T12:35:31Z</time>
      </trkpt>
      <trkpt lat="43.64767" lon="3.03172">
        <ele>397.6425</ele>
        <time>2013-06-02T12:35:38Z</time>
      </trkpt>
      <trkpt lat="43.64771" lon="3.03185">
        <ele>398.6038</ele>
        <time>2013-06-02T12:35:42Z</time>
      </trkpt>
      <trkpt lat="43.64771" lon="3.03196">
        <ele>396.6812</ele>
        <time>2013-06-02T12:35:44Z</time>
      </trkpt>
      <trkpt lat="43.6477" lon="3.03207">
        <ele>396.2006</ele>
        <time>2013-06-02T12:35:46Z</time>
      </trkpt>
      <trkpt lat="43.64768" lon="3.03227">
        <ele>393.3165</ele>
        <time>2013-06-02T12:35:49Z</time>
      </trkpt>
      <trkpt lat="43.64767" lon="3.03234">
        <ele>392.3553</ele>
        <time>2013-06-02T12:35:50Z</time>
      </trkpt>
      <trkpt lat="43.6477" lon="3.03257">
        <ele>390.9132</ele>
        <time>2013-06-02T12:35:53Z</time>
      </trkpt>
      <trkpt lat="43.64772" lon="3.03268">
        <ele>389.9519</ele>
        <time>2013-06-02T12:35:55Z</time>
      </trkpt>
      <trkpt lat="43.64775" lon="3.03274">
        <ele>393.3165</ele>
        <time>2013-06-02T12:35:57Z</time>
      </trkpt>
      <trkpt lat="43.64775" lon="3.03274">
        <ele>393.3165</ele>
        <time>2013-06-02T12:35:58Z</time>
      </trkpt>
      <trkpt lat="43.64775" lon="3.03277">
        <ele>391.8745</ele>
        <time>2013-06-02T12:36:00Z</time>
      </trkpt>
      <trkpt lat="43.64774" lon="3.03278">
        <ele>389.9519</ele>
        <time>2013-06-02T12:36:01Z</time>
      </trkpt>
      <trkpt lat="43.64772" lon="3.03274">
        <ele>390.4326</ele>
        <time>2013-06-02T12:36:22Z</time>
      </trkpt>
      <trkpt lat="43.64772" lon="3.03273">
        <ele>389.4712</ele>
        <time>2013-06-02T12:36:33Z</time>
      </trkpt>
      <trkpt lat="43.64773" lon="3.03274">
        <ele>391.3938</ele>
        <time>2013-06-02T12:37:47Z</time>
      </trkpt>
      <trkpt lat="43.64771" lon="3.0327">
        <ele>390.4326</ele>
        <time>2013-06-02T12:38:23Z</time>
      </trkpt>
      <trkpt lat="43.64771" lon="3.03272">
        <ele>391.3938</ele>
        <time>2013-06-02T12:41:31Z</time>
      </trkpt>
      <trkpt lat="43.64769" lon="3.03303">
        <ele>388.51</ele>
        <time>2013-06-02T12:41:43Z</time>
      </trkpt>
      <trkpt lat="43.64766" lon="3.03319">
        <ele>386.5874</ele>
        <time>2013-06-02T12:41:45Z</time>
      </trkpt>
      <trkpt lat="43.64765" lon="3.03327">
        <ele>383.7032</ele>
        <time>2013-06-02T12:41:46Z</time>
      </trkpt>
      <trkpt lat="43.64763" lon="3.03335">
        <ele>383.7032</ele>
        <time>2013-06-02T12:41:47Z</time>
      </trkpt>
      <trkpt lat="43.6476" lon="3.03349">
        <ele>377.9354</ele>
        <time>2013-06-02T12:41:49Z</time>
      </trkpt>
      <trkpt lat="43.64759" lon="3.03368">
        <ele>377.9354</ele>
        <time>2013-06-02T12:41:50Z</time>
      </trkpt>
      <trkpt lat="43.64755" lon="3.03411">
        <ele>377.4548</ele>
        <time>2013-06-02T12:41:59Z</time>
      </trkpt>
      <trkpt lat="43.64754" lon="3.03412">
        <ele>377.4548</ele>
        <time>2013-06-02T12:42:03Z</time>
      </trkpt>
      <trkpt lat="43.64752" lon="3.03426">
        <ele>375.5321</ele>
        <time>2013-06-02T12:42:07Z</time>
      </trkpt>
      <trkpt lat="43.64752" lon="3.03452">
        <ele>372.1675</ele>
        <time>2013-06-02T12:42:10Z</time>
      </trkpt>
      <trkpt lat="43.64751" lon="3.03458">
        <ele>372.1675</ele>
        <time>2013-06-02T12:42:11Z</time>
      </trkpt>
      <trkpt lat="43.64752" lon="3.03466">
        <ele>368.803</ele>
        <time>2013-06-02T12:42:12Z</time>
      </trkpt>
      <trkpt lat="43.64752" lon="3.03472">
        <ele>368.803</ele>
        <time>2013-06-02T12:42:13Z</time>
      </trkpt>
      <trkpt lat="43.64766" lon="3.03494">
        <ele>366.3995</ele>
        <time>2013-06-02T12:42:29Z</time>
      </trkpt>
      <trkpt lat="43.64766" lon="3.03495">
        <ele>366.3995</ele>
        <time>2013-06-02T12:42:55Z</time>
      </trkpt>
      <trkpt lat="43.64769" lon="3.03492">
        <ele>366.8802</ele>
        <time>2013-06-02T12:43:58Z</time>
      </trkpt>
      <trkpt lat="43.64765" lon="3.03485">
        <ele>367.361</ele>
        <time>2013-06-02T12:44:41Z</time>
      </trkpt>
      <trkpt lat="43.64766" lon="3.03493">
        <ele>366.3995</ele>
        <time>2013-06-02T12:48:33Z</time>
      </trkpt>
      <trkpt lat="43.64767" lon="3.03496">
        <ele>367.8416</ele>
        <time>2013-06-02T12:49:20Z</time>
      </trkpt>
      <trkpt lat="43.64767" lon="3.03496">
        <ele>366.8802</ele>
        <time>2013-06-02T12:49:49Z</time>
      </trkpt>
      <trkpt lat="43.64753" lon="3.03503">
        <ele>364.4769</ele>
        <time>2013-06-02T12:49:56Z</time>
      </trkpt>
      <trkpt lat="43.64742" lon="3.03502">
        <ele>362.5543</ele>
        <time>2013-06-02T12:50:02Z</time>
      </trkpt>
      <trkpt lat="43.64724" lon="3.03501">
        <ele>360.6317</ele>
        <time>2013-06-02T12:50:12Z</time>
      </trkpt>
      <trkpt lat="43.64715" lon="3.03519">
        <ele>359.1897</ele>
        <time>2013-06-02T12:50:16Z</time>
      </trkpt>
      <trkpt lat="43.64712" lon="3.03531">
        <ele>356.7864</ele>
        <time>2013-06-02T12:50:18Z</time>
      </trkpt>
      <trkpt lat="43.64694" lon="3.03571">
        <ele>355.3445</ele>
        <time>2013-06-02T12:50:30Z</time>
      </trkpt>
      <trkpt lat="43.64676" lon="3.03607">
        <ele>352.9412</ele>
        <time>2013-06-02T12:50:45Z</time>
      </trkpt>
      <trkpt lat="43.64673" lon="3.03611">
        <ele>353.9026</ele>
        <time>2013-06-02T12:51:03Z</time>
      </trkpt>
      <trkpt lat="43.64668" lon="3.03613">
        <ele>354.3832</ele>
        <time>2013-06-02T12:51:07Z</time>
      </trkpt>
      <trkpt lat="43.64666" lon="3.03614">
        <ele>353.4219</ele>
        <time>2013-06-02T12:51:11Z</time>
      </trkpt>
      <trkpt lat="43.64674" lon="3.03613">
        <ele>353.4219</ele>
        <time>2013-06-02T12:51:21Z</time>
      </trkpt>
      <trkpt lat="43.64675" lon="3.03608">
        <ele>354.3832</ele>
        <time>2013-06-02T12:51:31Z</time>
      </trkpt>
      <trkpt lat="43.64676" lon="3.03607">
        <ele>354.8638</ele>
        <time>2013-06-02T12:51:33Z</time>
      </trkpt>
      <trkpt lat="43.64688" lon="3.03587">
        <ele>355.3445</ele>
        <time>2013-06-02T12:51:42Z</time>
      </trkpt>
      <trkpt lat="43.64704" lon="3.03558">
        <ele>355.8252</ele>
        <time>2013-06-02T12:51:53Z</time>
      </trkpt>
      <trkpt lat="43.64713" lon="3.03538">
        <ele>357.2671</ele>
        <time>2013-06-02T12:52:00Z</time>
      </trkpt>
      <trkpt lat="43.64717" lon="3.03521">
        <ele>359.1897</ele>
        <time>2013-06-02T12:52:06Z</time>
      </trkpt>
      <trkpt lat="43.64721" lon="3.0351">
        <ele>360.1511</ele>
        <time>2013-06-02T12:52:10Z</time>
      </trkpt>
      <trkpt lat="43.64736" lon="3.03507">
        <ele>360.1511</ele>
        <time>2013-06-02T12:52:18Z</time>
      </trkpt>
      <trkpt lat="43.64773" lon="3.03565">
        <ele>355.3445</ele>
        <time>2013-06-02T12:52:35Z</time>
      </trkpt>
      <trkpt lat="43.64776" lon="3.03571">
        <ele>355.3445</ele>
        <time>2013-06-02T12:52:36Z</time>
      </trkpt>
      <trkpt lat="43.64778" lon="3.03609">
        <ele>350.5378</ele>
        <time>2013-06-02T12:52:40Z</time>
      </trkpt>
      <trkpt lat="43.64772" lon="3.03628">
        <ele>348.6152</ele>
        <time>2013-06-02T12:52:42Z</time>
      </trkpt>
      <trkpt lat="43.6477" lon="3.03685">
        <ele>344.77</ele>
        <time>2013-06-02T12:52:47Z</time>
      </trkpt>
      <trkpt lat="43.64771" lon="3.03697">
        <ele>344.77</ele>
        <time>2013-06-02T12:52:48Z</time>
      </trkpt>
      <trkpt lat="43.64777" lon="3.03735">
        <ele>341.4053</ele>
        <time>2013-06-02T12:52:51Z</time>
      </trkpt>
      <trkpt lat="43.64779" lon="3.03743">
        <ele>341.4053</ele>
        <time>2013-06-02T12:52:52Z</time>
      </trkpt>
      <trkpt lat="43.64781" lon="3.03753">
        <ele>343.3279</ele>
        <time>2013-06-02T12:52:54Z</time>
      </trkpt>
      <trkpt lat="43.64784" lon="3.03767">
        <ele>345.2506</ele>
        <time>2013-06-02T12:52:59Z</time>
      </trkpt>
      <trkpt lat="43.6479" lon="3.03773">
        <ele>344.77</ele>
        <time>2013-06-02T12:53:03Z</time>
      </trkpt>
      <trkpt lat="43.64831" lon="3.03782">
        <ele>341.886</ele>
        <time>2013-06-02T12:53:18Z</time>
      </trkpt>
      <trkpt lat="43.64843" lon="3.03785">
        <ele>343.3279</ele>
        <time>2013-06-02T12:53:22Z</time>
      </trkpt>
      <trkpt lat="43.6488" lon="3.03795">
        <ele>341.886</ele>
        <time>2013-06-02T12:53:32Z</time>
      </trkpt>
      <trkpt lat="43.64917" lon="3.03828">
        <ele>339.9634</ele>
        <time>2013-06-02T12:53:43Z</time>
      </trkpt>
      <trkpt lat="43.64938" lon="3.03846">
        <ele>341.886</ele>
        <time>2013-06-02T12:53:49Z</time>
      </trkpt>
      <trkpt lat="43.64946" lon="3.03849">
        <ele>341.4053</ele>
        <time>2013-06-02T12:53:51Z</time>
      </trkpt>
      <trkpt lat="43.65" lon="3.03873">
        <ele>340.4441</ele>
        <time>2013-06-02T12:54:04Z</time>
      </trkpt>
      <trkpt lat="43.65039" lon="3.03891">
        <ele>338.0408</ele>
        <time>2013-06-02T12:54:15Z</time>
      </trkpt>
      <trkpt lat="43.65071" lon="3.03908">
        <ele>339.0021</ele>
        <time>2013-06-02T12:54:28Z</time>
      </trkpt>
      <trkpt lat="43.65071" lon="3.0391">
        <ele>339.4827</ele>
        <time>2013-06-02T12:54:30Z</time>
      </trkpt>
      <trkpt lat="43.65054" lon="3.03935">
        <ele>340.9247</ele>
        <time>2013-06-02T12:54:37Z</time>
      </trkpt>
      <trkpt lat="43.65046" lon="3.03944">
        <ele>341.886</ele>
        <time>2013-06-02T12:54:41Z</time>
      </trkpt>
      <trkpt lat="43.65023" lon="3.03968">
        <ele>346.212</ele>
        <time>2013-06-02T12:54:52Z</time>
      </trkpt>
      <trkpt lat="43.65017" lon="3.0398">
        <ele>348.1346</ele>
        <time>2013-06-02T12:54:57Z</time>
      </trkpt>
      <trkpt lat="43.65015" lon="3.03983">
        <ele>348.6152</ele>
        <time>2013-06-02T12:54:59Z</time>
      </trkpt>
      <trkpt lat="43.65011" lon="3.03979">
        <ele>349.5765</ele>
        <time>2013-06-02T12:55:03Z</time>
      </trkpt>
      <trkpt lat="43.65006" lon="3.03983">
        <ele>350.0573</ele>
        <time>2013-06-02T12:55:07Z</time>
      </trkpt>
      <trkpt lat="43.64969" lon="3.04007">
        <ele>352.4606</ele>
        <time>2013-06-02T12:55:33Z</time>
      </trkpt>
      <trkpt lat="43.64935" lon="3.04053">
        <ele>354.8638</ele>
        <time>2013-06-02T12:56:01Z</time>
      </trkpt>
      <trkpt lat="43.64912" lon="3.04078">
        <ele>359.1897</ele>
        <time>2013-06-02T12:56:22Z</time>
      </trkpt>
      <trkpt lat="43.64911" lon="3.04077">
        <ele>359.1897</ele>
        <time>2013-06-02T12:56:23Z</time>
      </trkpt>
      <trkpt lat="43.64911" lon="3.04065">
        <ele>359.6704</ele>
        <time>2013-06-02T12:56:28Z</time>
      </trkpt>
      <trkpt lat="43.64916" lon="3.04041">
        <ele>361.1124</ele>
        <time>2013-06-02T12:56:40Z</time>
      </trkpt>
      <trkpt lat="43.64919" lon="3.04015">
        <ele>363.035</ele>
        <time>2013-06-02T12:56:55Z</time>
      </trkpt>
      <trkpt lat="43.6492" lon="3.04012">
        <ele>363.9963</ele>
        <time>2013-06-02T12:56:58Z</time>
      </trkpt>
      <trkpt lat="43.64925" lon="3.03974">
        <ele>363.035</ele>
        <time>2013-06-02T12:57:14Z</time>
      </trkpt>
      <trkpt lat="43.64925" lon="3.03968">
        <ele>364.9576</ele>
        <time>2013-06-02T12:57:16Z</time>
      </trkpt>
      <trkpt lat="43.6491" lon="3.03955">
        <ele>365.9189</ele>
        <time>2013-06-02T12:57:26Z</time>
      </trkpt>
      <trkpt lat="43.64907" lon="3.03958">
        <ele>366.3995</ele>
        <time>2013-06-02T12:57:28Z</time>
      </trkpt>
      <trkpt lat="43.64904" lon="3.03967">
        <ele>367.361</ele>
        <time>2013-06-02T12:57:32Z</time>
      </trkpt>
      <trkpt lat="43.64905" lon="3.03982">
        <ele>367.8416</ele>
        <time>2013-06-02T12:57:37Z</time>
      </trkpt>
      <trkpt lat="43.64902" lon="3.03994">
        <ele>369.2837</ele>
        <time>2013-06-02T12:57:41Z</time>
      </trkpt>
      <trkpt lat="43.64901" lon="3.03998">
        <ele>370.2449</ele>
        <time>2013-06-02T12:57:43Z</time>
      </trkpt>
      <trkpt lat="43.64889" lon="3.04034">
        <ele>373.6095</ele>
        <time>2013-06-02T12:57:59Z</time>
      </trkpt>
      <trkpt lat="43.64887" lon="3.04038">
        <ele>374.0901</ele>
        <time>2013-06-02T12:58:01Z</time>
      </trkpt>
      <trkpt lat="43.64872" lon="3.04056">
        <ele>376.9742</ele>
        <time>2013-06-02T12:58:11Z</time>
      </trkpt>
      <trkpt lat="43.64838" lon="3.04075">
        <ele>380.3387</ele>
        <time>2013-06-02T12:58:31Z</time>
      </trkpt>
      <trkpt lat="43.648" lon="3.04078">
        <ele>383.7032</ele>
        <time>2013-06-02T12:58:52Z</time>
      </trkpt>
      <trkpt lat="43.64779" lon="3.04078">
        <ele>386.5874</ele>
        <time>2013-06-02T12:59:03Z</time>
      </trkpt>
      <trkpt lat="43.64766" lon="3.04078">
        <ele>387.5486</ele>
        <time>2013-06-02T12:59:09Z</time>
      </trkpt>
      <trkpt lat="43.64751" lon="3.04081">
        <ele>388.9906</ele>
        <time>2013-06-02T12:59:17Z</time>
      </trkpt>
      <trkpt lat="43.64744" lon="3.04091">
        <ele>389.4712</ele>
        <time>2013-06-02T12:59:23Z</time>
      </trkpt>
      <trkpt lat="43.64744" lon="3.04126">
        <ele>390.9132</ele>
        <time>2013-06-02T12:59:33Z</time>
      </trkpt>
      <trkpt lat="43.64767" lon="3.04153">
        <ele>393.7972</ele>
        <time>2013-06-02T12:59:47Z</time>
      </trkpt>
      <trkpt lat="43.64789" lon="3.04173">
        <ele>397.1617</ele>
        <time>2013-06-02T12:59:59Z</time>
      </trkpt>
      <trkpt lat="43.64817" lon="3.042">
        <ele>400.0459</ele>
        <time>2013-06-02T13:00:14Z</time>
      </trkpt>
      <trkpt lat="43.64834" lon="3.04213">
        <ele>402.9297</ele>
        <time>2013-06-02T13:00:23Z</time>
      </trkpt>
      <trkpt lat="43.64848" lon="3.04253">
        <ele>406.2943</ele>
        <time>2013-06-02T13:00:41Z</time>
      </trkpt>
      <trkpt lat="43.64834" lon="3.04278">
        <ele>407.2556</ele>
        <time>2013-06-02T13:00:53Z</time>
      </trkpt>
      <trkpt lat="43.64817" lon="3.04313">
        <ele>407.7363</ele>
        <time>2013-06-02T13:01:09Z</time>
      </trkpt>
      <trkpt lat="43.64797" lon="3.04346">
        <ele>407.2556</ele>
        <time>2013-06-02T13:01:21Z</time>
      </trkpt>
      <trkpt lat="43.64779" lon="3.04368">
        <ele>408.217</ele>
        <time>2013-06-02T13:01:35Z</time>
      </trkpt>
      <trkpt lat="43.64774" lon="3.04376">
        <ele>410.1396</ele>
        <time>2013-06-02T13:01:39Z</time>
      </trkpt>
      <trkpt lat="43.64761" lon="3.04392">
        <ele>410.1396</ele>
        <time>2013-06-02T13:02:04Z</time>
      </trkpt>
      <trkpt lat="43.6476" lon="3.04399">
        <ele>413.0236</ele>
        <time>2013-06-02T13:03:20Z</time>
      </trkpt>
      <trkpt lat="43.64757" lon="3.04411">
        <ele>414.4655</ele>
        <time>2013-06-02T13:03:38Z</time>
      </trkpt>
      <trkpt lat="43.64756" lon="3.04415">
        <ele>415.9075</ele>
        <time>2013-06-02T13:03:41Z</time>
      </trkpt>
      <trkpt lat="43.6475" lon="3.04423">
        <ele>417.8302</ele>
        <time>2013-06-02T13:03:46Z</time>
      </trkpt>
      <trkpt lat="43.64742" lon="3.0444">
        <ele>421.6754</ele>
        <time>2013-06-02T13:03:55Z</time>
      </trkpt>
      <trkpt lat="43.6474" lon="3.04444">
        <ele>422.156</ele>
        <time>2013-06-02T13:03:57Z</time>
      </trkpt>
      <trkpt lat="43.64738" lon="3.04448">
        <ele>422.6367</ele>
        <time>2013-06-02T13:04:01Z</time>
      </trkpt>
      <trkpt lat="43.64733" lon="3.04458">
        <ele>426.0013</ele>
        <time>2013-06-02T13:04:09Z</time>
      </trkpt>
      <trkpt lat="43.64719" lon="3.04471">
        <ele>426.9628</ele>
        <time>2013-06-02T13:04:26Z</time>
      </trkpt>
      <trkpt lat="43.64707" lon="3.04489">
        <ele>430.3273</ele>
        <time>2013-06-02T13:04:39Z</time>
      </trkpt>
      <trkpt lat="43.64689" lon="3.04508">
        <ele>429.8466</ele>
        <time>2013-06-02T13:04:57Z</time>
      </trkpt>
      <trkpt lat="43.64687" lon="3.04513">
        <ele>428.4047</ele>
        <time>2013-06-02T13:05:04Z</time>
      </trkpt>
      <trkpt lat="43.64689" lon="3.04524">
        <ele>429.8466</ele>
        <time>2013-06-02T13:05:18Z</time>
      </trkpt>
      <trkpt lat="43.64692" lon="3.04534">
        <ele>433.6919</ele>
        <time>2013-06-02T13:05:30Z</time>
      </trkpt>
      <trkpt lat="43.64692" lon="3.04534">
        <ele>433.6919</ele>
        <time>2013-06-02T13:05:31Z</time>
      </trkpt>
      <trkpt lat="43.64695" lon="3.04537">
        <ele>433.6919</ele>
        <time>2013-06-02T13:05:49Z</time>
      </trkpt>
      <trkpt lat="43.64695" lon="3.04544">
        <ele>435.6145</ele>
        <time>2013-06-02T13:05:54Z</time>
      </trkpt>
      <trkpt lat="43.64695" lon="3.04549">
        <ele>436.0952</ele>
        <time>2013-06-02T13:05:56Z</time>
      </trkpt>
      <trkpt lat="43.64695" lon="3.04555">
        <ele>437.0565</ele>
        <time>2013-06-02T13:05:59Z</time>
      </trkpt>
      <trkpt lat="43.64695" lon="3.04561">
        <ele>437.5371</ele>
        <time>2013-06-02T13:06:02Z</time>
      </trkpt>
      <trkpt lat="43.64695" lon="3.04567">
        <ele>438.4985</ele>
        <time>2013-06-02T13:06:05Z</time>
      </trkpt>
      <trkpt lat="43.64697" lon="3.04588">
        <ele>441.3824</ele>
        <time>2013-06-02T13:06:15Z</time>
      </trkpt>
      <trkpt lat="43.64698" lon="3.04596">
        <ele>442.3439</ele>
        <time>2013-06-02T13:06:19Z</time>
      </trkpt>
      <trkpt lat="43.64693" lon="3.04621">
        <ele>446.1891</ele>
        <time>2013-06-02T13:06:33Z</time>
      </trkpt>
      <trkpt lat="43.64693" lon="3.04623">
        <ele>446.1891</ele>
        <time>2013-06-02T13:06:34Z</time>
      </trkpt>
      <trkpt lat="43.64691" lon="3.0463">
        <ele>446.6697</ele>
        <time>2013-06-02T13:06:38Z</time>
      </trkpt>
      <trkpt lat="43.64687" lon="3.04637">
        <ele>448.5924</ele>
        <time>2013-06-02T13:06:43Z</time>
      </trkpt>
      <trkpt lat="43.64681" lon="3.04654">
        <ele>451.957</ele>
        <time>2013-06-02T13:06:54Z</time>
      </trkpt>
      <trkpt lat="43.64679" lon="3.04662">
        <ele>451.957</ele>
        <time>2013-06-02T13:06:59Z</time>
      </trkpt>
      <trkpt lat="43.64674" lon="3.0468">
        <ele>454.3602</ele>
        <time>2013-06-02T13:07:09Z</time>
      </trkpt>
      <trkpt lat="43.64672" lon="3.04684">
        <ele>452.9182</ele>
        <time>2013-06-02T13:07:11Z</time>
      </trkpt>
      <trkpt lat="43.64671" lon="3.04688">
        <ele>454.8408</ele>
        <time>2013-06-02T13:07:14Z</time>
      </trkpt>
      <trkpt lat="43.64664" lon="3.04716">
        <ele>456.7635</ele>
        <time>2013-06-02T13:07:31Z</time>
      </trkpt>
      <trkpt lat="43.64656" lon="3.04729">
        <ele>458.6862</ele>
        <time>2013-06-02T13:07:39Z</time>
      </trkpt>
      <trkpt lat="43.64642" lon="3.04744">
        <ele>461.0895</ele>
        <time>2013-06-02T13:07:55Z</time>
      </trkpt>
      <trkpt lat="43.64634" lon="3.04751">
        <ele>463.0121</ele>
        <time>2013-06-02T13:08:01Z</time>
      </trkpt>
      <trkpt lat="43.64633" lon="3.04753">
        <ele>464.4541</ele>
        <time>2013-06-02T13:08:02Z</time>
      </trkpt>
      <trkpt lat="43.64617" lon="3.04772">
        <ele>464.9348</ele>
        <time>2013-06-02T13:08:19Z</time>
      </trkpt>
      <trkpt lat="43.64616" lon="3.04774">
        <ele>466.8574</ele>
        <time>2013-06-02T13:08:20Z</time>
      </trkpt>
      <trkpt lat="43.64614" lon="3.04776">
        <ele>468.2993</ele>
        <time>2013-06-02T13:08:22Z</time>
      </trkpt>
      <trkpt lat="43.6461" lon="3.04782">
        <ele>468.2993</ele>
        <time>2013-06-02T13:08:32Z</time>
      </trkpt>
      <trkpt lat="43.64602" lon="3.04792">
        <ele>469.7413</ele>
        <time>2013-06-02T13:08:51Z</time>
      </trkpt>
      <trkpt lat="43.64598" lon="3.048">
        <ele>473.1061</ele>
        <time>2013-06-02T13:09:05Z</time>
      </trkpt>
      <trkpt lat="43.64596" lon="3.04801">
        <ele>473.1061</ele>
        <time>2013-06-02T13:09:06Z</time>
      </trkpt>
      <trkpt lat="43.64592" lon="3.04805">
        <ele>473.1061</ele>
        <time>2013-06-02T13:09:09Z</time>
      </trkpt>
      <trkpt lat="43.64589" lon="3.0481">
        <ele>473.5867</ele>
        <time>2013-06-02T13:09:13Z</time>
      </trkpt>
      <trkpt lat="43.64585" lon="3.04816">
        <ele>474.548</ele>
        <time>2013-06-02T13:09:19Z</time>
      </trkpt>
      <trkpt lat="43.64581" lon="3.04819">
        <ele>476.9513</ele>
        <time>2013-06-02T13:09:23Z</time>
      </trkpt>
      <trkpt lat="43.6457" lon="3.04831">
        <ele>478.3932</ele>
        <time>2013-06-02T13:09:44Z</time>
      </trkpt>
      <trkpt lat="43.6457" lon="3.04832">
        <ele>477.9125</ele>
        <time>2013-06-02T13:09:45Z</time>
      </trkpt>
      <trkpt lat="43.64562" lon="3.04842">
        <ele>478.8739</ele>
        <time>2013-06-02T13:09:53Z</time>
      </trkpt>
      <trkpt lat="43.64552" lon="3.04852">
        <ele>481.7578</ele>
        <time>2013-06-02T13:10:02Z</time>
      </trkpt>
      <trkpt lat="43.64545" lon="3.04862">
        <ele>484.6418</ele>
        <time>2013-06-02T13:10:11Z</time>
      </trkpt>
      <trkpt lat="43.64537" lon="3.04871">
        <ele>484.1611</ele>
        <time>2013-06-02T13:10:17Z</time>
      </trkpt>
      <trkpt lat="43.64529" lon="3.0488">
        <ele>486.0837</ele>
        <time>2013-06-02T13:10:24Z</time>
      </trkpt>
      <trkpt lat="43.64523" lon="3.04889">
        <ele>488.0065</ele>
        <time>2013-06-02T13:10:30Z</time>
      </trkpt>
      <trkpt lat="43.64522" lon="3.0489">
        <ele>486.5645</ele>
        <time>2013-06-02T13:10:31Z</time>
      </trkpt>
      <trkpt lat="43.64507" lon="3.04903">
        <ele>488.4872</ele>
        <time>2013-06-02T13:10:44Z</time>
      </trkpt>
      <trkpt lat="43.64499" lon="3.04909">
        <ele>489.9291</ele>
        <time>2013-06-02T13:10:49Z</time>
      </trkpt>
      <trkpt lat="43.64474" lon="3.04914">
        <ele>489.9291</ele>
        <time>2013-06-02T13:11:05Z</time>
      </trkpt>
      <trkpt lat="43.64458" lon="3.04918">
        <ele>491.371</ele>
        <time>2013-06-02T13:11:16Z</time>
      </trkpt>
      <trkpt lat="43.64453" lon="3.04922">
        <ele>493.7743</ele>
        <time>2013-06-02T13:11:25Z</time>
      </trkpt>
      <trkpt lat="43.64445" lon="3.04928">
        <ele>493.2936</ele>
        <time>2013-06-02T13:11:40Z</time>
      </trkpt>
      <trkpt lat="43.64443" lon="3.04929">
        <ele>493.2936</ele>
        <time>2013-06-02T13:11:44Z</time>
      </trkpt>
      <trkpt lat="43.64431" lon="3.04953">
        <ele>498.5809</ele>
        <time>2013-06-02T13:12:01Z</time>
      </trkpt>
      <trkpt lat="43.64431" lon="3.04955">
        <ele>498.5809</ele>
        <time>2013-06-02T13:12:02Z</time>
      </trkpt>
      <trkpt lat="43.64422" lon="3.04975">
        <ele>500.5035</ele>
        <time>2013-06-02T13:12:15Z</time>
      </trkpt>
      <trkpt lat="43.64412" lon="3.04987">
        <ele>501.9456</ele>
        <time>2013-06-02T13:12:27Z</time>
      </trkpt>
      <trkpt lat="43.64406" lon="3.04998">
        <ele>503.3875</ele>
        <time>2013-06-02T13:12:38Z</time>
      </trkpt>
      <trkpt lat="43.64396" lon="3.05013">
        <ele>506.7521</ele>
        <time>2013-06-02T13:12:52Z</time>
      </trkpt>
      <trkpt lat="43.64388" lon="3.05029">
        <ele>506.7521</ele>
        <time>2013-06-02T13:13:06Z</time>
      </trkpt>
      <trkpt lat="43.64378" lon="3.05041">
        <ele>509.6361</ele>
        <time>2013-06-02T13:13:15Z</time>
      </trkpt>
      <trkpt lat="43.64375" lon="3.05046">
        <ele>507.7135</ele>
        <time>2013-06-02T13:13:18Z</time>
      </trkpt>
      <trkpt lat="43.64366" lon="3.05063">
        <ele>509.6361</ele>
        <time>2013-06-02T13:13:27Z</time>
      </trkpt>
      <trkpt lat="43.64363" lon="3.05069">
        <ele>508.6747</ele>
        <time>2013-06-02T13:13:31Z</time>
      </trkpt>
      <trkpt lat="43.64357" lon="3.05078">
        <ele>509.6361</ele>
        <time>2013-06-02T13:13:37Z</time>
      </trkpt>
      <trkpt lat="43.64352" lon="3.05086">
        <ele>512.0394</ele>
        <time>2013-06-02T13:13:42Z</time>
      </trkpt>
      <trkpt lat="43.64349" lon="3.05092">
        <ele>510.5973</ele>
        <time>2013-06-02T13:13:47Z</time>
      </trkpt>
      <trkpt lat="43.64342" lon="3.05098">
        <ele>512.0394</ele>
        <time>2013-06-02T13:13:50Z</time>
      </trkpt>
      <trkpt lat="43.64338" lon="3.05103">
        <ele>511.078</ele>
        <time>2013-06-02T13:13:53Z</time>
      </trkpt>
      <trkpt lat="43.64335" lon="3.05108">
        <ele>513.0007</ele>
        <time>2013-06-02T13:13:56Z</time>
      </trkpt>
      <trkpt lat="43.64314" lon="3.05124">
        <ele>514.4426</ele>
        <time>2013-06-02T13:14:07Z</time>
      </trkpt>
      <trkpt lat="43.64293" lon="3.05145">
        <ele>517.8073</ele>
        <time>2013-06-02T13:14:22Z</time>
      </trkpt>
      <trkpt lat="43.6428" lon="3.05157">
        <ele>518.2878</ele>
        <time>2013-06-02T13:14:33Z</time>
      </trkpt>
      <trkpt lat="43.64267" lon="3.05168">
        <ele>520.6913</ele>
        <time>2013-06-02T13:14:46Z</time>
      </trkpt>
      <trkpt lat="43.64259" lon="3.05173">
        <ele>521.172</ele>
        <time>2013-06-02T13:14:52Z</time>
      </trkpt>
      <trkpt lat="43.64253" lon="3.05178">
        <ele>523.0946</ele>
        <time>2013-06-02T13:14:59Z</time>
      </trkpt>
      <trkpt lat="43.6425" lon="3.0518">
        <ele>524.5365</ele>
        <time>2013-06-02T13:15:03Z</time>
      </trkpt>
      <trkpt lat="43.64244" lon="3.05184">
        <ele>526.4591</ele>
        <time>2013-06-02T13:15:10Z</time>
      </trkpt>
      <trkpt lat="43.64236" lon="3.05194">
        <ele>526.4591</ele>
        <time>2013-06-02T13:15:17Z</time>
      </trkpt>
      <trkpt lat="43.64234" lon="3.05198">
        <ele>527.4204</ele>
        <time>2013-06-02T13:15:19Z</time>
      </trkpt>
      <trkpt lat="43.64226" lon="3.05204">
        <ele>528.8625</ele>
        <time>2013-06-02T13:15:23Z</time>
      </trkpt>
      <trkpt lat="43.64216" lon="3.05217">
        <ele>530.7852</ele>
        <time>2013-06-02T13:15:37Z</time>
      </trkpt>
      <trkpt lat="43.64205" lon="3.05226">
        <ele>533.6689</ele>
        <time>2013-06-02T13:15:49Z</time>
      </trkpt>
      <trkpt lat="43.64205" lon="3.05227">
        <ele>533.6689</ele>
        <time>2013-06-02T13:15:50Z</time>
      </trkpt>
      <trkpt lat="43.64189" lon="3.05239">
        <ele>535.111</ele>
        <time>2013-06-02T13:16:02Z</time>
      </trkpt>
      <trkpt lat="43.64174" lon="3.05247">
        <ele>537.0337</ele>
        <time>2013-06-02T13:16:14Z</time>
      </trkpt>
      <trkpt lat="43.64154" lon="3.05258">
        <ele>540.3983</ele>
        <time>2013-06-02T13:16:27Z</time>
      </trkpt>
      <trkpt lat="43.64143" lon="3.05266">
        <ele>541.8402</ele>
        <time>2013-06-02T13:16:40Z</time>
      </trkpt>
      <trkpt lat="43.64131" lon="3.05272">
        <ele>541.3595</ele>
        <time>2013-06-02T13:16:47Z</time>
      </trkpt>
      <trkpt lat="43.64127" lon="3.05273">
        <ele>542.8015</ele>
        <time>2013-06-02T13:16:49Z</time>
      </trkpt>
      <trkpt lat="43.64112" lon="3.05279">
        <ele>543.7628</ele>
        <time>2013-06-02T13:17:00Z</time>
      </trkpt>
      <trkpt lat="43.64093" lon="3.0529">
        <ele>545.6855</ele>
        <time>2013-06-02T13:17:13Z</time>
      </trkpt>
      <trkpt lat="43.64091" lon="3.05291">
        <ele>545.6855</ele>
        <time>2013-06-02T13:17:14Z</time>
      </trkpt>
      <trkpt lat="43.64087" lon="3.05296">
        <ele>544.2437</ele>
        <time>2013-06-02T13:17:20Z</time>
      </trkpt>
      <trkpt lat="43.64081" lon="3.053">
        <ele>546.1663</ele>
        <time>2013-06-02T13:17:26Z</time>
      </trkpt>
      <trkpt lat="43.64069" lon="3.05305">
        <ele>548.0889</ele>
        <time>2013-06-02T13:17:37Z</time>
      </trkpt>
      <trkpt lat="43.6406" lon="3.05314">
        <ele>551.9341</ele>
        <time>2013-06-02T13:17:45Z</time>
      </trkpt>
      <trkpt lat="43.6406" lon="3.05315">
        <ele>551.9341</ele>
        <time>2013-06-02T13:17:46Z</time>
      </trkpt>
      <trkpt lat="43.64057" lon="3.05317">
        <ele>550.4922</ele>
        <time>2013-06-02T13:17:49Z</time>
      </trkpt>
      <trkpt lat="43.64047" lon="3.05324">
        <ele>553.8567</ele>
        <time>2013-06-02T13:17:59Z</time>
      </trkpt>
      <trkpt lat="43.64026" lon="3.05342">
        <ele>555.2986</ele>
        <time>2013-06-02T13:18:13Z</time>
      </trkpt>
      <trkpt lat="43.64019" lon="3.05345">
        <ele>553.8567</ele>
        <time>2013-06-02T13:18:19Z</time>
      </trkpt>
      <trkpt lat="43.64017" lon="3.05346">
        <ele>556.26</ele>
        <time>2013-06-02T13:18:21Z</time>
      </trkpt>
      <trkpt lat="43.64008" lon="3.05354">
        <ele>557.7021</ele>
        <time>2013-06-02T13:18:28Z</time>
      </trkpt>
      <trkpt lat="43.63997" lon="3.05375">
        <ele>557.7021</ele>
        <time>2013-06-02T13:18:39Z</time>
      </trkpt>
      <trkpt lat="43.63995" lon="3.0538">
        <ele>559.6248</ele>
        <time>2013-06-02T13:18:43Z</time>
      </trkpt>
      <trkpt lat="43.63979" lon="3.05399">
        <ele>560.5859</ele>
        <time>2013-06-02T13:18:57Z</time>
      </trkpt>
      <trkpt lat="43.63979" lon="3.05402">
        <ele>562.0281</ele>
        <time>2013-06-02T13:18:59Z</time>
      </trkpt>
      <trkpt lat="43.63974" lon="3.0541">
        <ele>563.47</ele>
        <time>2013-06-02T13:19:04Z</time>
      </trkpt>
      <trkpt lat="43.63962" lon="3.05437">
        <ele>566.8345</ele>
        <time>2013-06-02T13:19:21Z</time>
      </trkpt>
      <trkpt lat="43.63957" lon="3.05449">
        <ele>568.2764</ele>
        <time>2013-06-02T13:19:29Z</time>
      </trkpt>
      <trkpt lat="43.63955" lon="3.05458">
        <ele>568.7571</ele>
        <time>2013-06-02T13:19:35Z</time>
      </trkpt>
      <trkpt lat="43.6395" lon="3.05467">
        <ele>571.1604</ele>
        <time>2013-06-02T13:19:42Z</time>
      </trkpt>
      <trkpt lat="43.63948" lon="3.05471">
        <ele>572.1218</ele>
        <time>2013-06-02T13:19:45Z</time>
      </trkpt>
      <trkpt lat="43.63942" lon="3.05476">
        <ele>575.0059</ele>
        <time>2013-06-02T13:19:51Z</time>
      </trkpt>
      <trkpt lat="43.63937" lon="3.05477">
        <ele>575.967</ele>
        <time>2013-06-02T13:19:55Z</time>
      </trkpt>
      <trkpt lat="43.63935" lon="3.05479">
        <ele>577.4092</ele>
        <time>2013-06-02T13:20:09Z</time>
      </trkpt>
      <trkpt lat="43.63934" lon="3.0548">
        <ele>575.4863</ele>
        <time>2013-06-02T13:20:45Z</time>
      </trkpt>
      <trkpt lat="43.63934" lon="3.0548">
        <ele>578.3704</ele>
        <time>2013-06-02T13:21:00Z</time>
      </trkpt>
      <trkpt lat="43.63933" lon="3.05483">
        <ele>577.8896</ele>
        <time>2013-06-02T13:21:15Z</time>
      </trkpt>
      <trkpt lat="43.63924" lon="3.05493">
        <ele>580.293</ele>
        <time>2013-06-02T13:21:39Z</time>
      </trkpt>
      <trkpt lat="43.63922" lon="3.05491">
        <ele>582.6963</ele>
        <time>2013-06-02T13:21:42Z</time>
      </trkpt>
      <trkpt lat="43.63915" lon="3.05492">
        <ele>584.1382</ele>
        <time>2013-06-02T13:21:53Z</time>
      </trkpt>
      <trkpt lat="43.63905" lon="3.05489">
        <ele>584.6189</ele>
        <time>2013-06-02T13:22:01Z</time>
      </trkpt>
      <trkpt lat="43.63902" lon="3.05492">
        <ele>583.1768</ele>
        <time>2013-06-02T13:22:06Z</time>
      </trkpt>
      <trkpt lat="43.639" lon="3.05494">
        <ele>582.6963</ele>
        <time>2013-06-02T13:22:09Z</time>
      </trkpt>
      <trkpt lat="43.63898" lon="3.05495">
        <ele>584.6189</ele>
        <time>2013-06-02T13:22:13Z</time>
      </trkpt>
      <trkpt lat="43.63884" lon="3.05523">
        <ele>586.0608</ele>
        <time>2013-06-02T13:22:29Z</time>
      </trkpt>
      <trkpt lat="43.63881" lon="3.0553">
        <ele>587.022</ele>
        <time>2013-06-02T13:22:32Z</time>
      </trkpt>
      <trkpt lat="43.63875" lon="3.05555">
        <ele>587.9834</ele>
        <time>2013-06-02T13:22:42Z</time>
      </trkpt>
      <trkpt lat="43.63874" lon="3.05559">
        <ele>586.0608</ele>
        <time>2013-06-02T13:23:06Z</time>
      </trkpt>
      <trkpt lat="43.63874" lon="3.05559">
        <ele>586.5415</ele>
        <time>2013-06-02T13:23:16Z</time>
      </trkpt>
      <trkpt lat="43.63874" lon="3.05559">
        <ele>586.5415</ele>
        <time>2013-06-02T13:23:48Z</time>
      </trkpt>
      <trkpt lat="43.63874" lon="3.05559">
        <ele>584.6189</ele>
        <time>2013-06-02T13:23:50Z</time>
      </trkpt>
      <trkpt lat="43.63874" lon="3.05559">
        <ele>585.0996</ele>
        <time>2013-06-02T13:24:24Z</time>
      </trkpt>
      <trkpt lat="43.63874" lon="3.05559">
        <ele>585.0996</ele>
        <time>2013-06-02T13:24:32Z</time>
      </trkpt>
      <trkpt lat="43.63874" lon="3.05559">
        <ele>587.9834</ele>
        <time>2013-06-02T13:25:06Z</time>
      </trkpt>
      <trkpt lat="43.63874" lon="3.05559">
        <ele>585.5801</ele>
        <time>2013-06-02T13:25:10Z</time>
      </trkpt>
      <trkpt lat="43.63871" lon="3.05564">
        <ele>587.9834</ele>
        <time>2013-06-02T13:25:16Z</time>
      </trkpt>
      <trkpt lat="43.63866" lon="3.05558">
        <ele>586.5415</ele>
        <time>2013-06-02T13:25:20Z</time>
      </trkpt>
      <trkpt lat="43.6386" lon="3.05534">
        <ele>585.5801</ele>
        <time>2013-06-02T13:25:27Z</time>
      </trkpt>
      <trkpt lat="43.63842" lon="3.0547">
        <ele>583.6575</ele>
        <time>2013-06-02T13:25:38Z</time>
      </trkpt>
      <trkpt lat="43.63839" lon="3.05463">
        <ele>582.2156</ele>
        <time>2013-06-02T13:25:39Z</time>
      </trkpt>
      <trkpt lat="43.63831" lon="3.05416">
        <ele>581.2544</ele>
        <time>2013-06-02T13:25:45Z</time>
      </trkpt>
      <trkpt lat="43.63823" lon="3.0537">
        <ele>579.3315</ele>
        <time>2013-06-02T13:25:51Z</time>
      </trkpt>
      <trkpt lat="43.63823" lon="3.05326">
        <ele>577.4092</ele>
        <time>2013-06-02T13:25:57Z</time>
      </trkpt>
      <trkpt lat="43.63824" lon="3.053">
        <ele>578.8511</ele>
        <time>2013-06-02T13:26:01Z</time>
      </trkpt>
      <trkpt lat="43.63824" lon="3.05286">
        <ele>581.2544</ele>
        <time>2013-06-02T13:26:03Z</time>
      </trkpt>
      <trkpt lat="43.63823" lon="3.05267">
        <ele>579.3315</ele>
        <time>2013-06-02T13:26:06Z</time>
      </trkpt>
      <trkpt lat="43.63823" lon="3.05256">
        <ele>577.4092</ele>
        <time>2013-06-02T13:26:08Z</time>
      </trkpt>
      <trkpt lat="43.63819" lon="3.05215">
        <ele>581.2544</ele>
        <time>2013-06-02T13:26:16Z</time>
      </trkpt>
      <trkpt lat="43.63817" lon="3.05201">
        <ele>578.8511</ele>
        <time>2013-06-02T13:26:19Z</time>
      </trkpt>
      <trkpt lat="43.63811" lon="3.05159">
        <ele>576.9285</ele>
        <time>2013-06-02T13:26:27Z</time>
      </trkpt>
      <trkpt lat="43.63803" lon="3.05121">
        <ele>575.967</ele>
        <time>2013-06-02T13:26:31Z</time>
      </trkpt>
      <trkpt lat="43.63796" lon="3.0509">
        <ele>574.0444</ele>
        <time>2013-06-02T13:26:34Z</time>
      </trkpt>
      <trkpt lat="43.63792" lon="3.05069">
        <ele>575.4863</ele>
        <time>2013-06-02T13:26:36Z</time>
      </trkpt>
      <trkpt lat="43.63791" lon="3.05048">
        <ele>575.4863</ele>
        <time>2013-06-02T13:26:38Z</time>
      </trkpt>
      <trkpt lat="43.63781" lon="3.05023">
        <ele>573.0833</ele>
        <time>2013-06-02T13:26:41Z</time>
      </trkpt>
      <trkpt lat="43.63768" lon="3.05018">
        <ele>573.0833</ele>
        <time>2013-06-02T13:26:43Z</time>
      </trkpt>
      <trkpt lat="43.63675" lon="3.05005">
        <ele>568.2764</ele>
        <time>2013-06-02T13:26:58Z</time>
      </trkpt>
      <trkpt lat="43.63669" lon="3.05006">
        <ele>568.2764</ele>
        <time>2013-06-02T13:26:59Z</time>
      </trkpt>
      <trkpt lat="43.63654" lon="3.05008">
        <ele>568.2764</ele>
        <time>2013-06-02T13:27:02Z</time>
      </trkpt>
      <trkpt lat="43.6363" lon="3.04978">
        <ele>564.4312</ele>
        <time>2013-06-02T13:27:09Z</time>
      </trkpt>
      <trkpt lat="43.63627" lon="3.04944">
        <ele>567.3152</ele>
        <time>2013-06-02T13:27:13Z</time>
      </trkpt>
      <trkpt lat="43.63631" lon="3.04876">
        <ele>566.8345</ele>
        <time>2013-06-02T13:27:23Z</time>
      </trkpt>
      <trkpt lat="43.63632" lon="3.04864">
        <ele>565.8733</ele>
        <time>2013-06-02T13:27:25Z</time>
      </trkpt>
      <trkpt lat="43.63612" lon="3.04848">
        <ele>564.9119</ele>
        <time>2013-06-02T13:27:30Z</time>
      </trkpt>
      <trkpt lat="43.63602" lon="3.04849">
        <ele>564.4312</ele>
        <time>2013-06-02T13:27:32Z</time>
      </trkpt>
      <trkpt lat="43.63582" lon="3.04842">
        <ele>562.5085</ele>
        <time>2013-06-02T13:27:36Z</time>
      </trkpt>
      <trkpt lat="43.63557" lon="3.04823">
        <ele>560.1052</ele>
        <time>2013-06-02T13:27:41Z</time>
      </trkpt>
      <trkpt lat="43.63544" lon="3.0481">
        <ele>562.0281</ele>
        <time>2013-06-02T13:27:44Z</time>
      </trkpt>
      <trkpt lat="43.63497" lon="3.04736">
        <ele>562.9893</ele>
        <time>2013-06-02T13:27:57Z</time>
      </trkpt>
      <trkpt lat="43.63488" lon="3.0472">
        <ele>562.9893</ele>
        <time>2013-06-02T13:28:00Z</time>
      </trkpt>
      <trkpt lat="43.63469" lon="3.04697">
        <ele>562.9893</ele>
        <time>2013-06-02T13:28:05Z</time>
      </trkpt>
      <trkpt lat="43.63439" lon="3.04648">
        <ele>562.5085</ele>
        <time>2013-06-02T13:28:15Z</time>
      </trkpt>
      <trkpt lat="43.63403" lon="3.04585">
        <ele>565.3926</ele>
        <time>2013-06-02T13:28:28Z</time>
      </trkpt>
      <trkpt lat="43.63395" lon="3.04571">
        <ele>567.7957</ele>
        <time>2013-06-02T13:28:32Z</time>
      </trkpt>
      <trkpt lat="43.63385" lon="3.04554">
        <ele>567.7957</ele>
        <time>2013-06-02T13:28:39Z</time>
      </trkpt>
      <trkpt lat="43.63377" lon="3.04546">
        <ele>566.8345</ele>
        <time>2013-06-02T13:28:43Z</time>
      </trkpt>
      <trkpt lat="43.63364" lon="3.04531">
        <ele>563.47</ele>
        <time>2013-06-02T13:28:47Z</time>
      </trkpt>
      <trkpt lat="43.6336" lon="3.04527">
        <ele>563.47</ele>
        <time>2013-06-02T13:28:48Z</time>
      </trkpt>
      <trkpt lat="43.63345" lon="3.04505">
        <ele>559.144</ele>
        <time>2013-06-02T13:28:52Z</time>
      </trkpt>
      <trkpt lat="43.63341" lon="3.04499">
        <ele>559.144</ele>
        <time>2013-06-02T13:28:53Z</time>
      </trkpt>
      <trkpt lat="43.63322" lon="3.04466">
        <ele>553.8567</ele>
        <time>2013-06-02T13:28:58Z</time>
      </trkpt>
      <trkpt lat="43.63318" lon="3.04459">
        <ele>554.3374</ele>
        <time>2013-06-02T13:28:59Z</time>
      </trkpt>
      <trkpt lat="43.63305" lon="3.04436">
        <ele>551.9341</ele>
        <time>2013-06-02T13:29:02Z</time>
      </trkpt>
      <trkpt lat="43.63296" lon="3.0442">
        <ele>550.4922</ele>
        <time>2013-06-02T13:29:04Z</time>
      </trkpt>
      <trkpt lat="43.63282" lon="3.04394">
        <ele>551.9341</ele>
        <time>2013-06-02T13:29:07Z</time>
      </trkpt>
      <trkpt lat="43.63277" lon="3.04384">
        <ele>547.1274</ele>
        <time>2013-06-02T13:29:08Z</time>
      </trkpt>
      <trkpt lat="43.63271" lon="3.04374">
        <ele>547.1274</ele>
        <time>2013-06-02T13:29:09Z</time>
      </trkpt>
      <trkpt lat="43.6326" lon="3.04353">
        <ele>548.5693</ele>
        <time>2013-06-02T13:29:11Z</time>
      </trkpt>
      <trkpt lat="43.63248" lon="3.04337">
        <ele>547.1274</ele>
        <time>2013-06-02T13:29:13Z</time>
      </trkpt>
      <trkpt lat="43.63232" lon="3.04328">
        <ele>547.1274</ele>
        <time>2013-06-02T13:29:15Z</time>
      </trkpt>
      <trkpt lat="43.63206" lon="3.04317">
        <ele>545.2048</ele>
        <time>2013-06-02T13:29:18Z</time>
      </trkpt>
      <trkpt lat="43.63197" lon="3.04313">
        <ele>541.8402</ele>
        <time>2013-06-02T13:29:19Z</time>
      </trkpt>
      <trkpt lat="43.63169" lon="3.04308">
        <ele>539.4369</ele>
        <time>2013-06-02T13:29:23Z</time>
      </trkpt>
      <trkpt lat="43.63164" lon="3.04306">
        <ele>537.5143</ele>
        <time>2013-06-02T13:29:24Z</time>
      </trkpt>
      <trkpt lat="43.63153" lon="3.04289">
        <ele>535.5916</ele>
        <time>2013-06-02T13:29:27Z</time>
      </trkpt>
      <trkpt lat="43.63142" lon="3.04266">
        <ele>535.5916</ele>
        <time>2013-06-02T13:29:30Z</time>
      </trkpt>
      <trkpt lat="43.63133" lon="3.04252">
        <ele>534.1497</ele>
        <time>2013-06-02T13:29:32Z</time>
      </trkpt>
      <trkpt lat="43.63123" lon="3.04241">
        <ele>533.1884</ele>
        <time>2013-06-02T13:29:34Z</time>
      </trkpt>
      <trkpt lat="43.6311" lon="3.04229">
        <ele>530.3044</ele>
        <time>2013-06-02T13:29:37Z</time>
      </trkpt>
      <trkpt lat="43.63105" lon="3.04225">
        <ele>527.901</ele>
        <time>2013-06-02T13:29:38Z</time>
      </trkpt>
      <trkpt lat="43.63097" lon="3.04189">
        <ele>525.9784</ele>
        <time>2013-06-02T13:29:43Z</time>
      </trkpt>
      <trkpt lat="43.63099" lon="3.04161">
        <ele>524.0558</ele>
        <time>2013-06-02T13:29:46Z</time>
      </trkpt>
      <trkpt lat="43.631" lon="3.04152">
        <ele>520.2106</ele>
        <time>2013-06-02T13:29:47Z</time>
      </trkpt>
      <trkpt lat="43.63102" lon="3.04142">
        <ele>520.2106</ele>
        <time>2013-06-02T13:29:48Z</time>
      </trkpt>
      <trkpt lat="43.63105" lon="3.04123">
        <ele>517.8073</ele>
        <time>2013-06-02T13:29:50Z</time>
      </trkpt>
      <trkpt lat="43.63117" lon="3.0408">
        <ele>516.3652</ele>
        <time>2013-06-02T13:29:55Z</time>
      </trkpt>
      <trkpt lat="43.63122" lon="3.04062">
        <ele>515.8846</ele>
        <time>2013-06-02T13:29:57Z</time>
      </trkpt>
      <trkpt lat="43.63109" lon="3.04009">
        <ele>516.3652</ele>
        <time>2013-06-02T13:30:05Z</time>
      </trkpt>
      <trkpt lat="43.63099" lon="3.04014">
        <ele>515.8846</ele>
        <time>2013-06-02T13:30:12Z</time>
      </trkpt>
      <trkpt lat="43.63097" lon="3.04018">
        <ele>514.4426</ele>
        <time>2013-06-02T13:30:23Z</time>
      </trkpt>
      <trkpt lat="43.63096" lon="3.04005">
        <ele>513.4814</ele>
        <time>2013-06-02T13:30:32Z</time>
      </trkpt>
      <trkpt lat="43.63104" lon="3.03997">
        <ele>515.4041</ele>
        <time>2013-06-02T13:30:37Z</time>
      </trkpt>
      <trkpt lat="43.63105" lon="3.03993">
        <ele>516.8459</ele>
        <time>2013-06-02T13:30:38Z</time>
      </trkpt>
      <trkpt lat="43.63102" lon="3.0398">
        <ele>515.4041</ele>
        <time>2013-06-02T13:30:42Z</time>
      </trkpt>
      <trkpt lat="43.63075" lon="3.0396">
        <ele>514.9233</ele>
        <time>2013-06-02T13:30:55Z</time>
      </trkpt>
      <trkpt lat="43.6307" lon="3.03955">
        <ele>514.4426</ele>
        <time>2013-06-02T13:30:59Z</time>
      </trkpt>
      <trkpt lat="43.63062" lon="3.03931">
        <ele>513.962</ele>
        <time>2013-06-02T13:31:06Z</time>
      </trkpt>
      <trkpt lat="43.6306" lon="3.03931">
        <ele>515.4041</ele>
        <time>2013-06-02T13:31:08Z</time>
      </trkpt>
      <trkpt lat="43.63058" lon="3.03936">
        <ele>515.4041</ele>
        <time>2013-06-02T13:31:13Z</time>
      </trkpt>
      <trkpt lat="43.63064" lon="3.03943">
        <ele>515.4041</ele>
        <time>2013-06-02T13:31:19Z</time>
      </trkpt>
      <trkpt lat="43.63064" lon="3.0395">
        <ele>515.4041</ele>
        <time>2013-06-02T13:31:32Z</time>
      </trkpt>
      <trkpt lat="43.63062" lon="3.03951">
        <ele>516.8459</ele>
        <time>2013-06-02T13:31:34Z</time>
      </trkpt>
      <trkpt lat="43.63059" lon="3.03952">
        <ele>514.9233</ele>
        <time>2013-06-02T13:31:36Z</time>
      </trkpt>
      <trkpt lat="43.63015" lon="3.0395">
        <ele>515.8846</ele>
        <time>2013-06-02T13:31:56Z</time>
      </trkpt>
      <trkpt lat="43.62965" lon="3.03962">
        <ele>515.8846</ele>
        <time>2013-06-02T13:32:14Z</time>
      </trkpt>
      <trkpt lat="43.62949" lon="3.03966">
        <ele>517.3267</ele>
        <time>2013-06-02T13:32:20Z</time>
      </trkpt>
      <trkpt lat="43.62944" lon="3.03967">
        <ele>515.8846</ele>
        <time>2013-06-02T13:32:22Z</time>
      </trkpt>
      <trkpt lat="43.62912" lon="3.03977">
        <ele>515.8846</ele>
        <time>2013-06-02T13:32:35Z</time>
      </trkpt>
      <trkpt lat="43.62907" lon="3.03977">
        <ele>517.3267</ele>
        <time>2013-06-02T13:32:37Z</time>
      </trkpt>
      <trkpt lat="43.62889" lon="3.03973">
        <ele>517.8073</ele>
        <time>2013-06-02T13:32:45Z</time>
      </trkpt>
      <trkpt lat="43.62886" lon="3.03969">
        <ele>516.3652</ele>
        <time>2013-06-02T13:32:47Z</time>
      </trkpt>
      <trkpt lat="43.62883" lon="3.03963">
        <ele>518.7686</ele>
        <time>2013-06-02T13:32:50Z</time>
      </trkpt>
      <trkpt lat="43.62874" lon="3.03914">
        <ele>521.6526</ele>
        <time>2013-06-02T13:33:06Z</time>
      </trkpt>
      <trkpt lat="43.62875" lon="3.03898">
        <ele>521.6526</ele>
        <time>2013-06-02T13:33:11Z</time>
      </trkpt>
      <trkpt lat="43.62877" lon="3.03885">
        <ele>522.6139</ele>
        <time>2013-06-02T13:33:15Z</time>
      </trkpt>
      <trkpt lat="43.62877" lon="3.03849">
        <ele>523.0946</ele>
        <time>2013-06-02T13:33:27Z</time>
      </trkpt>
      <trkpt lat="43.6288" lon="3.0384">
        <ele>525.4978</ele>
        <time>2013-06-02T13:33:30Z</time>
      </trkpt>
      <trkpt lat="43.62885" lon="3.03782">
        <ele>527.4204</ele>
        <time>2013-06-02T13:33:51Z</time>
      </trkpt>
      <trkpt lat="43.62882" lon="3.03766">
        <ele>528.3818</ele>
        <time>2013-06-02T13:33:57Z</time>
      </trkpt>
      <trkpt lat="43.6288" lon="3.03749">
        <ele>529.3431</ele>
        <time>2013-06-02T13:34:03Z</time>
      </trkpt>
      <trkpt lat="43.62874" lon="3.03703">
        <ele>532.2271</ele>
        <time>2013-06-02T13:34:17Z</time>
      </trkpt>
      <trkpt lat="43.62875" lon="3.03648">
        <ele>533.6689</ele>
        <time>2013-06-02T13:34:33Z</time>
      </trkpt>
      <trkpt lat="43.62864" lon="3.03576">
        <ele>537.0337</ele>
        <time>2013-06-02T13:34:55Z</time>
      </trkpt>
      <trkpt lat="43.62856" lon="3.03538">
        <ele>537.995</ele>
        <time>2013-06-02T13:35:06Z</time>
      </trkpt>
      <trkpt lat="43.62842" lon="3.03501">
        <ele>540.3983</ele>
        <time>2013-06-02T13:35:17Z</time>
      </trkpt>
      <trkpt lat="43.6284" lon="3.03494">
        <ele>538.4757</ele>
        <time>2013-06-02T13:35:19Z</time>
      </trkpt>
      <trkpt lat="43.62837" lon="3.03486">
        <ele>539.9176</ele>
        <time>2013-06-02T13:35:21Z</time>
      </trkpt>
      <trkpt lat="43.62818" lon="3.03404">
        <ele>543.2821</ele>
        <time>2013-06-02T13:35:39Z</time>
      </trkpt>
      <trkpt lat="43.6281" lon="3.03371">
        <ele>544.2437</ele>
        <time>2013-06-02T13:35:46Z</time>
      </trkpt>
      <trkpt lat="43.62806" lon="3.03356">
        <ele>546.1663</ele>
        <time>2013-06-02T13:35:49Z</time>
      </trkpt>
      <trkpt lat="43.62792" lon="3.03309">
        <ele>547.6082</ele>
        <time>2013-06-02T13:36:01Z</time>
      </trkpt>
      <trkpt lat="43.62768" lon="3.03269">
        <ele>549.5308</ele>
        <time>2013-06-02T13:36:16Z</time>
      </trkpt>
      <trkpt lat="43.62716" lon="3.03246">
        <ele>550.9727</ele>
        <time>2013-06-02T13:36:37Z</time>
      </trkpt>
      <trkpt lat="43.62705" lon="3.03257">
        <ele>552.8953</ele>
        <time>2013-06-02T13:36:41Z</time>
      </trkpt>
      <trkpt lat="43.62657" lon="3.03308">
        <ele>553.8567</ele>
        <time>2013-06-02T13:37:00Z</time>
      </trkpt>
      <trkpt lat="43.62652" lon="3.03313">
        <ele>554.8179</ele>
        <time>2013-06-02T13:37:02Z</time>
      </trkpt>
      <trkpt lat="43.62645" lon="3.03319">
        <ele>553.8567</ele>
        <time>2013-06-02T13:37:05Z</time>
      </trkpt>
      <trkpt lat="43.6264" lon="3.03322">
        <ele>555.7793</ele>
        <time>2013-06-02T13:37:07Z</time>
      </trkpt>
      <trkpt lat="43.62617" lon="3.03344">
        <ele>559.144</ele>
        <time>2013-06-02T13:37:20Z</time>
      </trkpt>
      <trkpt lat="43.62617" lon="3.03346">
        <ele>561.0667</ele>
        <time>2013-06-02T13:37:23Z</time>
      </trkpt>
      <trkpt lat="43.62616" lon="3.03346">
        <ele>559.144</ele>
        <time>2013-06-02T13:37:30Z</time>
      </trkpt>
      <trkpt lat="43.62616" lon="3.03346">
        <ele>560.1052</ele>
        <time>2013-06-02T13:37:32Z</time>
      </trkpt>
      <trkpt lat="43.62616" lon="3.03346">
        <ele>559.144</ele>
        <time>2013-06-02T13:37:34Z</time>
      </trkpt>
      <trkpt lat="43.62616" lon="3.03345">
        <ele>559.144</ele>
        <time>2013-06-02T13:37:38Z</time>
      </trkpt>
      <trkpt lat="43.62615" lon="3.03345">
        <ele>561.5474</ele>
        <time>2013-06-02T13:37:40Z</time>
      </trkpt>
      <trkpt lat="43.62612" lon="3.03343">
        <ele>558.1829</ele>
        <time>2013-06-02T13:37:42Z</time>
      </trkpt>
      <trkpt lat="43.6261" lon="3.03342">
        <ele>558.1829</ele>
        <time>2013-06-02T13:37:43Z</time>
      </trkpt>
      <trkpt lat="43.62606" lon="3.03339">
        <ele>556.7407</ele>
        <time>2013-06-02T13:37:45Z</time>
      </trkpt>
      <trkpt lat="43.62604" lon="3.03338">
        <ele>556.26</ele>
        <time>2013-06-02T13:37:46Z</time>
      </trkpt>
      <trkpt lat="43.62598" lon="3.03333">
        <ele>558.6633</ele>
        <time>2013-06-02T13:37:49Z</time>
      </trkpt>
      <trkpt lat="43.62596" lon="3.03331">
        <ele>562.0281</ele>
        <time>2013-06-02T13:37:50Z</time>
      </trkpt>
      <trkpt lat="43.62594" lon="3.03328">
        <ele>562.0281</ele>
        <time>2013-06-02T13:37:51Z</time>
      </trkpt>
      <trkpt lat="43.62586" lon="3.03311">
        <ele>560.5859</ele>
        <time>2013-06-02T13:37:55Z</time>
      </trkpt>
      <trkpt lat="43.6258" lon="3.03293">
        <ele>561.5474</ele>
        <time>2013-06-02T13:37:59Z</time>
      </trkpt>
      <trkpt lat="43.62571" lon="3.03268">
        <ele>563.9504</ele>
        <time>2013-06-02T13:38:06Z</time>
      </trkpt>
      <trkpt lat="43.62567" lon="3.03253">
        <ele>564.9119</ele>
        <time>2013-06-02T13:38:10Z</time>
      </trkpt>
      <trkpt lat="43.62561" lon="3.0323">
        <ele>567.3152</ele>
        <time>2013-06-02T13:38:16Z</time>
      </trkpt>
      <trkpt lat="43.62552" lon="3.03208">
        <ele>565.8733</ele>
        <time>2013-06-02T13:38:22Z</time>
      </trkpt>
      <trkpt lat="43.62549" lon="3.03199">
        <ele>564.9119</ele>
        <time>2013-06-02T13:38:25Z</time>
      </trkpt>
      <trkpt lat="43.62547" lon="3.03196">
        <ele>569.2378</ele>
        <time>2013-06-02T13:38:26Z</time>
      </trkpt>
      <trkpt lat="43.62546" lon="3.03193">
        <ele>569.2378</ele>
        <time>2013-06-02T13:38:27Z</time>
      </trkpt>
      <trkpt lat="43.62526" lon="3.03145">
        <ele>570.6797</ele>
        <time>2013-06-02T13:38:42Z</time>
      </trkpt>
      <trkpt lat="43.62515" lon="3.03109">
        <ele>573.564</ele>
        <time>2013-06-02T13:38:52Z</time>
      </trkpt>
      <trkpt lat="43.62512" lon="3.03104">
        <ele>572.1218</ele>
        <time>2013-06-02T13:38:54Z</time>
      </trkpt>
      <trkpt lat="43.62504" lon="3.0309">
        <ele>574.5251</ele>
        <time>2013-06-02T13:38:58Z</time>
      </trkpt>
      <trkpt lat="43.62466" lon="3.03066">
        <ele>577.8896</ele>
        <time>2013-06-02T13:39:12Z</time>
      </trkpt>
      <trkpt lat="43.6245" lon="3.03052">
        <ele>577.8896</ele>
        <time>2013-06-02T13:39:19Z</time>
      </trkpt>
      <trkpt lat="43.6244" lon="3.03041">
        <ele>580.7737</ele>
        <time>2013-06-02T13:39:24Z</time>
      </trkpt>
      <trkpt lat="43.62416" lon="3.02976">
        <ele>583.1768</ele>
        <time>2013-06-02T13:39:44Z</time>
      </trkpt>
      <trkpt lat="43.62416" lon="3.02964">
        <ele>586.0608</ele>
        <time>2013-06-02T13:39:48Z</time>
      </trkpt>
      <trkpt lat="43.62416" lon="3.02962">
        <ele>586.0608</ele>
        <time>2013-06-02T13:39:49Z</time>
      </trkpt>
      <trkpt lat="43.62418" lon="3.02936">
        <ele>586.0608</ele>
        <time>2013-06-02T13:39:57Z</time>
      </trkpt>
      <trkpt lat="43.6242" lon="3.02926">
        <ele>587.9834</ele>
        <time>2013-06-02T13:40:00Z</time>
      </trkpt>
      <trkpt lat="43.62455" lon="3.0285">
        <ele>591.3481</ele>
        <time>2013-06-02T13:40:28Z</time>
      </trkpt>
      <trkpt lat="43.62457" lon="3.02846">
        <ele>591.3481</ele>
        <time>2013-06-02T13:40:29Z</time>
      </trkpt>
      <trkpt lat="43.62463" lon="3.02825">
        <ele>593.7515</ele>
        <time>2013-06-02T13:40:35Z</time>
      </trkpt>
      <trkpt lat="43.62459" lon="3.02775">
        <ele>597.116</ele>
        <time>2013-06-02T13:40:49Z</time>
      </trkpt>
      <trkpt lat="43.62459" lon="3.02772">
        <ele>597.116</ele>
        <time>2013-06-02T13:40:50Z</time>
      </trkpt>
      <trkpt lat="43.62457" lon="3.02757">
        <ele>598.0774</ele>
        <time>2013-06-02T13:40:54Z</time>
      </trkpt>
      <trkpt lat="43.62424" lon="3.02723">
        <ele>600</ele>
        <time>2013-06-02T13:41:13Z</time>
      </trkpt>
      <trkpt lat="43.6242" lon="3.02723">
        <ele>601.9226</ele>
        <time>2013-06-02T13:41:15Z</time>
      </trkpt>
      <trkpt lat="43.62365" lon="3.02701">
        <ele>606.2485</ele>
        <time>2013-06-02T13:41:40Z</time>
      </trkpt>
      <trkpt lat="43.62363" lon="3.02699">
        <ele>606.2485</ele>
        <time>2013-06-02T13:41:41Z</time>
      </trkpt>
      <trkpt lat="43.62335" lon="3.02673">
        <ele>606.2485</ele>
        <time>2013-06-02T13:41:56Z</time>
      </trkpt>
      <trkpt lat="43.62328" lon="3.02668">
        <ele>609.1326</ele>
        <time>2013-06-02T13:41:59Z</time>
      </trkpt>
      <trkpt lat="43.62326" lon="3.02666">
        <ele>609.1326</ele>
        <time>2013-06-02T13:42:00Z</time>
      </trkpt>
      <trkpt lat="43.62322" lon="3.02662">
        <ele>610.5745</ele>
        <time>2013-06-02T13:42:02Z</time>
      </trkpt>
      <trkpt lat="43.62293" lon="3.02621">
        <ele>612.9778</ele>
        <time>2013-06-02T13:42:19Z</time>
      </trkpt>
      <trkpt lat="43.62283" lon="3.02562">
        <ele>615.3811</ele>
        <time>2013-06-02T13:42:36Z</time>
      </trkpt>
      <trkpt lat="43.62283" lon="3.02556">
        <ele>613.4585</ele>
        <time>2013-06-02T13:42:38Z</time>
      </trkpt>
      <trkpt lat="43.62282" lon="3.02542">
        <ele>615.8618</ele>
        <time>2013-06-02T13:42:42Z</time>
      </trkpt>
      <trkpt lat="43.62284" lon="3.02507">
        <ele>617.7842</ele>
        <time>2013-06-02T13:42:52Z</time>
      </trkpt>
      <trkpt lat="43.62286" lon="3.02466">
        <ele>620.6685</ele>
        <time>2013-06-02T13:43:04Z</time>
      </trkpt>
      <trkpt lat="43.62288" lon="3.02446">
        <ele>624.5137</ele>
        <time>2013-06-02T13:43:10Z</time>
      </trkpt>
      <trkpt lat="43.62288" lon="3.02442">
        <ele>624.5137</ele>
        <time>2013-06-02T13:43:11Z</time>
      </trkpt>
      <trkpt lat="43.62289" lon="3.02432">
        <ele>625.4749</ele>
        <time>2013-06-02T13:43:14Z</time>
      </trkpt>
      <trkpt lat="43.62288" lon="3.02425">
        <ele>624.5137</ele>
        <time>2013-06-02T13:43:16Z</time>
      </trkpt>
      <trkpt lat="43.62272" lon="3.02399">
        <ele>626.917</ele>
        <time>2013-06-02T13:43:26Z</time>
      </trkpt>
      <trkpt lat="43.62269" lon="3.02394">
        <ele>624.9944</ele>
        <time>2013-06-02T13:43:28Z</time>
      </trkpt>
      <trkpt lat="43.62248" lon="3.0237">
        <ele>627.3977</ele>
        <time>2013-06-02T13:43:39Z</time>
      </trkpt>
      <trkpt lat="43.62212" lon="3.02364">
        <ele>629.8008</ele>
        <time>2013-06-02T13:43:54Z</time>
      </trkpt>
      <trkpt lat="43.62199" lon="3.02358">
        <ele>631.2429</ele>
        <time>2013-06-02T13:44:00Z</time>
      </trkpt>
      <trkpt lat="43.62159" lon="3.02314">
        <ele>634.1267</ele>
        <time>2013-06-02T13:44:22Z</time>
      </trkpt>
      <trkpt lat="43.62158" lon="3.02311">
        <ele>634.1267</ele>
        <time>2013-06-02T13:44:23Z</time>
      </trkpt>
      <trkpt lat="43.62171" lon="3.02306">
        <ele>637.0107</ele>
        <time>2013-06-02T13:44:31Z</time>
      </trkpt>
      <trkpt lat="43.6221" lon="3.02339">
        <ele>640.856</ele>
        <time>2013-06-02T13:44:51Z</time>
      </trkpt>
      <trkpt lat="43.62212" lon="3.02339">
        <ele>640.856</ele>
        <time>2013-06-02T13:44:52Z</time>
      </trkpt>
      <trkpt lat="43.62229" lon="3.02337">
        <ele>642.7788</ele>
        <time>2013-06-02T13:44:59Z</time>
      </trkpt>
      <trkpt lat="43.62257" lon="3.02328">
        <ele>644.2207</ele>
        <time>2013-06-02T13:45:11Z</time>
      </trkpt>
      <trkpt lat="43.62268" lon="3.02332">
        <ele>646.1433</ele>
        <time>2013-06-02T13:45:16Z</time>
      </trkpt>
      <trkpt lat="43.62276" lon="3.02341">
        <ele>647.1045</ele>
        <time>2013-06-02T13:45:20Z</time>
      </trkpt>
      <trkpt lat="43.62299" lon="3.02363">
        <ele>649.9885</ele>
        <time>2013-06-02T13:45:32Z</time>
      </trkpt>
      <trkpt lat="43.62323" lon="3.02391">
        <ele>652.8726</ele>
        <time>2013-06-02T13:45:47Z</time>
      </trkpt>
      <trkpt lat="43.62328" lon="3.02368">
        <ele>655.7566</ele>
        <time>2013-06-02T13:45:58Z</time>
      </trkpt>
      <trkpt lat="43.62326" lon="3.02367">
        <ele>655.2759</ele>
        <time>2013-06-02T13:45:59Z</time>
      </trkpt>
      <trkpt lat="43.62287" lon="3.02326">
        <ele>658.1599</ele>
        <time>2013-06-02T13:46:19Z</time>
      </trkpt>
      <trkpt lat="43.62273" lon="3.02306">
        <ele>660.563</ele>
        <time>2013-06-02T13:46:27Z</time>
      </trkpt>
      <trkpt lat="43.62242" lon="3.02299">
        <ele>660.563</ele>
        <time>2013-06-02T13:46:40Z</time>
      </trkpt>
      <trkpt lat="43.62233" lon="3.02298">
        <ele>659.6018</ele>
        <time>2013-06-02T13:46:44Z</time>
      </trkpt>
      <trkpt lat="43.62198" lon="3.02275">
        <ele>662.4856</ele>
        <time>2013-06-02T13:47:01Z</time>
      </trkpt>
      <trkpt lat="43.6219" lon="3.02266">
        <ele>664.4082</ele>
        <time>2013-06-02T13:47:05Z</time>
      </trkpt>
      <trkpt lat="43.62185" lon="3.02259">
        <ele>667.2922</ele>
        <time>2013-06-02T13:47:08Z</time>
      </trkpt>
      <trkpt lat="43.62154" lon="3.02213">
        <ele>666.3308</ele>
        <time>2013-06-02T13:47:25Z</time>
      </trkpt>
      <trkpt lat="43.62135" lon="3.02199">
        <ele>669.6958</ele>
        <time>2013-06-02T13:47:32Z</time>
      </trkpt>
      <trkpt lat="43.62121" lon="3.02189">
        <ele>668.2537</ele>
        <time>2013-06-02T13:47:37Z</time>
      </trkpt>
      <trkpt lat="43.62115" lon="3.02184">
        <ele>669.6958</ele>
        <time>2013-06-02T13:47:39Z</time>
      </trkpt>
      <trkpt lat="43.6211" lon="3.02179">
        <ele>671.6182</ele>
        <time>2013-06-02T13:47:41Z</time>
      </trkpt>
      <trkpt lat="43.62093" lon="3.02147">
        <ele>673.541</ele>
        <time>2013-06-02T13:47:50Z</time>
      </trkpt>
      <trkpt lat="43.62048" lon="3.02085">
        <ele>676.9055</ele>
        <time>2013-06-02T13:48:10Z</time>
      </trkpt>
      <trkpt lat="43.6204" lon="3.02076">
        <ele>678.8281</ele>
        <time>2013-06-02T13:48:15Z</time>
      </trkpt>
      <trkpt lat="43.62007" lon="3.02041">
        <ele>681.7119</ele>
        <time>2013-06-02T13:48:29Z</time>
      </trkpt>
      <trkpt lat="43.61988" lon="3.02022">
        <ele>684.5962</ele>
        <time>2013-06-02T13:48:36Z</time>
      </trkpt>
      <trkpt lat="43.61983" lon="3.02017">
        <ele>682.6733</ele>
        <time>2013-06-02T13:48:38Z</time>
      </trkpt>
      <trkpt lat="43.61955" lon="3.02">
        <ele>684.1155</ele>
        <time>2013-06-02T13:48:46Z</time>
      </trkpt>
      <trkpt lat="43.61931" lon="3.01999">
        <ele>686.5188</ele>
        <time>2013-06-02T13:48:53Z</time>
      </trkpt>
      <trkpt lat="43.61892" lon="3.02026">
        <ele>686.9993</ele>
        <time>2013-06-02T13:49:07Z</time>
      </trkpt>
      <trkpt lat="43.61871" lon="3.02043">
        <ele>690.364</ele>
        <time>2013-06-02T13:49:21Z</time>
      </trkpt>
      <trkpt lat="43.61869" lon="3.02043">
        <ele>691.3252</ele>
        <time>2013-06-02T13:49:31Z</time>
      </trkpt>
      <trkpt lat="43.61869" lon="3.02043">
        <ele>688.9221</ele>
        <time>2013-06-02T13:49:37Z</time>
      </trkpt>
      <trkpt lat="43.61869" lon="3.02043">
        <ele>690.364</ele>
        <time>2013-06-02T13:49:56Z</time>
      </trkpt>
      <trkpt lat="43.61869" lon="3.02043">
        <ele>690.364</ele>
        <time>2013-06-02T13:50:26Z</time>
      </trkpt>
      <trkpt lat="43.61869" lon="3.02043">
        <ele>688.9221</ele>
        <time>2013-06-02T13:50:30Z</time>
      </trkpt>
      <trkpt lat="43.61869" lon="3.02043">
        <ele>690.8445</ele>
        <time>2013-06-02T13:50:40Z</time>
      </trkpt>
      <trkpt lat="43.61869" lon="3.02043">
        <ele>691.3252</ele>
        <time>2013-06-02T13:50:45Z</time>
      </trkpt>
      <trkpt lat="43.61869" lon="3.02043">
        <ele>688.9221</ele>
        <time>2013-06-02T13:51:04Z</time>
      </trkpt>
      <trkpt lat="43.61869" lon="3.02043">
        <ele>691.3252</ele>
        <time>2013-06-02T13:51:08Z</time>
      </trkpt>
      <trkpt lat="43.61869" lon="3.02043">
        <ele>693.2478</ele>
        <time>2013-06-02T13:51:10Z</time>
      </trkpt>
      <trkpt lat="43.61869" lon="3.02043">
        <ele>690.8445</ele>
        <time>2013-06-02T13:51:12Z</time>
      </trkpt>
      <trkpt lat="43.61869" lon="3.02043">
        <ele>689.8833</ele>
        <time>2013-06-02T13:51:18Z</time>
      </trkpt>
      <trkpt lat="43.61869" lon="3.02043">
        <ele>690.8445</ele>
        <time>2013-06-02T13:51:27Z</time>
      </trkpt>
      <trkpt lat="43.61869" lon="3.02043">
        <ele>689.8833</ele>
        <time>2013-06-02T13:52:15Z</time>
      </trkpt>
      <trkpt lat="43.61869" lon="3.02043">
        <ele>690.8445</ele>
        <time>2013-06-02T13:52:43Z</time>
      </trkpt>
      <trkpt lat="43.61869" lon="3.02043">
        <ele>688.4414</ele>
        <time>2013-06-02T13:53:08Z</time>
      </trkpt>
      <trkpt lat="43.61869" lon="3.02043">
        <ele>687.48</ele>
        <time>2013-06-02T13:53:21Z</time>
      </trkpt>
      <trkpt lat="43.61868" lon="3.02041">
        <ele>687.9607</ele>
        <time>2013-06-02T13:53:26Z</time>
      </trkpt>
      <trkpt lat="43.61877" lon="3.02008">
        <ele>691.3252</ele>
        <time>2013-06-02T13:53:36Z</time>
      </trkpt>
      <trkpt lat="43.61877" lon="3.02004">
        <ele>691.3252</ele>
        <time>2013-06-02T13:53:37Z</time>
      </trkpt>
      <trkpt lat="43.61878" lon="3.01937">
        <ele>692.2866</ele>
        <time>2013-06-02T13:53:54Z</time>
      </trkpt>
      <trkpt lat="43.61878" lon="3.01919">
        <ele>692.2866</ele>
        <time>2013-06-02T13:54:03Z</time>
      </trkpt>
      <trkpt lat="43.61874" lon="3.01887">
        <ele>693.7285</ele>
        <time>2013-06-02T13:54:13Z</time>
      </trkpt>
      <trkpt lat="43.61873" lon="3.01883">
        <ele>693.7285</ele>
        <time>2013-06-02T13:54:14Z</time>
      </trkpt>
      <trkpt lat="43.61853" lon="3.01856">
        <ele>692.2866</ele>
        <time>2013-06-02T13:54:29Z</time>
      </trkpt>
      <trkpt lat="43.61845" lon="3.01805">
        <ele>691.3252</ele>
        <time>2013-06-02T13:54:39Z</time>
      </trkpt>
      <trkpt lat="43.61844" lon="3.01794">
        <ele>693.2478</ele>
        <time>2013-06-02T13:54:41Z</time>
      </trkpt>
      <trkpt lat="43.61843" lon="3.01778">
        <ele>691.8059</ele>
        <time>2013-06-02T13:54:44Z</time>
      </trkpt>
      <trkpt lat="43.61843" lon="3.01766">
        <ele>690.364</ele>
        <time>2013-06-02T13:54:46Z</time>
      </trkpt>
      <trkpt lat="43.61847" lon="3.01695">
        <ele>692.7673</ele>
        <time>2013-06-02T13:55:02Z</time>
      </trkpt>
      <trkpt lat="43.61854" lon="3.01642">
        <ele>695.6511</ele>
        <time>2013-06-02T13:55:14Z</time>
      </trkpt>
      <trkpt lat="43.61857" lon="3.01624">
        <ele>694.2092</ele>
        <time>2013-06-02T13:55:18Z</time>
      </trkpt>
      <trkpt lat="43.61857" lon="3.01612">
        <ele>694.2092</ele>
        <time>2013-06-02T13:55:21Z</time>
      </trkpt>
      <trkpt lat="43.61842" lon="3.01597">
        <ele>694.2092</ele>
        <time>2013-06-02T13:55:26Z</time>
      </trkpt>
      <trkpt lat="43.61832" lon="3.01552">
        <ele>692.7673</ele>
        <time>2013-06-02T13:55:39Z</time>
      </trkpt>
      <trkpt lat="43.61831" lon="3.01538">
        <ele>694.6897</ele>
        <time>2013-06-02T13:55:44Z</time>
      </trkpt>
      <trkpt lat="43.6183" lon="3.01529">
        <ele>696.1318</ele>
        <time>2013-06-02T13:55:48Z</time>
      </trkpt>
      <trkpt lat="43.61827" lon="3.01514">
        <ele>695.6511</ele>
        <time>2013-06-02T13:55:55Z</time>
      </trkpt>
      <trkpt lat="43.61824" lon="3.01492">
        <ele>699.9771</ele>
        <time>2013-06-02T13:56:02Z</time>
      </trkpt>
      <trkpt lat="43.61823" lon="3.01489">
        <ele>699.9771</ele>
        <time>2013-06-02T13:56:03Z</time>
      </trkpt>
      <trkpt lat="43.61822" lon="3.0148">
        <ele>700.458</ele>
        <time>2013-06-02T13:56:06Z</time>
      </trkpt>
      <trkpt lat="43.61823" lon="3.01463">
        <ele>701.4192</ele>
        <time>2013-06-02T13:56:11Z</time>
      </trkpt>
      <trkpt lat="43.61825" lon="3.0146">
        <ele>702.3804</ele>
        <time>2013-06-02T13:56:12Z</time>
      </trkpt>
      <trkpt lat="43.61827" lon="3.01455">
        <ele>702.8611</ele>
        <time>2013-06-02T13:56:14Z</time>
      </trkpt>
      <trkpt lat="43.61829" lon="3.01418">
        <ele>705.7451</ele>
        <time>2013-06-02T13:56:27Z</time>
      </trkpt>
      <trkpt lat="43.61829" lon="3.01409">
        <ele>706.2256</ele>
        <time>2013-06-02T13:56:30Z</time>
      </trkpt>
      <trkpt lat="43.61828" lon="3.01403">
        <ele>704.7837</ele>
        <time>2013-06-02T13:56:32Z</time>
      </trkpt>
      <trkpt lat="43.61829" lon="3.01393">
        <ele>706.2256</ele>
        <time>2013-06-02T13:56:36Z</time>
      </trkpt>
      <trkpt lat="43.61833" lon="3.01367">
        <ele>707.187</ele>
        <time>2013-06-02T13:56:45Z</time>
      </trkpt>
      <trkpt lat="43.61833" lon="3.01347">
        <ele>709.5903</ele>
        <time>2013-06-02T13:56:51Z</time>
      </trkpt>
      <trkpt lat="43.61834" lon="3.01341">
        <ele>711.0322</ele>
        <time>2013-06-02T13:56:53Z</time>
      </trkpt>
      <trkpt lat="43.61833" lon="3.01334">
        <ele>711.0322</ele>
        <time>2013-06-02T13:56:55Z</time>
      </trkpt>
      <trkpt lat="43.61829" lon="3.01285">
        <ele>715.3582</ele>
        <time>2013-06-02T13:57:11Z</time>
      </trkpt>
      <trkpt lat="43.61829" lon="3.01282">
        <ele>715.3582</ele>
        <time>2013-06-02T13:57:12Z</time>
      </trkpt>
      <trkpt lat="43.61824" lon="3.01256">
        <ele>716.3196</ele>
        <time>2013-06-02T13:57:21Z</time>
      </trkpt>
      <trkpt lat="43.61826" lon="3.01239">
        <ele>717.7615</ele>
        <time>2013-06-02T13:57:27Z</time>
      </trkpt>
      <trkpt lat="43.61829" lon="3.01232">
        <ele>716.8003</ele>
        <time>2013-06-02T13:57:30Z</time>
      </trkpt>
      <trkpt lat="43.61831" lon="3.01201">
        <ele>718.2422</ele>
        <time>2013-06-02T13:57:40Z</time>
      </trkpt>
      <trkpt lat="43.61833" lon="3.01196">
        <ele>719.6843</ele>
        <time>2013-06-02T13:57:42Z</time>
      </trkpt>
      <trkpt lat="43.61834" lon="3.0119">
        <ele>720.1648</ele>
        <time>2013-06-02T13:57:44Z</time>
      </trkpt>
      <trkpt lat="43.61833" lon="3.01177">
        <ele>717.281</ele>
        <time>2013-06-02T13:57:48Z</time>
      </trkpt>
      <trkpt lat="43.61833" lon="3.01171">
        <ele>715.8389</ele>
        <time>2013-06-02T13:57:50Z</time>
      </trkpt>
      <trkpt lat="43.61834" lon="3.01168">
        <ele>719.2036</ele>
        <time>2013-06-02T13:57:51Z</time>
      </trkpt>
      <trkpt lat="43.61834" lon="3.01165">
        <ele>719.2036</ele>
        <time>2013-06-02T13:57:52Z</time>
      </trkpt>
      <trkpt lat="43.61834" lon="3.0116">
        <ele>717.281</ele>
        <time>2013-06-02T13:57:54Z</time>
      </trkpt>
      <trkpt lat="43.61834" lon="3.01157">
        <ele>720.6455</ele>
        <time>2013-06-02T13:57:55Z</time>
      </trkpt>
      <trkpt lat="43.61834" lon="3.01153">
        <ele>720.6455</ele>
        <time>2013-06-02T13:57:56Z</time>
      </trkpt>
      <trkpt lat="43.61836" lon="3.01134">
        <ele>718.7229</ele>
        <time>2013-06-02T13:58:03Z</time>
      </trkpt>
      <trkpt lat="43.61835" lon="3.01123">
        <ele>719.2036</ele>
        <time>2013-06-02T13:58:07Z</time>
      </trkpt>
      <trkpt lat="43.61833" lon="3.01116">
        <ele>721.1262</ele>
        <time>2013-06-02T13:58:09Z</time>
      </trkpt>
      <trkpt lat="43.61827" lon="3.01086">
        <ele>724.4907</ele>
        <time>2013-06-02T13:58:19Z</time>
      </trkpt>
      <trkpt lat="43.61821" lon="3.01066">
        <ele>725.9326</ele>
        <time>2013-06-02T13:58:26Z</time>
      </trkpt>
      <trkpt lat="43.6182" lon="3.01059">
        <ele>723.0488</ele>
        <time>2013-06-02T13:58:28Z</time>
      </trkpt>
      <trkpt lat="43.61818" lon="3.01054">
        <ele>724.4907</ele>
        <time>2013-06-02T13:58:30Z</time>
      </trkpt>
      <trkpt lat="43.61816" lon="3.01049">
        <ele>723.0488</ele>
        <time>2013-06-02T13:58:32Z</time>
      </trkpt>
      <trkpt lat="43.61811" lon="3.01039">
        <ele>726.894</ele>
        <time>2013-06-02T13:58:36Z</time>
      </trkpt>
      <trkpt lat="43.6181" lon="3.01036">
        <ele>726.894</ele>
        <time>2013-06-02T13:58:37Z</time>
      </trkpt>
      <trkpt lat="43.61801" lon="3.01018">
        <ele>727.3748</ele>
        <time>2013-06-02T13:58:45Z</time>
      </trkpt>
      <trkpt lat="43.61793" lon="3.0099">
        <ele>730.2585</ele>
        <time>2013-06-02T13:58:55Z</time>
      </trkpt>
      <trkpt lat="43.61793" lon="3.00987">
        <ele>730.2585</ele>
        <time>2013-06-02T13:58:56Z</time>
      </trkpt>
      <trkpt lat="43.61781" lon="3.00965">
        <ele>730.7393</ele>
        <time>2013-06-02T13:59:06Z</time>
      </trkpt>
      <trkpt lat="43.61778" lon="3.00962">
        <ele>732.6621</ele>
        <time>2013-06-02T13:59:08Z</time>
      </trkpt>
      <trkpt lat="43.61769" lon="3.00951">
        <ele>735.0654</ele>
        <time>2013-06-02T13:59:15Z</time>
      </trkpt>
      <trkpt lat="43.61766" lon="3.00948">
        <ele>734.104</ele>
        <time>2013-06-02T13:59:17Z</time>
      </trkpt>
      <trkpt lat="43.61748" lon="3.0093">
        <ele>737.4685</ele>
        <time>2013-06-02T13:59:28Z</time>
      </trkpt>
      <trkpt lat="43.61742" lon="3.0092">
        <ele>738.4299</ele>
        <time>2013-06-02T13:59:34Z</time>
      </trkpt>
      <trkpt lat="43.61726" lon="3.00899">
        <ele>738.4299</ele>
        <time>2013-06-02T13:59:47Z</time>
      </trkpt>
      <trkpt lat="43.61699" lon="3.00873">
        <ele>740.3525</ele>
        <time>2013-06-02T13:59:57Z</time>
      </trkpt>
      <trkpt lat="43.61696" lon="3.00881">
        <ele>742.7559</ele>
        <time>2013-06-02T14:00:06Z</time>
      </trkpt>
      <trkpt lat="43.61714" lon="3.00903">
        <ele>745.6396</ele>
        <time>2013-06-02T14:00:18Z</time>
      </trkpt>
      <trkpt lat="43.61716" lon="3.00908">
        <ele>744.1978</ele>
        <time>2013-06-02T14:00:20Z</time>
      </trkpt>
      <trkpt lat="43.61721" lon="3.00919">
        <ele>746.1204</ele>
        <time>2013-06-02T14:00:24Z</time>
      </trkpt>
      <trkpt lat="43.61723" lon="3.00934">
        <ele>747.5623</ele>
        <time>2013-06-02T14:00:29Z</time>
      </trkpt>
      <trkpt lat="43.61725" lon="3.00951">
        <ele>747.5623</ele>
        <time>2013-06-02T14:00:35Z</time>
      </trkpt>
      <trkpt lat="43.61726" lon="3.00961">
        <ele>749.0044</ele>
        <time>2013-06-02T14:00:39Z</time>
      </trkpt>
      <trkpt lat="43.61738" lon="3.00989">
        <ele>749.0044</ele>
        <time>2013-06-02T14:00:48Z</time>
      </trkpt>
      <trkpt lat="43.61741" lon="3.00999">
        <ele>749.9658</ele>
        <time>2013-06-02T14:00:51Z</time>
      </trkpt>
      <trkpt lat="43.61736" lon="3.01004">
        <ele>751.4077</ele>
        <time>2013-06-02T14:00:54Z</time>
      </trkpt>
      <trkpt lat="43.61731" lon="3.00997">
        <ele>752.3689</ele>
        <time>2013-06-02T14:00:57Z</time>
      </trkpt>
      <trkpt lat="43.61725" lon="3.00984">
        <ele>753.3303</ele>
        <time>2013-06-02T14:01:02Z</time>
      </trkpt>
      <trkpt lat="43.61721" lon="3.00977">
        <ele>754.7722</ele>
        <time>2013-06-02T14:01:06Z</time>
      </trkpt>
      <trkpt lat="43.61718" lon="3.00972">
        <ele>753.3303</ele>
        <time>2013-06-02T14:01:08Z</time>
      </trkpt>
      <trkpt lat="43.61711" lon="3.00958">
        <ele>756.2141</ele>
        <time>2013-06-02T14:01:15Z</time>
      </trkpt>
      <trkpt lat="43.61684" lon="3.00931">
        <ele>759.0981</ele>
        <time>2013-06-02T14:01:28Z</time>
      </trkpt>
      <trkpt lat="43.61677" lon="3.00927">
        <ele>759.5789</ele>
        <time>2013-06-02T14:01:32Z</time>
      </trkpt>
      <trkpt lat="43.61643" lon="3.00918">
        <ele>761.9822</ele>
        <time>2013-06-02T14:01:48Z</time>
      </trkpt>
      <trkpt lat="43.61631" lon="3.00915">
        <ele>763.9045</ele>
        <time>2013-06-02T14:01:53Z</time>
      </trkpt>
      <trkpt lat="43.616" lon="3.0092">
        <ele>765.8276</ele>
        <time>2013-06-02T14:02:05Z</time>
      </trkpt>
      <trkpt lat="43.61582" lon="3.00895">
        <ele>768.7114</ele>
        <time>2013-06-02T14:02:15Z</time>
      </trkpt>
      <trkpt lat="43.61583" lon="3.00873">
        <ele>768.7114</ele>
        <time>2013-06-02T14:02:21Z</time>
      </trkpt>
      <trkpt lat="43.61586" lon="3.00852">
        <ele>771.1147</ele>
        <time>2013-06-02T14:02:27Z</time>
      </trkpt>
      <trkpt lat="43.61587" lon="3.00848">
        <ele>770.1533</ele>
        <time>2013-06-02T14:02:28Z</time>
      </trkpt>
      <trkpt lat="43.61597" lon="3.0082">
        <ele>773.0374</ele>
        <time>2013-06-02T14:02:38Z</time>
      </trkpt>
      <trkpt lat="43.61599" lon="3.00818">
        <ele>773.0374</ele>
        <time>2013-06-02T14:02:39Z</time>
      </trkpt>
      <trkpt lat="43.61609" lon="3.00776">
        <ele>774.96</ele>
        <time>2013-06-02T14:02:52Z</time>
      </trkpt>
      <trkpt lat="43.61611" lon="3.00756">
        <ele>774.96</ele>
        <time>2013-06-02T14:02:58Z</time>
      </trkpt>
      <trkpt lat="43.61608" lon="3.00707">
        <ele>773.9985</ele>
        <time>2013-06-02T14:03:12Z</time>
      </trkpt>
      <trkpt lat="43.61608" lon="3.00694">
        <ele>777.8438</ele>
        <time>2013-06-02T14:03:16Z</time>
      </trkpt>
      <trkpt lat="43.61607" lon="3.00691">
        <ele>777.8438</ele>
        <time>2013-06-02T14:03:17Z</time>
      </trkpt>
      <trkpt lat="43.61606" lon="3.00683">
        <ele>776.4019</ele>
        <time>2013-06-02T14:03:19Z</time>
      </trkpt>
      <trkpt lat="43.616" lon="3.0064">
        <ele>780.728</ele>
        <time>2013-06-02T14:03:31Z</time>
      </trkpt>
      <trkpt lat="43.616" lon="3.00637">
        <ele>780.728</ele>
        <time>2013-06-02T14:03:32Z</time>
      </trkpt>
      <trkpt lat="43.61599" lon="3.00605">
        <ele>784.0925</ele>
        <time>2013-06-02T14:03:41Z</time>
      </trkpt>
      <trkpt lat="43.61592" lon="3.00553">
        <ele>781.2087</ele>
        <time>2013-06-02T14:03:55Z</time>
      </trkpt>
      <trkpt lat="43.61591" lon="3.00546">
        <ele>783.6118</ele>
        <time>2013-06-02T14:03:57Z</time>
      </trkpt>
      <trkpt lat="43.61588" lon="3.00535">
        <ele>787.457</ele>
        <time>2013-06-02T14:04:00Z</time>
      </trkpt>
      <trkpt lat="43.61587" lon="3.00531">
        <ele>787.457</ele>
        <time>2013-06-02T14:04:01Z</time>
      </trkpt>
      <trkpt lat="43.61585" lon="3.00524">
        <ele>786.0151</ele>
        <time>2013-06-02T14:04:03Z</time>
      </trkpt>
      <trkpt lat="43.61582" lon="3.00507">
        <ele>786.9763</ele>
        <time>2013-06-02T14:04:08Z</time>
      </trkpt>
      <trkpt lat="43.61578" lon="3.00486">
        <ele>788.8992</ele>
        <time>2013-06-02T14:04:14Z</time>
      </trkpt>
      <trkpt lat="43.61575" lon="3.00471">
        <ele>791.3022</ele>
        <time>2013-06-02T14:04:18Z</time>
      </trkpt>
      <trkpt lat="43.61574" lon="3.00453">
        <ele>792.7444</ele>
        <time>2013-06-02T14:04:23Z</time>
      </trkpt>
      <trkpt lat="43.61573" lon="3.00445">
        <ele>794.1863</ele>
        <time>2013-06-02T14:04:25Z</time>
      </trkpt>
      <trkpt lat="43.61572" lon="3.00411">
        <ele>794.1863</ele>
        <time>2013-06-02T14:04:35Z</time>
      </trkpt>
      <trkpt lat="43.61571" lon="3.00404">
        <ele>795.1475</ele>
        <time>2013-06-02T14:04:37Z</time>
      </trkpt>
      <trkpt lat="43.61565" lon="3.00357">
        <ele>794.6667</ele>
        <time>2013-06-02T14:04:50Z</time>
      </trkpt>
      <trkpt lat="43.61565" lon="3.0035">
        <ele>791.783</ele>
        <time>2013-06-02T14:04:52Z</time>
      </trkpt>
      <trkpt lat="43.61564" lon="3.00346">
        <ele>796.1091</ele>
        <time>2013-06-02T14:04:53Z</time>
      </trkpt>
      <trkpt lat="43.61564" lon="3.00343">
        <ele>796.1091</ele>
        <time>2013-06-02T14:04:54Z</time>
      </trkpt>
      <trkpt lat="43.61563" lon="3.00329">
        <ele>798.5122</ele>
        <time>2013-06-02T14:04:58Z</time>
      </trkpt>
      <trkpt lat="43.61559" lon="3.00306">
        <ele>800.9155</ele>
        <time>2013-06-02T14:05:05Z</time>
      </trkpt>
      <trkpt lat="43.61558" lon="3.003">
        <ele>801.877</ele>
        <time>2013-06-02T14:05:07Z</time>
      </trkpt>
      <trkpt lat="43.61555" lon="3.00287">
        <ele>801.3962</ele>
        <time>2013-06-02T14:05:11Z</time>
      </trkpt>
      <trkpt lat="43.61553" lon="3.00285">
        <ele>800.9155</ele>
        <time>2013-06-02T14:05:13Z</time>
      </trkpt>
      <trkpt lat="43.61546" lon="3.00288">
        <ele>802.3574</ele>
        <time>2013-06-02T14:05:22Z</time>
      </trkpt>
      <trkpt lat="43.61546" lon="3.00288">
        <ele>801.3962</ele>
        <time>2013-06-02T14:05:40Z</time>
      </trkpt>
      <trkpt lat="43.61546" lon="3.00288">
        <ele>802.3574</ele>
        <time>2013-06-02T14:05:45Z</time>
      </trkpt>
      <trkpt lat="43.61546" lon="3.00288">
        <ele>800.4351</ele>
        <time>2013-06-02T14:05:47Z</time>
      </trkpt>
      <trkpt lat="43.61546" lon="3.00288">
        <ele>801.3962</ele>
        <time>2013-06-02T14:05:51Z</time>
      </trkpt>
      <trkpt lat="43.61546" lon="3.00288">
        <ele>803.3188</ele>
        <time>2013-06-02T14:05:57Z</time>
      </trkpt>
      <trkpt lat="43.61546" lon="3.00288">
        <ele>801.3962</ele>
        <time>2013-06-02T14:06:06Z</time>
      </trkpt>
      <trkpt lat="43.61547" lon="3.0029">
        <ele>799.4736</ele>
        <time>2013-06-02T14:06:14Z</time>
      </trkpt>
      <trkpt lat="43.61548" lon="3.00291">
        <ele>801.3962</ele>
        <time>2013-06-02T14:06:16Z</time>
      </trkpt>
      <trkpt lat="43.6155" lon="3.00293">
        <ele>800.4351</ele>
        <time>2013-06-02T14:06:20Z</time>
      </trkpt>
      <trkpt lat="43.61551" lon="3.00294">
        <ele>800.9155</ele>
        <time>2013-06-02T14:07:00Z</time>
      </trkpt>
      <trkpt lat="43.61551" lon="3.00294">
        <ele>801.877</ele>
        <time>2013-06-02T14:07:13Z</time>
      </trkpt>
      <trkpt lat="43.61551" lon="3.00294">
        <ele>800.9155</ele>
        <time>2013-06-02T14:07:32Z</time>
      </trkpt>
      <trkpt lat="43.61551" lon="3.00294">
        <ele>802.3574</ele>
        <time>2013-06-02T14:07:36Z</time>
      </trkpt>
      <trkpt lat="43.61551" lon="3.00294">
        <ele>804.7607</ele>
        <time>2013-06-02T14:07:47Z</time>
      </trkpt>
      <trkpt lat="43.61551" lon="3.00294">
        <ele>802.3574</ele>
        <time>2013-06-02T14:07:49Z</time>
      </trkpt>
      <trkpt lat="43.61551" lon="3.00294">
        <ele>801.3962</ele>
        <time>2013-06-02T14:07:57Z</time>
      </trkpt>
      <trkpt lat="43.61551" lon="3.00294">
        <ele>803.3188</ele>
        <time>2013-06-02T14:08:00Z</time>
      </trkpt>
      <trkpt lat="43.61551" lon="3.00294">
        <ele>802.3574</ele>
        <time>2013-06-02T14:08:08Z</time>
      </trkpt>
      <trkpt lat="43.61551" lon="3.00294">
        <ele>803.3188</ele>
        <time>2013-06-02T14:08:12Z</time>
      </trkpt>
      <trkpt lat="43.61551" lon="3.00294">
        <ele>801.3962</ele>
        <time>2013-06-02T14:08:17Z</time>
      </trkpt>
      <trkpt lat="43.61551" lon="3.00294">
        <ele>802.8381</ele>
        <time>2013-06-02T14:08:21Z</time>
      </trkpt>
      <trkpt lat="43.6155" lon="3.00295">
        <ele>801.877</ele>
        <time>2013-06-02T14:08:25Z</time>
      </trkpt>
      <trkpt lat="43.61547" lon="3.00305">
        <ele>799.9543</ele>
        <time>2013-06-02T14:08:29Z</time>
      </trkpt>
      <trkpt lat="43.6154" lon="3.00328">
        <ele>799.9543</ele>
        <time>2013-06-02T14:08:35Z</time>
      </trkpt>
      <trkpt lat="43.61538" lon="3.00342">
        <ele>802.3574</ele>
        <time>2013-06-02T14:08:38Z</time>
      </trkpt>
      <trkpt lat="43.61532" lon="3.00364">
        <ele>801.877</ele>
        <time>2013-06-02T14:08:42Z</time>
      </trkpt>
      <trkpt lat="43.61504" lon="3.00503">
        <ele>800.9155</ele>
        <time>2013-06-02T14:09:05Z</time>
      </trkpt>
      <trkpt lat="43.61502" lon="3.00525">
        <ele>796.5898</ele>
        <time>2013-06-02T14:09:09Z</time>
      </trkpt>
      <trkpt lat="43.61502" lon="3.0053">
        <ele>796.5898</ele>
        <time>2013-06-02T14:09:10Z</time>
      </trkpt>
      <trkpt lat="43.61501" lon="3.00541">
        <ele>798.0317</ele>
        <time>2013-06-02T14:09:12Z</time>
      </trkpt>
      <trkpt lat="43.61492" lon="3.00584">
        <ele>802.8381</ele>
        <time>2013-06-02T14:09:22Z</time>
      </trkpt>
      <trkpt lat="43.61491" lon="3.00587">
        <ele>802.8381</ele>
        <time>2013-06-02T14:09:23Z</time>
      </trkpt>
      <trkpt lat="43.61476" lon="3.00626">
        <ele>801.877</ele>
        <time>2013-06-02T14:09:33Z</time>
      </trkpt>
      <trkpt lat="43.61467" lon="3.00691">
        <ele>802.8381</ele>
        <time>2013-06-02T14:09:47Z</time>
      </trkpt>
      <trkpt lat="43.61448" lon="3.00791">
        <ele>806.2026</ele>
        <time>2013-06-02T14:10:11Z</time>
      </trkpt>
      <trkpt lat="43.61447" lon="3.00795">
        <ele>806.2026</ele>
        <time>2013-06-02T14:10:12Z</time>
      </trkpt>
      <trkpt lat="43.61447" lon="3.00803">
        <ele>804.7607</ele>
        <time>2013-06-02T14:10:14Z</time>
      </trkpt>
      <trkpt lat="43.61432" lon="3.00868">
        <ele>807.6448</ele>
        <time>2013-06-02T14:10:29Z</time>
      </trkpt>
      <trkpt lat="43.6143" lon="3.00873">
        <ele>808.1255</ele>
        <time>2013-06-02T14:10:30Z</time>
      </trkpt>
      <trkpt lat="43.61415" lon="3.00902">
        <ele>811.0093</ele>
        <time>2013-06-02T14:10:38Z</time>
      </trkpt>
      <trkpt lat="43.61401" lon="3.00924">
        <ele>813.4128</ele>
        <time>2013-06-02T14:10:46Z</time>
      </trkpt>
      <trkpt lat="43.61384" lon="3.00937">
        <ele>814.374</ele>
        <time>2013-06-02T14:10:54Z</time>
      </trkpt>
      <trkpt lat="43.61378" lon="3.00941">
        <ele>816.2966</ele>
        <time>2013-06-02T14:10:57Z</time>
      </trkpt>
      <trkpt lat="43.61375" lon="3.00944">
        <ele>817.2581</ele>
        <time>2013-06-02T14:10:59Z</time>
      </trkpt>
      <trkpt lat="43.61351" lon="3.00962">
        <ele>821.5837</ele>
        <time>2013-06-02T14:11:14Z</time>
      </trkpt>
      <trkpt lat="43.61347" lon="3.00965">
        <ele>821.5837</ele>
        <time>2013-06-02T14:11:18Z</time>
      </trkpt>
      <trkpt lat="43.61344" lon="3.00965">
        <ele>820.1418</ele>
        <time>2013-06-02T14:11:20Z</time>
      </trkpt>
      <trkpt lat="43.61332" lon="3.00966">
        <ele>819.1807</ele>
        <time>2013-06-02T14:11:24Z</time>
      </trkpt>
      <trkpt lat="43.61324" lon="3.00971">
        <ele>817.7385</ele>
        <time>2013-06-02T14:11:26Z</time>
      </trkpt>
      <trkpt lat="43.61321" lon="3.0098">
        <ele>818.7</ele>
        <time>2013-06-02T14:11:28Z</time>
      </trkpt>
      <trkpt lat="43.61308" lon="3.00996">
        <ele>817.2581</ele>
        <time>2013-06-02T14:11:36Z</time>
      </trkpt>
      <trkpt lat="43.61305" lon="3.01001">
        <ele>819.1807</ele>
        <time>2013-06-02T14:11:38Z</time>
      </trkpt>
      <trkpt lat="43.6127" lon="3.01032">
        <ele>819.1807</ele>
        <time>2013-06-02T14:11:52Z</time>
      </trkpt>
      <trkpt lat="43.61238" lon="3.01059">
        <ele>822.0645</ele>
        <time>2013-06-02T14:12:06Z</time>
      </trkpt>
      <trkpt lat="43.6122" lon="3.01083">
        <ele>824.9485</ele>
        <time>2013-06-02T14:12:17Z</time>
      </trkpt>
      <trkpt lat="43.61209" lon="3.01105">
        <ele>827.3518</ele>
        <time>2013-06-02T14:12:29Z</time>
      </trkpt>
      <trkpt lat="43.61206" lon="3.01111">
        <ele>826.8711</ele>
        <time>2013-06-02T14:12:33Z</time>
      </trkpt>
      <trkpt lat="43.61202" lon="3.0112">
        <ele>828.7939</ele>
        <time>2013-06-02T14:12:38Z</time>
      </trkpt>
      <trkpt lat="43.61188" lon="3.01145">
        <ele>832.1584</ele>
        <time>2013-06-02T14:12:53Z</time>
      </trkpt>
      <trkpt lat="43.61187" lon="3.01149">
        <ele>833.1196</ele>
        <time>2013-06-02T14:12:55Z</time>
      </trkpt>
      <trkpt lat="43.61182" lon="3.01162">
        <ele>835.0425</ele>
        <time>2013-06-02T14:13:02Z</time>
      </trkpt>
      <trkpt lat="43.61178" lon="3.01164">
        <ele>836.4844</ele>
        <time>2013-06-02T14:13:05Z</time>
      </trkpt>
      <trkpt lat="43.61159" lon="3.01167">
        <ele>833.1196</ele>
        <time>2013-06-02T14:13:13Z</time>
      </trkpt>
      <trkpt lat="43.61155" lon="3.01171">
        <ele>835.5229</ele>
        <time>2013-06-02T14:13:15Z</time>
      </trkpt>
      <trkpt lat="43.61147" lon="3.01172">
        <ele>836.9648</ele>
        <time>2013-06-02T14:13:18Z</time>
      </trkpt>
      <trkpt lat="43.61128" lon="3.01166">
        <ele>837.4456</ele>
        <time>2013-06-02T14:13:27Z</time>
      </trkpt>
      <trkpt lat="43.6112" lon="3.01154">
        <ele>831.1973</ele>
        <time>2013-06-02T14:13:30Z</time>
      </trkpt>
      <trkpt lat="43.6112" lon="3.01152">
        <ele>831.1973</ele>
        <time>2013-06-02T14:13:31Z</time>
      </trkpt>
      <trkpt lat="43.6112" lon="3.01149">
        <ele>830.2358</ele>
        <time>2013-06-02T14:13:33Z</time>
      </trkpt>
      <trkpt lat="43.61114" lon="3.01136">
        <ele>830.7166</ele>
        <time>2013-06-02T14:13:38Z</time>
      </trkpt>
      <trkpt lat="43.61106" lon="3.01128">
        <ele>831.6777</ele>
        <time>2013-06-02T14:13:42Z</time>
      </trkpt>
      <trkpt lat="43.61104" lon="3.01119">
        <ele>829.7551</ele>
        <time>2013-06-02T14:13:45Z</time>
      </trkpt>
      <trkpt lat="43.61102" lon="3.01115">
        <ele>829.2744</ele>
        <time>2013-06-02T14:13:47Z</time>
      </trkpt>
      <trkpt lat="43.61096" lon="3.01096">
        <ele>828.7939</ele>
        <time>2013-06-02T14:13:54Z</time>
      </trkpt>
      <trkpt lat="43.61096" lon="3.01092">
        <ele>825.9097</ele>
        <time>2013-06-02T14:13:56Z</time>
      </trkpt>
      <trkpt lat="43.61096" lon="3.01084">
        <ele>822.5452</ele>
        <time>2013-06-02T14:14:00Z</time>
      </trkpt>
      <trkpt lat="43.61097" lon="3.01077">
        <ele>825.429</ele>
        <time>2013-06-02T14:14:03Z</time>
      </trkpt>
      <trkpt lat="43.611" lon="3.01073">
        <ele>822.0645</ele>
        <time>2013-06-02T14:14:06Z</time>
      </trkpt>
      <trkpt lat="43.61101" lon="3.01073">
        <ele>820.6226</ele>
        <time>2013-06-02T14:14:08Z</time>
      </trkpt>
      <trkpt lat="43.61102" lon="3.01073">
        <ele>816.7773</ele>
        <time>2013-06-02T14:14:09Z</time>
      </trkpt>
      <trkpt lat="43.61102" lon="3.01073">
        <ele>816.7773</ele>
        <time>2013-06-02T14:14:10Z</time>
      </trkpt>
      <trkpt lat="43.61103" lon="3.01072">
        <ele>819.6614</ele>
        <time>2013-06-02T14:14:12Z</time>
      </trkpt>
      <trkpt lat="43.61104" lon="3.01072">
        <ele>823.9871</ele>
        <time>2013-06-02T14:14:14Z</time>
      </trkpt>
      <trkpt lat="43.61107" lon="3.01066">
        <ele>822.0645</ele>
        <time>2013-06-02T14:14:17Z</time>
      </trkpt>
      <trkpt lat="43.61108" lon="3.0106">
        <ele>821.5837</ele>
        <time>2013-06-02T14:14:19Z</time>
      </trkpt>
      <trkpt lat="43.6109" lon="3.01058">
        <ele>820.6226</ele>
        <time>2013-06-02T14:14:26Z</time>
      </trkpt>
      <trkpt lat="43.61079" lon="3.01066">
        <ele>823.0259</ele>
        <time>2013-06-02T14:14:31Z</time>
      </trkpt>
      <trkpt lat="43.61075" lon="3.01068">
        <ele>821.5837</ele>
        <time>2013-06-02T14:14:33Z</time>
      </trkpt>
      <trkpt lat="43.61068" lon="3.01074">
        <ele>820.1418</ele>
        <time>2013-06-02T14:14:36Z</time>
      </trkpt>
      <trkpt lat="43.61065" lon="3.01076">
        <ele>819.1807</ele>
        <time>2013-06-02T14:14:38Z</time>
      </trkpt>
      <trkpt lat="43.61059" lon="3.0108">
        <ele>819.6614</ele>
        <time>2013-06-02T14:14:42Z</time>
      </trkpt>
      <trkpt lat="43.61058" lon="3.01082">
        <ele>818.7</ele>
        <time>2013-06-02T14:14:44Z</time>
      </trkpt>
      <trkpt lat="43.61052" lon="3.01078">
        <ele>817.7385</ele>
        <time>2013-06-02T14:14:48Z</time>
      </trkpt>
      <trkpt lat="43.61049" lon="3.01066">
        <ele>815.3354</ele>
        <time>2013-06-02T14:14:52Z</time>
      </trkpt>
      <trkpt lat="43.61043" lon="3.01062">
        <ele>815.8162</ele>
        <time>2013-06-02T14:14:54Z</time>
      </trkpt>
      <trkpt lat="43.61031" lon="3.01044">
        <ele>813.8933</ele>
        <time>2013-06-02T14:14:59Z</time>
      </trkpt>
      <trkpt lat="43.61023" lon="3.01038">
        <ele>812.4514</ele>
        <time>2013-06-02T14:15:01Z</time>
      </trkpt>
      <trkpt lat="43.61013" lon="3.01028">
        <ele>810.0479</ele>
        <time>2013-06-02T14:15:06Z</time>
      </trkpt>
      <trkpt lat="43.6101" lon="3.01025">
        <ele>807.6448</ele>
        <time>2013-06-02T14:15:08Z</time>
      </trkpt>
      <trkpt lat="43.61008" lon="3.01022">
        <ele>810.0479</ele>
        <time>2013-06-02T14:15:10Z</time>
      </trkpt>
      <trkpt lat="43.61005" lon="3.01019">
        <ele>808.1255</ele>
        <time>2013-06-02T14:15:12Z</time>
      </trkpt>
      <trkpt lat="43.60993" lon="3.01016">
        <ele>809.0867</ele>
        <time>2013-06-02T14:15:16Z</time>
      </trkpt>
      <trkpt lat="43.60982" lon="3.0101">
        <ele>811.49</ele>
        <time>2013-06-02T14:15:20Z</time>
      </trkpt>
      <trkpt lat="43.60965" lon="3.01003">
        <ele>813.8933</ele>
        <time>2013-06-02T14:15:27Z</time>
      </trkpt>
      <trkpt lat="43.60952" lon="3.00997">
        <ele>815.8162</ele>
        <time>2013-06-02T14:15:33Z</time>
      </trkpt>
      <trkpt lat="43.6095" lon="3.00996">
        <ele>812.9321</ele>
        <time>2013-06-02T14:15:35Z</time>
      </trkpt>
      <trkpt lat="43.60942" lon="3.00994">
        <ele>813.8933</ele>
        <time>2013-06-02T14:15:52Z</time>
      </trkpt>
      <trkpt lat="43.60941" lon="3.00995">
        <ele>811.9707</ele>
        <time>2013-06-02T14:15:54Z</time>
      </trkpt>
      <trkpt lat="43.60936" lon="3.00992">
        <ele>815.8162</ele>
        <time>2013-06-02T14:16:01Z</time>
      </trkpt>
      <trkpt lat="43.60935" lon="3.00992">
        <ele>815.8162</ele>
        <time>2013-06-02T14:16:02Z</time>
      </trkpt>
      <trkpt lat="43.60935" lon="3.00991">
        <ele>819.1807</ele>
        <time>2013-06-02T14:16:03Z</time>
      </trkpt>
      <trkpt lat="43.6093" lon="3.00989">
        <ele>820.1418</ele>
        <time>2013-06-02T14:16:05Z</time>
      </trkpt>
      <trkpt lat="43.60929" lon="3.00989">
        <ele>818.7</ele>
        <time>2013-06-02T14:16:07Z</time>
      </trkpt>
      <trkpt lat="43.60926" lon="3.00989">
        <ele>816.2966</ele>
        <time>2013-06-02T14:16:09Z</time>
      </trkpt>
      <trkpt lat="43.60925" lon="3.00988">
        <ele>817.2581</ele>
        <time>2013-06-02T14:16:10Z</time>
      </trkpt>
      <trkpt lat="43.60922" lon="3.00986">
        <ele>819.1807</ele>
        <time>2013-06-02T14:16:17Z</time>
      </trkpt>
      <trkpt lat="43.60901" lon="3.00984">
        <ele>818.2192</ele>
        <time>2013-06-02T14:16:30Z</time>
      </trkpt>
      <trkpt lat="43.6089" lon="3.00986">
        <ele>817.7385</ele>
        <time>2013-06-02T14:16:36Z</time>
      </trkpt>
      <trkpt lat="43.60888" lon="3.00988">
        <ele>819.6614</ele>
        <time>2013-06-02T14:16:38Z</time>
      </trkpt>
      <trkpt lat="43.6086" lon="3.0099">
        <ele>820.1418</ele>
        <time>2013-06-02T14:16:47Z</time>
      </trkpt>
      <trkpt lat="43.60846" lon="3.00992">
        <ele>824.9485</ele>
        <time>2013-06-02T14:16:52Z</time>
      </trkpt>
      <trkpt lat="43.60844" lon="3.00992">
        <ele>824.9485</ele>
        <time>2013-06-02T14:16:53Z</time>
      </trkpt>
      <trkpt lat="43.60838" lon="3.00994">
        <ele>826.3904</ele>
        <time>2013-06-02T14:16:55Z</time>
      </trkpt>
      <trkpt lat="43.60833" lon="3.00995">
        <ele>824.4678</ele>
        <time>2013-06-02T14:16:57Z</time>
      </trkpt>
      <trkpt lat="43.60824" lon="3.00998">
        <ele>827.8323</ele>
        <time>2013-06-02T14:17:01Z</time>
      </trkpt>
      <trkpt lat="43.60821" lon="3.00998">
        <ele>827.8323</ele>
        <time>2013-06-02T14:17:02Z</time>
      </trkpt>
      <trkpt lat="43.60811" lon="3.01004">
        <ele>830.7166</ele>
        <time>2013-06-02T14:17:08Z</time>
      </trkpt>
      <trkpt lat="43.608" lon="3.01012">
        <ele>831.6777</ele>
        <time>2013-06-02T14:17:14Z</time>
      </trkpt>
      <trkpt lat="43.60793" lon="3.01022">
        <ele>831.1973</ele>
        <time>2013-06-02T14:17:18Z</time>
      </trkpt>
      <trkpt lat="43.60784" lon="3.01041">
        <ele>827.3518</ele>
        <time>2013-06-02T14:17:24Z</time>
      </trkpt>
      <trkpt lat="43.60783" lon="3.01045">
        <ele>827.3518</ele>
        <time>2013-06-02T14:17:25Z</time>
      </trkpt>
      <trkpt lat="43.60776" lon="3.01065">
        <ele>825.9097</ele>
        <time>2013-06-02T14:17:33Z</time>
      </trkpt>
      <trkpt lat="43.60772" lon="3.01074">
        <ele>824.4678</ele>
        <time>2013-06-02T14:17:36Z</time>
      </trkpt>
      <trkpt lat="43.60771" lon="3.0108">
        <ele>827.8323</ele>
        <time>2013-06-02T14:17:39Z</time>
      </trkpt>
      <trkpt lat="43.60769" lon="3.01092">
        <ele>828.7939</ele>
        <time>2013-06-02T14:17:45Z</time>
      </trkpt>
      <trkpt lat="43.60768" lon="3.01097">
        <ele>827.8323</ele>
        <time>2013-06-02T14:17:47Z</time>
      </trkpt>
      <trkpt lat="43.60766" lon="3.01103">
        <ele>829.2744</ele>
        <time>2013-06-02T14:17:50Z</time>
      </trkpt>
      <trkpt lat="43.6076" lon="3.01118">
        <ele>830.7166</ele>
        <time>2013-06-02T14:17:59Z</time>
      </trkpt>
      <trkpt lat="43.60756" lon="3.01122">
        <ele>832.1584</ele>
        <time>2013-06-02T14:18:09Z</time>
      </trkpt>
      <trkpt lat="43.60755" lon="3.01122">
        <ele>831.1973</ele>
        <time>2013-06-02T14:18:11Z</time>
      </trkpt>
      <trkpt lat="43.60755" lon="3.01123">
        <ele>832.1584</ele>
        <time>2013-06-02T14:18:18Z</time>
      </trkpt>
      <trkpt lat="43.60754" lon="3.01129">
        <ele>834.0811</ele>
        <time>2013-06-02T14:18:30Z</time>
      </trkpt>
      <trkpt lat="43.6075" lon="3.01129">
        <ele>834.0811</ele>
        <time>2013-06-02T14:18:39Z</time>
      </trkpt>
      <trkpt lat="43.60751" lon="3.01132">
        <ele>836.0037</ele>
        <time>2013-06-02T14:18:47Z</time>
      </trkpt>
      <trkpt lat="43.6074" lon="3.01136">
        <ele>834.0811</ele>
        <time>2013-06-02T14:18:56Z</time>
      </trkpt>
      <trkpt lat="43.60736" lon="3.01137">
        <ele>836.0037</ele>
        <time>2013-06-02T14:18:58Z</time>
      </trkpt>
      <trkpt lat="43.60735" lon="3.01138">
        <ele>833.1196</ele>
        <time>2013-06-02T14:19:00Z</time>
      </trkpt>
      <trkpt lat="43.60732" lon="3.01142">
        <ele>835.0425</ele>
        <time>2013-06-02T14:19:04Z</time>
      </trkpt>
      <trkpt lat="43.60725" lon="3.0115">
        <ele>833.6003</ele>
        <time>2013-06-02T14:19:09Z</time>
      </trkpt>
      <trkpt lat="43.60718" lon="3.01156">
        <ele>833.1196</ele>
        <time>2013-06-02T14:19:14Z</time>
      </trkpt>
      <trkpt lat="43.60712" lon="3.01164">
        <ele>833.6003</ele>
        <time>2013-06-02T14:19:25Z</time>
      </trkpt>
      <trkpt lat="43.60708" lon="3.01167">
        <ele>834.0811</ele>
        <time>2013-06-02T14:19:29Z</time>
      </trkpt>
      <trkpt lat="43.60698" lon="3.01175">
        <ele>834.5618</ele>
        <time>2013-06-02T14:19:39Z</time>
      </trkpt>
      <trkpt lat="43.60693" lon="3.01179">
        <ele>833.6003</ele>
        <time>2013-06-02T14:19:50Z</time>
      </trkpt>
      <trkpt lat="43.60689" lon="3.01179">
        <ele>831.6777</ele>
        <time>2013-06-02T14:19:53Z</time>
      </trkpt>
      <trkpt lat="43.60674" lon="3.01185">
        <ele>828.7939</ele>
        <time>2013-06-02T14:20:00Z</time>
      </trkpt>
      <trkpt lat="43.60672" lon="3.01187">
        <ele>828.7939</ele>
        <time>2013-06-02T14:20:01Z</time>
      </trkpt>
      <trkpt lat="43.60652" lon="3.01194">
        <ele>828.7939</ele>
        <time>2013-06-02T14:20:12Z</time>
      </trkpt>
      <trkpt lat="43.60652" lon="3.01195">
        <ele>827.3518</ele>
        <time>2013-06-02T14:20:14Z</time>
      </trkpt>
      <trkpt lat="43.60645" lon="3.01201">
        <ele>825.9097</ele>
        <time>2013-06-02T14:20:17Z</time>
      </trkpt>
      <trkpt lat="43.60638" lon="3.01211">
        <ele>824.4678</ele>
        <time>2013-06-02T14:20:20Z</time>
      </trkpt>
      <trkpt lat="43.60623" lon="3.01229">
        <ele>822.0645</ele>
        <time>2013-06-02T14:20:35Z</time>
      </trkpt>
      <trkpt lat="43.60619" lon="3.01236">
        <ele>822.0645</ele>
        <time>2013-06-02T14:20:46Z</time>
      </trkpt>
      <trkpt lat="43.60613" lon="3.01242">
        <ele>823.9871</ele>
        <time>2013-06-02T14:20:52Z</time>
      </trkpt>
      <trkpt lat="43.60609" lon="3.01245">
        <ele>828.3132</ele>
        <time>2013-06-02T14:21:01Z</time>
      </trkpt>
      <trkpt lat="43.60608" lon="3.01246">
        <ele>828.3132</ele>
        <time>2013-06-02T14:21:02Z</time>
      </trkpt>
      <trkpt lat="43.60606" lon="3.01247">
        <ele>826.8711</ele>
        <time>2013-06-02T14:21:05Z</time>
      </trkpt>
      <trkpt lat="43.60602" lon="3.01248">
        <ele>828.3132</ele>
        <time>2013-06-02T14:21:09Z</time>
      </trkpt>
      <trkpt lat="43.606" lon="3.01246">
        <ele>826.3904</ele>
        <time>2013-06-02T14:21:12Z</time>
      </trkpt>
      <trkpt lat="43.60588" lon="3.01251">
        <ele>823.0259</ele>
        <time>2013-06-02T14:21:28Z</time>
      </trkpt>
      <trkpt lat="43.60583" lon="3.01253">
        <ele>821.5837</ele>
        <time>2013-06-02T14:21:34Z</time>
      </trkpt>
      <trkpt lat="43.6058" lon="3.01255">
        <ele>823.9871</ele>
        <time>2013-06-02T14:21:38Z</time>
      </trkpt>
      <trkpt lat="43.60577" lon="3.01255">
        <ele>826.3904</ele>
        <time>2013-06-02T14:21:41Z</time>
      </trkpt>
      <trkpt lat="43.60575" lon="3.01254">
        <ele>826.3904</ele>
        <time>2013-06-02T14:21:45Z</time>
      </trkpt>
      <trkpt lat="43.60567" lon="3.01255">
        <ele>827.3518</ele>
        <time>2013-06-02T14:21:50Z</time>
      </trkpt>
      <trkpt lat="43.60561" lon="3.01253">
        <ele>826.3904</ele>
        <time>2013-06-02T14:21:53Z</time>
      </trkpt>
      <trkpt lat="43.60551" lon="3.01252">
        <ele>827.8323</ele>
        <time>2013-06-02T14:21:57Z</time>
      </trkpt>
      <trkpt lat="43.60547" lon="3.01252">
        <ele>829.2744</ele>
        <time>2013-06-02T14:22:01Z</time>
      </trkpt>
      <trkpt lat="43.60544" lon="3.01251">
        <ele>829.2744</ele>
        <time>2013-06-02T14:22:13Z</time>
      </trkpt>
      <trkpt lat="43.60541" lon="3.01247">
        <ele>830.2358</ele>
        <time>2013-06-02T14:22:16Z</time>
      </trkpt>
      <trkpt lat="43.60536" lon="3.01244">
        <ele>829.2744</ele>
        <time>2013-06-02T14:22:18Z</time>
      </trkpt>
      <trkpt lat="43.60533" lon="3.01242">
        <ele>828.3132</ele>
        <time>2013-06-02T14:22:20Z</time>
      </trkpt>
      <trkpt lat="43.60522" lon="3.01239">
        <ele>829.7551</ele>
        <time>2013-06-02T14:22:26Z</time>
      </trkpt>
      <trkpt lat="43.60516" lon="3.01236">
        <ele>826.8711</ele>
        <time>2013-06-02T14:22:28Z</time>
      </trkpt>
      <trkpt lat="43.60509" lon="3.01236">
        <ele>827.3518</ele>
        <time>2013-06-02T14:22:31Z</time>
      </trkpt>
      <trkpt lat="43.60506" lon="3.01237">
        <ele>827.3518</ele>
        <time>2013-06-02T14:22:33Z</time>
      </trkpt>
      <trkpt lat="43.60486" lon="3.0123">
        <ele>832.6392</ele>
        <time>2013-06-02T14:22:40Z</time>
      </trkpt>
      <trkpt lat="43.60482" lon="3.01229">
        <ele>832.6392</ele>
        <time>2013-06-02T14:22:41Z</time>
      </trkpt>
      <trkpt lat="43.60472" lon="3.01225">
        <ele>833.1196</ele>
        <time>2013-06-02T14:22:44Z</time>
      </trkpt>
      <trkpt lat="43.60461" lon="3.01241">
        <ele>829.2744</ele>
        <time>2013-06-02T14:22:51Z</time>
      </trkpt>
      <trkpt lat="43.60458" lon="3.01246">
        <ele>828.7939</ele>
        <time>2013-06-02T14:23:00Z</time>
      </trkpt>
      <trkpt lat="43.6045" lon="3.01261">
        <ele>830.7166</ele>
        <time>2013-06-02T14:23:08Z</time>
      </trkpt>
      <trkpt lat="43.60437" lon="3.01276">
        <ele>827.8323</ele>
        <time>2013-06-02T14:23:15Z</time>
      </trkpt>
      <trkpt lat="43.60435" lon="3.01284">
        <ele>828.7939</ele>
        <time>2013-06-02T14:23:19Z</time>
      </trkpt>
      <trkpt lat="43.60432" lon="3.01286">
        <ele>828.7939</ele>
        <time>2013-06-02T14:23:23Z</time>
      </trkpt>
      <trkpt lat="43.60428" lon="3.0129">
        <ele>829.2744</ele>
        <time>2013-06-02T14:23:27Z</time>
      </trkpt>
      <trkpt lat="43.60424" lon="3.01293">
        <ele>827.3518</ele>
        <time>2013-06-02T14:23:29Z</time>
      </trkpt>
      <trkpt lat="43.60422" lon="3.01297">
        <ele>826.8711</ele>
        <time>2013-06-02T14:23:32Z</time>
      </trkpt>
      <trkpt lat="43.60418" lon="3.013">
        <ele>823.0259</ele>
        <time>2013-06-02T14:23:34Z</time>
      </trkpt>
      <trkpt lat="43.60407" lon="3.01313">
        <ele>824.4678</ele>
        <time>2013-06-02T14:23:46Z</time>
      </trkpt>
      <trkpt lat="43.60407" lon="3.01312">
        <ele>821.1033</ele>
        <time>2013-06-02T14:23:49Z</time>
      </trkpt>
      <trkpt lat="43.60407" lon="3.01313">
        <ele>821.1033</ele>
        <time>2013-06-02T14:23:50Z</time>
      </trkpt>
      <trkpt lat="43.60405" lon="3.01316">
        <ele>823.0259</ele>
        <time>2013-06-02T14:23:53Z</time>
      </trkpt>
      <trkpt lat="43.60405" lon="3.01318">
        <ele>824.4678</ele>
        <time>2013-06-02T14:23:55Z</time>
      </trkpt>
      <trkpt lat="43.60403" lon="3.01322">
        <ele>823.9871</ele>
        <time>2013-06-02T14:24:00Z</time>
      </trkpt>
      <trkpt lat="43.604" lon="3.01324">
        <ele>825.429</ele>
        <time>2013-06-02T14:24:03Z</time>
      </trkpt>
      <trkpt lat="43.60397" lon="3.01329">
        <ele>825.429</ele>
        <time>2013-06-02T14:24:07Z</time>
      </trkpt>
      <trkpt lat="43.6039" lon="3.01336">
        <ele>826.3904</ele>
        <time>2013-06-02T14:24:19Z</time>
      </trkpt>
      <trkpt lat="43.60385" lon="3.01338">
        <ele>823.9871</ele>
        <time>2013-06-02T14:24:22Z</time>
      </trkpt>
      <trkpt lat="43.60382" lon="3.01341">
        <ele>825.429</ele>
        <time>2013-06-02T14:24:24Z</time>
      </trkpt>
      <trkpt lat="43.60381" lon="3.01342">
        <ele>825.9097</ele>
        <time>2013-06-02T14:24:25Z</time>
      </trkpt>
      <trkpt lat="43.6038" lon="3.01344">
        <ele>826.3904</ele>
        <time>2013-06-02T14:24:27Z</time>
      </trkpt>
      <trkpt lat="43.60374" lon="3.01346">
        <ele>824.9485</ele>
        <time>2013-06-02T14:24:32Z</time>
      </trkpt>
      <trkpt lat="43.60366" lon="3.01349">
        <ele>823.5066</ele>
        <time>2013-06-02T14:24:38Z</time>
      </trkpt>
      <trkpt lat="43.60359" lon="3.01357">
        <ele>822.5452</ele>
        <time>2013-06-02T14:24:43Z</time>
      </trkpt>
      <trkpt lat="43.60356" lon="3.01361">
        <ele>822.0645</ele>
        <time>2013-06-02T14:24:45Z</time>
      </trkpt>
      <trkpt lat="43.60348" lon="3.01364">
        <ele>819.6614</ele>
        <time>2013-06-02T14:24:49Z</time>
      </trkpt>
      <trkpt lat="43.60343" lon="3.01368">
        <ele>817.2581</ele>
        <time>2013-06-02T14:24:54Z</time>
      </trkpt>
      <trkpt lat="43.60341" lon="3.0137">
        <ele>819.6614</ele>
        <time>2013-06-02T14:24:57Z</time>
      </trkpt>
      <trkpt lat="43.60337" lon="3.01371">
        <ele>817.7385</ele>
        <time>2013-06-02T14:25:00Z</time>
      </trkpt>
      <trkpt lat="43.60334" lon="3.01374">
        <ele>817.7385</ele>
        <time>2013-06-02T14:25:06Z</time>
      </trkpt>
      <trkpt lat="43.6033" lon="3.01378">
        <ele>815.8162</ele>
        <time>2013-06-02T14:25:11Z</time>
      </trkpt>
      <trkpt lat="43.6033" lon="3.01377">
        <ele>816.2966</ele>
        <time>2013-06-02T14:25:17Z</time>
      </trkpt>
      <trkpt lat="43.60324" lon="3.0138">
        <ele>813.8933</ele>
        <time>2013-06-02T14:25:21Z</time>
      </trkpt>
      <trkpt lat="43.60323" lon="3.01382">
        <ele>812.4514</ele>
        <time>2013-06-02T14:25:23Z</time>
      </trkpt>
      <trkpt lat="43.6032" lon="3.01385">
        <ele>813.4128</ele>
        <time>2013-06-02T14:25:28Z</time>
      </trkpt>
      <trkpt lat="43.6032" lon="3.01387">
        <ele>816.7773</ele>
        <time>2013-06-02T14:25:29Z</time>
      </trkpt>
      <trkpt lat="43.60319" lon="3.01388">
        <ele>816.7773</ele>
        <time>2013-06-02T14:25:30Z</time>
      </trkpt>
      <trkpt lat="43.60316" lon="3.01395">
        <ele>814.8547</ele>
        <time>2013-06-02T14:25:38Z</time>
      </trkpt>
      <trkpt lat="43.60316" lon="3.01396">
        <ele>816.2966</ele>
        <time>2013-06-02T14:25:40Z</time>
      </trkpt>
      <trkpt lat="43.60313" lon="3.01399">
        <ele>818.2192</ele>
        <time>2013-06-02T14:25:45Z</time>
      </trkpt>
      <trkpt lat="43.60309" lon="3.01402">
        <ele>819.6614</ele>
        <time>2013-06-02T14:25:51Z</time>
      </trkpt>
      <trkpt lat="43.60308" lon="3.01403">
        <ele>818.2192</ele>
        <time>2013-06-02T14:25:53Z</time>
      </trkpt>
      <trkpt lat="43.60307" lon="3.01404">
        <ele>814.8547</ele>
        <time>2013-06-02T14:25:54Z</time>
      </trkpt>
      <trkpt lat="43.60307" lon="3.01405">
        <ele>814.8547</ele>
        <time>2013-06-02T14:25:55Z</time>
      </trkpt>
      <trkpt lat="43.60305" lon="3.01407">
        <ele>819.1807</ele>
        <time>2013-06-02T14:25:58Z</time>
      </trkpt>
      <trkpt lat="43.60303" lon="3.01407">
        <ele>822.0645</ele>
        <time>2013-06-02T14:26:00Z</time>
      </trkpt>
      <trkpt lat="43.60303" lon="3.01407">
        <ele>822.0645</ele>
        <time>2013-06-02T14:26:01Z</time>
      </trkpt>
      <trkpt lat="43.603" lon="3.01408">
        <ele>819.6614</ele>
        <time>2013-06-02T14:26:06Z</time>
      </trkpt>
      <trkpt lat="43.60298" lon="3.01407">
        <ele>819.1807</ele>
        <time>2013-06-02T14:26:08Z</time>
      </trkpt>
      <trkpt lat="43.60293" lon="3.01409">
        <ele>817.2581</ele>
        <time>2013-06-02T14:26:12Z</time>
      </trkpt>
      <trkpt lat="43.60291" lon="3.01412">
        <ele>819.6614</ele>
        <time>2013-06-02T14:26:16Z</time>
      </trkpt>
      <trkpt lat="43.60288" lon="3.01417">
        <ele>822.5452</ele>
        <time>2013-06-02T14:26:28Z</time>
      </trkpt>
      <trkpt lat="43.60288" lon="3.01419">
        <ele>825.429</ele>
        <time>2013-06-02T14:26:33Z</time>
      </trkpt>
      <trkpt lat="43.60287" lon="3.0142">
        <ele>826.8711</ele>
        <time>2013-06-02T14:26:35Z</time>
      </trkpt>
      <trkpt lat="43.60286" lon="3.01421">
        <ele>826.3904</ele>
        <time>2013-06-02T14:26:37Z</time>
      </trkpt>
      <trkpt lat="43.60282" lon="3.01422">
        <ele>825.9097</ele>
        <time>2013-06-02T14:26:41Z</time>
      </trkpt>
      <trkpt lat="43.60277" lon="3.01421">
        <ele>824.4678</ele>
        <time>2013-06-02T14:26:44Z</time>
      </trkpt>
      <trkpt lat="43.60274" lon="3.01418">
        <ele>823.0259</ele>
        <time>2013-06-02T14:26:48Z</time>
      </trkpt>
      <trkpt lat="43.60273" lon="3.01419">
        <ele>821.1033</ele>
        <time>2013-06-02T14:26:50Z</time>
      </trkpt>
      <trkpt lat="43.60262" lon="3.01422">
        <ele>823.9871</ele>
        <time>2013-06-02T14:26:57Z</time>
      </trkpt>
      <trkpt lat="43.60261" lon="3.01422">
        <ele>823.9871</ele>
        <time>2013-06-02T14:26:58Z</time>
      </trkpt>
      <trkpt lat="43.60249" lon="3.01422">
        <ele>826.3904</ele>
        <time>2013-06-02T14:27:05Z</time>
      </trkpt>
      <trkpt lat="43.60244" lon="3.01427">
        <ele>825.429</ele>
        <time>2013-06-02T14:27:09Z</time>
      </trkpt>
      <trkpt lat="43.60241" lon="3.01432">
        <ele>825.9097</ele>
        <time>2013-06-02T14:27:11Z</time>
      </trkpt>
      <trkpt lat="43.60221" lon="3.01464">
        <ele>826.3904</ele>
        <time>2013-06-02T14:27:26Z</time>
      </trkpt>
      <trkpt lat="43.6021" lon="3.01469">
        <ele>828.7939</ele>
        <time>2013-06-02T14:27:32Z</time>
      </trkpt>
      <trkpt lat="43.60206" lon="3.01476">
        <ele>829.2744</ele>
        <time>2013-06-02T14:27:36Z</time>
      </trkpt>
      <trkpt lat="43.60193" lon="3.01481">
        <ele>832.6392</ele>
        <time>2013-06-02T14:27:44Z</time>
      </trkpt>
      <trkpt lat="43.60189" lon="3.01482">
        <ele>834.0811</ele>
        <time>2013-06-02T14:27:47Z</time>
      </trkpt>
      <trkpt lat="43.60185" lon="3.01484">
        <ele>834.0811</ele>
        <time>2013-06-02T14:27:50Z</time>
      </trkpt>
      <trkpt lat="43.60179" lon="3.0148">
        <ele>832.1584</ele>
        <time>2013-06-02T14:27:53Z</time>
      </trkpt>
      <trkpt lat="43.60174" lon="3.01477">
        <ele>833.1196</ele>
        <time>2013-06-02T14:27:56Z</time>
      </trkpt>
      <trkpt lat="43.60159" lon="3.01476">
        <ele>837.4456</ele>
        <time>2013-06-02T14:28:05Z</time>
      </trkpt>
      <trkpt lat="43.60158" lon="3.01476">
        <ele>837.4456</ele>
        <time>2013-06-02T14:28:06Z</time>
      </trkpt>
      <trkpt lat="43.60154" lon="3.01475">
        <ele>836.0037</ele>
        <time>2013-06-02T14:28:08Z</time>
      </trkpt>
      <trkpt lat="43.60145" lon="3.01473">
        <ele>836.0037</ele>
        <time>2013-06-02T14:28:14Z</time>
      </trkpt>
      <trkpt lat="43.60137" lon="3.01472">
        <ele>838.8877</ele>
        <time>2013-06-02T14:28:20Z</time>
      </trkpt>
      <trkpt lat="43.60135" lon="3.01472">
        <ele>838.8877</ele>
        <time>2013-06-02T14:28:21Z</time>
      </trkpt>
      <trkpt lat="43.60131" lon="3.0147">
        <ele>836.9648</ele>
        <time>2013-06-02T14:28:24Z</time>
      </trkpt>
      <trkpt lat="43.60128" lon="3.01469">
        <ele>842.2522</ele>
        <time>2013-06-02T14:28:26Z</time>
      </trkpt>
      <trkpt lat="43.60127" lon="3.01468">
        <ele>842.2522</ele>
        <time>2013-06-02T14:28:27Z</time>
      </trkpt>
      <trkpt lat="43.60125" lon="3.01468">
        <ele>838.407</ele>
        <time>2013-06-02T14:28:28Z</time>
      </trkpt>
      <trkpt lat="43.60123" lon="3.01468">
        <ele>838.407</ele>
        <time>2013-06-02T14:28:29Z</time>
      </trkpt>
      <trkpt lat="43.60116" lon="3.0147">
        <ele>837.4456</ele>
        <time>2013-06-02T14:28:33Z</time>
      </trkpt>
      <trkpt lat="43.60111" lon="3.0147">
        <ele>840.8101</ele>
        <time>2013-06-02T14:28:36Z</time>
      </trkpt>
      <trkpt lat="43.60109" lon="3.01471">
        <ele>840.8101</ele>
        <time>2013-06-02T14:28:37Z</time>
      </trkpt>
      <trkpt lat="43.60103" lon="3.01472">
        <ele>841.7715</ele>
        <time>2013-06-02T14:28:41Z</time>
      </trkpt>
      <trkpt lat="43.601" lon="3.01474">
        <ele>845.6169</ele>
        <time>2013-06-02T14:28:43Z</time>
      </trkpt>
      <trkpt lat="43.60099" lon="3.01476">
        <ele>845.6169</ele>
        <time>2013-06-02T14:28:44Z</time>
      </trkpt>
      <trkpt lat="43.60097" lon="3.01479">
        <ele>845.6169</ele>
        <time>2013-06-02T14:28:46Z</time>
      </trkpt>
      <trkpt lat="43.60093" lon="3.01481">
        <ele>845.1362</ele>
        <time>2013-06-02T14:28:49Z</time>
      </trkpt>
      <trkpt lat="43.60089" lon="3.01482">
        <ele>843.2134</ele>
        <time>2013-06-02T14:28:52Z</time>
      </trkpt>
      <trkpt lat="43.60085" lon="3.01481">
        <ele>844.175</ele>
        <time>2013-06-02T14:28:55Z</time>
      </trkpt>
      <trkpt lat="43.60076" lon="3.01486">
        <ele>842.2522</ele>
        <time>2013-06-02T14:29:01Z</time>
      </trkpt>
      <trkpt lat="43.60074" lon="3.01486">
        <ele>845.6169</ele>
        <time>2013-06-02T14:29:02Z</time>
      </trkpt>
      <trkpt lat="43.60073" lon="3.01487">
        <ele>845.6169</ele>
        <time>2013-06-02T14:29:03Z</time>
      </trkpt>
      <trkpt lat="43.60072" lon="3.01488">
        <ele>850.9041</ele>
        <time>2013-06-02T14:29:04Z</time>
      </trkpt>
      <trkpt lat="43.6007" lon="3.01488">
        <ele>850.9041</ele>
        <time>2013-06-02T14:29:05Z</time>
      </trkpt>
      <trkpt lat="43.60065" lon="3.0149">
        <ele>848.5007</ele>
        <time>2013-06-02T14:29:08Z</time>
      </trkpt>
      <trkpt lat="43.6006" lon="3.01492">
        <ele>849.9429</ele>
        <time>2013-06-02T14:29:11Z</time>
      </trkpt>
      <trkpt lat="43.60056" lon="3.01493">
        <ele>850.4236</ele>
        <time>2013-06-02T14:29:13Z</time>
      </trkpt>
      <trkpt lat="43.60044" lon="3.01498">
        <ele>853.3074</ele>
        <time>2013-06-02T14:29:19Z</time>
      </trkpt>
      <trkpt lat="43.60041" lon="3.01499">
        <ele>853.3074</ele>
        <time>2013-06-02T14:29:20Z</time>
      </trkpt>
      <trkpt lat="43.60026" lon="3.01502">
        <ele>854.7493</ele>
        <time>2013-06-02T14:29:26Z</time>
      </trkpt>
      <trkpt lat="43.60016" lon="3.01507">
        <ele>853.7881</ele>
        <time>2013-06-02T14:29:30Z</time>
      </trkpt>
      <trkpt lat="43.60013" lon="3.01513">
        <ele>850.9041</ele>
        <time>2013-06-02T14:29:33Z</time>
      </trkpt>
      <trkpt lat="43.60011" lon="3.01517">
        <ele>849.9429</ele>
        <time>2013-06-02T14:29:35Z</time>
      </trkpt>
      <trkpt lat="43.6001" lon="3.0152">
        <ele>846.5784</ele>
        <time>2013-06-02T14:29:46Z</time>
      </trkpt>
      <trkpt lat="43.6001" lon="3.0152">
        <ele>846.5784</ele>
        <time>2013-06-02T14:29:47Z</time>
      </trkpt>
      <trkpt lat="43.6001" lon="3.0152">
        <ele>849.9429</ele>
        <time>2013-06-02T14:29:48Z</time>
      </trkpt>
      <trkpt lat="43.6001" lon="3.0152">
        <ele>849.9429</ele>
        <time>2013-06-02T14:29:49Z</time>
      </trkpt>
      <trkpt lat="43.6001" lon="3.0152">
        <ele>848.5007</ele>
        <time>2013-06-02T14:29:51Z</time>
      </trkpt>
      <trkpt lat="43.6001" lon="3.0152">
        <ele>850.4236</ele>
        <time>2013-06-02T14:29:53Z</time>
      </trkpt>
      <trkpt lat="43.6001" lon="3.0152">
        <ele>846.5784</ele>
        <time>2013-06-02T14:29:54Z</time>
      </trkpt>
      <trkpt lat="43.6001" lon="3.0152">
        <ele>848.9814</ele>
        <time>2013-06-02T14:29:55Z</time>
      </trkpt>
      <trkpt lat="43.6001" lon="3.0152">
        <ele>851.3848</ele>
        <time>2013-06-02T14:29:58Z</time>
      </trkpt>
      <trkpt lat="43.6001" lon="3.0152">
        <ele>848.9814</ele>
        <time>2013-06-02T14:30:02Z</time>
      </trkpt>
      <trkpt lat="43.6001" lon="3.0152">
        <ele>848.0203</ele>
        <time>2013-06-02T14:30:17Z</time>
      </trkpt>
      <trkpt lat="43.60009" lon="3.0152">
        <ele>850.4236</ele>
        <time>2013-06-02T14:30:19Z</time>
      </trkpt>
      <trkpt lat="43.60009" lon="3.01521">
        <ele>848.0203</ele>
        <time>2013-06-02T14:30:21Z</time>
      </trkpt>
      <trkpt lat="43.6001" lon="3.01521">
        <ele>849.4622</ele>
        <time>2013-06-02T14:30:31Z</time>
      </trkpt>
      <trkpt lat="43.6001" lon="3.01521">
        <ele>847.5396</ele>
        <time>2013-06-02T14:30:34Z</time>
      </trkpt>
      <trkpt lat="43.6001" lon="3.01521">
        <ele>848.9814</ele>
        <time>2013-06-02T14:30:36Z</time>
      </trkpt>
      <trkpt lat="43.6001" lon="3.01521">
        <ele>848.5007</ele>
        <time>2013-06-02T14:30:59Z</time>
      </trkpt>
      <trkpt lat="43.6001" lon="3.01521">
        <ele>849.9429</ele>
        <time>2013-06-02T14:31:01Z</time>
      </trkpt>
      <trkpt lat="43.6001" lon="3.01521">
        <ele>847.0588</ele>
        <time>2013-06-02T14:31:02Z</time>
      </trkpt>
      <trkpt lat="43.6001" lon="3.01521">
        <ele>847.0588</ele>
        <time>2013-06-02T14:31:03Z</time>
      </trkpt>
      <trkpt lat="43.6001" lon="3.01521">
        <ele>846.0977</ele>
        <time>2013-06-02T14:31:18Z</time>
      </trkpt>
      <trkpt lat="43.6001" lon="3.01521">
        <ele>847.5396</ele>
        <time>2013-06-02T14:31:50Z</time>
      </trkpt>
      <trkpt lat="43.6001" lon="3.01521">
        <ele>846.5784</ele>
        <time>2013-06-02T14:32:08Z</time>
      </trkpt>
      <trkpt lat="43.6001" lon="3.01521">
        <ele>846.0977</ele>
        <time>2013-06-02T14:32:17Z</time>
      </trkpt>
      <trkpt lat="43.6001" lon="3.01521">
        <ele>844.175</ele>
        <time>2013-06-02T14:32:21Z</time>
      </trkpt>
      <trkpt lat="43.6001" lon="3.01521">
        <ele>848.5007</ele>
        <time>2013-06-02T14:32:27Z</time>
      </trkpt>
      <trkpt lat="43.6001" lon="3.01521">
        <ele>848.5007</ele>
        <time>2013-06-02T14:32:28Z</time>
      </trkpt>
      <trkpt lat="43.6001" lon="3.01521">
        <ele>847.0588</ele>
        <time>2013-06-02T14:32:32Z</time>
      </trkpt>
      <trkpt lat="43.6001" lon="3.01521">
        <ele>845.1362</ele>
        <time>2013-06-02T14:32:34Z</time>
      </trkpt>
      <trkpt lat="43.6001" lon="3.01521">
        <ele>845.1362</ele>
        <time>2013-06-02T14:32:38Z</time>
      </trkpt>
      <trkpt lat="43.6001" lon="3.01521">
        <ele>847.5396</ele>
        <time>2013-06-02T14:32:47Z</time>
      </trkpt>
      <trkpt lat="43.6001" lon="3.01521">
        <ele>845.6169</ele>
        <time>2013-06-02T14:32:51Z</time>
      </trkpt>
      <trkpt lat="43.6001" lon="3.01521">
        <ele>847.5396</ele>
        <time>2013-06-02T14:32:55Z</time>
      </trkpt>
      <trkpt lat="43.6001" lon="3.01521">
        <ele>847.5396</ele>
        <time>2013-06-02T14:33:03Z</time>
      </trkpt>
      <trkpt lat="43.6001" lon="3.01521">
        <ele>848.0203</ele>
        <time>2013-06-02T14:33:33Z</time>
      </trkpt>
      <trkpt lat="43.6001" lon="3.01521">
        <ele>844.6555</ele>
        <time>2013-06-02T14:33:44Z</time>
      </trkpt>
      <trkpt lat="43.6001" lon="3.01521">
        <ele>848.0203</ele>
        <time>2013-06-02T14:33:47Z</time>
      </trkpt>
      <trkpt lat="43.6001" lon="3.01521">
        <ele>848.0203</ele>
        <time>2013-06-02T14:33:48Z</time>
      </trkpt>
      <trkpt lat="43.6001" lon="3.01521">
        <ele>846.5784</ele>
        <time>2013-06-02T14:33:50Z</time>
      </trkpt>
      <trkpt lat="43.6001" lon="3.01521">
        <ele>845.1362</ele>
        <time>2013-06-02T14:33:56Z</time>
      </trkpt>
      <trkpt lat="43.6001" lon="3.01521">
        <ele>847.5396</ele>
        <time>2013-06-02T14:34:07Z</time>
      </trkpt>
      <trkpt lat="43.6001" lon="3.01521">
        <ele>845.6169</ele>
        <time>2013-06-02T14:34:09Z</time>
      </trkpt>
      <trkpt lat="43.6001" lon="3.01521">
        <ele>845.6169</ele>
        <time>2013-06-02T14:34:17Z</time>
      </trkpt>
      <trkpt lat="43.6001" lon="3.01521">
        <ele>846.0977</ele>
        <time>2013-06-02T14:34:23Z</time>
      </trkpt>
      <trkpt lat="43.6001" lon="3.01521">
        <ele>844.175</ele>
        <time>2013-06-02T14:34:36Z</time>
      </trkpt>
      <trkpt lat="43.6001" lon="3.01521">
        <ele>845.6169</ele>
        <time>2013-06-02T14:34:38Z</time>
      </trkpt>
      <trkpt lat="43.6001" lon="3.01521">
        <ele>847.0588</ele>
        <time>2013-06-02T14:34:53Z</time>
      </trkpt>
      <trkpt lat="43.6001" lon="3.01521">
        <ele>845.1362</ele>
        <time>2013-06-02T14:35:10Z</time>
      </trkpt>
      <trkpt lat="43.6001" lon="3.01521">
        <ele>847.0588</ele>
        <time>2013-06-02T14:35:16Z</time>
      </trkpt>
      <trkpt lat="43.6001" lon="3.01521">
        <ele>846.0977</ele>
        <time>2013-06-02T14:35:31Z</time>
      </trkpt>
      <trkpt lat="43.6001" lon="3.01521">
        <ele>844.6555</ele>
        <time>2013-06-02T14:35:33Z</time>
      </trkpt>
      <trkpt lat="43.6001" lon="3.01521">
        <ele>848.9814</ele>
        <time>2013-06-02T14:35:36Z</time>
      </trkpt>
      <trkpt lat="43.6001" lon="3.01521">
        <ele>848.9814</ele>
        <time>2013-06-02T14:35:37Z</time>
      </trkpt>
      <trkpt lat="43.6001" lon="3.01521">
        <ele>845.1362</ele>
        <time>2013-06-02T14:35:39Z</time>
      </trkpt>
      <trkpt lat="43.6001" lon="3.01521">
        <ele>845.1362</ele>
        <time>2013-06-02T14:35:40Z</time>
      </trkpt>
      <trkpt lat="43.6001" lon="3.01521">
        <ele>846.0977</ele>
        <time>2013-06-02T14:35:46Z</time>
      </trkpt>
      <trkpt lat="43.6001" lon="3.01521">
        <ele>843.6941</ele>
        <time>2013-06-02T14:35:56Z</time>
      </trkpt>
      <trkpt lat="43.6001" lon="3.01521">
        <ele>846.0977</ele>
        <time>2013-06-02T14:36:11Z</time>
      </trkpt>
      <trkpt lat="43.6001" lon="3.01521">
        <ele>848.5007</ele>
        <time>2013-06-02T14:36:13Z</time>
      </trkpt>
      <trkpt lat="43.6001" lon="3.01521">
        <ele>845.1362</ele>
        <time>2013-06-02T14:36:17Z</time>
      </trkpt>
      <trkpt lat="43.6001" lon="3.01521">
        <ele>845.1362</ele>
        <time>2013-06-02T14:36:18Z</time>
      </trkpt>
      <trkpt lat="43.6001" lon="3.01521">
        <ele>846.0977</ele>
        <time>2013-06-02T14:36:24Z</time>
      </trkpt>
      <trkpt lat="43.6001" lon="3.01521">
        <ele>848.0203</ele>
        <time>2013-06-02T14:36:26Z</time>
      </trkpt>
      <trkpt lat="43.6001" lon="3.01521">
        <ele>846.5784</ele>
        <time>2013-06-02T14:36:34Z</time>
      </trkpt>
      <trkpt lat="43.6001" lon="3.01521">
        <ele>844.175</ele>
        <time>2013-06-02T14:36:39Z</time>
      </trkpt>
      <trkpt lat="43.6001" lon="3.01521">
        <ele>846.5784</ele>
        <time>2013-06-02T14:36:45Z</time>
      </trkpt>
      <trkpt lat="43.6001" lon="3.01521">
        <ele>845.6169</ele>
        <time>2013-06-02T14:36:49Z</time>
      </trkpt>
      <trkpt lat="43.6001" lon="3.01521">
        <ele>844.175</ele>
        <time>2013-06-02T14:37:06Z</time>
      </trkpt>
      <trkpt lat="43.6001" lon="3.01521">
        <ele>846.5784</ele>
        <time>2013-06-02T14:37:10Z</time>
      </trkpt>
      <trkpt lat="43.6001" lon="3.01521">
        <ele>845.6169</ele>
        <time>2013-06-02T14:37:23Z</time>
      </trkpt>
      <trkpt lat="43.6001" lon="3.01521">
        <ele>847.5396</ele>
        <time>2013-06-02T14:37:25Z</time>
      </trkpt>
      <trkpt lat="43.6001" lon="3.01521">
        <ele>846.5784</ele>
        <time>2013-06-02T14:37:27Z</time>
      </trkpt>
      <trkpt lat="43.6001" lon="3.01521">
        <ele>846.0977</ele>
        <time>2013-06-02T14:37:36Z</time>
      </trkpt>
      <trkpt lat="43.6001" lon="3.01521">
        <ele>847.5396</ele>
        <time>2013-06-02T14:37:38Z</time>
      </trkpt>
      <trkpt lat="43.6001" lon="3.01521">
        <ele>843.6941</ele>
        <time>2013-06-02T14:37:54Z</time>
      </trkpt>
      <trkpt lat="43.6001" lon="3.01521">
        <ele>843.6941</ele>
        <time>2013-06-02T14:37:55Z</time>
      </trkpt>
      <trkpt lat="43.6001" lon="3.01521">
        <ele>846.0977</ele>
        <time>2013-06-02T14:37:57Z</time>
      </trkpt>
      <trkpt lat="43.60009" lon="3.01521">
        <ele>846.0977</ele>
        <time>2013-06-02T14:38:07Z</time>
      </trkpt>
      <trkpt lat="43.60009" lon="3.01521">
        <ele>845.6169</ele>
        <time>2013-06-02T14:38:24Z</time>
      </trkpt>
      <trkpt lat="43.6001" lon="3.0152">
        <ele>848.0203</ele>
        <time>2013-06-02T14:38:37Z</time>
      </trkpt>
      <trkpt lat="43.60013" lon="3.01521">
        <ele>848.0203</ele>
        <time>2013-06-02T14:38:51Z</time>
      </trkpt>
      <trkpt lat="43.60013" lon="3.01521">
        <ele>848.0203</ele>
        <time>2013-06-02T14:38:52Z</time>
      </trkpt>
      <trkpt lat="43.60011" lon="3.01525">
        <ele>845.6169</ele>
        <time>2013-06-02T14:38:55Z</time>
      </trkpt>
      <trkpt lat="43.6001" lon="3.01528">
        <ele>845.6169</ele>
        <time>2013-06-02T14:38:56Z</time>
      </trkpt>
      <trkpt lat="43.60007" lon="3.01535">
        <ele>842.7329</ele>
        <time>2013-06-02T14:38:58Z</time>
      </trkpt>
      <trkpt lat="43.60006" lon="3.01542">
        <ele>846.5784</ele>
        <time>2013-06-02T14:39:01Z</time>
      </trkpt>
      <trkpt lat="43.60004" lon="3.01543">
        <ele>846.5784</ele>
        <time>2013-06-02T14:39:02Z</time>
      </trkpt>
      <trkpt lat="43.60001" lon="3.01548">
        <ele>844.175</ele>
        <time>2013-06-02T14:39:06Z</time>
      </trkpt>
      <trkpt lat="43.6" lon="3.0155">
        <ele>845.6169</ele>
        <time>2013-06-02T14:39:08Z</time>
      </trkpt>
      <trkpt lat="43.59996" lon="3.01555">
        <ele>843.2134</ele>
        <time>2013-06-02T14:39:11Z</time>
      </trkpt>
      <trkpt lat="43.59992" lon="3.01564">
        <ele>840.8101</ele>
        <time>2013-06-02T14:39:15Z</time>
      </trkpt>
      <trkpt lat="43.59988" lon="3.01569">
        <ele>839.3682</ele>
        <time>2013-06-02T14:39:17Z</time>
      </trkpt>
      <trkpt lat="43.59984" lon="3.01581">
        <ele>838.8877</ele>
        <time>2013-06-02T14:39:21Z</time>
      </trkpt>
      <trkpt lat="43.59978" lon="3.01593">
        <ele>837.4456</ele>
        <time>2013-06-02T14:39:25Z</time>
      </trkpt>
      <trkpt lat="43.59977" lon="3.01595">
        <ele>837.4456</ele>
        <time>2013-06-02T14:39:26Z</time>
      </trkpt>
      <trkpt lat="43.59974" lon="3.01594">
        <ele>836.0037</ele>
        <time>2013-06-02T14:39:31Z</time>
      </trkpt>
      <trkpt lat="43.59971" lon="3.016">
        <ele>835.0425</ele>
        <time>2013-06-02T14:39:36Z</time>
      </trkpt>
      <trkpt lat="43.59969" lon="3.01602">
        <ele>833.6003</ele>
        <time>2013-06-02T14:39:38Z</time>
      </trkpt>
      <trkpt lat="43.59964" lon="3.01605">
        <ele>833.6003</ele>
        <time>2013-06-02T14:39:42Z</time>
      </trkpt>
      <trkpt lat="43.59961" lon="3.01608">
        <ele>832.1584</ele>
        <time>2013-06-02T14:39:44Z</time>
      </trkpt>
      <trkpt lat="43.59943" lon="3.01621">
        <ele>829.2744</ele>
        <time>2013-06-02T14:39:53Z</time>
      </trkpt>
      <trkpt lat="43.59937" lon="3.01623">
        <ele>827.3518</ele>
        <time>2013-06-02T14:39:55Z</time>
      </trkpt>
      <trkpt lat="43.5992" lon="3.01628">
        <ele>830.2358</ele>
        <time>2013-06-02T14:40:00Z</time>
      </trkpt>
      <trkpt lat="43.59917" lon="3.01628">
        <ele>830.2358</ele>
        <time>2013-06-02T14:40:01Z</time>
      </trkpt>
      <trkpt lat="43.59909" lon="3.01631">
        <ele>830.7166</ele>
        <time>2013-06-02T14:40:04Z</time>
      </trkpt>
      <trkpt lat="43.599" lon="3.01629">
        <ele>833.1196</ele>
        <time>2013-06-02T14:40:08Z</time>
      </trkpt>
      <trkpt lat="43.59894" lon="3.01629">
        <ele>835.0425</ele>
        <time>2013-06-02T14:40:10Z</time>
      </trkpt>
      <trkpt lat="43.59881" lon="3.01627">
        <ele>837.9263</ele>
        <time>2013-06-02T14:40:16Z</time>
      </trkpt>
      <trkpt lat="43.59878" lon="3.01627">
        <ele>839.8489</ele>
        <time>2013-06-02T14:40:18Z</time>
      </trkpt>
      <trkpt lat="43.59877" lon="3.01626">
        <ele>838.407</ele>
        <time>2013-06-02T14:40:20Z</time>
      </trkpt>
      <trkpt lat="43.59873" lon="3.01624">
        <ele>835.5229</ele>
        <time>2013-06-02T14:40:27Z</time>
      </trkpt>
      <trkpt lat="43.59869" lon="3.01623">
        <ele>836.0037</ele>
        <time>2013-06-02T14:40:29Z</time>
      </trkpt>
      <trkpt lat="43.59865" lon="3.01623">
        <ele>833.1196</ele>
        <time>2013-06-02T14:40:31Z</time>
      </trkpt>
      <trkpt lat="43.59851" lon="3.01632">
        <ele>831.6777</ele>
        <time>2013-06-02T14:40:39Z</time>
      </trkpt>
      <trkpt lat="43.5985" lon="3.01634">
        <ele>828.7939</ele>
        <time>2013-06-02T14:40:40Z</time>
      </trkpt>
      <trkpt lat="43.59849" lon="3.01636">
        <ele>828.7939</ele>
        <time>2013-06-02T14:40:41Z</time>
      </trkpt>
      <trkpt lat="43.59843" lon="3.01643">
        <ele>825.429</ele>
        <time>2013-06-02T14:40:45Z</time>
      </trkpt>
      <trkpt lat="43.59843" lon="3.01644">
        <ele>825.429</ele>
        <time>2013-06-02T14:40:46Z</time>
      </trkpt>
      <trkpt lat="43.5984" lon="3.01646">
        <ele>822.5452</ele>
        <time>2013-06-02T14:40:52Z</time>
      </trkpt>
      <trkpt lat="43.59838" lon="3.01648">
        <ele>821.1033</ele>
        <time>2013-06-02T14:40:54Z</time>
      </trkpt>
      <trkpt lat="43.59837" lon="3.01646">
        <ele>823.9871</ele>
        <time>2013-06-02T14:40:58Z</time>
      </trkpt>
      <trkpt lat="43.59836" lon="3.01645">
        <ele>818.7</ele>
        <time>2013-06-02T14:40:59Z</time>
      </trkpt>
      <trkpt lat="43.59833" lon="3.01643">
        <ele>820.1418</ele>
        <time>2013-06-02T14:41:05Z</time>
      </trkpt>
      <trkpt lat="43.59833" lon="3.01643">
        <ele>818.7</ele>
        <time>2013-06-02T14:41:07Z</time>
      </trkpt>
      <trkpt lat="43.59823" lon="3.01645">
        <ele>815.3354</ele>
        <time>2013-06-02T14:41:14Z</time>
      </trkpt>
      <trkpt lat="43.59822" lon="3.01644">
        <ele>817.2581</ele>
        <time>2013-06-02T14:41:16Z</time>
      </trkpt>
      <trkpt lat="43.59822" lon="3.01641">
        <ele>822.0645</ele>
        <time>2013-06-02T14:41:18Z</time>
      </trkpt>
      <trkpt lat="43.59822" lon="3.0164">
        <ele>822.0645</ele>
        <time>2013-06-02T14:41:19Z</time>
      </trkpt>
      <trkpt lat="43.59822" lon="3.0164">
        <ele>819.1807</ele>
        <time>2013-06-02T14:41:21Z</time>
      </trkpt>
      <trkpt lat="43.59822" lon="3.01643">
        <ele>817.7385</ele>
        <time>2013-06-02T14:41:26Z</time>
      </trkpt>
      <trkpt lat="43.59822" lon="3.01643">
        <ele>817.7385</ele>
        <time>2013-06-02T14:41:32Z</time>
      </trkpt>
      <trkpt lat="43.59822" lon="3.01649">
        <ele>816.2966</ele>
        <time>2013-06-02T14:41:36Z</time>
      </trkpt>
      <trkpt lat="43.59822" lon="3.01653">
        <ele>817.2581</ele>
        <time>2013-06-02T14:41:38Z</time>
      </trkpt>
      <trkpt lat="43.59823" lon="3.01658">
        <ele>815.3354</ele>
        <time>2013-06-02T14:41:40Z</time>
      </trkpt>
      <trkpt lat="43.59822" lon="3.01664">
        <ele>815.8162</ele>
        <time>2013-06-02T14:41:42Z</time>
      </trkpt>
      <trkpt lat="43.59823" lon="3.01671">
        <ele>813.8933</ele>
        <time>2013-06-02T14:41:45Z</time>
      </trkpt>
      <trkpt lat="43.59823" lon="3.01675">
        <ele>815.3354</ele>
        <time>2013-06-02T14:41:47Z</time>
      </trkpt>
      <trkpt lat="43.5982" lon="3.01679">
        <ele>813.4128</ele>
        <time>2013-06-02T14:41:49Z</time>
      </trkpt>
      <trkpt lat="43.59819" lon="3.01684">
        <ele>811.49</ele>
        <time>2013-06-02T14:41:51Z</time>
      </trkpt>
      <trkpt lat="43.59819" lon="3.01686">
        <ele>811.9707</ele>
        <time>2013-06-02T14:41:52Z</time>
      </trkpt>
      <trkpt lat="43.59819" lon="3.01704">
        <ele>811.0093</ele>
        <time>2013-06-02T14:41:57Z</time>
      </trkpt>
      <trkpt lat="43.5982" lon="3.0171">
        <ele>810.0479</ele>
        <time>2013-06-02T14:41:59Z</time>
      </trkpt>
      <trkpt lat="43.59822" lon="3.01718">
        <ele>807.1641</ele>
        <time>2013-06-02T14:42:02Z</time>
      </trkpt>
      <trkpt lat="43.59823" lon="3.01721">
        <ele>804.7607</ele>
        <time>2013-06-02T14:42:04Z</time>
      </trkpt>
      <trkpt lat="43.59822" lon="3.01725">
        <ele>803.3188</ele>
        <time>2013-06-02T14:42:10Z</time>
      </trkpt>
      <trkpt lat="43.59822" lon="3.01726">
        <ele>803.7996</ele>
        <time>2013-06-02T14:42:12Z</time>
      </trkpt>
      <trkpt lat="43.59822" lon="3.01729">
        <ele>802.3574</ele>
        <time>2013-06-02T14:42:14Z</time>
      </trkpt>
      <trkpt lat="43.5982" lon="3.01746">
        <ele>797.551</ele>
        <time>2013-06-02T14:42:24Z</time>
      </trkpt>
      <trkpt lat="43.59819" lon="3.01751">
        <ele>797.551</ele>
        <time>2013-06-02T14:42:25Z</time>
      </trkpt>
      <trkpt lat="43.59817" lon="3.01772">
        <ele>795.6282</ele>
        <time>2013-06-02T14:42:35Z</time>
      </trkpt>
      <trkpt lat="43.59817" lon="3.01772">
        <ele>796.1091</ele>
        <time>2013-06-02T14:42:40Z</time>
      </trkpt>
      <trkpt lat="43.59818" lon="3.01772">
        <ele>794.1863</ele>
        <time>2013-06-02T14:42:44Z</time>
      </trkpt>
      <trkpt lat="43.59818" lon="3.01772">
        <ele>793.7056</ele>
        <time>2013-06-02T14:42:52Z</time>
      </trkpt>
      <trkpt lat="43.59818" lon="3.01772">
        <ele>790.8215</ele>
        <time>2013-06-02T14:42:59Z</time>
      </trkpt>
      <trkpt lat="43.59818" lon="3.01772">
        <ele>798.0317</ele>
        <time>2013-06-02T14:43:02Z</time>
      </trkpt>
      <trkpt lat="43.59818" lon="3.01772">
        <ele>798.0317</ele>
        <time>2013-06-02T14:43:03Z</time>
      </trkpt>
      <trkpt lat="43.59818" lon="3.01772">
        <ele>795.1475</ele>
        <time>2013-06-02T14:43:09Z</time>
      </trkpt>
      <trkpt lat="43.59818" lon="3.01772">
        <ele>796.1091</ele>
        <time>2013-06-02T14:43:36Z</time>
      </trkpt>
      <trkpt lat="43.59818" lon="3.01772">
        <ele>797.551</ele>
        <time>2013-06-02T14:43:41Z</time>
      </trkpt>
      <trkpt lat="43.59818" lon="3.01772">
        <ele>795.6282</ele>
        <time>2013-06-02T14:43:45Z</time>
      </trkpt>
      <trkpt lat="43.59818" lon="3.01772">
        <ele>793.7056</ele>
        <time>2013-06-02T14:43:49Z</time>
      </trkpt>
      <trkpt lat="43.59818" lon="3.01772">
        <ele>793.7056</ele>
        <time>2013-06-02T14:44:17Z</time>
      </trkpt>
      <trkpt lat="43.59818" lon="3.01772">
        <ele>795.1475</ele>
        <time>2013-06-02T14:44:19Z</time>
      </trkpt>
      <trkpt lat="43.59815" lon="3.01779">
        <ele>794.1863</ele>
        <time>2013-06-02T14:44:34Z</time>
      </trkpt>
      <trkpt lat="43.59804" lon="3.01821">
        <ele>793.2249</ele>
        <time>2013-06-02T14:44:49Z</time>
      </trkpt>
      <trkpt lat="43.59805" lon="3.01824">
        <ele>793.2249</ele>
        <time>2013-06-02T14:44:50Z</time>
      </trkpt>
      <trkpt lat="43.59803" lon="3.01841">
        <ele>791.3022</ele>
        <time>2013-06-02T14:44:55Z</time>
      </trkpt>
      <trkpt lat="43.59807" lon="3.01858">
        <ele>789.3796</ele>
        <time>2013-06-02T14:44:59Z</time>
      </trkpt>
      <trkpt lat="43.59808" lon="3.01861">
        <ele>790.3411</ele>
        <time>2013-06-02T14:45:00Z</time>
      </trkpt>
      <trkpt lat="43.59812" lon="3.01895">
        <ele>788.8992</ele>
        <time>2013-06-02T14:45:12Z</time>
      </trkpt>
      <trkpt lat="43.5981" lon="3.01905">
        <ele>785.054</ele>
        <time>2013-06-02T14:45:15Z</time>
      </trkpt>
      <trkpt lat="43.5981" lon="3.01908">
        <ele>785.054</ele>
        <time>2013-06-02T14:45:16Z</time>
      </trkpt>
      <trkpt lat="43.59807" lon="3.01935">
        <ele>783.1311</ele>
        <time>2013-06-02T14:45:22Z</time>
      </trkpt>
      <trkpt lat="43.59807" lon="3.01945">
        <ele>780.728</ele>
        <time>2013-06-02T14:45:24Z</time>
      </trkpt>
      <trkpt lat="43.59811" lon="3.01964">
        <ele>782.1699</ele>
        <time>2013-06-02T14:45:29Z</time>
      </trkpt>
      <trkpt lat="43.59812" lon="3.01975">
        <ele>780.2473</ele>
        <time>2013-06-02T14:45:31Z</time>
      </trkpt>
      <trkpt lat="43.59812" lon="3.01985">
        <ele>777.3633</ele>
        <time>2013-06-02T14:45:34Z</time>
      </trkpt>
      <trkpt lat="43.59813" lon="3.01988">
        <ele>777.8438</ele>
        <time>2013-06-02T14:45:35Z</time>
      </trkpt>
      <trkpt lat="43.59809" lon="3.01996">
        <ele>774.4792</ele>
        <time>2013-06-02T14:45:41Z</time>
      </trkpt>
      <trkpt lat="43.59807" lon="3.01994">
        <ele>775.4404</ele>
        <time>2013-06-02T14:45:42Z</time>
      </trkpt>
      <trkpt lat="43.59801" lon="3.01987">
        <ele>773.5181</ele>
        <time>2013-06-02T14:45:45Z</time>
      </trkpt>
      <trkpt lat="43.59797" lon="3.01982">
        <ele>772.0759</ele>
        <time>2013-06-02T14:45:47Z</time>
      </trkpt>
      <trkpt lat="43.59791" lon="3.01976">
        <ele>771.1147</ele>
        <time>2013-06-02T14:45:50Z</time>
      </trkpt>
      <trkpt lat="43.59789" lon="3.01973">
        <ele>769.6729</ele>
        <time>2013-06-02T14:45:51Z</time>
      </trkpt>
      <trkpt lat="43.59782" lon="3.01956">
        <ele>768.2307</ele>
        <time>2013-06-02T14:45:55Z</time>
      </trkpt>
      <trkpt lat="43.59777" lon="3.01949">
        <ele>767.75</ele>
        <time>2013-06-02T14:45:57Z</time>
      </trkpt>
      <trkpt lat="43.59774" lon="3.01942">
        <ele>766.3081</ele>
        <time>2013-06-02T14:45:59Z</time>
      </trkpt>
      <trkpt lat="43.59759" lon="3.01913">
        <ele>763.4241</ele>
        <time>2013-06-02T14:46:08Z</time>
      </trkpt>
      <trkpt lat="43.59752" lon="3.01903">
        <ele>761.0208</ele>
        <time>2013-06-02T14:46:11Z</time>
      </trkpt>
      <trkpt lat="43.59738" lon="3.01883">
        <ele>758.137</ele>
        <time>2013-06-02T14:46:18Z</time>
      </trkpt>
      <trkpt lat="43.5972" lon="3.01856">
        <ele>758.6174</ele>
        <time>2013-06-02T14:46:31Z</time>
      </trkpt>
      <trkpt lat="43.59714" lon="3.01859">
        <ele>755.2529</ele>
        <time>2013-06-02T14:46:35Z</time>
      </trkpt>
      <trkpt lat="43.59714" lon="3.01863">
        <ele>755.7336</ele>
        <time>2013-06-02T14:46:37Z</time>
      </trkpt>
      <trkpt lat="43.59718" lon="3.01872">
        <ele>751.4077</ele>
        <time>2013-06-02T14:46:40Z</time>
      </trkpt>
      <trkpt lat="43.59719" lon="3.01877">
        <ele>751.4077</ele>
        <time>2013-06-02T14:46:41Z</time>
      </trkpt>
      <trkpt lat="43.59732" lon="3.01936">
        <ele>748.5237</ele>
        <time>2013-06-02T14:46:56Z</time>
      </trkpt>
      <trkpt lat="43.59736" lon="3.01993">
        <ele>744.6782</ele>
        <time>2013-06-02T14:47:07Z</time>
      </trkpt>
      <trkpt lat="43.59736" lon="3.01996">
        <ele>744.6782</ele>
        <time>2013-06-02T14:47:08Z</time>
      </trkpt>
      <trkpt lat="43.59735" lon="3.02003">
        <ele>744.1978</ele>
        <time>2013-06-02T14:47:10Z</time>
      </trkpt>
      <trkpt lat="43.59732" lon="3.02005">
        <ele>742.7559</ele>
        <time>2013-06-02T14:47:12Z</time>
      </trkpt>
      <trkpt lat="43.5973" lon="3.01999">
        <ele>742.7559</ele>
        <time>2013-06-02T14:47:15Z</time>
      </trkpt>
      <trkpt lat="43.59726" lon="3.01986">
        <ele>740.833</ele>
        <time>2013-06-02T14:47:19Z</time>
      </trkpt>
      <trkpt lat="43.59721" lon="3.01968">
        <ele>737.4685</ele>
        <time>2013-06-02T14:47:24Z</time>
      </trkpt>
      <trkpt lat="43.59719" lon="3.01964">
        <ele>737.4685</ele>
        <time>2013-06-02T14:47:25Z</time>
      </trkpt>
      <trkpt lat="43.59717" lon="3.01961">
        <ele>737.4685</ele>
        <time>2013-06-02T14:47:26Z</time>
      </trkpt>
      <trkpt lat="43.59705" lon="3.01935">
        <ele>734.104</ele>
        <time>2013-06-02T14:47:34Z</time>
      </trkpt>
      <trkpt lat="43.5969" lon="3.01912">
        <ele>731.22</ele>
        <time>2013-06-02T14:47:41Z</time>
      </trkpt>
      <trkpt lat="43.59683" lon="3.01897">
        <ele>729.7778</ele>
        <time>2013-06-02T14:47:45Z</time>
      </trkpt>
      <trkpt lat="43.59677" lon="3.01894">
        <ele>728.8167</ele>
        <time>2013-06-02T14:47:47Z</time>
      </trkpt>
      <trkpt lat="43.5967" lon="3.01886">
        <ele>726.4133</ele>
        <time>2013-06-02T14:47:51Z</time>
      </trkpt>
      <trkpt lat="43.59664" lon="3.01886">
        <ele>724.9714</ele>
        <time>2013-06-02T14:47:55Z</time>
      </trkpt>
      <trkpt lat="43.59666" lon="3.01893">
        <ele>724.01</ele>
        <time>2013-06-02T14:47:58Z</time>
      </trkpt>
      <trkpt lat="43.59669" lon="3.01901">
        <ele>722.5681</ele>
        <time>2013-06-02T14:48:01Z</time>
      </trkpt>
      <trkpt lat="43.59669" lon="3.01905">
        <ele>721.6067</ele>
        <time>2013-06-02T14:48:02Z</time>
      </trkpt>
      <trkpt lat="43.59672" lon="3.01924">
        <ele>719.2036</ele>
        <time>2013-06-02T14:48:07Z</time>
      </trkpt>
      <trkpt lat="43.59677" lon="3.01947">
        <ele>717.7615</ele>
        <time>2013-06-02T14:48:12Z</time>
      </trkpt>
      <trkpt lat="43.59679" lon="3.01967">
        <ele>715.8389</ele>
        <time>2013-06-02T14:48:18Z</time>
      </trkpt>
      <trkpt lat="43.5968" lon="3.01981">
        <ele>714.3967</ele>
        <time>2013-06-02T14:48:22Z</time>
      </trkpt>
      <trkpt lat="43.59679" lon="3.01998">
        <ele>711.9937</ele>
        <time>2013-06-02T14:48:26Z</time>
      </trkpt>
      <trkpt lat="43.59674" lon="3.02023">
        <ele>709.1096</ele>
        <time>2013-06-02T14:48:34Z</time>
      </trkpt>
      <trkpt lat="43.59671" lon="3.0203">
        <ele>707.187</ele>
        <time>2013-06-02T14:48:37Z</time>
      </trkpt>
      <trkpt lat="43.59668" lon="3.02028">
        <ele>706.7063</ele>
        <time>2013-06-02T14:48:40Z</time>
      </trkpt>
      <trkpt lat="43.59666" lon="3.0202">
        <ele>705.2644</ele>
        <time>2013-06-02T14:48:43Z</time>
      </trkpt>
      <trkpt lat="43.59665" lon="3.02011">
        <ele>703.8225</ele>
        <time>2013-06-02T14:48:45Z</time>
      </trkpt>
      <trkpt lat="43.59664" lon="3.02007">
        <ele>702.8611</ele>
        <time>2013-06-02T14:48:47Z</time>
      </trkpt>
      <trkpt lat="43.59663" lon="3.02005">
        <ele>702.8611</ele>
        <time>2013-06-02T14:48:48Z</time>
      </trkpt>
      <trkpt lat="43.59661" lon="3.02001">
        <ele>703.3418</ele>
        <time>2013-06-02T14:49:15Z</time>
      </trkpt>
      <trkpt lat="43.59654" lon="3.01985">
        <ele>700.9385</ele>
        <time>2013-06-02T14:49:23Z</time>
      </trkpt>
      <trkpt lat="43.59649" lon="3.01974">
        <ele>699.4963</ele>
        <time>2013-06-02T14:49:25Z</time>
      </trkpt>
      <trkpt lat="43.59643" lon="3.01964">
        <ele>697.5737</ele>
        <time>2013-06-02T14:49:27Z</time>
      </trkpt>
      <trkpt lat="43.59637" lon="3.01958">
        <ele>695.6511</ele>
        <time>2013-06-02T14:49:29Z</time>
      </trkpt>
      <trkpt lat="43.59631" lon="3.01954">
        <ele>694.6897</ele>
        <time>2013-06-02T14:49:31Z</time>
      </trkpt>
      <trkpt lat="43.59626" lon="3.01948">
        <ele>695.6511</ele>
        <time>2013-06-02T14:49:33Z</time>
      </trkpt>
      <trkpt lat="43.59619" lon="3.01943">
        <ele>692.2866</ele>
        <time>2013-06-02T14:49:36Z</time>
      </trkpt>
      <trkpt lat="43.59617" lon="3.01941">
        <ele>692.2866</ele>
        <time>2013-06-02T14:49:37Z</time>
      </trkpt>
      <trkpt lat="43.59612" lon="3.01938">
        <ele>690.8445</ele>
        <time>2013-06-02T14:49:39Z</time>
      </trkpt>
      <trkpt lat="43.5961" lon="3.01936">
        <ele>690.364</ele>
        <time>2013-06-02T14:49:40Z</time>
      </trkpt>
      <trkpt lat="43.59608" lon="3.0194">
        <ele>692.2866</ele>
        <time>2013-06-02T14:49:44Z</time>
      </trkpt>
      <trkpt lat="43.59615" lon="3.01957">
        <ele>687.9607</ele>
        <time>2013-06-02T14:49:50Z</time>
      </trkpt>
      <trkpt lat="43.59617" lon="3.0196">
        <ele>687.9607</ele>
        <time>2013-06-02T14:49:51Z</time>
      </trkpt>
      <trkpt lat="43.59623" lon="3.01969">
        <ele>686.9993</ele>
        <time>2013-06-02T14:49:54Z</time>
      </trkpt>
      <trkpt lat="43.59623" lon="3.0201">
        <ele>684.1155</ele>
        <time>2013-06-02T14:50:03Z</time>
      </trkpt>
      <trkpt lat="43.59623" lon="3.02019">
        <ele>683.1538</ele>
        <time>2013-06-02T14:50:05Z</time>
      </trkpt>
      <trkpt lat="43.59625" lon="3.02053">
        <ele>679.7893</ele>
        <time>2013-06-02T14:50:13Z</time>
      </trkpt>
      <trkpt lat="43.59624" lon="3.02056">
        <ele>679.7893</ele>
        <time>2013-06-02T14:50:14Z</time>
      </trkpt>
      <trkpt lat="43.59618" lon="3.02052">
        <ele>676.4248</ele>
        <time>2013-06-02T14:50:22Z</time>
      </trkpt>
      <trkpt lat="43.59612" lon="3.0203">
        <ele>674.5022</ele>
        <time>2013-06-02T14:50:27Z</time>
      </trkpt>
      <trkpt lat="43.59605" lon="3.02017">
        <ele>672.5796</ele>
        <time>2013-06-02T14:50:30Z</time>
      </trkpt>
      <trkpt lat="43.59603" lon="3.02007">
        <ele>671.1377</ele>
        <time>2013-06-02T14:50:32Z</time>
      </trkpt>
      <trkpt lat="43.59597" lon="3.01999">
        <ele>668.7344</ele>
        <time>2013-06-02T14:50:34Z</time>
      </trkpt>
      <trkpt lat="43.5959" lon="3.02011">
        <ele>665.8503</ele>
        <time>2013-06-02T14:50:38Z</time>
      </trkpt>
      <trkpt lat="43.59592" lon="3.02023">
        <ele>662.0051</ele>
        <time>2013-06-02T14:50:41Z</time>
      </trkpt>
      <trkpt lat="43.59592" lon="3.02029">
        <ele>662.0051</ele>
        <time>2013-06-02T14:50:42Z</time>
      </trkpt>
      <trkpt lat="43.5959" lon="3.02055">
        <ele>660.563</ele>
        <time>2013-06-02T14:50:46Z</time>
      </trkpt>
      <trkpt lat="43.5959" lon="3.02073">
        <ele>658.1599</ele>
        <time>2013-06-02T14:50:49Z</time>
      </trkpt>
      <trkpt lat="43.59588" lon="3.02084">
        <ele>658.6404</ele>
        <time>2013-06-02T14:50:51Z</time>
      </trkpt>
      <trkpt lat="43.59585" lon="3.02097">
        <ele>655.7566</ele>
        <time>2013-06-02T14:50:53Z</time>
      </trkpt>
      <trkpt lat="43.59584" lon="3.02119">
        <ele>652.3918</ele>
        <time>2013-06-02T14:50:57Z</time>
      </trkpt>
      <trkpt lat="43.59584" lon="3.02123">
        <ele>652.3918</ele>
        <time>2013-06-02T14:50:58Z</time>
      </trkpt>
      <trkpt lat="43.59578" lon="3.02151">
        <ele>648.5464</ele>
        <time>2013-06-02T14:51:04Z</time>
      </trkpt>
      <trkpt lat="43.59577" lon="3.02155">
        <ele>648.5464</ele>
        <time>2013-06-02T14:51:05Z</time>
      </trkpt>
      <trkpt lat="43.59576" lon="3.02165">
        <ele>646.624</ele>
        <time>2013-06-02T14:51:07Z</time>
      </trkpt>
      <trkpt lat="43.59572" lon="3.02185">
        <ele>646.1433</ele>
        <time>2013-06-02T14:51:11Z</time>
      </trkpt>
      <trkpt lat="43.59571" lon="3.02196">
        <ele>644.7012</ele>
        <time>2013-06-02T14:51:14Z</time>
      </trkpt>
      <trkpt lat="43.59569" lon="3.02201">
        <ele>644.2207</ele>
        <time>2013-06-02T14:51:17Z</time>
      </trkpt>
      <trkpt lat="43.59567" lon="3.02203">
        <ele>642.7788</ele>
        <time>2013-06-02T14:51:21Z</time>
      </trkpt>
      <trkpt lat="43.59566" lon="3.022">
        <ele>641.8174</ele>
        <time>2013-06-02T14:51:23Z</time>
      </trkpt>
      <trkpt lat="43.59565" lon="3.02192">
        <ele>639.8948</ele>
        <time>2013-06-02T14:51:26Z</time>
      </trkpt>
      <trkpt lat="43.59564" lon="3.02188">
        <ele>638.4529</ele>
        <time>2013-06-02T14:51:27Z</time>
      </trkpt>
      <trkpt lat="43.59559" lon="3.02167">
        <ele>636.0496</ele>
        <time>2013-06-02T14:51:39Z</time>
      </trkpt>
      <trkpt lat="43.59559" lon="3.02167">
        <ele>635.0881</ele>
        <time>2013-06-02T14:51:52Z</time>
      </trkpt>
      <trkpt lat="43.5956" lon="3.02167">
        <ele>634.6074</ele>
        <time>2013-06-02T14:51:58Z</time>
      </trkpt>
      <trkpt lat="43.5956" lon="3.02167">
        <ele>638.9336</ele>
        <time>2013-06-02T14:52:26Z</time>
      </trkpt>
      <trkpt lat="43.5956" lon="3.02167">
        <ele>638.9336</ele>
        <time>2013-06-02T14:52:27Z</time>
      </trkpt>
      <trkpt lat="43.5956" lon="3.02167">
        <ele>637.4915</ele>
        <time>2013-06-02T14:52:32Z</time>
      </trkpt>
      <trkpt lat="43.5956" lon="3.02167">
        <ele>637.9722</ele>
        <time>2013-06-02T14:52:38Z</time>
      </trkpt>
      <trkpt lat="43.5956" lon="3.02167">
        <ele>639.4141</ele>
        <time>2013-06-02T14:52:53Z</time>
      </trkpt>
      <trkpt lat="43.59559" lon="3.02166">
        <ele>637.0107</ele>
        <time>2013-06-02T14:53:05Z</time>
      </trkpt>
      <trkpt lat="43.5956" lon="3.02166">
        <ele>639.4141</ele>
        <time>2013-06-02T14:53:10Z</time>
      </trkpt>
      <trkpt lat="43.59559" lon="3.02166">
        <ele>638.4529</ele>
        <time>2013-06-02T14:53:12Z</time>
      </trkpt>
      <trkpt lat="43.59559" lon="3.02166">
        <ele>636.5303</ele>
        <time>2013-06-02T14:53:14Z</time>
      </trkpt>
      <trkpt lat="43.59559" lon="3.02166">
        <ele>637.9722</ele>
        <time>2013-06-02T14:53:22Z</time>
      </trkpt>
      <trkpt lat="43.59555" lon="3.02146">
        <ele>637.0107</ele>
        <time>2013-06-02T14:53:52Z</time>
      </trkpt>
      <trkpt lat="43.59549" lon="3.0213">
        <ele>635.0881</ele>
        <time>2013-06-02T14:53:56Z</time>
      </trkpt>
      <trkpt lat="43.59544" lon="3.02122">
        <ele>632.2041</ele>
        <time>2013-06-02T14:53:58Z</time>
      </trkpt>
      <trkpt lat="43.59539" lon="3.02113">
        <ele>627.8782</ele>
        <time>2013-06-02T14:54:00Z</time>
      </trkpt>
      <trkpt lat="43.59537" lon="3.0211">
        <ele>627.8782</ele>
        <time>2013-06-02T14:54:01Z</time>
      </trkpt>
      <trkpt lat="43.59535" lon="3.02103">
        <ele>626.4363</ele>
        <time>2013-06-02T14:54:03Z</time>
      </trkpt>
      <trkpt lat="43.59529" lon="3.02094">
        <ele>625.4749</ele>
        <time>2013-06-02T14:54:05Z</time>
      </trkpt>
      <trkpt lat="43.59527" lon="3.02082">
        <ele>624.033</ele>
        <time>2013-06-02T14:54:07Z</time>
      </trkpt>
      <trkpt lat="43.59526" lon="3.02078">
        <ele>620.6685</ele>
        <time>2013-06-02T14:54:08Z</time>
      </trkpt>
      <trkpt lat="43.59524" lon="3.02074">
        <ele>621.6296</ele>
        <time>2013-06-02T14:54:09Z</time>
      </trkpt>
      <trkpt lat="43.59522" lon="3.02069">
        <ele>621.6296</ele>
        <time>2013-06-02T14:54:10Z</time>
      </trkpt>
      <trkpt lat="43.59505" lon="3.02063">
        <ele>620.6685</ele>
        <time>2013-06-02T14:54:14Z</time>
      </trkpt>
      <trkpt lat="43.59502" lon="3.02062">
        <ele>617.7842</ele>
        <time>2013-06-02T14:54:15Z</time>
      </trkpt>
      <trkpt lat="43.59494" lon="3.0206">
        <ele>616.823</ele>
        <time>2013-06-02T14:54:17Z</time>
      </trkpt>
      <trkpt lat="43.59486" lon="3.02059">
        <ele>614.9004</ele>
        <time>2013-06-02T14:54:19Z</time>
      </trkpt>
      <trkpt lat="43.5948" lon="3.0206">
        <ele>613.4585</ele>
        <time>2013-06-02T14:54:20Z</time>
      </trkpt>
      <trkpt lat="43.59468" lon="3.02062">
        <ele>612.0166</ele>
        <time>2013-06-02T14:54:23Z</time>
      </trkpt>
      <trkpt lat="43.59459" lon="3.02061">
        <ele>608.6519</ele>
        <time>2013-06-02T14:54:27Z</time>
      </trkpt>
      <trkpt lat="43.59455" lon="3.02061">
        <ele>608.6519</ele>
        <time>2013-06-02T14:54:28Z</time>
      </trkpt>
      <trkpt lat="43.59445" lon="3.02063">
        <ele>605.2874</ele>
        <time>2013-06-02T14:54:30Z</time>
      </trkpt>
      <trkpt lat="43.59441" lon="3.02066">
        <ele>605.2874</ele>
        <time>2013-06-02T14:54:31Z</time>
      </trkpt>
      <trkpt lat="43.59435" lon="3.02066">
        <ele>602.4031</ele>
        <time>2013-06-02T14:54:33Z</time>
      </trkpt>
      <trkpt lat="43.59428" lon="3.02071">
        <ele>602.4031</ele>
        <time>2013-06-02T14:54:37Z</time>
      </trkpt>
      <trkpt lat="43.59431" lon="3.02073">
        <ele>600.9612</ele>
        <time>2013-06-02T14:54:40Z</time>
      </trkpt>
      <trkpt lat="43.59439" lon="3.02077">
        <ele>600.9612</ele>
        <time>2013-06-02T14:54:43Z</time>
      </trkpt>
      <trkpt lat="43.59457" lon="3.0209">
        <ele>601.4419</ele>
        <time>2013-06-02T14:54:49Z</time>
      </trkpt>
      <trkpt lat="43.59465" lon="3.02094">
        <ele>599.0386</ele>
        <time>2013-06-02T14:54:53Z</time>
      </trkpt>
      <trkpt lat="43.59475" lon="3.02108">
        <ele>595.6741</ele>
        <time>2013-06-02T14:55:04Z</time>
      </trkpt>
      <trkpt lat="43.59471" lon="3.02125">
        <ele>594.7126</ele>
        <time>2013-06-02T14:55:08Z</time>
      </trkpt>
      <trkpt lat="43.59467" lon="3.02135">
        <ele>592.7903</ele>
        <time>2013-06-02T14:55:10Z</time>
      </trkpt>
      <trkpt lat="43.59463" lon="3.02143">
        <ele>590.387</ele>
        <time>2013-06-02T14:55:12Z</time>
      </trkpt>
      <trkpt lat="43.59455" lon="3.0216">
        <ele>587.5027</ele>
        <time>2013-06-02T14:55:15Z</time>
      </trkpt>
      <trkpt lat="43.59453" lon="3.02164">
        <ele>585.5801</ele>
        <time>2013-06-02T14:55:16Z</time>
      </trkpt>
      <trkpt lat="43.59449" lon="3.02182">
        <ele>585.0996</ele>
        <time>2013-06-02T14:55:19Z</time>
      </trkpt>
      <trkpt lat="43.59439" lon="3.02192">
        <ele>582.6963</ele>
        <time>2013-06-02T14:55:22Z</time>
      </trkpt>
      <trkpt lat="43.59427" lon="3.02212">
        <ele>582.2156</ele>
        <time>2013-06-02T14:55:26Z</time>
      </trkpt>
      <trkpt lat="43.59421" lon="3.02219">
        <ele>580.293</ele>
        <time>2013-06-02T14:55:28Z</time>
      </trkpt>
      <trkpt lat="43.59408" lon="3.02233">
        <ele>575.967</ele>
        <time>2013-06-02T14:55:32Z</time>
      </trkpt>
      <trkpt lat="43.59406" lon="3.02235">
        <ele>575.967</ele>
        <time>2013-06-02T14:55:33Z</time>
      </trkpt>
      <trkpt lat="43.59405" lon="3.02234">
        <ele>575.4863</ele>
        <time>2013-06-02T14:55:34Z</time>
      </trkpt>
      <trkpt lat="43.59403" lon="3.02222">
        <ele>575.4863</ele>
        <time>2013-06-02T14:55:38Z</time>
      </trkpt>
      <trkpt lat="43.59407" lon="3.02184">
        <ele>572.1218</ele>
        <time>2013-06-02T14:55:45Z</time>
      </trkpt>
      <trkpt lat="43.59415" lon="3.02177">
        <ele>571.6409</ele>
        <time>2013-06-02T14:55:49Z</time>
      </trkpt>
      <trkpt lat="43.5941" lon="3.02176">
        <ele>567.7957</ele>
        <time>2013-06-02T14:55:53Z</time>
      </trkpt>
      <trkpt lat="43.59407" lon="3.02178">
        <ele>567.7957</ele>
        <time>2013-06-02T14:55:54Z</time>
      </trkpt>
      <trkpt lat="43.59405" lon="3.02181">
        <ele>566.8345</ele>
        <time>2013-06-02T14:55:55Z</time>
      </trkpt>
      <trkpt lat="43.59396" lon="3.02194">
        <ele>566.3538</ele>
        <time>2013-06-02T14:55:57Z</time>
      </trkpt>
      <trkpt lat="43.59387" lon="3.02202">
        <ele>562.9893</ele>
        <time>2013-06-02T14:55:59Z</time>
      </trkpt>
      <trkpt lat="43.59385" lon="3.02204">
        <ele>562.9893</ele>
        <time>2013-06-02T14:56:00Z</time>
      </trkpt>
      <trkpt lat="43.5938" lon="3.02212">
        <ele>561.0667</ele>
        <time>2013-06-02T14:56:02Z</time>
      </trkpt>
      <trkpt lat="43.59375" lon="3.02216">
        <ele>560.1052</ele>
        <time>2013-06-02T14:56:06Z</time>
      </trkpt>
      <trkpt lat="43.5936" lon="3.02233">
        <ele>557.7021</ele>
        <time>2013-06-02T14:56:10Z</time>
      </trkpt>
      <trkpt lat="43.59347" lon="3.0225">
        <ele>555.7793</ele>
        <time>2013-06-02T14:56:14Z</time>
      </trkpt>
      <trkpt lat="43.59336" lon="3.02253">
        <ele>551.9341</ele>
        <time>2013-06-02T14:56:18Z</time>
      </trkpt>
      <trkpt lat="43.59332" lon="3.02254">
        <ele>551.9341</ele>
        <time>2013-06-02T14:56:19Z</time>
      </trkpt>
      <trkpt lat="43.59326" lon="3.02263">
        <ele>550.0115</ele>
        <time>2013-06-02T14:56:21Z</time>
      </trkpt>
      <trkpt lat="43.59322" lon="3.02267">
        <ele>550.0115</ele>
        <time>2013-06-02T14:56:23Z</time>
      </trkpt>
      <trkpt lat="43.5932" lon="3.0226">
        <ele>548.5693</ele>
        <time>2013-06-02T14:56:27Z</time>
      </trkpt>
      <trkpt lat="43.59327" lon="3.02252">
        <ele>547.6082</ele>
        <time>2013-06-02T14:56:30Z</time>
      </trkpt>
      <trkpt lat="43.59329" lon="3.02248">
        <ele>546.6469</ele>
        <time>2013-06-02T14:56:31Z</time>
      </trkpt>
      <trkpt lat="43.59333" lon="3.02239">
        <ele>545.6855</ele>
        <time>2013-06-02T14:56:33Z</time>
      </trkpt>
      <trkpt lat="43.59338" lon="3.02227">
        <ele>543.7628</ele>
        <time>2013-06-02T14:56:37Z</time>
      </trkpt>
      <trkpt lat="43.59338" lon="3.0222">
        <ele>543.2821</ele>
        <time>2013-06-02T14:56:39Z</time>
      </trkpt>
      <trkpt lat="43.59335" lon="3.02219">
        <ele>544.2437</ele>
        <time>2013-06-02T14:56:42Z</time>
      </trkpt>
      <trkpt lat="43.59322" lon="3.02225">
        <ele>541.8402</ele>
        <time>2013-06-02T14:56:47Z</time>
      </trkpt>
      <trkpt lat="43.59319" lon="3.02229">
        <ele>541.8402</ele>
        <time>2013-06-02T14:56:48Z</time>
      </trkpt>
      <trkpt lat="43.59308" lon="3.02235">
        <ele>537.5143</ele>
        <time>2013-06-02T14:56:53Z</time>
      </trkpt>
      <trkpt lat="43.59306" lon="3.02233">
        <ele>537.5143</ele>
        <time>2013-06-02T14:56:54Z</time>
      </trkpt>
      <trkpt lat="43.59282" lon="3.02244">
        <ele>536.0724</ele>
        <time>2013-06-02T14:57:00Z</time>
      </trkpt>
      <trkpt lat="43.59271" lon="3.02247">
        <ele>534.6304</ele>
        <time>2013-06-02T14:57:03Z</time>
      </trkpt>
      <trkpt lat="43.59265" lon="3.02247">
        <ele>533.1884</ele>
        <time>2013-06-02T14:57:05Z</time>
      </trkpt>
      <trkpt lat="43.59259" lon="3.02248">
        <ele>531.2657</ele>
        <time>2013-06-02T14:57:07Z</time>
      </trkpt>
      <trkpt lat="43.59257" lon="3.02248">
        <ele>530.3044</ele>
        <time>2013-06-02T14:57:25Z</time>
      </trkpt>
      <trkpt lat="43.59257" lon="3.02248">
        <ele>528.3818</ele>
        <time>2013-06-02T14:57:40Z</time>
      </trkpt>
      <trkpt lat="43.59258" lon="3.02249">
        <ele>528.3818</ele>
        <time>2013-06-02T14:57:59Z</time>
      </trkpt>
      <trkpt lat="43.59258" lon="3.02249">
        <ele>526.4591</ele>
        <time>2013-06-02T14:58:03Z</time>
      </trkpt>
      <trkpt lat="43.59258" lon="3.02249">
        <ele>525.4978</ele>
        <time>2013-06-02T14:58:07Z</time>
      </trkpt>
      <trkpt lat="43.59258" lon="3.02249">
        <ele>527.901</ele>
        <time>2013-06-02T14:58:09Z</time>
      </trkpt>
      <trkpt lat="43.59258" lon="3.02249">
        <ele>531.7463</ele>
        <time>2013-06-02T14:58:36Z</time>
      </trkpt>
      <trkpt lat="43.59258" lon="3.02249">
        <ele>531.7463</ele>
        <time>2013-06-02T14:58:37Z</time>
      </trkpt>
      <trkpt lat="43.59258" lon="3.02249">
        <ele>531.2657</ele>
        <time>2013-06-02T14:58:54Z</time>
      </trkpt>
      <trkpt lat="43.59258" lon="3.02249">
        <ele>531.7463</ele>
        <time>2013-06-02T14:59:17Z</time>
      </trkpt>
      <trkpt lat="43.59259" lon="3.0225">
        <ele>533.1884</ele>
        <time>2013-06-02T14:59:42Z</time>
      </trkpt>
      <trkpt lat="43.59259" lon="3.0225">
        <ele>535.111</ele>
        <time>2013-06-02T14:59:50Z</time>
      </trkpt>
      <trkpt lat="43.59259" lon="3.0225">
        <ele>533.6689</ele>
        <time>2013-06-02T14:59:53Z</time>
      </trkpt>
      <trkpt lat="43.59259" lon="3.0225">
        <ele>533.1884</ele>
        <time>2013-06-02T15:00:03Z</time>
      </trkpt>
      <trkpt lat="43.59259" lon="3.02251">
        <ele>533.1884</ele>
        <time>2013-06-02T15:01:13Z</time>
      </trkpt>
      <trkpt lat="43.59259" lon="3.02251">
        <ele>535.111</ele>
        <time>2013-06-02T15:01:15Z</time>
      </trkpt>
      <trkpt lat="43.5926" lon="3.02252">
        <ele>536.5531</ele>
        <time>2013-06-02T15:03:28Z</time>
      </trkpt>
      <trkpt lat="43.5926" lon="3.02252">
        <ele>539.4369</ele>
        <time>2013-06-02T15:04:10Z</time>
      </trkpt>
      <trkpt lat="43.5926" lon="3.02252">
        <ele>537.5143</ele>
        <time>2013-06-02T15:04:12Z</time>
      </trkpt>
      <trkpt lat="43.5926" lon="3.02252">
        <ele>537.5143</ele>
        <time>2013-06-02T15:04:19Z</time>
      </trkpt>
      <trkpt lat="43.59261" lon="3.02252">
        <ele>538.9563</ele>
        <time>2013-06-02T15:04:34Z</time>
      </trkpt>
      <trkpt lat="43.59261" lon="3.02252">
        <ele>537.995</ele>
        <time>2013-06-02T15:04:38Z</time>
      </trkpt>
      <trkpt lat="43.59261" lon="3.02252">
        <ele>539.9176</ele>
        <time>2013-06-02T15:04:53Z</time>
      </trkpt>
      <trkpt lat="43.59261" lon="3.02252">
        <ele>540.8789</ele>
        <time>2013-06-02T15:05:12Z</time>
      </trkpt>
      <trkpt lat="43.59261" lon="3.02252">
        <ele>542.8015</ele>
        <time>2013-06-02T15:05:37Z</time>
      </trkpt>
      <trkpt lat="43.59261" lon="3.02252">
        <ele>541.3595</ele>
        <time>2013-06-02T15:05:39Z</time>
      </trkpt>
      <trkpt lat="43.59261" lon="3.02252">
        <ele>543.2821</ele>
        <time>2013-06-02T15:05:54Z</time>
      </trkpt>
      <trkpt lat="43.59261" lon="3.02252">
        <ele>541.3595</ele>
        <time>2013-06-02T15:06:19Z</time>
      </trkpt>
      <trkpt lat="43.59261" lon="3.02252">
        <ele>543.2821</ele>
        <time>2013-06-02T15:06:21Z</time>
      </trkpt>
      <trkpt lat="43.59261" lon="3.02252">
        <ele>541.3595</ele>
        <time>2013-06-02T15:06:34Z</time>
      </trkpt>
      <trkpt lat="43.59261" lon="3.02252">
        <ele>540.3983</ele>
        <time>2013-06-02T15:06:55Z</time>
      </trkpt>
      <trkpt lat="43.59261" lon="3.02252">
        <ele>540.3983</ele>
        <time>2013-06-02T15:07:16Z</time>
      </trkpt>
      <trkpt lat="43.59261" lon="3.02252">
        <ele>539.4369</ele>
        <time>2013-06-02T15:07:39Z</time>
      </trkpt>
      <trkpt lat="43.59261" lon="3.02251">
        <ele>543.2821</ele>
        <time>2013-06-02T15:08:03Z</time>
      </trkpt>
      <trkpt lat="43.59261" lon="3.02251">
        <ele>543.2821</ele>
        <time>2013-06-02T15:08:04Z</time>
      </trkpt>
      <trkpt lat="43.59261" lon="3.02251">
        <ele>544.7242</ele>
        <time>2013-06-02T15:08:21Z</time>
      </trkpt>
      <trkpt lat="43.59261" lon="3.02251">
        <ele>543.2821</ele>
        <time>2013-06-02T15:08:24Z</time>
      </trkpt>
      <trkpt lat="43.59261" lon="3.02251">
        <ele>545.2048</ele>
        <time>2013-06-02T15:08:26Z</time>
      </trkpt>
      <trkpt lat="43.59261" lon="3.02251">
        <ele>544.2437</ele>
        <time>2013-06-02T15:08:30Z</time>
      </trkpt>
      <trkpt lat="43.59261" lon="3.02251">
        <ele>544.2437</ele>
        <time>2013-06-02T15:08:38Z</time>
      </trkpt>
      <trkpt lat="43.59261" lon="3.02251">
        <ele>543.7628</ele>
        <time>2013-06-02T15:08:45Z</time>
      </trkpt>
      <trkpt lat="43.59261" lon="3.02251">
        <ele>545.6855</ele>
        <time>2013-06-02T15:08:49Z</time>
      </trkpt>
      <trkpt lat="43.59261" lon="3.02251">
        <ele>544.7242</ele>
        <time>2013-06-02T15:08:51Z</time>
      </trkpt>
      <trkpt lat="43.59261" lon="3.02251">
        <ele>546.1663</ele>
        <time>2013-06-02T15:08:59Z</time>
      </trkpt>
      <trkpt lat="43.59261" lon="3.02251">
        <ele>542.3209</ele>
        <time>2013-06-02T15:09:01Z</time>
      </trkpt>
      <trkpt lat="43.59261" lon="3.02251">
        <ele>542.3209</ele>
        <time>2013-06-02T15:09:02Z</time>
      </trkpt>
      <trkpt lat="43.59261" lon="3.02251">
        <ele>543.7628</ele>
        <time>2013-06-02T15:09:04Z</time>
      </trkpt>
      <trkpt lat="43.59261" lon="3.02251">
        <ele>542.8015</ele>
        <time>2013-06-02T15:09:08Z</time>
      </trkpt>
      <trkpt lat="43.59261" lon="3.02251">
        <ele>540.8789</ele>
        <time>2013-06-02T15:09:14Z</time>
      </trkpt>
      <trkpt lat="43.59262" lon="3.02251">
        <ele>540.8789</ele>
        <time>2013-06-02T15:09:44Z</time>
      </trkpt>
      <trkpt lat="43.59262" lon="3.02251">
        <ele>539.4369</ele>
        <time>2013-06-02T15:09:48Z</time>
      </trkpt>
      <trkpt lat="43.59262" lon="3.02251">
        <ele>539.9176</ele>
        <time>2013-06-02T15:09:54Z</time>
      </trkpt>
      <trkpt lat="43.59262" lon="3.0225">
        <ele>541.3595</ele>
        <time>2013-06-02T15:09:59Z</time>
      </trkpt>
      <trkpt lat="43.59263" lon="3.0225">
        <ele>539.9176</ele>
        <time>2013-06-02T15:10:01Z</time>
      </trkpt>
      <trkpt lat="43.59263" lon="3.02251">
        <ele>541.3595</ele>
        <time>2013-06-02T15:10:09Z</time>
      </trkpt>
      <trkpt lat="43.59263" lon="3.02251">
        <ele>538.9563</ele>
        <time>2013-06-02T15:10:11Z</time>
      </trkpt>
      <trkpt lat="43.59264" lon="3.02251">
        <ele>540.3983</ele>
        <time>2013-06-02T15:10:13Z</time>
      </trkpt>
      <trkpt lat="43.59264" lon="3.02251">
        <ele>543.2821</ele>
        <time>2013-06-02T15:10:28Z</time>
      </trkpt>
      <trkpt lat="43.59264" lon="3.02251">
        <ele>539.9176</ele>
        <time>2013-06-02T15:10:48Z</time>
      </trkpt>
      <trkpt lat="43.59263" lon="3.02251">
        <ele>537.5143</ele>
        <time>2013-06-02T15:11:04Z</time>
      </trkpt>
      <trkpt lat="43.59257" lon="3.02247">
        <ele>537.5143</ele>
        <time>2013-06-02T15:11:08Z</time>
      </trkpt>
      <trkpt lat="43.59263" lon="3.02238">
        <ele>535.5916</ele>
        <time>2013-06-02T15:11:14Z</time>
      </trkpt>
      <trkpt lat="43.59268" lon="3.02233">
        <ele>534.1497</ele>
        <time>2013-06-02T15:11:17Z</time>
      </trkpt>
      <trkpt lat="43.59269" lon="3.02229">
        <ele>535.111</ele>
        <time>2013-06-02T15:11:19Z</time>
      </trkpt>
      <trkpt lat="43.59269" lon="3.02224">
        <ele>534.1497</ele>
        <time>2013-06-02T15:11:21Z</time>
      </trkpt>
      <trkpt lat="43.59268" lon="3.02217">
        <ele>533.1884</ele>
        <time>2013-06-02T15:11:33Z</time>
      </trkpt>
      <trkpt lat="43.59265" lon="3.02216">
        <ele>531.2657</ele>
        <time>2013-06-02T15:11:35Z</time>
      </trkpt>
      <trkpt lat="43.59262" lon="3.02214">
        <ele>532.2271</ele>
        <time>2013-06-02T15:11:38Z</time>
      </trkpt>
      <trkpt lat="43.59259" lon="3.02212">
        <ele>534.1497</ele>
        <time>2013-06-02T15:11:40Z</time>
      </trkpt>
      <trkpt lat="43.59256" lon="3.02211">
        <ele>530.7852</ele>
        <time>2013-06-02T15:11:42Z</time>
      </trkpt>
      <trkpt lat="43.59249" lon="3.02208">
        <ele>532.2271</ele>
        <time>2013-06-02T15:11:46Z</time>
      </trkpt>
      <trkpt lat="43.59249" lon="3.02205">
        <ele>530.3044</ele>
        <time>2013-06-02T15:11:49Z</time>
      </trkpt>
      <trkpt lat="43.59252" lon="3.02204">
        <ele>530.3044</ele>
        <time>2013-06-02T15:11:51Z</time>
      </trkpt>
      <trkpt lat="43.59257" lon="3.02197">
        <ele>527.901</ele>
        <time>2013-06-02T15:11:56Z</time>
      </trkpt>
      <trkpt lat="43.59253" lon="3.02186">
        <ele>526.9398</ele>
        <time>2013-06-02T15:12:01Z</time>
      </trkpt>
      <trkpt lat="43.59248" lon="3.02188">
        <ele>525.4978</ele>
        <time>2013-06-02T15:12:03Z</time>
      </trkpt>
      <trkpt lat="43.59242" lon="3.02188">
        <ele>525.9784</ele>
        <time>2013-06-02T15:12:05Z</time>
      </trkpt>
      <trkpt lat="43.59241" lon="3.02179">
        <ele>524.5365</ele>
        <time>2013-06-02T15:12:10Z</time>
      </trkpt>
      <trkpt lat="43.59244" lon="3.02173">
        <ele>522.1332</ele>
        <time>2013-06-02T15:12:13Z</time>
      </trkpt>
      <trkpt lat="43.59247" lon="3.02166">
        <ele>519.7299</ele>
        <time>2013-06-02T15:12:17Z</time>
      </trkpt>
      <trkpt lat="43.59248" lon="3.02164">
        <ele>518.2878</ele>
        <time>2013-06-02T15:12:21Z</time>
      </trkpt>
      <trkpt lat="43.59244" lon="3.02163">
        <ele>519.2493</ele>
        <time>2013-06-02T15:12:24Z</time>
      </trkpt>
      <trkpt lat="43.59242" lon="3.0216">
        <ele>517.3267</ele>
        <time>2013-06-02T15:12:26Z</time>
      </trkpt>
      <trkpt lat="43.59243" lon="3.02159">
        <ele>517.8073</ele>
        <time>2013-06-02T15:12:27Z</time>
      </trkpt>
      <trkpt lat="43.59258" lon="3.02157">
        <ele>514.9233</ele>
        <time>2013-06-02T15:12:35Z</time>
      </trkpt>
      <trkpt lat="43.59261" lon="3.02156">
        <ele>516.3652</ele>
        <time>2013-06-02T15:12:37Z</time>
      </trkpt>
      <trkpt lat="43.59262" lon="3.02153">
        <ele>515.4041</ele>
        <time>2013-06-02T15:12:39Z</time>
      </trkpt>
      <trkpt lat="43.59266" lon="3.02138">
        <ele>514.9233</ele>
        <time>2013-06-02T15:12:44Z</time>
      </trkpt>
      <trkpt lat="43.59263" lon="3.02124">
        <ele>511.5587</ele>
        <time>2013-06-02T15:12:48Z</time>
      </trkpt>
      <trkpt lat="43.59261" lon="3.02119">
        <ele>511.5587</ele>
        <time>2013-06-02T15:12:49Z</time>
      </trkpt>
      <trkpt lat="43.59258" lon="3.02105">
        <ele>508.1941</ele>
        <time>2013-06-02T15:12:52Z</time>
      </trkpt>
      <trkpt lat="43.59258" lon="3.02098">
        <ele>508.1941</ele>
        <time>2013-06-02T15:12:53Z</time>
      </trkpt>
      <trkpt lat="43.59256" lon="3.02085">
        <ele>506.7521</ele>
        <time>2013-06-02T15:12:56Z</time>
      </trkpt>
      <trkpt lat="43.59255" lon="3.02059">
        <ele>504.3489</ele>
        <time>2013-06-02T15:13:02Z</time>
      </trkpt>
      <trkpt lat="43.59255" lon="3.02036">
        <ele>502.4261</ele>
        <time>2013-06-02T15:13:06Z</time>
      </trkpt>
      <trkpt lat="43.59251" lon="3.01997">
        <ele>499.5422</ele>
        <time>2013-06-02T15:13:12Z</time>
      </trkpt>
      <trkpt lat="43.59238" lon="3.01975">
        <ele>497.1389</ele>
        <time>2013-06-02T15:13:17Z</time>
      </trkpt>
      <trkpt lat="43.59234" lon="3.01979">
        <ele>496.6583</ele>
        <time>2013-06-02T15:13:20Z</time>
      </trkpt>
      <trkpt lat="43.59234" lon="3.0198">
        <ele>496.1777</ele>
        <time>2013-06-02T15:13:22Z</time>
      </trkpt>
      <trkpt lat="43.59227" lon="3.01993">
        <ele>492.813</ele>
        <time>2013-06-02T15:13:26Z</time>
      </trkpt>
      <trkpt lat="43.59219" lon="3.02016">
        <ele>489.4484</ele>
        <time>2013-06-02T15:13:35Z</time>
      </trkpt>
      <trkpt lat="43.59217" lon="3.0202">
        <ele>489.4484</ele>
        <time>2013-06-02T15:13:36Z</time>
      </trkpt>
      <trkpt lat="43.59216" lon="3.02024">
        <ele>489.4484</ele>
        <time>2013-06-02T15:13:37Z</time>
      </trkpt>
      <trkpt lat="43.59213" lon="3.02034">
        <ele>486.0837</ele>
        <time>2013-06-02T15:13:39Z</time>
      </trkpt>
      <trkpt lat="43.5921" lon="3.02037">
        <ele>486.0837</ele>
        <time>2013-06-02T15:13:40Z</time>
      </trkpt>
      <trkpt lat="43.59207" lon="3.0204">
        <ele>484.6418</ele>
        <time>2013-06-02T15:13:41Z</time>
      </trkpt>
      <trkpt lat="43.59199" lon="3.02041">
        <ele>483.1998</ele>
        <time>2013-06-02T15:13:44Z</time>
      </trkpt>
      <trkpt lat="43.592" lon="3.02027">
        <ele>481.2772</ele>
        <time>2013-06-02T15:13:49Z</time>
      </trkpt>
      <trkpt lat="43.59194" lon="3.02016">
        <ele>477.9125</ele>
        <time>2013-06-02T15:13:52Z</time>
      </trkpt>
      <trkpt lat="43.5919" lon="3.02009">
        <ele>475.9899</ele>
        <time>2013-06-02T15:13:54Z</time>
      </trkpt>
      <trkpt lat="43.59187" lon="3.01994">
        <ele>474.548</ele>
        <time>2013-06-02T15:13:58Z</time>
      </trkpt>
      <trkpt lat="43.59185" lon="3.01968">
        <ele>473.1061</ele>
        <time>2013-06-02T15:14:04Z</time>
      </trkpt>
      <trkpt lat="43.59177" lon="3.01957">
        <ele>472.1447</ele>
        <time>2013-06-02T15:14:08Z</time>
      </trkpt>
      <trkpt lat="43.59164" lon="3.01945">
        <ele>467.8187</ele>
        <time>2013-06-02T15:14:12Z</time>
      </trkpt>
      <trkpt lat="43.59161" lon="3.01941">
        <ele>467.8187</ele>
        <time>2013-06-02T15:14:13Z</time>
      </trkpt>
      <trkpt lat="43.59144" lon="3.01927">
        <ele>465.4155</ele>
        <time>2013-06-02T15:14:18Z</time>
      </trkpt>
      <trkpt lat="43.5914" lon="3.0193">
        <ele>463.9734</ele>
        <time>2013-06-02T15:14:20Z</time>
      </trkpt>
      <trkpt lat="43.59138" lon="3.01932">
        <ele>464.4541</ele>
        <time>2013-06-02T15:14:21Z</time>
      </trkpt>
      <trkpt lat="43.59123" lon="3.01934">
        <ele>461.5702</ele>
        <time>2013-06-02T15:14:26Z</time>
      </trkpt>
      <trkpt lat="43.59119" lon="3.01938">
        <ele>458.6862</ele>
        <time>2013-06-02T15:14:29Z</time>
      </trkpt>
      <trkpt lat="43.59107" lon="3.01942">
        <ele>456.7635</ele>
        <time>2013-06-02T15:14:33Z</time>
      </trkpt>
      <trkpt lat="43.59099" lon="3.01931">
        <ele>455.3215</ele>
        <time>2013-06-02T15:14:38Z</time>
      </trkpt>
      <trkpt lat="43.59096" lon="3.01937">
        <ele>454.3602</ele>
        <time>2013-06-02T15:14:40Z</time>
      </trkpt>
      <trkpt lat="43.59093" lon="3.01942">
        <ele>451.4763</ele>
        <time>2013-06-02T15:14:42Z</time>
      </trkpt>
      <trkpt lat="43.59089" lon="3.01944">
        <ele>450.515</ele>
        <time>2013-06-02T15:14:47Z</time>
      </trkpt>
      <trkpt lat="43.59079" lon="3.01928">
        <ele>449.073</ele>
        <time>2013-06-02T15:14:52Z</time>
      </trkpt>
      <trkpt lat="43.59073" lon="3.01928">
        <ele>446.6697</ele>
        <time>2013-06-02T15:14:54Z</time>
      </trkpt>
      <trkpt lat="43.59065" lon="3.01927">
        <ele>445.7084</ele>
        <time>2013-06-02T15:14:56Z</time>
      </trkpt>
      <trkpt lat="43.59052" lon="3.01931">
        <ele>441.3824</ele>
        <time>2013-06-02T15:15:02Z</time>
      </trkpt>
      <trkpt lat="43.5905" lon="3.01932">
        <ele>441.3824</ele>
        <time>2013-06-02T15:15:03Z</time>
      </trkpt>
      <trkpt lat="43.59048" lon="3.01933">
        <ele>439.4597</ele>
        <time>2013-06-02T15:15:04Z</time>
      </trkpt>
      <trkpt lat="43.5904" lon="3.01929">
        <ele>439.9404</ele>
        <time>2013-06-02T15:15:07Z</time>
      </trkpt>
      <trkpt lat="43.59035" lon="3.01928">
        <ele>438.9791</ele>
        <time>2013-06-02T15:15:09Z</time>
      </trkpt>
      <trkpt lat="43.5903" lon="3.01929">
        <ele>437.5371</ele>
        <time>2013-06-02T15:15:10Z</time>
      </trkpt>
      <trkpt lat="43.59018" lon="3.01925">
        <ele>435.6145</ele>
        <time>2013-06-02T15:15:13Z</time>
      </trkpt>
      <trkpt lat="43.59015" lon="3.01923">
        <ele>433.2113</ele>
        <time>2013-06-02T15:15:14Z</time>
      </trkpt>
      <trkpt lat="43.59006" lon="3.0192">
        <ele>430.808</ele>
        <time>2013-06-02T15:15:16Z</time>
      </trkpt>
      <trkpt lat="43.58996" lon="3.01917">
        <ele>431.2886</ele>
        <time>2013-06-02T15:15:18Z</time>
      </trkpt>
      <trkpt lat="43.58986" lon="3.01917">
        <ele>430.3273</ele>
        <time>2013-06-02T15:15:20Z</time>
      </trkpt>
      <trkpt lat="43.58974" lon="3.0191">
        <ele>427.924</ele>
        <time>2013-06-02T15:15:23Z</time>
      </trkpt>
      <trkpt lat="43.5897" lon="3.01908">
        <ele>427.924</ele>
        <time>2013-06-02T15:15:24Z</time>
      </trkpt>
      <trkpt lat="43.58955" lon="3.01905">
        <ele>426.4821</ele>
        <time>2013-06-02T15:15:27Z</time>
      </trkpt>
      <trkpt lat="43.58947" lon="3.01903">
        <ele>423.598</ele>
        <time>2013-06-02T15:15:29Z</time>
      </trkpt>
      <trkpt lat="43.58931" lon="3.01894">
        <ele>422.156</ele>
        <time>2013-06-02T15:15:32Z</time>
      </trkpt>
      <trkpt lat="43.58922" lon="3.0189">
        <ele>419.7528</ele>
        <time>2013-06-02T15:15:34Z</time>
      </trkpt>
      <trkpt lat="43.58865" lon="3.01891">
        <ele>419.2722</ele>
        <time>2013-06-02T15:15:46Z</time>
      </trkpt>
      <trkpt lat="43.58847" lon="3.01889">
        <ele>421.1948</ele>
        <time>2013-06-02T15:15:50Z</time>
      </trkpt>
      <trkpt lat="43.58809" lon="3.01893">
        <ele>418.7915</ele>
        <time>2013-06-02T15:16:00Z</time>
      </trkpt>
      <trkpt lat="43.58803" lon="3.01893">
        <ele>417.3496</ele>
        <time>2013-06-02T15:16:02Z</time>
      </trkpt>
      <trkpt lat="43.58785" lon="3.01884">
        <ele>416.3882</ele>
        <time>2013-06-02T15:16:07Z</time>
      </trkpt>
      <trkpt lat="43.5877" lon="3.01871">
        <ele>414.4655</ele>
        <time>2013-06-02T15:16:12Z</time>
      </trkpt>
      <trkpt lat="43.58766" lon="3.01862">
        <ele>411.5817</ele>
        <time>2013-06-02T15:16:14Z</time>
      </trkpt>
      <trkpt lat="43.58756" lon="3.01844">
        <ele>409.1783</ele>
        <time>2013-06-02T15:16:18Z</time>
      </trkpt>
      <trkpt lat="43.5875" lon="3.01836">
        <ele>406.2943</ele>
        <time>2013-06-02T15:16:20Z</time>
      </trkpt>
      <trkpt lat="43.58747" lon="3.01835">
        <ele>405.8137</ele>
        <time>2013-06-02T15:16:21Z</time>
      </trkpt>
      <trkpt lat="43.58734" lon="3.01842">
        <ele>403.4104</ele>
        <time>2013-06-02T15:16:25Z</time>
      </trkpt>
      <trkpt lat="43.58716" lon="3.01852">
        <ele>401.9685</ele>
        <time>2013-06-02T15:16:30Z</time>
      </trkpt>
      <trkpt lat="43.58702" lon="3.0186">
        <ele>399.5651</ele>
        <time>2013-06-02T15:16:33Z</time>
      </trkpt>
      <trkpt lat="43.58691" lon="3.01864">
        <ele>395.7198</ele>
        <time>2013-06-02T15:16:35Z</time>
      </trkpt>
      <trkpt lat="43.58681" lon="3.01865">
        <ele>393.3165</ele>
        <time>2013-06-02T15:16:37Z</time>
      </trkpt>
      <trkpt lat="43.58663" lon="3.01867">
        <ele>392.3553</ele>
        <time>2013-06-02T15:16:40Z</time>
      </trkpt>
      <trkpt lat="43.58637" lon="3.01876">
        <ele>387.068</ele>
        <time>2013-06-02T15:16:45Z</time>
      </trkpt>
      <trkpt lat="43.58615" lon="3.01886">
        <ele>385.626</ele>
        <time>2013-06-02T15:16:48Z</time>
      </trkpt>
      <trkpt lat="43.58603" lon="3.01895">
        <ele>381.7806</ele>
        <time>2013-06-02T15:16:50Z</time>
      </trkpt>
      <trkpt lat="43.58597" lon="3.01898">
        <ele>381.7806</ele>
        <time>2013-06-02T15:16:51Z</time>
      </trkpt>
      <trkpt lat="43.58582" lon="3.01897">
        <ele>379.858</ele>
        <time>2013-06-02T15:16:53Z</time>
      </trkpt>
      <trkpt lat="43.58569" lon="3.01899">
        <ele>379.858</ele>
        <time>2013-06-02T15:17:02Z</time>
      </trkpt>
      <trkpt lat="43.58569" lon="3.01899">
        <ele>380.8195</ele>
        <time>2013-06-02T15:17:18Z</time>
      </trkpt>
      <trkpt lat="43.58569" lon="3.019">
        <ele>379.858</ele>
        <time>2013-06-02T15:17:56Z</time>
      </trkpt>
      <trkpt lat="43.58569" lon="3.019">
        <ele>377.4548</ele>
        <time>2013-06-02T15:18:21Z</time>
      </trkpt>
      <trkpt lat="43.58562" lon="3.01895">
        <ele>378.4161</ele>
        <time>2013-06-02T15:18:25Z</time>
      </trkpt>
      <trkpt lat="43.58554" lon="3.01893">
        <ele>376.4935</ele>
        <time>2013-06-02T15:18:27Z</time>
      </trkpt>
      <trkpt lat="43.58538" lon="3.01888">
        <ele>375.0515</ele>
        <time>2013-06-02T15:18:30Z</time>
      </trkpt>
      <trkpt lat="43.58527" lon="3.01884">
        <ele>373.1289</ele>
        <time>2013-06-02T15:18:32Z</time>
      </trkpt>
      <trkpt lat="43.58513" lon="3.01879">
        <ele>372.6482</ele>
        <time>2013-06-02T15:18:35Z</time>
      </trkpt>
      <trkpt lat="43.58498" lon="3.01863">
        <ele>370.2449</ele>
        <time>2013-06-02T15:18:39Z</time>
      </trkpt>
      <trkpt lat="43.58494" lon="3.01861">
        <ele>369.2837</ele>
        <time>2013-06-02T15:18:52Z</time>
      </trkpt>
      <trkpt lat="43.58494" lon="3.01861">
        <ele>368.803</ele>
        <time>2013-06-02T15:19:12Z</time>
      </trkpt>
      <trkpt lat="43.58494" lon="3.01861">
        <ele>366.3995</ele>
        <time>2013-06-02T15:20:16Z</time>
      </trkpt>
      <trkpt lat="43.58494" lon="3.01861">
        <ele>364.9576</ele>
        <time>2013-06-02T15:21:36Z</time>
      </trkpt>
      <trkpt lat="43.58494" lon="3.01861">
        <ele>366.8802</ele>
        <time>2013-06-02T15:21:43Z</time>
      </trkpt>
      <trkpt lat="43.58494" lon="3.01861">
        <ele>365.4384</ele>
        <time>2013-06-02T15:21:45Z</time>
      </trkpt>
      <trkpt lat="43.58494" lon="3.01861">
        <ele>368.803</ele>
        <time>2013-06-02T15:22:00Z</time>
      </trkpt>
      <trkpt lat="43.58494" lon="3.01861">
        <ele>367.361</ele>
        <time>2013-06-02T15:22:21Z</time>
      </trkpt>
      <trkpt lat="43.58494" lon="3.01861">
        <ele>369.2837</ele>
        <time>2013-06-02T15:22:23Z</time>
      </trkpt>
      <trkpt lat="43.58494" lon="3.01861">
        <ele>367.8416</ele>
        <time>2013-06-02T15:22:44Z</time>
      </trkpt>
      <trkpt lat="43.58494" lon="3.01861">
        <ele>366.3995</ele>
        <time>2013-06-02T15:22:56Z</time>
      </trkpt>
      <trkpt lat="43.58494" lon="3.01861">
        <ele>366.8802</ele>
        <time>2013-06-02T15:23:05Z</time>
      </trkpt>
      <trkpt lat="43.58494" lon="3.01861">
        <ele>366.8802</ele>
        <time>2013-06-02T15:23:09Z</time>
      </trkpt>
      <trkpt lat="43.58494" lon="3.01861">
        <ele>364.9576</ele>
        <time>2013-06-02T15:23:26Z</time>
      </trkpt>
      <trkpt lat="43.58494" lon="3.01861">
        <ele>364.4769</ele>
        <time>2013-06-02T15:24:12Z</time>
      </trkpt>
      <trkpt lat="43.58494" lon="3.01861">
        <ele>365.9189</ele>
        <time>2013-06-02T15:24:16Z</time>
      </trkpt>
      <trkpt lat="43.58494" lon="3.01861">
        <ele>366.8802</ele>
        <time>2013-06-02T15:24:31Z</time>
      </trkpt>
      <trkpt lat="43.58494" lon="3.0186">
        <ele>363.5157</ele>
        <time>2013-06-02T15:25:10Z</time>
      </trkpt>
      <trkpt lat="43.58494" lon="3.0186">
        <ele>363.5157</ele>
        <time>2013-06-02T15:25:11Z</time>
      </trkpt>
      <trkpt lat="43.58494" lon="3.0186">
        <ele>363.9963</ele>
        <time>2013-06-02T15:25:22Z</time>
      </trkpt>
      <trkpt lat="43.58494" lon="3.0186">
        <ele>365.9189</ele>
        <time>2013-06-02T15:26:10Z</time>
      </trkpt>
      <trkpt lat="43.58494" lon="3.0186">
        <ele>365.4384</ele>
        <time>2013-06-02T15:26:17Z</time>
      </trkpt>
      <trkpt lat="43.58495" lon="3.01859">
        <ele>361.5931</ele>
        <time>2013-06-02T15:26:51Z</time>
      </trkpt>
      <trkpt lat="43.58495" lon="3.01859">
        <ele>361.5931</ele>
        <time>2013-06-02T15:26:52Z</time>
      </trkpt>
      <trkpt lat="43.5847" lon="3.01835">
        <ele>359.6704</ele>
        <time>2013-06-02T15:27:14Z</time>
      </trkpt>
      <trkpt lat="43.58466" lon="3.0183">
        <ele>358.2284</ele>
        <time>2013-06-02T15:27:15Z</time>
      </trkpt>
      <trkpt lat="43.58445" lon="3.01807">
        <ele>353.9026</ele>
        <time>2013-06-02T15:27:20Z</time>
      </trkpt>
      <trkpt lat="43.58427" lon="3.01791">
        <ele>352.4606</ele>
        <time>2013-06-02T15:27:23Z</time>
      </trkpt>
      <trkpt lat="43.58413" lon="3.01781">
        <ele>350.5378</ele>
        <time>2013-06-02T15:27:25Z</time>
      </trkpt>
      <trkpt lat="43.58406" lon="3.01775">
        <ele>350.0573</ele>
        <time>2013-06-02T15:27:26Z</time>
      </trkpt>
      <trkpt lat="43.58392" lon="3.01764">
        <ele>348.6152</ele>
        <time>2013-06-02T15:27:28Z</time>
      </trkpt>
      <trkpt lat="43.58388" lon="3.01757">
        <ele>348.6152</ele>
        <time>2013-06-02T15:27:29Z</time>
      </trkpt>
      <trkpt lat="43.58364" lon="3.01699">
        <ele>346.212</ele>
        <time>2013-06-02T15:27:35Z</time>
      </trkpt>
      <trkpt lat="43.58361" lon="3.01691">
        <ele>345.7313</ele>
        <time>2013-06-02T15:27:36Z</time>
      </trkpt>
      <trkpt lat="43.58344" lon="3.0164">
        <ele>344.2894</ele>
        <time>2013-06-02T15:27:42Z</time>
      </trkpt>
      <trkpt lat="43.58328" lon="3.01604">
        <ele>341.886</ele>
        <time>2013-06-02T15:27:46Z</time>
      </trkpt>
      <trkpt lat="43.5832" lon="3.01587">
        <ele>340.4441</ele>
        <time>2013-06-02T15:27:48Z</time>
      </trkpt>
      <trkpt lat="43.5831" lon="3.0156">
        <ele>338.5215</ele>
        <time>2013-06-02T15:27:51Z</time>
      </trkpt>
      <trkpt lat="43.58306" lon="3.01545">
        <ele>336.5989</ele>
        <time>2013-06-02T15:27:53Z</time>
      </trkpt>
      <trkpt lat="43.58303" lon="3.01534">
        <ele>335.6373</ele>
        <time>2013-06-02T15:27:55Z</time>
      </trkpt>
      <trkpt lat="43.58298" lon="3.01539">
        <ele>332.7535</ele>
        <time>2013-06-02T15:28:05Z</time>
      </trkpt>
      <trkpt lat="43.58298" lon="3.0154">
        <ele>333.2341</ele>
        <time>2013-06-02T15:29:32Z</time>
      </trkpt>
      <trkpt lat="43.58295" lon="3.01546">
        <ele>334.6761</ele>
        <time>2013-06-02T15:29:50Z</time>
      </trkpt>
      <trkpt lat="43.58294" lon="3.01546">
        <ele>333.2341</ele>
        <time>2013-06-02T15:29:52Z</time>
      </trkpt>
      <trkpt lat="43.5829" lon="3.01529">
        <ele>330.3502</ele>
        <time>2013-06-02T15:29:58Z</time>
      </trkpt>
      <trkpt lat="43.58288" lon="3.0151">
        <ele>326.5049</ele>
        <time>2013-06-02T15:30:01Z</time>
      </trkpt>
      <trkpt lat="43.58284" lon="3.01462">
        <ele>324.5823</ele>
        <time>2013-06-02T15:30:06Z</time>
      </trkpt>
      <trkpt lat="43.58284" lon="3.01431">
        <ele>323.621</ele>
        <time>2013-06-02T15:30:15Z</time>
      </trkpt>
      <trkpt lat="43.58283" lon="3.01427">
        <ele>325.063</ele>
        <time>2013-06-02T15:30:32Z</time>
      </trkpt>
      <trkpt lat="43.58284" lon="3.01427">
        <ele>325.063</ele>
        <time>2013-06-02T15:31:01Z</time>
      </trkpt>
      <trkpt lat="43.58284" lon="3.01427">
        <ele>323.621</ele>
        <time>2013-06-02T15:31:47Z</time>
      </trkpt>
      <trkpt lat="43.58284" lon="3.01427">
        <ele>322.179</ele>
        <time>2013-06-02T15:32:23Z</time>
      </trkpt>
      <trkpt lat="43.58285" lon="3.01414">
        <ele>321.6984</ele>
        <time>2013-06-02T15:34:13Z</time>
      </trkpt>
      <trkpt lat="43.58284" lon="3.01398">
        <ele>318.3336</ele>
        <time>2013-06-02T15:34:15Z</time>
      </trkpt>
      <trkpt lat="43.58284" lon="3.01389">
        <ele>314.0078</ele>
        <time>2013-06-02T15:34:16Z</time>
      </trkpt>
      <trkpt lat="43.5829" lon="3.01353">
        <ele>312.0852</ele>
        <time>2013-06-02T15:34:22Z</time>
      </trkpt>
      <trkpt lat="43.58288" lon="3.01335">
        <ele>309.6819</ele>
        <time>2013-06-02T15:34:26Z</time>
      </trkpt>
      <trkpt lat="43.58282" lon="3.01334">
        <ele>307.2786</ele>
        <time>2013-06-02T15:34:28Z</time>
      </trkpt>
      <trkpt lat="43.58277" lon="3.01336">
        <ele>306.3173</ele>
        <time>2013-06-02T15:34:31Z</time>
      </trkpt>
      <trkpt lat="43.58269" lon="3.01338">
        <ele>305.356</ele>
        <time>2013-06-02T15:34:40Z</time>
      </trkpt>
      <trkpt lat="43.58266" lon="3.01342">
        <ele>303.9139</ele>
        <time>2013-06-02T15:34:43Z</time>
      </trkpt>
      <trkpt lat="43.58263" lon="3.01345">
        <ele>302.9525</ele>
        <time>2013-06-02T15:34:59Z</time>
      </trkpt>
      <trkpt lat="43.58263" lon="3.0134">
        <ele>302.4719</ele>
        <time>2013-06-02T15:35:52Z</time>
      </trkpt>
      <trkpt lat="43.58263" lon="3.0134">
        <ele>302.4719</ele>
        <time>2013-06-02T15:36:09Z</time>
      </trkpt>
      <trkpt lat="43.5826" lon="3.01351">
        <ele>301.9913</ele>
        <time>2013-06-02T15:36:30Z</time>
      </trkpt>
      <trkpt lat="43.58257" lon="3.01351">
        <ele>299.1073</ele>
        <time>2013-06-02T15:37:00Z</time>
      </trkpt>
      <trkpt lat="43.58254" lon="3.01347">
        <ele>295.262</ele>
        <time>2013-06-02T15:37:11Z</time>
      </trkpt>
      <trkpt lat="43.58253" lon="3.01347">
        <ele>295.262</ele>
        <time>2013-06-02T15:37:12Z</time>
      </trkpt>
      <trkpt lat="43.58253" lon="3.01346">
        <ele>296.7041</ele>
        <time>2013-06-02T15:37:14Z</time>
      </trkpt>
      <trkpt lat="43.58252" lon="3.01343">
        <ele>293.8201</ele>
        <time>2013-06-02T15:37:21Z</time>
      </trkpt>
      <trkpt lat="43.58245" lon="3.01334">
        <ele>291.4167</ele>
        <time>2013-06-02T15:37:34Z</time>
      </trkpt>
      <trkpt lat="43.58249" lon="3.01326">
        <ele>292.3782</ele>
        <time>2013-06-02T15:37:37Z</time>
      </trkpt>
      <trkpt lat="43.58246" lon="3.01323">
        <ele>289.9749</ele>
        <time>2013-06-02T15:37:39Z</time>
      </trkpt>
      <trkpt lat="43.58243" lon="3.0132">
        <ele>287.0908</ele>
        <time>2013-06-02T15:37:41Z</time>
      </trkpt>
      <trkpt lat="43.58234" lon="3.01317">
        <ele>285.6488</ele>
        <time>2013-06-02T15:37:54Z</time>
      </trkpt>
      <trkpt lat="43.5823" lon="3.01313">
        <ele>284.2069</ele>
        <time>2013-06-02T15:37:56Z</time>
      </trkpt>
      <trkpt lat="43.58227" lon="3.01307">
        <ele>281.323</ele>
        <time>2013-06-02T15:38:00Z</time>
      </trkpt>
      <trkpt lat="43.58226" lon="3.01303">
        <ele>279.4003</ele>
        <time>2013-06-02T15:38:03Z</time>
      </trkpt>
      <trkpt lat="43.58226" lon="3.01303">
        <ele>277.9583</ele>
        <time>2013-06-02T15:38:05Z</time>
      </trkpt>
      <trkpt lat="43.58223" lon="3.01303">
        <ele>277.9583</ele>
        <time>2013-06-02T15:38:08Z</time>
      </trkpt>
      <trkpt lat="43.58221" lon="3.01306">
        <ele>275.5551</ele>
        <time>2013-06-02T15:38:11Z</time>
      </trkpt>
      <trkpt lat="43.58221" lon="3.01309">
        <ele>275.0745</ele>
        <time>2013-06-02T15:38:15Z</time>
      </trkpt>
      <trkpt lat="43.5822" lon="3.01309">
        <ele>273.6324</ele>
        <time>2013-06-02T15:38:17Z</time>
      </trkpt>
      <trkpt lat="43.5822" lon="3.01309">
        <ele>274.113</ele>
        <time>2013-06-02T15:38:20Z</time>
      </trkpt>
      <trkpt lat="43.58214" lon="3.01315">
        <ele>269.7871</ele>
        <time>2013-06-02T15:38:38Z</time>
      </trkpt>
      <trkpt lat="43.58215" lon="3.01314">
        <ele>269.3065</ele>
        <time>2013-06-02T15:38:42Z</time>
      </trkpt>
      <trkpt lat="43.58212" lon="3.01311">
        <ele>269.3065</ele>
        <time>2013-06-02T15:38:51Z</time>
      </trkpt>
      <trkpt lat="43.58212" lon="3.01312">
        <ele>266.9032</ele>
        <time>2013-06-02T15:39:00Z</time>
      </trkpt>
      <trkpt lat="43.58208" lon="3.01309">
        <ele>267.3839</ele>
        <time>2013-06-02T15:39:05Z</time>
      </trkpt>
      <trkpt lat="43.58206" lon="3.01305">
        <ele>266.4225</ele>
        <time>2013-06-02T15:39:07Z</time>
      </trkpt>
      <trkpt lat="43.58203" lon="3.01307">
        <ele>264.4999</ele>
        <time>2013-06-02T15:39:10Z</time>
      </trkpt>
      <trkpt lat="43.58203" lon="3.01308">
        <ele>263.0579</ele>
        <time>2013-06-02T15:39:14Z</time>
      </trkpt>
      <trkpt lat="43.58203" lon="3.01308">
        <ele>264.0193</ele>
        <time>2013-06-02T15:39:16Z</time>
      </trkpt>
      <trkpt lat="43.582" lon="3.01312">
        <ele>263.0579</ele>
        <time>2013-06-02T15:39:37Z</time>
      </trkpt>
      <trkpt lat="43.5819" lon="3.01311">
        <ele>260.174</ele>
        <time>2013-06-02T15:39:53Z</time>
      </trkpt>
      <trkpt lat="43.58188" lon="3.01308">
        <ele>257.29</ele>
        <time>2013-06-02T15:40:03Z</time>
      </trkpt>
      <trkpt lat="43.58181" lon="3.01307">
        <ele>254.8866</ele>
        <time>2013-06-02T15:40:22Z</time>
      </trkpt>
      <trkpt lat="43.58178" lon="3.01298">
        <ele>253.9254</ele>
        <time>2013-06-02T15:40:28Z</time>
      </trkpt>
      <trkpt lat="43.58178" lon="3.01298">
        <ele>252.964</ele>
        <time>2013-06-02T15:40:44Z</time>
      </trkpt>
      <trkpt lat="43.58175" lon="3.01283">
        <ele>250.5608</ele>
        <time>2013-06-02T15:40:53Z</time>
      </trkpt>
      <trkpt lat="43.58172" lon="3.0128">
        <ele>250.0802</ele>
        <time>2013-06-02T15:40:55Z</time>
      </trkpt>
      <trkpt lat="43.58171" lon="3.01277">
        <ele>246.7155</ele>
        <time>2013-06-02T15:40:58Z</time>
      </trkpt>
      <trkpt lat="43.5817" lon="3.01277">
        <ele>245.7542</ele>
        <time>2013-06-02T15:41:00Z</time>
      </trkpt>
      <trkpt lat="43.58168" lon="3.01275">
        <ele>244.7928</ele>
        <time>2013-06-02T15:41:02Z</time>
      </trkpt>
      <trkpt lat="43.58166" lon="3.01274">
        <ele>243.3508</ele>
        <time>2013-06-02T15:41:03Z</time>
      </trkpt>
      <trkpt lat="43.5816" lon="3.01264">
        <ele>241.9089</ele>
        <time>2013-06-02T15:41:06Z</time>
      </trkpt>
      <trkpt lat="43.58156" lon="3.01258">
        <ele>239.9862</ele>
        <time>2013-06-02T15:41:08Z</time>
      </trkpt>
      <trkpt lat="43.58148" lon="3.01242">
        <ele>236.6217</ele>
        <time>2013-06-02T15:41:22Z</time>
      </trkpt>
      <trkpt lat="43.58144" lon="3.01243">
        <ele>234.6991</ele>
        <time>2013-06-02T15:41:33Z</time>
      </trkpt>
      <trkpt lat="43.58141" lon="3.01244">
        <ele>233.2571</ele>
        <time>2013-06-02T15:41:35Z</time>
      </trkpt>
      <trkpt lat="43.58129" lon="3.01251">
        <ele>230.8538</ele>
        <time>2013-06-02T15:41:40Z</time>
      </trkpt>
      <trkpt lat="43.58124" lon="3.01256">
        <ele>229.4117</ele>
        <time>2013-06-02T15:41:42Z</time>
      </trkpt>
      <trkpt lat="43.58104" lon="3.01262">
        <ele>226.0471</ele>
        <time>2013-06-02T15:41:48Z</time>
      </trkpt>
      <trkpt lat="43.58102" lon="3.01262">
        <ele>226.0471</ele>
        <time>2013-06-02T15:41:49Z</time>
      </trkpt>
      <trkpt lat="43.58087" lon="3.012">
        <ele>226.0471</ele>
        <time>2013-06-02T15:42:01Z</time>
      </trkpt>
      <trkpt lat="43.58079" lon="3.01182">
        <ele>225.0859</ele>
        <time>2013-06-02T15:42:08Z</time>
      </trkpt>
      <trkpt lat="43.58078" lon="3.01189">
        <ele>225.5665</ele>
        <time>2013-06-02T15:42:12Z</time>
      </trkpt>
      <trkpt lat="43.58081" lon="3.01198">
        <ele>225.0859</ele>
        <time>2013-06-02T15:42:14Z</time>
      </trkpt>
      <trkpt lat="43.58096" lon="3.01265">
        <ele>226.0471</ele>
        <time>2013-06-02T15:42:30Z</time>
      </trkpt>
      <trkpt lat="43.581" lon="3.01262">
        <ele>227.4891</ele>
        <time>2013-06-02T15:42:34Z</time>
      </trkpt>
      <trkpt lat="43.58085" lon="3.01194">
        <ele>223.6438</ele>
        <time>2013-06-02T15:42:47Z</time>
      </trkpt>
      <trkpt lat="43.58068" lon="3.01165">
        <ele>221.7212</ele>
        <time>2013-06-02T15:42:53Z</time>
      </trkpt>
      <trkpt lat="43.58046" lon="3.01119">
        <ele>223.1632</ele>
        <time>2013-06-02T15:43:02Z</time>
      </trkpt>
      <trkpt lat="43.58025" lon="3.01092">
        <ele>222.6825</ele>
        <time>2013-06-02T15:43:07Z</time>
      </trkpt>
      <trkpt lat="43.5801" lon="3.01076">
        <ele>221.2406</ele>
        <time>2013-06-02T15:43:10Z</time>
      </trkpt>
      <trkpt lat="43.58006" lon="3.01071">
        <ele>221.2406</ele>
        <time>2013-06-02T15:43:11Z</time>
      </trkpt>
      <trkpt lat="43.57991" lon="3.01036">
        <ele>220.7599</ele>
        <time>2013-06-02T15:43:16Z</time>
      </trkpt>
      <trkpt lat="43.57984" lon="3.01011">
        <ele>218.8373</ele>
        <time>2013-06-02T15:43:19Z</time>
      </trkpt>
      <trkpt lat="43.57982" lon="3.01002">
        <ele>218.3566</ele>
        <time>2013-06-02T15:43:20Z</time>
      </trkpt>
      <trkpt lat="43.5795" lon="3.00936">
        <ele>215.9532</ele>
        <time>2013-06-02T15:43:28Z</time>
      </trkpt>
      <trkpt lat="43.57919" lon="3.00876">
        <ele>213.55</ele>
        <time>2013-06-02T15:43:35Z</time>
      </trkpt>
      <trkpt lat="43.57911" lon="3.00861">
        <ele>214.9919</ele>
        <time>2013-06-02T15:43:37Z</time>
      </trkpt>
      <trkpt lat="43.57899" lon="3.00839">
        <ele>214.9919</ele>
        <time>2013-06-02T15:43:40Z</time>
      </trkpt>
      <trkpt lat="43.57866" lon="3.00792">
        <ele>214.0306</ele>
        <time>2013-06-02T15:43:47Z</time>
      </trkpt>
      <trkpt lat="43.57834" lon="3.00755">
        <ele>211.6274</ele>
        <time>2013-06-02T15:43:53Z</time>
      </trkpt>
      <trkpt lat="43.57815" lon="3.00729">
        <ele>210.666</ele>
        <time>2013-06-02T15:43:57Z</time>
      </trkpt>
      <trkpt lat="43.57801" lon="3.00694">
        <ele>209.7048</ele>
        <time>2013-06-02T15:44:02Z</time>
      </trkpt>
    </trkseg>
  </trk>
</gpx>